<?xml version="1.0" encoding="UTF-8" standalone="no" ?>
<gpx xmlns="http://www.topografix.com/GPX/1/1" xmlns:xsi="http://www.w3.org/2001/XMLSchema-instance" xsi:schemaLocation="http://www.topografix.com/GPX/1/1 http://www.topografix.com/GPX/1/1/gpx.xsd" version="1.1" creator="VisuGPX - https://www.visugpx.com">
  <metadata>
    <name>2020-07-19 : Balcons Tarentaise</name>
  </metadata>
  <trk>
    <name><![CDATA[2020-07-19 : Balcons Tarentaise_1]]></name>
    <trkseg>
      <trkpt lat="45.48406" lon="6.53485">
        <ele>562.4</ele>
        <time>2020-07-19T08:27:36Z</time>
      </trkpt>
      <trkpt lat="45.48399" lon="6.53504">
        <ele>562.6</ele>
        <time>2020-07-19T08:27:40Z</time>
      </trkpt>
      <trkpt lat="45.48391" lon="6.53522">
        <ele>562.8</ele>
        <time>2020-07-19T08:27:44Z</time>
      </trkpt>
      <trkpt lat="45.48382" lon="6.53539">
        <ele>563.4</ele>
        <time>2020-07-19T08:27:48Z</time>
      </trkpt>
      <trkpt lat="45.48371" lon="6.53549">
        <ele>564.6</ele>
        <time>2020-07-19T08:27:52Z</time>
      </trkpt>
      <trkpt lat="45.48359" lon="6.53555">
        <ele>565.6</ele>
        <time>2020-07-19T08:27:56Z</time>
      </trkpt>
      <trkpt lat="45.48349" lon="6.53561">
        <ele>565.8</ele>
        <time>2020-07-19T08:28:00Z</time>
      </trkpt>
      <trkpt lat="45.48339" lon="6.53569">
        <ele>567</ele>
        <time>2020-07-19T08:28:04Z</time>
      </trkpt>
      <trkpt lat="45.48327" lon="6.53579">
        <ele>566.6</ele>
        <time>2020-07-19T08:28:08Z</time>
      </trkpt>
      <trkpt lat="45.48318" lon="6.53592">
        <ele>566.6</ele>
        <time>2020-07-19T08:28:12Z</time>
      </trkpt>
      <trkpt lat="45.48309" lon="6.53606">
        <ele>567.6</ele>
        <time>2020-07-19T08:28:16Z</time>
      </trkpt>
      <trkpt lat="45.48301" lon="6.5362">
        <ele>566.6</ele>
        <time>2020-07-19T08:28:20Z</time>
      </trkpt>
      <trkpt lat="45.48292" lon="6.53629">
        <ele>567</ele>
        <time>2020-07-19T08:28:24Z</time>
      </trkpt>
      <trkpt lat="45.48287" lon="6.53649">
        <ele>567.6</ele>
        <time>2020-07-19T08:28:28Z</time>
      </trkpt>
      <trkpt lat="45.4829" lon="6.53672">
        <ele>568.2</ele>
        <time>2020-07-19T08:28:32Z</time>
      </trkpt>
      <trkpt lat="45.48297" lon="6.53692">
        <ele>569</ele>
        <time>2020-07-19T08:28:36Z</time>
      </trkpt>
      <trkpt lat="45.48306" lon="6.53711">
        <ele>568.8</ele>
        <time>2020-07-19T08:28:40Z</time>
      </trkpt>
      <trkpt lat="45.48315" lon="6.53729">
        <ele>569</ele>
        <time>2020-07-19T08:28:44Z</time>
      </trkpt>
      <trkpt lat="45.48325" lon="6.53746">
        <ele>569</ele>
        <time>2020-07-19T08:28:48Z</time>
      </trkpt>
      <trkpt lat="45.48336" lon="6.53764">
        <ele>568.6</ele>
        <time>2020-07-19T08:28:52Z</time>
      </trkpt>
      <trkpt lat="45.48349" lon="6.53781">
        <ele>568.4</ele>
        <time>2020-07-19T08:28:56Z</time>
      </trkpt>
      <trkpt lat="45.48361" lon="6.53797">
        <ele>568.6</ele>
        <time>2020-07-19T08:29:00Z</time>
      </trkpt>
      <trkpt lat="45.48371" lon="6.53811">
        <ele>568.6</ele>
        <time>2020-07-19T08:29:04Z</time>
      </trkpt>
      <trkpt lat="45.48383" lon="6.53827">
        <ele>569</ele>
        <time>2020-07-19T08:29:08Z</time>
      </trkpt>
      <trkpt lat="45.48396" lon="6.53843">
        <ele>568.8</ele>
        <time>2020-07-19T08:29:12Z</time>
      </trkpt>
      <trkpt lat="45.4841" lon="6.53861">
        <ele>568.4</ele>
        <time>2020-07-19T08:29:16Z</time>
      </trkpt>
      <trkpt lat="45.48424" lon="6.53881">
        <ele>568.6</ele>
        <time>2020-07-19T08:29:20Z</time>
      </trkpt>
      <trkpt lat="45.48436" lon="6.53902">
        <ele>568.2</ele>
        <time>2020-07-19T08:29:24Z</time>
      </trkpt>
      <trkpt lat="45.48449" lon="6.5393">
        <ele>568.6</ele>
        <time>2020-07-19T08:29:28Z</time>
      </trkpt>
      <trkpt lat="45.48458" lon="6.53956">
        <ele>568.6</ele>
        <time>2020-07-19T08:29:32Z</time>
      </trkpt>
      <trkpt lat="45.48464" lon="6.53982">
        <ele>569.2</ele>
        <time>2020-07-19T08:29:36Z</time>
      </trkpt>
      <trkpt lat="45.48466" lon="6.54007">
        <ele>568.6</ele>
        <time>2020-07-19T08:29:40Z</time>
      </trkpt>
      <trkpt lat="45.48467" lon="6.54032">
        <ele>569</ele>
        <time>2020-07-19T08:29:44Z</time>
      </trkpt>
      <trkpt lat="45.48464" lon="6.54055">
        <ele>568.6</ele>
        <time>2020-07-19T08:29:48Z</time>
      </trkpt>
      <trkpt lat="45.48463" lon="6.54077">
        <ele>569.4</ele>
        <time>2020-07-19T08:29:52Z</time>
      </trkpt>
      <trkpt lat="45.48461" lon="6.54099">
        <ele>570.4</ele>
        <time>2020-07-19T08:29:56Z</time>
      </trkpt>
      <trkpt lat="45.4846" lon="6.54122">
        <ele>571</ele>
        <time>2020-07-19T08:30:00Z</time>
      </trkpt>
      <trkpt lat="45.48459" lon="6.54144">
        <ele>570.4</ele>
        <time>2020-07-19T08:30:04Z</time>
      </trkpt>
      <trkpt lat="45.48459" lon="6.54167">
        <ele>571.2</ele>
        <time>2020-07-19T08:30:08Z</time>
      </trkpt>
      <trkpt lat="45.4846" lon="6.5419">
        <ele>571</ele>
        <time>2020-07-19T08:30:12Z</time>
      </trkpt>
      <trkpt lat="45.48463" lon="6.54213">
        <ele>571</ele>
        <time>2020-07-19T08:30:16Z</time>
      </trkpt>
      <trkpt lat="45.48466" lon="6.54235">
        <ele>571.4</ele>
        <time>2020-07-19T08:30:20Z</time>
      </trkpt>
      <trkpt lat="45.48471" lon="6.54256">
        <ele>572</ele>
        <time>2020-07-19T08:30:24Z</time>
      </trkpt>
      <trkpt lat="45.48477" lon="6.54277">
        <ele>572.2</ele>
        <time>2020-07-19T08:30:28Z</time>
      </trkpt>
      <trkpt lat="45.48483" lon="6.54297">
        <ele>572.8</ele>
        <time>2020-07-19T08:30:32Z</time>
      </trkpt>
      <trkpt lat="45.4849" lon="6.54317">
        <ele>573.6</ele>
        <time>2020-07-19T08:30:36Z</time>
      </trkpt>
      <trkpt lat="45.48498" lon="6.54337">
        <ele>574</ele>
        <time>2020-07-19T08:30:40Z</time>
      </trkpt>
      <trkpt lat="45.48507" lon="6.54356">
        <ele>574.6</ele>
        <time>2020-07-19T08:30:44Z</time>
      </trkpt>
      <trkpt lat="45.48517" lon="6.54373">
        <ele>574.4</ele>
        <time>2020-07-19T08:30:48Z</time>
      </trkpt>
      <trkpt lat="45.48528" lon="6.5439">
        <ele>575</ele>
        <time>2020-07-19T08:30:52Z</time>
      </trkpt>
      <trkpt lat="45.4854" lon="6.54405">
        <ele>574.8</ele>
        <time>2020-07-19T08:30:56Z</time>
      </trkpt>
      <trkpt lat="45.48553" lon="6.54421">
        <ele>575.2</ele>
        <time>2020-07-19T08:31:00Z</time>
      </trkpt>
      <trkpt lat="45.48566" lon="6.54436">
        <ele>575.6</ele>
        <time>2020-07-19T08:31:04Z</time>
      </trkpt>
      <trkpt lat="45.48579" lon="6.5445">
        <ele>576</ele>
        <time>2020-07-19T08:31:08Z</time>
      </trkpt>
      <trkpt lat="45.48593" lon="6.54465">
        <ele>576.2</ele>
        <time>2020-07-19T08:31:12Z</time>
      </trkpt>
      <trkpt lat="45.48607" lon="6.54479">
        <ele>575.8</ele>
        <time>2020-07-19T08:31:16Z</time>
      </trkpt>
      <trkpt lat="45.48621" lon="6.54494">
        <ele>576.8</ele>
        <time>2020-07-19T08:31:20Z</time>
      </trkpt>
      <trkpt lat="45.48636" lon="6.54507">
        <ele>576.6</ele>
        <time>2020-07-19T08:31:24Z</time>
      </trkpt>
      <trkpt lat="45.4865" lon="6.5452">
        <ele>576.8</ele>
        <time>2020-07-19T08:31:28Z</time>
      </trkpt>
      <trkpt lat="45.48665" lon="6.54534">
        <ele>576.8</ele>
        <time>2020-07-19T08:31:32Z</time>
      </trkpt>
      <trkpt lat="45.4868" lon="6.54547">
        <ele>576.6</ele>
        <time>2020-07-19T08:31:36Z</time>
      </trkpt>
      <trkpt lat="45.48695" lon="6.54559">
        <ele>576.4</ele>
        <time>2020-07-19T08:31:40Z</time>
      </trkpt>
      <trkpt lat="45.48709" lon="6.54572">
        <ele>576.8</ele>
        <time>2020-07-19T08:31:44Z</time>
      </trkpt>
      <trkpt lat="45.48724" lon="6.54586">
        <ele>577.4</ele>
        <time>2020-07-19T08:31:48Z</time>
      </trkpt>
      <trkpt lat="45.48738" lon="6.546">
        <ele>576.8</ele>
        <time>2020-07-19T08:31:52Z</time>
      </trkpt>
      <trkpt lat="45.48753" lon="6.54615">
        <ele>577.2</ele>
        <time>2020-07-19T08:31:56Z</time>
      </trkpt>
      <trkpt lat="45.48767" lon="6.54631">
        <ele>577.4</ele>
        <time>2020-07-19T08:32:00Z</time>
      </trkpt>
      <trkpt lat="45.48781" lon="6.54647">
        <ele>577.6</ele>
        <time>2020-07-19T08:32:04Z</time>
      </trkpt>
      <trkpt lat="45.48795" lon="6.54663">
        <ele>577.6</ele>
        <time>2020-07-19T08:32:08Z</time>
      </trkpt>
      <trkpt lat="45.48808" lon="6.5468">
        <ele>578.2</ele>
        <time>2020-07-19T08:32:12Z</time>
      </trkpt>
      <trkpt lat="45.48822" lon="6.54696">
        <ele>578.2</ele>
        <time>2020-07-19T08:32:16Z</time>
      </trkpt>
      <trkpt lat="45.48836" lon="6.54713">
        <ele>578</ele>
        <time>2020-07-19T08:32:20Z</time>
      </trkpt>
      <trkpt lat="45.48849" lon="6.54731">
        <ele>578.8</ele>
        <time>2020-07-19T08:32:24Z</time>
      </trkpt>
      <trkpt lat="45.48862" lon="6.54747">
        <ele>578.8</ele>
        <time>2020-07-19T08:32:28Z</time>
      </trkpt>
      <trkpt lat="45.48875" lon="6.54764">
        <ele>579.6</ele>
        <time>2020-07-19T08:32:32Z</time>
      </trkpt>
      <trkpt lat="45.4889" lon="6.54784">
        <ele>579.4</ele>
        <time>2020-07-19T08:32:36Z</time>
      </trkpt>
      <trkpt lat="45.48902" lon="6.548">
        <ele>580.6</ele>
        <time>2020-07-19T08:32:40Z</time>
      </trkpt>
      <trkpt lat="45.48914" lon="6.54815">
        <ele>581</ele>
        <time>2020-07-19T08:32:44Z</time>
      </trkpt>
      <trkpt lat="45.48925" lon="6.54831">
        <ele>581.4</ele>
        <time>2020-07-19T08:32:48Z</time>
      </trkpt>
      <trkpt lat="45.48937" lon="6.54846">
        <ele>582.2</ele>
        <time>2020-07-19T08:32:52Z</time>
      </trkpt>
      <trkpt lat="45.48948" lon="6.54862">
        <ele>582.6</ele>
        <time>2020-07-19T08:32:56Z</time>
      </trkpt>
      <trkpt lat="45.48961" lon="6.54877">
        <ele>583</ele>
        <time>2020-07-19T08:33:00Z</time>
      </trkpt>
      <trkpt lat="45.48973" lon="6.54891">
        <ele>583</ele>
        <time>2020-07-19T08:33:04Z</time>
      </trkpt>
      <trkpt lat="45.48985" lon="6.54907">
        <ele>583.6</ele>
        <time>2020-07-19T08:33:08Z</time>
      </trkpt>
      <trkpt lat="45.48998" lon="6.54923">
        <ele>584</ele>
        <time>2020-07-19T08:33:12Z</time>
      </trkpt>
      <trkpt lat="45.4901" lon="6.54939">
        <ele>584</ele>
        <time>2020-07-19T08:33:16Z</time>
      </trkpt>
      <trkpt lat="45.49024" lon="6.54956">
        <ele>584.4</ele>
        <time>2020-07-19T08:33:20Z</time>
      </trkpt>
      <trkpt lat="45.49038" lon="6.54973">
        <ele>584</ele>
        <time>2020-07-19T08:33:24Z</time>
      </trkpt>
      <trkpt lat="45.49052" lon="6.54989">
        <ele>583.6</ele>
        <time>2020-07-19T08:33:28Z</time>
      </trkpt>
      <trkpt lat="45.49067" lon="6.55004">
        <ele>583.8</ele>
        <time>2020-07-19T08:33:32Z</time>
      </trkpt>
      <trkpt lat="45.49084" lon="6.55019">
        <ele>583.8</ele>
        <time>2020-07-19T08:33:36Z</time>
      </trkpt>
      <trkpt lat="45.49102" lon="6.55032">
        <ele>581.8</ele>
        <time>2020-07-19T08:33:40Z</time>
      </trkpt>
      <trkpt lat="45.49124" lon="6.55044">
        <ele>581.4</ele>
        <time>2020-07-19T08:33:44Z</time>
      </trkpt>
      <trkpt lat="45.49147" lon="6.55056">
        <ele>580</ele>
        <time>2020-07-19T08:33:48Z</time>
      </trkpt>
      <trkpt lat="45.49172" lon="6.55069">
        <ele>578.4</ele>
        <time>2020-07-19T08:33:52Z</time>
      </trkpt>
      <trkpt lat="45.49199" lon="6.55083">
        <ele>577.8</ele>
        <time>2020-07-19T08:33:56Z</time>
      </trkpt>
      <trkpt lat="45.49224" lon="6.55098">
        <ele>577</ele>
        <time>2020-07-19T08:34:00Z</time>
      </trkpt>
      <trkpt lat="45.49251" lon="6.55116">
        <ele>577.6</ele>
        <time>2020-07-19T08:34:04Z</time>
      </trkpt>
      <trkpt lat="45.49274" lon="6.55136">
        <ele>577.8</ele>
        <time>2020-07-19T08:34:08Z</time>
      </trkpt>
      <trkpt lat="45.49296" lon="6.55155">
        <ele>578.6</ele>
        <time>2020-07-19T08:34:12Z</time>
      </trkpt>
      <trkpt lat="45.49315" lon="6.55178">
        <ele>578</ele>
        <time>2020-07-19T08:34:16Z</time>
      </trkpt>
      <trkpt lat="45.49334" lon="6.55196">
        <ele>578.4</ele>
        <time>2020-07-19T08:34:20Z</time>
      </trkpt>
      <trkpt lat="45.49352" lon="6.55213">
        <ele>578.2</ele>
        <time>2020-07-19T08:34:24Z</time>
      </trkpt>
      <trkpt lat="45.4937" lon="6.55229">
        <ele>578.8</ele>
        <time>2020-07-19T08:34:28Z</time>
      </trkpt>
      <trkpt lat="45.49387" lon="6.55245">
        <ele>579.4</ele>
        <time>2020-07-19T08:34:32Z</time>
      </trkpt>
      <trkpt lat="45.49403" lon="6.5526">
        <ele>579.6</ele>
        <time>2020-07-19T08:34:36Z</time>
      </trkpt>
      <trkpt lat="45.49418" lon="6.55275">
        <ele>580.6</ele>
        <time>2020-07-19T08:34:40Z</time>
      </trkpt>
      <trkpt lat="45.49434" lon="6.5529">
        <ele>580.6</ele>
        <time>2020-07-19T08:34:44Z</time>
      </trkpt>
      <trkpt lat="45.4945" lon="6.55305">
        <ele>581.4</ele>
        <time>2020-07-19T08:34:48Z</time>
      </trkpt>
      <trkpt lat="45.49464" lon="6.55319">
        <ele>582</ele>
        <time>2020-07-19T08:34:52Z</time>
      </trkpt>
      <trkpt lat="45.49477" lon="6.55332">
        <ele>582.4</ele>
        <time>2020-07-19T08:34:56Z</time>
      </trkpt>
      <trkpt lat="45.4949" lon="6.55346">
        <ele>582.6</ele>
        <time>2020-07-19T08:35:00Z</time>
      </trkpt>
      <trkpt lat="45.49501" lon="6.55362">
        <ele>582.2</ele>
        <time>2020-07-19T08:35:04Z</time>
      </trkpt>
      <trkpt lat="45.49512" lon="6.55381">
        <ele>581.2</ele>
        <time>2020-07-19T08:35:08Z</time>
      </trkpt>
      <trkpt lat="45.49524" lon="6.55406">
        <ele>580.2</ele>
        <time>2020-07-19T08:35:12Z</time>
      </trkpt>
      <trkpt lat="45.49533" lon="6.55438">
        <ele>579.8</ele>
        <time>2020-07-19T08:35:16Z</time>
      </trkpt>
      <trkpt lat="45.49539" lon="6.55466">
        <ele>580.8</ele>
        <time>2020-07-19T08:35:20Z</time>
      </trkpt>
      <trkpt lat="45.49541" lon="6.5549">
        <ele>580.6</ele>
        <time>2020-07-19T08:35:24Z</time>
      </trkpt>
      <trkpt lat="45.49543" lon="6.55514">
        <ele>580.8</ele>
        <time>2020-07-19T08:35:28Z</time>
      </trkpt>
      <trkpt lat="45.49545" lon="6.55537">
        <ele>581</ele>
        <time>2020-07-19T08:35:32Z</time>
      </trkpt>
      <trkpt lat="45.49547" lon="6.55562">
        <ele>581.2</ele>
        <time>2020-07-19T08:35:36Z</time>
      </trkpt>
      <trkpt lat="45.49546" lon="6.55585">
        <ele>581.4</ele>
        <time>2020-07-19T08:35:40Z</time>
      </trkpt>
      <trkpt lat="45.49542" lon="6.55606">
        <ele>581</ele>
        <time>2020-07-19T08:35:44Z</time>
      </trkpt>
      <trkpt lat="45.49536" lon="6.55627">
        <ele>581.4</ele>
        <time>2020-07-19T08:35:48Z</time>
      </trkpt>
      <trkpt lat="45.49529" lon="6.55646">
        <ele>582</ele>
        <time>2020-07-19T08:35:52Z</time>
      </trkpt>
      <trkpt lat="45.49524" lon="6.55666">
        <ele>582.4</ele>
        <time>2020-07-19T08:35:56Z</time>
      </trkpt>
      <trkpt lat="45.49517" lon="6.55686">
        <ele>582.2</ele>
        <time>2020-07-19T08:36:00Z</time>
      </trkpt>
      <trkpt lat="45.4951" lon="6.55707">
        <ele>582</ele>
        <time>2020-07-19T08:36:04Z</time>
      </trkpt>
      <trkpt lat="45.49503" lon="6.55728">
        <ele>582.8</ele>
        <time>2020-07-19T08:36:08Z</time>
      </trkpt>
      <trkpt lat="45.49496" lon="6.55748">
        <ele>582</ele>
        <time>2020-07-19T08:36:12Z</time>
      </trkpt>
      <trkpt lat="45.4949" lon="6.5577">
        <ele>583.4</ele>
        <time>2020-07-19T08:36:16Z</time>
      </trkpt>
      <trkpt lat="45.49486" lon="6.55792">
        <ele>583.2</ele>
        <time>2020-07-19T08:36:20Z</time>
      </trkpt>
      <trkpt lat="45.49485" lon="6.55814">
        <ele>583.4</ele>
        <time>2020-07-19T08:36:24Z</time>
      </trkpt>
      <trkpt lat="45.49486" lon="6.55837">
        <ele>583.6</ele>
        <time>2020-07-19T08:36:28Z</time>
      </trkpt>
      <trkpt lat="45.49487" lon="6.55859">
        <ele>584</ele>
        <time>2020-07-19T08:36:32Z</time>
      </trkpt>
      <trkpt lat="45.49484" lon="6.55879">
        <ele>584</ele>
        <time>2020-07-19T08:36:36Z</time>
      </trkpt>
      <trkpt lat="45.49483" lon="6.55901">
        <ele>584.6</ele>
        <time>2020-07-19T08:36:40Z</time>
      </trkpt>
      <trkpt lat="45.49486" lon="6.55923">
        <ele>585</ele>
        <time>2020-07-19T08:36:44Z</time>
      </trkpt>
      <trkpt lat="45.4949" lon="6.55943">
        <ele>586</ele>
        <time>2020-07-19T08:36:48Z</time>
      </trkpt>
      <trkpt lat="45.49492" lon="6.55965">
        <ele>586.2</ele>
        <time>2020-07-19T08:36:52Z</time>
      </trkpt>
      <trkpt lat="45.49484" lon="6.55982">
        <ele>586.6</ele>
        <time>2020-07-19T08:36:56Z</time>
      </trkpt>
      <trkpt lat="45.49473" lon="6.55994">
        <ele>587</ele>
        <time>2020-07-19T08:37:00Z</time>
      </trkpt>
      <trkpt lat="45.49462" lon="6.56004">
        <ele>587.2</ele>
        <time>2020-07-19T08:37:04Z</time>
      </trkpt>
      <trkpt lat="45.49455" lon="6.56014">
        <ele>588.2</ele>
        <time>2020-07-19T08:37:08Z</time>
      </trkpt>
      <trkpt lat="45.49481" lon="6.56043">
        <ele>588.2</ele>
        <time>2020-07-19T08:41:34Z</time>
      </trkpt>
      <trkpt lat="45.4948" lon="6.56053">
        <ele>589.2</ele>
        <time>2020-07-19T08:41:38Z</time>
      </trkpt>
      <trkpt lat="45.49479" lon="6.56064">
        <ele>589.6</ele>
        <time>2020-07-19T08:41:42Z</time>
      </trkpt>
      <trkpt lat="45.49478" lon="6.56072">
        <ele>590.6</ele>
        <time>2020-07-19T08:41:46Z</time>
      </trkpt>
      <trkpt lat="45.49478" lon="6.56082">
        <ele>591.6</ele>
        <time>2020-07-19T08:41:50Z</time>
      </trkpt>
      <trkpt lat="45.49478" lon="6.56091">
        <ele>591.8</ele>
        <time>2020-07-19T08:41:54Z</time>
      </trkpt>
      <trkpt lat="45.49481" lon="6.56102">
        <ele>592.8</ele>
        <time>2020-07-19T08:41:58Z</time>
      </trkpt>
      <trkpt lat="45.49483" lon="6.56113">
        <ele>593.6</ele>
        <time>2020-07-19T08:42:02Z</time>
      </trkpt>
      <trkpt lat="45.49486" lon="6.56124">
        <ele>594</ele>
        <time>2020-07-19T08:42:06Z</time>
      </trkpt>
      <trkpt lat="45.49489" lon="6.56134">
        <ele>595</ele>
        <time>2020-07-19T08:42:10Z</time>
      </trkpt>
      <trkpt lat="45.49491" lon="6.56144">
        <ele>595.6</ele>
        <time>2020-07-19T08:42:14Z</time>
      </trkpt>
      <trkpt lat="45.49496" lon="6.56154">
        <ele>596.6</ele>
        <time>2020-07-19T08:42:18Z</time>
      </trkpt>
      <trkpt lat="45.495" lon="6.56165">
        <ele>596.8</ele>
        <time>2020-07-19T08:42:22Z</time>
      </trkpt>
      <trkpt lat="45.49502" lon="6.56175">
        <ele>597.6</ele>
        <time>2020-07-19T08:42:26Z</time>
      </trkpt>
      <trkpt lat="45.49504" lon="6.56184">
        <ele>598.4</ele>
        <time>2020-07-19T08:42:30Z</time>
      </trkpt>
      <trkpt lat="45.49505" lon="6.56193">
        <ele>598.8</ele>
        <time>2020-07-19T08:42:34Z</time>
      </trkpt>
      <trkpt lat="45.49506" lon="6.56198">
        <ele>600.2</ele>
        <time>2020-07-19T08:42:38Z</time>
      </trkpt>
      <trkpt lat="45.49512" lon="6.56205">
        <ele>600.6</ele>
        <time>2020-07-19T08:42:42Z</time>
      </trkpt>
      <trkpt lat="45.49515" lon="6.56213">
        <ele>601</ele>
        <time>2020-07-19T08:42:46Z</time>
      </trkpt>
      <trkpt lat="45.4952" lon="6.56221">
        <ele>601.6</ele>
        <time>2020-07-19T08:42:50Z</time>
      </trkpt>
      <trkpt lat="45.49526" lon="6.56231">
        <ele>602.4</ele>
        <time>2020-07-19T08:42:54Z</time>
      </trkpt>
      <trkpt lat="45.49531" lon="6.56238">
        <ele>603.2</ele>
        <time>2020-07-19T08:42:58Z</time>
      </trkpt>
      <trkpt lat="45.49536" lon="6.56243">
        <ele>604</ele>
        <time>2020-07-19T08:43:02Z</time>
      </trkpt>
      <trkpt lat="45.49541" lon="6.56249">
        <ele>604</ele>
        <time>2020-07-19T08:43:06Z</time>
      </trkpt>
      <trkpt lat="45.49547" lon="6.56253">
        <ele>605.4</ele>
        <time>2020-07-19T08:43:10Z</time>
      </trkpt>
      <trkpt lat="45.49554" lon="6.56257">
        <ele>606</ele>
        <time>2020-07-19T08:43:14Z</time>
      </trkpt>
      <trkpt lat="45.49562" lon="6.56262">
        <ele>606.6</ele>
        <time>2020-07-19T08:43:18Z</time>
      </trkpt>
      <trkpt lat="45.4957" lon="6.56268">
        <ele>607.4</ele>
        <time>2020-07-19T08:43:22Z</time>
      </trkpt>
      <trkpt lat="45.49577" lon="6.56271">
        <ele>608.2</ele>
        <time>2020-07-19T08:43:26Z</time>
      </trkpt>
      <trkpt lat="45.49585" lon="6.56274">
        <ele>609</ele>
        <time>2020-07-19T08:43:30Z</time>
      </trkpt>
      <trkpt lat="45.49593" lon="6.56279">
        <ele>608.8</ele>
        <time>2020-07-19T08:43:34Z</time>
      </trkpt>
      <trkpt lat="45.49603" lon="6.56284">
        <ele>609.6</ele>
        <time>2020-07-19T08:43:38Z</time>
      </trkpt>
      <trkpt lat="45.4961" lon="6.56287">
        <ele>610.6</ele>
        <time>2020-07-19T08:43:42Z</time>
      </trkpt>
      <trkpt lat="45.49617" lon="6.56288">
        <ele>610.4</ele>
        <time>2020-07-19T08:43:46Z</time>
      </trkpt>
      <trkpt lat="45.49625" lon="6.56289">
        <ele>612.4</ele>
        <time>2020-07-19T08:43:50Z</time>
      </trkpt>
      <trkpt lat="45.49632" lon="6.56291">
        <ele>613</ele>
        <time>2020-07-19T08:43:54Z</time>
      </trkpt>
      <trkpt lat="45.49637" lon="6.56296">
        <ele>614.2</ele>
        <time>2020-07-19T08:43:58Z</time>
      </trkpt>
      <trkpt lat="45.49641" lon="6.56303">
        <ele>614.2</ele>
        <time>2020-07-19T08:44:02Z</time>
      </trkpt>
      <trkpt lat="45.49644" lon="6.5631">
        <ele>615.4</ele>
        <time>2020-07-19T08:44:06Z</time>
      </trkpt>
      <trkpt lat="45.49648" lon="6.56317">
        <ele>616.4</ele>
        <time>2020-07-19T08:44:10Z</time>
      </trkpt>
      <trkpt lat="45.49653" lon="6.56326">
        <ele>617.2</ele>
        <time>2020-07-19T08:44:14Z</time>
      </trkpt>
      <trkpt lat="45.49654" lon="6.56333">
        <ele>617.2</ele>
        <time>2020-07-19T08:44:18Z</time>
      </trkpt>
      <trkpt lat="45.49653" lon="6.56341">
        <ele>617.8</ele>
        <time>2020-07-19T08:44:22Z</time>
      </trkpt>
      <trkpt lat="45.49652" lon="6.56346">
        <ele>618.8</ele>
        <time>2020-07-19T08:44:26Z</time>
      </trkpt>
      <trkpt lat="45.49656" lon="6.56359">
        <ele>620</ele>
        <time>2020-07-19T08:44:30Z</time>
      </trkpt>
      <trkpt lat="45.49659" lon="6.56369">
        <ele>620</ele>
        <time>2020-07-19T08:44:34Z</time>
      </trkpt>
      <trkpt lat="45.49663" lon="6.5638">
        <ele>620.6</ele>
        <time>2020-07-19T08:44:38Z</time>
      </trkpt>
      <trkpt lat="45.49664" lon="6.56389">
        <ele>621</ele>
        <time>2020-07-19T08:44:42Z</time>
      </trkpt>
      <trkpt lat="45.49667" lon="6.56398">
        <ele>621.6</ele>
        <time>2020-07-19T08:44:46Z</time>
      </trkpt>
      <trkpt lat="45.4967" lon="6.56404">
        <ele>622.4</ele>
        <time>2020-07-19T08:44:50Z</time>
      </trkpt>
      <trkpt lat="45.49677" lon="6.56412">
        <ele>622.8</ele>
        <time>2020-07-19T08:44:54Z</time>
      </trkpt>
      <trkpt lat="45.49682" lon="6.56418">
        <ele>623.6</ele>
        <time>2020-07-19T08:44:58Z</time>
      </trkpt>
      <trkpt lat="45.49687" lon="6.56427">
        <ele>624.2</ele>
        <time>2020-07-19T08:45:02Z</time>
      </trkpt>
      <trkpt lat="45.49695" lon="6.56439">
        <ele>624.6</ele>
        <time>2020-07-19T08:45:06Z</time>
      </trkpt>
      <trkpt lat="45.497" lon="6.56446">
        <ele>625</ele>
        <time>2020-07-19T08:45:10Z</time>
      </trkpt>
      <trkpt lat="45.49703" lon="6.56453">
        <ele>625.6</ele>
        <time>2020-07-19T08:45:14Z</time>
      </trkpt>
      <trkpt lat="45.4971" lon="6.56461">
        <ele>626.6</ele>
        <time>2020-07-19T08:45:18Z</time>
      </trkpt>
      <trkpt lat="45.49726" lon="6.56474">
        <ele>627.4</ele>
        <time>2020-07-19T08:45:22Z</time>
      </trkpt>
      <trkpt lat="45.49734" lon="6.56487">
        <ele>627.6</ele>
        <time>2020-07-19T08:45:26Z</time>
      </trkpt>
      <trkpt lat="45.49737" lon="6.56499">
        <ele>627.4</ele>
        <time>2020-07-19T08:45:30Z</time>
      </trkpt>
      <trkpt lat="45.49736" lon="6.56511">
        <ele>627.8</ele>
        <time>2020-07-19T08:45:34Z</time>
      </trkpt>
      <trkpt lat="45.49733" lon="6.56522">
        <ele>629</ele>
        <time>2020-07-19T08:45:38Z</time>
      </trkpt>
      <trkpt lat="45.4973" lon="6.56532">
        <ele>628.8</ele>
        <time>2020-07-19T08:45:42Z</time>
      </trkpt>
      <trkpt lat="45.49726" lon="6.56543">
        <ele>629.4</ele>
        <time>2020-07-19T08:45:46Z</time>
      </trkpt>
      <trkpt lat="45.49721" lon="6.56553">
        <ele>629.4</ele>
        <time>2020-07-19T08:45:50Z</time>
      </trkpt>
      <trkpt lat="45.49717" lon="6.56564">
        <ele>630</ele>
        <time>2020-07-19T08:45:54Z</time>
      </trkpt>
      <trkpt lat="45.49714" lon="6.56576">
        <ele>630.6</ele>
        <time>2020-07-19T08:45:58Z</time>
      </trkpt>
      <trkpt lat="45.49714" lon="6.56589">
        <ele>631</ele>
        <time>2020-07-19T08:46:02Z</time>
      </trkpt>
      <trkpt lat="45.49715" lon="6.56603">
        <ele>631.4</ele>
        <time>2020-07-19T08:46:06Z</time>
      </trkpt>
      <trkpt lat="45.49713" lon="6.56615">
        <ele>631.8</ele>
        <time>2020-07-19T08:46:10Z</time>
      </trkpt>
      <trkpt lat="45.49709" lon="6.56626">
        <ele>632.4</ele>
        <time>2020-07-19T08:46:14Z</time>
      </trkpt>
      <trkpt lat="45.49705" lon="6.56634">
        <ele>633.4</ele>
        <time>2020-07-19T08:46:18Z</time>
      </trkpt>
      <trkpt lat="45.49703" lon="6.56646">
        <ele>633.8</ele>
        <time>2020-07-19T08:46:22Z</time>
      </trkpt>
      <trkpt lat="45.49711" lon="6.56661">
        <ele>634.2</ele>
        <time>2020-07-19T08:46:26Z</time>
      </trkpt>
      <trkpt lat="45.49727" lon="6.56667">
        <ele>634.2</ele>
        <time>2020-07-19T08:46:30Z</time>
      </trkpt>
      <trkpt lat="45.49739" lon="6.56661">
        <ele>634.2</ele>
        <time>2020-07-19T08:46:34Z</time>
      </trkpt>
      <trkpt lat="45.49748" lon="6.56652">
        <ele>633.8</ele>
        <time>2020-07-19T08:46:38Z</time>
      </trkpt>
      <trkpt lat="45.49756" lon="6.56641">
        <ele>634.2</ele>
        <time>2020-07-19T08:46:42Z</time>
      </trkpt>
      <trkpt lat="45.49769" lon="6.56639">
        <ele>633</ele>
        <time>2020-07-19T08:46:46Z</time>
      </trkpt>
      <trkpt lat="45.49773" lon="6.56658">
        <ele>632.6</ele>
        <time>2020-07-19T08:46:50Z</time>
      </trkpt>
      <trkpt lat="45.49772" lon="6.56677">
        <ele>632.6</ele>
        <time>2020-07-19T08:46:54Z</time>
      </trkpt>
      <trkpt lat="45.49774" lon="6.56694">
        <ele>632.8</ele>
        <time>2020-07-19T08:46:58Z</time>
      </trkpt>
      <trkpt lat="45.49777" lon="6.56705">
        <ele>632.8</ele>
        <time>2020-07-19T08:47:02Z</time>
      </trkpt>
      <trkpt lat="45.49792" lon="6.56703">
        <ele>632.2</ele>
        <time>2020-07-19T08:47:06Z</time>
      </trkpt>
      <trkpt lat="45.498" lon="6.56693">
        <ele>632.8</ele>
        <time>2020-07-19T08:47:10Z</time>
      </trkpt>
      <trkpt lat="45.49806" lon="6.56689">
        <ele>632.6</ele>
        <time>2020-07-19T08:47:14Z</time>
      </trkpt>
      <trkpt lat="45.49812" lon="6.56687">
        <ele>632.2</ele>
        <time>2020-07-19T08:47:18Z</time>
      </trkpt>
      <trkpt lat="45.49822" lon="6.56687">
        <ele>632.2</ele>
        <time>2020-07-19T08:47:22Z</time>
      </trkpt>
      <trkpt lat="45.49833" lon="6.56689">
        <ele>632</ele>
        <time>2020-07-19T08:47:26Z</time>
      </trkpt>
      <trkpt lat="45.49844" lon="6.56688">
        <ele>632</ele>
        <time>2020-07-19T08:47:30Z</time>
      </trkpt>
      <trkpt lat="45.49856" lon="6.56692">
        <ele>631</ele>
        <time>2020-07-19T08:47:34Z</time>
      </trkpt>
      <trkpt lat="45.49866" lon="6.56703">
        <ele>630.8</ele>
        <time>2020-07-19T08:47:38Z</time>
      </trkpt>
      <trkpt lat="45.49874" lon="6.56712">
        <ele>630.8</ele>
        <time>2020-07-19T08:47:42Z</time>
      </trkpt>
      <trkpt lat="45.49884" lon="6.56717">
        <ele>630.6</ele>
        <time>2020-07-19T08:47:46Z</time>
      </trkpt>
      <trkpt lat="45.49898" lon="6.56719">
        <ele>630</ele>
        <time>2020-07-19T08:47:50Z</time>
      </trkpt>
      <trkpt lat="45.49915" lon="6.56727">
        <ele>630.6</ele>
        <time>2020-07-19T08:47:54Z</time>
      </trkpt>
      <trkpt lat="45.49924" lon="6.56739">
        <ele>629.6</ele>
        <time>2020-07-19T08:47:58Z</time>
      </trkpt>
      <trkpt lat="45.49928" lon="6.56753">
        <ele>630</ele>
        <time>2020-07-19T08:48:02Z</time>
      </trkpt>
      <trkpt lat="45.49943" lon="6.56771">
        <ele>629.6</ele>
        <time>2020-07-19T08:48:06Z</time>
      </trkpt>
      <trkpt lat="45.49959" lon="6.56786">
        <ele>629.8</ele>
        <time>2020-07-19T08:48:10Z</time>
      </trkpt>
      <trkpt lat="45.49978" lon="6.56802">
        <ele>629.4</ele>
        <time>2020-07-19T08:48:14Z</time>
      </trkpt>
      <trkpt lat="45.49995" lon="6.56815">
        <ele>629.4</ele>
        <time>2020-07-19T08:48:18Z</time>
      </trkpt>
      <trkpt lat="45.50012" lon="6.5683">
        <ele>629.6</ele>
        <time>2020-07-19T08:48:22Z</time>
      </trkpt>
      <trkpt lat="45.50026" lon="6.56841">
        <ele>629.4</ele>
        <time>2020-07-19T08:48:26Z</time>
      </trkpt>
      <trkpt lat="45.50044" lon="6.56847">
        <ele>629.4</ele>
        <time>2020-07-19T08:48:30Z</time>
      </trkpt>
      <trkpt lat="45.50059" lon="6.5685">
        <ele>629.4</ele>
        <time>2020-07-19T08:48:34Z</time>
      </trkpt>
      <trkpt lat="45.50078" lon="6.56851">
        <ele>629.4</ele>
        <time>2020-07-19T08:48:38Z</time>
      </trkpt>
      <trkpt lat="45.50096" lon="6.56847">
        <ele>629.2</ele>
        <time>2020-07-19T08:48:42Z</time>
      </trkpt>
      <trkpt lat="45.50117" lon="6.56844">
        <ele>628.8</ele>
        <time>2020-07-19T08:48:46Z</time>
      </trkpt>
      <trkpt lat="45.50137" lon="6.56837">
        <ele>628.2</ele>
        <time>2020-07-19T08:48:50Z</time>
      </trkpt>
      <trkpt lat="45.50158" lon="6.56829">
        <ele>627.2</ele>
        <time>2020-07-19T08:48:54Z</time>
      </trkpt>
      <trkpt lat="45.50178" lon="6.56823">
        <ele>627.4</ele>
        <time>2020-07-19T08:48:58Z</time>
      </trkpt>
      <trkpt lat="45.50198" lon="6.56818">
        <ele>627.2</ele>
        <time>2020-07-19T08:49:02Z</time>
      </trkpt>
      <trkpt lat="45.50218" lon="6.56816">
        <ele>627.2</ele>
        <time>2020-07-19T08:49:06Z</time>
      </trkpt>
      <trkpt lat="45.50236" lon="6.56823">
        <ele>626.8</ele>
        <time>2020-07-19T08:49:10Z</time>
      </trkpt>
      <trkpt lat="45.50248" lon="6.56833">
        <ele>626.8</ele>
        <time>2020-07-19T08:49:14Z</time>
      </trkpt>
      <trkpt lat="45.50263" lon="6.56839">
        <ele>626</ele>
        <time>2020-07-19T08:49:18Z</time>
      </trkpt>
      <trkpt lat="45.50282" lon="6.56839">
        <ele>626.2</ele>
        <time>2020-07-19T08:49:22Z</time>
      </trkpt>
      <trkpt lat="45.50304" lon="6.56835">
        <ele>625.8</ele>
        <time>2020-07-19T08:49:26Z</time>
      </trkpt>
      <trkpt lat="45.50325" lon="6.56834">
        <ele>625.8</ele>
        <time>2020-07-19T08:49:30Z</time>
      </trkpt>
      <trkpt lat="45.50344" lon="6.56843">
        <ele>624.4</ele>
        <time>2020-07-19T08:49:34Z</time>
      </trkpt>
      <trkpt lat="45.50364" lon="6.5685">
        <ele>623.8</ele>
        <time>2020-07-19T08:49:38Z</time>
      </trkpt>
      <trkpt lat="45.50386" lon="6.56855">
        <ele>623.6</ele>
        <time>2020-07-19T08:49:42Z</time>
      </trkpt>
      <trkpt lat="45.50406" lon="6.56846">
        <ele>623.8</ele>
        <time>2020-07-19T08:49:46Z</time>
      </trkpt>
      <trkpt lat="45.50432" lon="6.56838">
        <ele>623</ele>
        <time>2020-07-19T08:49:50Z</time>
      </trkpt>
      <trkpt lat="45.50453" lon="6.56829">
        <ele>622.4</ele>
        <time>2020-07-19T08:49:54Z</time>
      </trkpt>
      <trkpt lat="45.50474" lon="6.5682">
        <ele>621.6</ele>
        <time>2020-07-19T08:49:58Z</time>
      </trkpt>
      <trkpt lat="45.50493" lon="6.56808">
        <ele>621.6</ele>
        <time>2020-07-19T08:50:02Z</time>
      </trkpt>
      <trkpt lat="45.50513" lon="6.56798">
        <ele>621.6</ele>
        <time>2020-07-19T08:50:06Z</time>
      </trkpt>
      <trkpt lat="45.50533" lon="6.56786">
        <ele>621.4</ele>
        <time>2020-07-19T08:50:10Z</time>
      </trkpt>
      <trkpt lat="45.50554" lon="6.56775">
        <ele>620.6</ele>
        <time>2020-07-19T08:50:14Z</time>
      </trkpt>
      <trkpt lat="45.50576" lon="6.5678">
        <ele>619.2</ele>
        <time>2020-07-19T08:50:18Z</time>
      </trkpt>
      <trkpt lat="45.50583" lon="6.56785">
        <ele>619.2</ele>
        <time>2020-07-19T08:50:22Z</time>
      </trkpt>
      <trkpt lat="45.50583" lon="6.56778">
        <ele>618.4</ele>
        <time>2020-07-19T08:50:36Z</time>
      </trkpt>
      <trkpt lat="45.50576" lon="6.56775">
        <ele>619.2</ele>
        <time>2020-07-19T08:50:40Z</time>
      </trkpt>
      <trkpt lat="45.5057" lon="6.5678">
        <ele>619.8</ele>
        <time>2020-07-19T08:50:44Z</time>
      </trkpt>
      <trkpt lat="45.50563" lon="6.56783">
        <ele>620.6</ele>
        <time>2020-07-19T08:50:48Z</time>
      </trkpt>
      <trkpt lat="45.50556" lon="6.56786">
        <ele>621.4</ele>
        <time>2020-07-19T08:50:52Z</time>
      </trkpt>
      <trkpt lat="45.50549" lon="6.5679">
        <ele>622.4</ele>
        <time>2020-07-19T08:50:56Z</time>
      </trkpt>
      <trkpt lat="45.50542" lon="6.56795">
        <ele>622.8</ele>
        <time>2020-07-19T08:51:00Z</time>
      </trkpt>
      <trkpt lat="45.50535" lon="6.56801">
        <ele>623.6</ele>
        <time>2020-07-19T08:51:04Z</time>
      </trkpt>
      <trkpt lat="45.50529" lon="6.56808">
        <ele>624.8</ele>
        <time>2020-07-19T08:51:08Z</time>
      </trkpt>
      <trkpt lat="45.50524" lon="6.56815">
        <ele>625</ele>
        <time>2020-07-19T08:51:12Z</time>
      </trkpt>
      <trkpt lat="45.50518" lon="6.56823">
        <ele>625.8</ele>
        <time>2020-07-19T08:51:16Z</time>
      </trkpt>
      <trkpt lat="45.50512" lon="6.5683">
        <ele>626.6</ele>
        <time>2020-07-19T08:51:20Z</time>
      </trkpt>
      <trkpt lat="45.50507" lon="6.56838">
        <ele>627.4</ele>
        <time>2020-07-19T08:51:24Z</time>
      </trkpt>
      <trkpt lat="45.50501" lon="6.56845">
        <ele>627.6</ele>
        <time>2020-07-19T08:51:28Z</time>
      </trkpt>
      <trkpt lat="45.50495" lon="6.56852">
        <ele>628.4</ele>
        <time>2020-07-19T08:51:32Z</time>
      </trkpt>
      <trkpt lat="45.50489" lon="6.56857">
        <ele>629.4</ele>
        <time>2020-07-19T08:51:36Z</time>
      </trkpt>
      <trkpt lat="45.50483" lon="6.56863">
        <ele>629.8</ele>
        <time>2020-07-19T08:51:40Z</time>
      </trkpt>
      <trkpt lat="45.50476" lon="6.56869">
        <ele>630.2</ele>
        <time>2020-07-19T08:51:44Z</time>
      </trkpt>
      <trkpt lat="45.50469" lon="6.56875">
        <ele>631.4</ele>
        <time>2020-07-19T08:51:48Z</time>
      </trkpt>
      <trkpt lat="45.50463" lon="6.56881">
        <ele>632.2</ele>
        <time>2020-07-19T08:51:52Z</time>
      </trkpt>
      <trkpt lat="45.50458" lon="6.56888">
        <ele>633</ele>
        <time>2020-07-19T08:51:56Z</time>
      </trkpt>
      <trkpt lat="45.50453" lon="6.56896">
        <ele>633.8</ele>
        <time>2020-07-19T08:52:00Z</time>
      </trkpt>
      <trkpt lat="45.50452" lon="6.56908">
        <ele>634</ele>
        <time>2020-07-19T08:52:04Z</time>
      </trkpt>
      <trkpt lat="45.50457" lon="6.56917">
        <ele>634.6</ele>
        <time>2020-07-19T08:52:08Z</time>
      </trkpt>
      <trkpt lat="45.50464" lon="6.56921">
        <ele>634.2</ele>
        <time>2020-07-19T08:52:12Z</time>
      </trkpt>
      <trkpt lat="45.50473" lon="6.56921">
        <ele>634.8</ele>
        <time>2020-07-19T08:52:16Z</time>
      </trkpt>
      <trkpt lat="45.50481" lon="6.56921">
        <ele>635.8</ele>
        <time>2020-07-19T08:52:20Z</time>
      </trkpt>
      <trkpt lat="45.5049" lon="6.5692">
        <ele>636.4</ele>
        <time>2020-07-19T08:52:24Z</time>
      </trkpt>
      <trkpt lat="45.50498" lon="6.56918">
        <ele>637.2</ele>
        <time>2020-07-19T08:52:28Z</time>
      </trkpt>
      <trkpt lat="45.50506" lon="6.56918">
        <ele>637.6</ele>
        <time>2020-07-19T08:52:32Z</time>
      </trkpt>
      <trkpt lat="45.50512" lon="6.56919">
        <ele>638.6</ele>
        <time>2020-07-19T08:52:36Z</time>
      </trkpt>
      <trkpt lat="45.5052" lon="6.56922">
        <ele>638.8</ele>
        <time>2020-07-19T08:52:40Z</time>
      </trkpt>
      <trkpt lat="45.50528" lon="6.56925">
        <ele>639.6</ele>
        <time>2020-07-19T08:52:44Z</time>
      </trkpt>
      <trkpt lat="45.50535" lon="6.56929">
        <ele>640.8</ele>
        <time>2020-07-19T08:52:48Z</time>
      </trkpt>
      <trkpt lat="45.50541" lon="6.56932">
        <ele>642.2</ele>
        <time>2020-07-19T08:52:52Z</time>
      </trkpt>
      <trkpt lat="45.50547" lon="6.56936">
        <ele>642.6</ele>
        <time>2020-07-19T08:52:56Z</time>
      </trkpt>
      <trkpt lat="45.50553" lon="6.56942">
        <ele>643.2</ele>
        <time>2020-07-19T08:53:00Z</time>
      </trkpt>
      <trkpt lat="45.50561" lon="6.5695">
        <ele>643.8</ele>
        <time>2020-07-19T08:53:04Z</time>
      </trkpt>
      <trkpt lat="45.50566" lon="6.56957">
        <ele>643.8</ele>
        <time>2020-07-19T08:53:08Z</time>
      </trkpt>
      <trkpt lat="45.50572" lon="6.56967">
        <ele>645</ele>
        <time>2020-07-19T08:53:12Z</time>
      </trkpt>
      <trkpt lat="45.50578" lon="6.56977">
        <ele>645.6</ele>
        <time>2020-07-19T08:53:16Z</time>
      </trkpt>
      <trkpt lat="45.50583" lon="6.56986">
        <ele>646.2</ele>
        <time>2020-07-19T08:53:20Z</time>
      </trkpt>
      <trkpt lat="45.50588" lon="6.56995">
        <ele>646.4</ele>
        <time>2020-07-19T08:53:24Z</time>
      </trkpt>
      <trkpt lat="45.50594" lon="6.57002">
        <ele>647.2</ele>
        <time>2020-07-19T08:53:28Z</time>
      </trkpt>
      <trkpt lat="45.506" lon="6.57009">
        <ele>647.8</ele>
        <time>2020-07-19T08:53:32Z</time>
      </trkpt>
      <trkpt lat="45.50606" lon="6.57017">
        <ele>648.8</ele>
        <time>2020-07-19T08:53:36Z</time>
      </trkpt>
      <trkpt lat="45.50612" lon="6.57024">
        <ele>648.8</ele>
        <time>2020-07-19T08:53:40Z</time>
      </trkpt>
      <trkpt lat="45.50617" lon="6.57032">
        <ele>649.8</ele>
        <time>2020-07-19T08:53:44Z</time>
      </trkpt>
      <trkpt lat="45.50623" lon="6.5704">
        <ele>650.2</ele>
        <time>2020-07-19T08:53:48Z</time>
      </trkpt>
      <trkpt lat="45.5063" lon="6.57048">
        <ele>651.2</ele>
        <time>2020-07-19T08:53:52Z</time>
      </trkpt>
      <trkpt lat="45.50636" lon="6.57055">
        <ele>651.4</ele>
        <time>2020-07-19T08:53:56Z</time>
      </trkpt>
      <trkpt lat="45.50638" lon="6.57063">
        <ele>652.6</ele>
        <time>2020-07-19T08:54:00Z</time>
      </trkpt>
      <trkpt lat="45.50646" lon="6.57071">
        <ele>653</ele>
        <time>2020-07-19T08:54:04Z</time>
      </trkpt>
      <trkpt lat="45.50654" lon="6.57079">
        <ele>653.8</ele>
        <time>2020-07-19T08:54:08Z</time>
      </trkpt>
      <trkpt lat="45.50659" lon="6.5709">
        <ele>654</ele>
        <time>2020-07-19T08:54:12Z</time>
      </trkpt>
      <trkpt lat="45.50655" lon="6.57096">
        <ele>654.8</ele>
        <time>2020-07-19T08:54:16Z</time>
      </trkpt>
      <trkpt lat="45.50647" lon="6.57095">
        <ele>655.8</ele>
        <time>2020-07-19T08:54:20Z</time>
      </trkpt>
      <trkpt lat="45.5064" lon="6.57095">
        <ele>656.6</ele>
        <time>2020-07-19T08:54:24Z</time>
      </trkpt>
      <trkpt lat="45.50634" lon="6.57095">
        <ele>657</ele>
        <time>2020-07-19T08:54:28Z</time>
      </trkpt>
      <trkpt lat="45.50628" lon="6.57097">
        <ele>657.8</ele>
        <time>2020-07-19T08:54:32Z</time>
      </trkpt>
      <trkpt lat="45.5062" lon="6.57096">
        <ele>659.2</ele>
        <time>2020-07-19T08:54:36Z</time>
      </trkpt>
      <trkpt lat="45.50614" lon="6.57095">
        <ele>660</ele>
        <time>2020-07-19T08:54:40Z</time>
      </trkpt>
      <trkpt lat="45.50606" lon="6.57093">
        <ele>660.4</ele>
        <time>2020-07-19T08:54:44Z</time>
      </trkpt>
      <trkpt lat="45.50596" lon="6.5709">
        <ele>661.4</ele>
        <time>2020-07-19T08:54:48Z</time>
      </trkpt>
      <trkpt lat="45.50589" lon="6.57088">
        <ele>661.8</ele>
        <time>2020-07-19T08:54:52Z</time>
      </trkpt>
      <trkpt lat="45.50581" lon="6.57084">
        <ele>662.8</ele>
        <time>2020-07-19T08:54:56Z</time>
      </trkpt>
      <trkpt lat="45.50574" lon="6.57081">
        <ele>663.4</ele>
        <time>2020-07-19T08:55:00Z</time>
      </trkpt>
      <trkpt lat="45.50567" lon="6.5708">
        <ele>663.4</ele>
        <time>2020-07-19T08:55:04Z</time>
      </trkpt>
      <trkpt lat="45.50559" lon="6.57079">
        <ele>665</ele>
        <time>2020-07-19T08:55:08Z</time>
      </trkpt>
      <trkpt lat="45.50552" lon="6.57078">
        <ele>665.4</ele>
        <time>2020-07-19T08:55:12Z</time>
      </trkpt>
      <trkpt lat="45.50544" lon="6.57077">
        <ele>666.2</ele>
        <time>2020-07-19T08:55:16Z</time>
      </trkpt>
      <trkpt lat="45.50536" lon="6.57075">
        <ele>666.8</ele>
        <time>2020-07-19T08:55:20Z</time>
      </trkpt>
      <trkpt lat="45.50529" lon="6.57074">
        <ele>668</ele>
        <time>2020-07-19T08:55:24Z</time>
      </trkpt>
      <trkpt lat="45.50522" lon="6.57073">
        <ele>668.4</ele>
        <time>2020-07-19T08:55:28Z</time>
      </trkpt>
      <trkpt lat="45.50517" lon="6.57076">
        <ele>669.4</ele>
        <time>2020-07-19T08:55:32Z</time>
      </trkpt>
      <trkpt lat="45.50512" lon="6.57081">
        <ele>669.6</ele>
        <time>2020-07-19T08:55:36Z</time>
      </trkpt>
      <trkpt lat="45.50506" lon="6.57086">
        <ele>670</ele>
        <time>2020-07-19T08:55:40Z</time>
      </trkpt>
      <trkpt lat="45.505" lon="6.5709">
        <ele>670.6</ele>
        <time>2020-07-19T08:55:44Z</time>
      </trkpt>
      <trkpt lat="45.50493" lon="6.57094">
        <ele>671.6</ele>
        <time>2020-07-19T08:55:48Z</time>
      </trkpt>
      <trkpt lat="45.50487" lon="6.571">
        <ele>672.2</ele>
        <time>2020-07-19T08:55:52Z</time>
      </trkpt>
      <trkpt lat="45.50483" lon="6.57108">
        <ele>672.4</ele>
        <time>2020-07-19T08:55:56Z</time>
      </trkpt>
      <trkpt lat="45.5048" lon="6.57118">
        <ele>673.4</ele>
        <time>2020-07-19T08:56:00Z</time>
      </trkpt>
      <trkpt lat="45.50483" lon="6.57126">
        <ele>673.8</ele>
        <time>2020-07-19T08:56:04Z</time>
      </trkpt>
      <trkpt lat="45.50488" lon="6.57131">
        <ele>674.8</ele>
        <time>2020-07-19T08:56:08Z</time>
      </trkpt>
      <trkpt lat="45.50496" lon="6.57133">
        <ele>675.4</ele>
        <time>2020-07-19T08:56:12Z</time>
      </trkpt>
      <trkpt lat="45.50502" lon="6.57136">
        <ele>676</ele>
        <time>2020-07-19T08:56:16Z</time>
      </trkpt>
      <trkpt lat="45.50507" lon="6.5714">
        <ele>677.2</ele>
        <time>2020-07-19T08:56:20Z</time>
      </trkpt>
      <trkpt lat="45.50511" lon="6.57145">
        <ele>677.8</ele>
        <time>2020-07-19T08:56:24Z</time>
      </trkpt>
      <trkpt lat="45.50517" lon="6.5715">
        <ele>678.6</ele>
        <time>2020-07-19T08:56:28Z</time>
      </trkpt>
      <trkpt lat="45.50522" lon="6.57158">
        <ele>679.2</ele>
        <time>2020-07-19T08:56:32Z</time>
      </trkpt>
      <trkpt lat="45.50529" lon="6.57164">
        <ele>679.6</ele>
        <time>2020-07-19T08:56:36Z</time>
      </trkpt>
      <trkpt lat="45.5054" lon="6.57171">
        <ele>680.2</ele>
        <time>2020-07-19T08:56:40Z</time>
      </trkpt>
      <trkpt lat="45.50553" lon="6.57177">
        <ele>679.8</ele>
        <time>2020-07-19T08:56:44Z</time>
      </trkpt>
      <trkpt lat="45.50562" lon="6.57183">
        <ele>680.8</ele>
        <time>2020-07-19T08:56:48Z</time>
      </trkpt>
      <trkpt lat="45.50567" lon="6.57187">
        <ele>681.4</ele>
        <time>2020-07-19T08:56:52Z</time>
      </trkpt>
      <trkpt lat="45.50574" lon="6.5719">
        <ele>681.8</ele>
        <time>2020-07-19T08:56:56Z</time>
      </trkpt>
      <trkpt lat="45.50585" lon="6.57191">
        <ele>682.6</ele>
        <time>2020-07-19T08:57:00Z</time>
      </trkpt>
      <trkpt lat="45.50594" lon="6.5719">
        <ele>683</ele>
        <time>2020-07-19T08:57:04Z</time>
      </trkpt>
      <trkpt lat="45.50602" lon="6.57189">
        <ele>683.8</ele>
        <time>2020-07-19T08:57:08Z</time>
      </trkpt>
      <trkpt lat="45.5061" lon="6.57187">
        <ele>684.6</ele>
        <time>2020-07-19T08:57:12Z</time>
      </trkpt>
      <trkpt lat="45.50618" lon="6.57186">
        <ele>685.6</ele>
        <time>2020-07-19T08:57:16Z</time>
      </trkpt>
      <trkpt lat="45.50625" lon="6.57183">
        <ele>685.6</ele>
        <time>2020-07-19T08:57:20Z</time>
      </trkpt>
      <trkpt lat="45.50633" lon="6.57181">
        <ele>686.6</ele>
        <time>2020-07-19T08:57:24Z</time>
      </trkpt>
      <trkpt lat="45.5064" lon="6.57178">
        <ele>687.6</ele>
        <time>2020-07-19T08:57:28Z</time>
      </trkpt>
      <trkpt lat="45.50647" lon="6.57176">
        <ele>688</ele>
        <time>2020-07-19T08:57:32Z</time>
      </trkpt>
      <trkpt lat="45.50655" lon="6.57174">
        <ele>688.6</ele>
        <time>2020-07-19T08:57:36Z</time>
      </trkpt>
      <trkpt lat="45.50662" lon="6.57172">
        <ele>689</ele>
        <time>2020-07-19T08:57:40Z</time>
      </trkpt>
      <trkpt lat="45.5067" lon="6.57169">
        <ele>690</ele>
        <time>2020-07-19T08:57:44Z</time>
      </trkpt>
      <trkpt lat="45.50677" lon="6.57169">
        <ele>690.6</ele>
        <time>2020-07-19T08:57:48Z</time>
      </trkpt>
      <trkpt lat="45.50685" lon="6.57169">
        <ele>691.6</ele>
        <time>2020-07-19T08:57:52Z</time>
      </trkpt>
      <trkpt lat="45.50692" lon="6.57168">
        <ele>692.6</ele>
        <time>2020-07-19T08:57:56Z</time>
      </trkpt>
      <trkpt lat="45.507" lon="6.5717">
        <ele>693</ele>
        <time>2020-07-19T08:58:00Z</time>
      </trkpt>
      <trkpt lat="45.50707" lon="6.57172">
        <ele>694.2</ele>
        <time>2020-07-19T08:58:04Z</time>
      </trkpt>
      <trkpt lat="45.50713" lon="6.57176">
        <ele>694.6</ele>
        <time>2020-07-19T08:58:08Z</time>
      </trkpt>
      <trkpt lat="45.5072" lon="6.5718">
        <ele>695</ele>
        <time>2020-07-19T08:58:12Z</time>
      </trkpt>
      <trkpt lat="45.50726" lon="6.57184">
        <ele>696</ele>
        <time>2020-07-19T08:58:16Z</time>
      </trkpt>
      <trkpt lat="45.50731" lon="6.57189">
        <ele>697</ele>
        <time>2020-07-19T08:58:20Z</time>
      </trkpt>
      <trkpt lat="45.50736" lon="6.57195">
        <ele>697.8</ele>
        <time>2020-07-19T08:58:24Z</time>
      </trkpt>
      <trkpt lat="45.50741" lon="6.57202">
        <ele>698.4</ele>
        <time>2020-07-19T08:58:28Z</time>
      </trkpt>
      <trkpt lat="45.50747" lon="6.57212">
        <ele>698.2</ele>
        <time>2020-07-19T08:58:32Z</time>
      </trkpt>
      <trkpt lat="45.50752" lon="6.57222">
        <ele>698.4</ele>
        <time>2020-07-19T08:58:36Z</time>
      </trkpt>
      <trkpt lat="45.50755" lon="6.57231">
        <ele>698.8</ele>
        <time>2020-07-19T08:58:40Z</time>
      </trkpt>
      <trkpt lat="45.50756" lon="6.57239">
        <ele>699.6</ele>
        <time>2020-07-19T08:58:44Z</time>
      </trkpt>
      <trkpt lat="45.50756" lon="6.57249">
        <ele>699.8</ele>
        <time>2020-07-19T08:58:48Z</time>
      </trkpt>
      <trkpt lat="45.50757" lon="6.57258">
        <ele>701.2</ele>
        <time>2020-07-19T08:58:52Z</time>
      </trkpt>
      <trkpt lat="45.50758" lon="6.57267">
        <ele>701.6</ele>
        <time>2020-07-19T08:58:56Z</time>
      </trkpt>
      <trkpt lat="45.50761" lon="6.57276">
        <ele>702.6</ele>
        <time>2020-07-19T08:59:00Z</time>
      </trkpt>
      <trkpt lat="45.50764" lon="6.57284">
        <ele>702.8</ele>
        <time>2020-07-19T08:59:04Z</time>
      </trkpt>
      <trkpt lat="45.50769" lon="6.57295">
        <ele>703</ele>
        <time>2020-07-19T08:59:08Z</time>
      </trkpt>
      <trkpt lat="45.50774" lon="6.57303">
        <ele>704</ele>
        <time>2020-07-19T08:59:12Z</time>
      </trkpt>
      <trkpt lat="45.50786" lon="6.57311">
        <ele>704.4</ele>
        <time>2020-07-19T08:59:16Z</time>
      </trkpt>
      <trkpt lat="45.50796" lon="6.57314">
        <ele>704.8</ele>
        <time>2020-07-19T08:59:20Z</time>
      </trkpt>
      <trkpt lat="45.50811" lon="6.57315">
        <ele>705.6</ele>
        <time>2020-07-19T08:59:24Z</time>
      </trkpt>
      <trkpt lat="45.50819" lon="6.57312">
        <ele>706.2</ele>
        <time>2020-07-19T08:59:28Z</time>
      </trkpt>
      <trkpt lat="45.50826" lon="6.57309">
        <ele>707</ele>
        <time>2020-07-19T08:59:32Z</time>
      </trkpt>
      <trkpt lat="45.50833" lon="6.57308">
        <ele>707.8</ele>
        <time>2020-07-19T08:59:36Z</time>
      </trkpt>
      <trkpt lat="45.50841" lon="6.57308">
        <ele>708.4</ele>
        <time>2020-07-19T08:59:40Z</time>
      </trkpt>
      <trkpt lat="45.50847" lon="6.57308">
        <ele>709</ele>
        <time>2020-07-19T08:59:44Z</time>
      </trkpt>
      <trkpt lat="45.50854" lon="6.5731">
        <ele>710.2</ele>
        <time>2020-07-19T08:59:48Z</time>
      </trkpt>
      <trkpt lat="45.5086" lon="6.57313">
        <ele>710.2</ele>
        <time>2020-07-19T08:59:52Z</time>
      </trkpt>
      <trkpt lat="45.50864" lon="6.57318">
        <ele>710.6</ele>
        <time>2020-07-19T08:59:56Z</time>
      </trkpt>
      <trkpt lat="45.50868" lon="6.57324">
        <ele>711.4</ele>
        <time>2020-07-19T09:00:00Z</time>
      </trkpt>
      <trkpt lat="45.50873" lon="6.5733">
        <ele>711.4</ele>
        <time>2020-07-19T09:00:04Z</time>
      </trkpt>
      <trkpt lat="45.50879" lon="6.57337">
        <ele>712</ele>
        <time>2020-07-19T09:00:08Z</time>
      </trkpt>
      <trkpt lat="45.50885" lon="6.57344">
        <ele>712.4</ele>
        <time>2020-07-19T09:00:12Z</time>
      </trkpt>
      <trkpt lat="45.50893" lon="6.57351">
        <ele>713.2</ele>
        <time>2020-07-19T09:00:16Z</time>
      </trkpt>
      <trkpt lat="45.509" lon="6.57357">
        <ele>713.8</ele>
        <time>2020-07-19T09:00:20Z</time>
      </trkpt>
      <trkpt lat="45.50907" lon="6.57365">
        <ele>714</ele>
        <time>2020-07-19T09:00:24Z</time>
      </trkpt>
      <trkpt lat="45.50909" lon="6.57375">
        <ele>714.6</ele>
        <time>2020-07-19T09:00:28Z</time>
      </trkpt>
      <trkpt lat="45.50906" lon="6.57374">
        <ele>715.4</ele>
        <time>2020-07-19T09:00:32Z</time>
      </trkpt>
      <trkpt lat="45.50902" lon="6.57365">
        <ele>715.4</ele>
        <time>2020-07-19T09:00:36Z</time>
      </trkpt>
      <trkpt lat="45.50897" lon="6.5736">
        <ele>716.8</ele>
        <time>2020-07-19T09:00:40Z</time>
      </trkpt>
      <trkpt lat="45.50893" lon="6.57357">
        <ele>717.4</ele>
        <time>2020-07-19T09:00:44Z</time>
      </trkpt>
      <trkpt lat="45.50889" lon="6.57353">
        <ele>717.6</ele>
        <time>2020-07-19T09:00:48Z</time>
      </trkpt>
      <trkpt lat="45.50884" lon="6.57351">
        <ele>718.2</ele>
        <time>2020-07-19T09:00:52Z</time>
      </trkpt>
      <trkpt lat="45.50879" lon="6.57347">
        <ele>719.2</ele>
        <time>2020-07-19T09:00:56Z</time>
      </trkpt>
      <trkpt lat="45.50875" lon="6.57346">
        <ele>719.6</ele>
        <time>2020-07-19T09:01:00Z</time>
      </trkpt>
      <trkpt lat="45.5087" lon="6.57343">
        <ele>721</ele>
        <time>2020-07-19T09:01:04Z</time>
      </trkpt>
      <trkpt lat="45.50864" lon="6.57341">
        <ele>721.8</ele>
        <time>2020-07-19T09:01:08Z</time>
      </trkpt>
      <trkpt lat="45.50859" lon="6.57338">
        <ele>722</ele>
        <time>2020-07-19T09:01:12Z</time>
      </trkpt>
      <trkpt lat="45.50853" lon="6.57337">
        <ele>723.2</ele>
        <time>2020-07-19T09:01:16Z</time>
      </trkpt>
      <trkpt lat="45.50847" lon="6.57337">
        <ele>723.4</ele>
        <time>2020-07-19T09:01:20Z</time>
      </trkpt>
      <trkpt lat="45.50843" lon="6.5734">
        <ele>724.6</ele>
        <time>2020-07-19T09:01:24Z</time>
      </trkpt>
      <trkpt lat="45.50838" lon="6.57344">
        <ele>725</ele>
        <time>2020-07-19T09:01:28Z</time>
      </trkpt>
      <trkpt lat="45.50833" lon="6.57351">
        <ele>725.8</ele>
        <time>2020-07-19T09:01:32Z</time>
      </trkpt>
      <trkpt lat="45.5083" lon="6.57358">
        <ele>727.2</ele>
        <time>2020-07-19T09:01:36Z</time>
      </trkpt>
      <trkpt lat="45.50828" lon="6.57367">
        <ele>727.6</ele>
        <time>2020-07-19T09:01:40Z</time>
      </trkpt>
      <trkpt lat="45.50825" lon="6.57375">
        <ele>728.4</ele>
        <time>2020-07-19T09:01:44Z</time>
      </trkpt>
      <trkpt lat="45.50824" lon="6.57385">
        <ele>729.2</ele>
        <time>2020-07-19T09:01:48Z</time>
      </trkpt>
      <trkpt lat="45.50822" lon="6.57393">
        <ele>729.8</ele>
        <time>2020-07-19T09:01:52Z</time>
      </trkpt>
      <trkpt lat="45.50821" lon="6.57401">
        <ele>730.6</ele>
        <time>2020-07-19T09:01:56Z</time>
      </trkpt>
      <trkpt lat="45.50819" lon="6.57407">
        <ele>731.6</ele>
        <time>2020-07-19T09:02:00Z</time>
      </trkpt>
      <trkpt lat="45.50813" lon="6.57412">
        <ele>732.4</ele>
        <time>2020-07-19T09:02:04Z</time>
      </trkpt>
      <trkpt lat="45.50804" lon="6.57413">
        <ele>732.8</ele>
        <time>2020-07-19T09:02:08Z</time>
      </trkpt>
      <trkpt lat="45.50797" lon="6.57411">
        <ele>733.2</ele>
        <time>2020-07-19T09:02:12Z</time>
      </trkpt>
      <trkpt lat="45.50791" lon="6.57406">
        <ele>734.2</ele>
        <time>2020-07-19T09:02:16Z</time>
      </trkpt>
      <trkpt lat="45.50785" lon="6.574">
        <ele>734.6</ele>
        <time>2020-07-19T09:02:20Z</time>
      </trkpt>
      <trkpt lat="45.50779" lon="6.57398">
        <ele>735</ele>
        <time>2020-07-19T09:02:24Z</time>
      </trkpt>
      <trkpt lat="45.50774" lon="6.57393">
        <ele>735.8</ele>
        <time>2020-07-19T09:02:28Z</time>
      </trkpt>
      <trkpt lat="45.50768" lon="6.57388">
        <ele>736.4</ele>
        <time>2020-07-19T09:02:32Z</time>
      </trkpt>
      <trkpt lat="45.50763" lon="6.57382">
        <ele>737</ele>
        <time>2020-07-19T09:02:36Z</time>
      </trkpt>
      <trkpt lat="45.50757" lon="6.57379">
        <ele>738</ele>
        <time>2020-07-19T09:02:40Z</time>
      </trkpt>
      <trkpt lat="45.50751" lon="6.57375">
        <ele>738</ele>
        <time>2020-07-19T09:02:44Z</time>
      </trkpt>
      <trkpt lat="45.50745" lon="6.57373">
        <ele>738.8</ele>
        <time>2020-07-19T09:02:48Z</time>
      </trkpt>
      <trkpt lat="45.5074" lon="6.57367">
        <ele>740.4</ele>
        <time>2020-07-19T09:02:52Z</time>
      </trkpt>
      <trkpt lat="45.50737" lon="6.5736">
        <ele>740.8</ele>
        <time>2020-07-19T09:02:56Z</time>
      </trkpt>
      <trkpt lat="45.50732" lon="6.57353">
        <ele>741.8</ele>
        <time>2020-07-19T09:03:00Z</time>
      </trkpt>
      <trkpt lat="45.50726" lon="6.57346">
        <ele>742.4</ele>
        <time>2020-07-19T09:03:04Z</time>
      </trkpt>
      <trkpt lat="45.50721" lon="6.57341">
        <ele>743.4</ele>
        <time>2020-07-19T09:03:08Z</time>
      </trkpt>
      <trkpt lat="45.50717" lon="6.57336">
        <ele>744</ele>
        <time>2020-07-19T09:03:12Z</time>
      </trkpt>
      <trkpt lat="45.50712" lon="6.57332">
        <ele>744.4</ele>
        <time>2020-07-19T09:03:16Z</time>
      </trkpt>
      <trkpt lat="45.50706" lon="6.57329">
        <ele>745</ele>
        <time>2020-07-19T09:03:20Z</time>
      </trkpt>
      <trkpt lat="45.50699" lon="6.57328">
        <ele>745.8</ele>
        <time>2020-07-19T09:03:24Z</time>
      </trkpt>
      <trkpt lat="45.50693" lon="6.57328">
        <ele>746.6</ele>
        <time>2020-07-19T09:03:28Z</time>
      </trkpt>
      <trkpt lat="45.50686" lon="6.57327">
        <ele>747.4</ele>
        <time>2020-07-19T09:03:32Z</time>
      </trkpt>
      <trkpt lat="45.50679" lon="6.57326">
        <ele>747.6</ele>
        <time>2020-07-19T09:03:36Z</time>
      </trkpt>
      <trkpt lat="45.50672" lon="6.57325">
        <ele>748.2</ele>
        <time>2020-07-19T09:03:40Z</time>
      </trkpt>
      <trkpt lat="45.50665" lon="6.57325">
        <ele>749</ele>
        <time>2020-07-19T09:03:44Z</time>
      </trkpt>
      <trkpt lat="45.50659" lon="6.57326">
        <ele>749.4</ele>
        <time>2020-07-19T09:03:48Z</time>
      </trkpt>
      <trkpt lat="45.50652" lon="6.57326">
        <ele>749.8</ele>
        <time>2020-07-19T09:03:52Z</time>
      </trkpt>
      <trkpt lat="45.50645" lon="6.57327">
        <ele>750.8</ele>
        <time>2020-07-19T09:03:56Z</time>
      </trkpt>
      <trkpt lat="45.50638" lon="6.57327">
        <ele>751.2</ele>
        <time>2020-07-19T09:04:00Z</time>
      </trkpt>
      <trkpt lat="45.50631" lon="6.57328">
        <ele>752.2</ele>
        <time>2020-07-19T09:04:04Z</time>
      </trkpt>
      <trkpt lat="45.50624" lon="6.57328">
        <ele>753</ele>
        <time>2020-07-19T09:04:08Z</time>
      </trkpt>
      <trkpt lat="45.50617" lon="6.57329">
        <ele>753.4</ele>
        <time>2020-07-19T09:04:12Z</time>
      </trkpt>
      <trkpt lat="45.5061" lon="6.5733">
        <ele>753.8</ele>
        <time>2020-07-19T09:04:16Z</time>
      </trkpt>
      <trkpt lat="45.50603" lon="6.57332">
        <ele>754.6</ele>
        <time>2020-07-19T09:04:20Z</time>
      </trkpt>
      <trkpt lat="45.50596" lon="6.57334">
        <ele>755.2</ele>
        <time>2020-07-19T09:04:24Z</time>
      </trkpt>
      <trkpt lat="45.50589" lon="6.57336">
        <ele>755.6</ele>
        <time>2020-07-19T09:04:28Z</time>
      </trkpt>
      <trkpt lat="45.50583" lon="6.57337">
        <ele>756.2</ele>
        <time>2020-07-19T09:04:32Z</time>
      </trkpt>
      <trkpt lat="45.50576" lon="6.57338">
        <ele>757.2</ele>
        <time>2020-07-19T09:04:36Z</time>
      </trkpt>
      <trkpt lat="45.50569" lon="6.5734">
        <ele>757.8</ele>
        <time>2020-07-19T09:04:40Z</time>
      </trkpt>
      <trkpt lat="45.50562" lon="6.57341">
        <ele>758.2</ele>
        <time>2020-07-19T09:04:44Z</time>
      </trkpt>
      <trkpt lat="45.50555" lon="6.57343">
        <ele>758.8</ele>
        <time>2020-07-19T09:04:48Z</time>
      </trkpt>
      <trkpt lat="45.50549" lon="6.57345">
        <ele>759.4</ele>
        <time>2020-07-19T09:04:52Z</time>
      </trkpt>
      <trkpt lat="45.50542" lon="6.57349">
        <ele>760</ele>
        <time>2020-07-19T09:04:56Z</time>
      </trkpt>
      <trkpt lat="45.50535" lon="6.57353">
        <ele>760.2</ele>
        <time>2020-07-19T09:05:00Z</time>
      </trkpt>
      <trkpt lat="45.50529" lon="6.57358">
        <ele>761.2</ele>
        <time>2020-07-19T09:05:04Z</time>
      </trkpt>
      <trkpt lat="45.50524" lon="6.57364">
        <ele>761.8</ele>
        <time>2020-07-19T09:05:08Z</time>
      </trkpt>
      <trkpt lat="45.50521" lon="6.57371">
        <ele>762.6</ele>
        <time>2020-07-19T09:05:12Z</time>
      </trkpt>
      <trkpt lat="45.50518" lon="6.57379">
        <ele>763</ele>
        <time>2020-07-19T09:05:16Z</time>
      </trkpt>
      <trkpt lat="45.50515" lon="6.57387">
        <ele>763.8</ele>
        <time>2020-07-19T09:05:20Z</time>
      </trkpt>
      <trkpt lat="45.50513" lon="6.57396">
        <ele>764.6</ele>
        <time>2020-07-19T09:05:24Z</time>
      </trkpt>
      <trkpt lat="45.5051" lon="6.57404">
        <ele>765.4</ele>
        <time>2020-07-19T09:05:28Z</time>
      </trkpt>
      <trkpt lat="45.50508" lon="6.57412">
        <ele>766.4</ele>
        <time>2020-07-19T09:05:32Z</time>
      </trkpt>
      <trkpt lat="45.50505" lon="6.57421">
        <ele>767</ele>
        <time>2020-07-19T09:05:36Z</time>
      </trkpt>
      <trkpt lat="45.50502" lon="6.57429">
        <ele>768</ele>
        <time>2020-07-19T09:05:40Z</time>
      </trkpt>
      <trkpt lat="45.50497" lon="6.57436">
        <ele>768.2</ele>
        <time>2020-07-19T09:05:44Z</time>
      </trkpt>
      <trkpt lat="45.50489" lon="6.57441">
        <ele>769</ele>
        <time>2020-07-19T09:05:48Z</time>
      </trkpt>
      <trkpt lat="45.50481" lon="6.57445">
        <ele>769.8</ele>
        <time>2020-07-19T09:05:52Z</time>
      </trkpt>
      <trkpt lat="45.50474" lon="6.57445">
        <ele>770.2</ele>
        <time>2020-07-19T09:05:56Z</time>
      </trkpt>
      <trkpt lat="45.50467" lon="6.57446">
        <ele>771</ele>
        <time>2020-07-19T09:06:00Z</time>
      </trkpt>
      <trkpt lat="45.5046" lon="6.57447">
        <ele>772</ele>
        <time>2020-07-19T09:06:04Z</time>
      </trkpt>
      <trkpt lat="45.50453" lon="6.57449">
        <ele>772</ele>
        <time>2020-07-19T09:06:08Z</time>
      </trkpt>
      <trkpt lat="45.50446" lon="6.57452">
        <ele>773.2</ele>
        <time>2020-07-19T09:06:12Z</time>
      </trkpt>
      <trkpt lat="45.5044" lon="6.57456">
        <ele>773.6</ele>
        <time>2020-07-19T09:06:16Z</time>
      </trkpt>
      <trkpt lat="45.50435" lon="6.57459">
        <ele>774.4</ele>
        <time>2020-07-19T09:06:20Z</time>
      </trkpt>
      <trkpt lat="45.50429" lon="6.57464">
        <ele>775</ele>
        <time>2020-07-19T09:06:24Z</time>
      </trkpt>
      <trkpt lat="45.50423" lon="6.57467">
        <ele>775.4</ele>
        <time>2020-07-19T09:06:28Z</time>
      </trkpt>
      <trkpt lat="45.50417" lon="6.5747">
        <ele>776</ele>
        <time>2020-07-19T09:06:32Z</time>
      </trkpt>
      <trkpt lat="45.50411" lon="6.57474">
        <ele>776.6</ele>
        <time>2020-07-19T09:06:36Z</time>
      </trkpt>
      <trkpt lat="45.50405" lon="6.57477">
        <ele>777.8</ele>
        <time>2020-07-19T09:06:40Z</time>
      </trkpt>
      <trkpt lat="45.504" lon="6.57481">
        <ele>777.8</ele>
        <time>2020-07-19T09:06:44Z</time>
      </trkpt>
      <trkpt lat="45.50395" lon="6.57484">
        <ele>778.2</ele>
        <time>2020-07-19T09:06:48Z</time>
      </trkpt>
      <trkpt lat="45.50389" lon="6.57487">
        <ele>779.4</ele>
        <time>2020-07-19T09:06:52Z</time>
      </trkpt>
      <trkpt lat="45.50383" lon="6.5749">
        <ele>780</ele>
        <time>2020-07-19T09:06:56Z</time>
      </trkpt>
      <trkpt lat="45.50376" lon="6.57492">
        <ele>780.6</ele>
        <time>2020-07-19T09:07:00Z</time>
      </trkpt>
      <trkpt lat="45.50369" lon="6.57493">
        <ele>781</ele>
        <time>2020-07-19T09:07:04Z</time>
      </trkpt>
      <trkpt lat="45.50364" lon="6.57492">
        <ele>781.6</ele>
        <time>2020-07-19T09:07:08Z</time>
      </trkpt>
      <trkpt lat="45.50358" lon="6.57496">
        <ele>782.2</ele>
        <time>2020-07-19T09:07:12Z</time>
      </trkpt>
      <trkpt lat="45.50357" lon="6.57504">
        <ele>782.8</ele>
        <time>2020-07-19T09:07:16Z</time>
      </trkpt>
      <trkpt lat="45.50359" lon="6.57511">
        <ele>782.6</ele>
        <time>2020-07-19T09:07:20Z</time>
      </trkpt>
      <trkpt lat="45.50366" lon="6.57512">
        <ele>783.4</ele>
        <time>2020-07-19T09:07:24Z</time>
      </trkpt>
      <trkpt lat="45.50374" lon="6.5751">
        <ele>783.4</ele>
        <time>2020-07-19T09:07:28Z</time>
      </trkpt>
      <trkpt lat="45.50381" lon="6.57509">
        <ele>784</ele>
        <time>2020-07-19T09:07:32Z</time>
      </trkpt>
      <trkpt lat="45.50388" lon="6.57509">
        <ele>784.2</ele>
        <time>2020-07-19T09:07:36Z</time>
      </trkpt>
      <trkpt lat="45.50395" lon="6.57509">
        <ele>785.4</ele>
        <time>2020-07-19T09:07:40Z</time>
      </trkpt>
      <trkpt lat="45.50402" lon="6.57509">
        <ele>785.4</ele>
        <time>2020-07-19T09:07:44Z</time>
      </trkpt>
      <trkpt lat="45.50408" lon="6.57509">
        <ele>786.4</ele>
        <time>2020-07-19T09:07:48Z</time>
      </trkpt>
      <trkpt lat="45.50415" lon="6.57508">
        <ele>787</ele>
        <time>2020-07-19T09:07:52Z</time>
      </trkpt>
      <trkpt lat="45.50421" lon="6.57508">
        <ele>788</ele>
        <time>2020-07-19T09:07:56Z</time>
      </trkpt>
      <trkpt lat="45.50428" lon="6.57509">
        <ele>788.6</ele>
        <time>2020-07-19T09:08:00Z</time>
      </trkpt>
      <trkpt lat="45.50435" lon="6.57511">
        <ele>789</ele>
        <time>2020-07-19T09:08:04Z</time>
      </trkpt>
      <trkpt lat="45.50441" lon="6.57511">
        <ele>789.4</ele>
        <time>2020-07-19T09:08:08Z</time>
      </trkpt>
      <trkpt lat="45.50447" lon="6.57512">
        <ele>790.2</ele>
        <time>2020-07-19T09:08:12Z</time>
      </trkpt>
      <trkpt lat="45.50454" lon="6.57511">
        <ele>791</ele>
        <time>2020-07-19T09:08:16Z</time>
      </trkpt>
      <trkpt lat="45.50461" lon="6.57511">
        <ele>791.4</ele>
        <time>2020-07-19T09:08:20Z</time>
      </trkpt>
      <trkpt lat="45.50468" lon="6.57511">
        <ele>792</ele>
        <time>2020-07-19T09:08:24Z</time>
      </trkpt>
      <trkpt lat="45.50475" lon="6.57512">
        <ele>792.6</ele>
        <time>2020-07-19T09:08:28Z</time>
      </trkpt>
      <trkpt lat="45.50482" lon="6.57512">
        <ele>793.2</ele>
        <time>2020-07-19T09:08:32Z</time>
      </trkpt>
      <trkpt lat="45.50489" lon="6.57511">
        <ele>793.6</ele>
        <time>2020-07-19T09:08:36Z</time>
      </trkpt>
      <trkpt lat="45.50495" lon="6.57509">
        <ele>794.2</ele>
        <time>2020-07-19T09:08:40Z</time>
      </trkpt>
      <trkpt lat="45.50501" lon="6.57506">
        <ele>795.6</ele>
        <time>2020-07-19T09:08:44Z</time>
      </trkpt>
      <trkpt lat="45.50507" lon="6.57501">
        <ele>795.8</ele>
        <time>2020-07-19T09:08:48Z</time>
      </trkpt>
      <trkpt lat="45.50513" lon="6.57494">
        <ele>796.4</ele>
        <time>2020-07-19T09:08:52Z</time>
      </trkpt>
      <trkpt lat="45.50518" lon="6.57488">
        <ele>796.6</ele>
        <time>2020-07-19T09:08:56Z</time>
      </trkpt>
      <trkpt lat="45.50524" lon="6.57483">
        <ele>797.2</ele>
        <time>2020-07-19T09:09:00Z</time>
      </trkpt>
      <trkpt lat="45.5053" lon="6.57481">
        <ele>798.2</ele>
        <time>2020-07-19T09:09:04Z</time>
      </trkpt>
      <trkpt lat="45.50536" lon="6.57477">
        <ele>799.2</ele>
        <time>2020-07-19T09:09:08Z</time>
      </trkpt>
      <trkpt lat="45.50541" lon="6.57476">
        <ele>799.6</ele>
        <time>2020-07-19T09:09:12Z</time>
      </trkpt>
      <trkpt lat="45.50547" lon="6.57476">
        <ele>800.2</ele>
        <time>2020-07-19T09:09:16Z</time>
      </trkpt>
      <trkpt lat="45.50553" lon="6.57477">
        <ele>800.8</ele>
        <time>2020-07-19T09:09:20Z</time>
      </trkpt>
      <trkpt lat="45.50556" lon="6.5748">
        <ele>801.6</ele>
        <time>2020-07-19T09:09:24Z</time>
      </trkpt>
      <trkpt lat="45.50558" lon="6.57484">
        <ele>801.8</ele>
        <time>2020-07-19T09:09:28Z</time>
      </trkpt>
      <trkpt lat="45.50563" lon="6.57488">
        <ele>802.4</ele>
        <time>2020-07-19T09:09:32Z</time>
      </trkpt>
      <trkpt lat="45.5057" lon="6.57492">
        <ele>803</ele>
        <time>2020-07-19T09:09:36Z</time>
      </trkpt>
      <trkpt lat="45.50577" lon="6.57496">
        <ele>803.8</ele>
        <time>2020-07-19T09:09:40Z</time>
      </trkpt>
      <trkpt lat="45.50584" lon="6.575">
        <ele>804.4</ele>
        <time>2020-07-19T09:09:44Z</time>
      </trkpt>
      <trkpt lat="45.5059" lon="6.57503">
        <ele>805.6</ele>
        <time>2020-07-19T09:09:48Z</time>
      </trkpt>
      <trkpt lat="45.50597" lon="6.57506">
        <ele>806.2</ele>
        <time>2020-07-19T09:09:52Z</time>
      </trkpt>
      <trkpt lat="45.50604" lon="6.57508">
        <ele>806.4</ele>
        <time>2020-07-19T09:09:56Z</time>
      </trkpt>
      <trkpt lat="45.50611" lon="6.5751">
        <ele>807.6</ele>
        <time>2020-07-19T09:10:00Z</time>
      </trkpt>
      <trkpt lat="45.50618" lon="6.57507">
        <ele>807.8</ele>
        <time>2020-07-19T09:10:04Z</time>
      </trkpt>
      <trkpt lat="45.50624" lon="6.57503">
        <ele>808</ele>
        <time>2020-07-19T09:10:08Z</time>
      </trkpt>
      <trkpt lat="45.50631" lon="6.57499">
        <ele>808.6</ele>
        <time>2020-07-19T09:10:12Z</time>
      </trkpt>
      <trkpt lat="45.50637" lon="6.57497">
        <ele>809.6</ele>
        <time>2020-07-19T09:10:16Z</time>
      </trkpt>
      <trkpt lat="45.50643" lon="6.57493">
        <ele>810</ele>
        <time>2020-07-19T09:10:20Z</time>
      </trkpt>
      <trkpt lat="45.50649" lon="6.5749">
        <ele>810.2</ele>
        <time>2020-07-19T09:10:24Z</time>
      </trkpt>
      <trkpt lat="45.50656" lon="6.57486">
        <ele>811</ele>
        <time>2020-07-19T09:10:28Z</time>
      </trkpt>
      <trkpt lat="45.50662" lon="6.57484">
        <ele>811.8</ele>
        <time>2020-07-19T09:10:32Z</time>
      </trkpt>
      <trkpt lat="45.50668" lon="6.57486">
        <ele>812</ele>
        <time>2020-07-19T09:10:36Z</time>
      </trkpt>
      <trkpt lat="45.50671" lon="6.57493">
        <ele>812.8</ele>
        <time>2020-07-19T09:10:40Z</time>
      </trkpt>
      <trkpt lat="45.50669" lon="6.57499">
        <ele>814</ele>
        <time>2020-07-19T09:10:44Z</time>
      </trkpt>
      <trkpt lat="45.50662" lon="6.575">
        <ele>813.4</ele>
        <time>2020-07-19T09:10:48Z</time>
      </trkpt>
      <trkpt lat="45.50655" lon="6.575">
        <ele>814.4</ele>
        <time>2020-07-19T09:10:52Z</time>
      </trkpt>
      <trkpt lat="45.50649" lon="6.57499">
        <ele>815.6</ele>
        <time>2020-07-19T09:10:56Z</time>
      </trkpt>
      <trkpt lat="45.50643" lon="6.575">
        <ele>816.2</ele>
        <time>2020-07-19T09:11:00Z</time>
      </trkpt>
      <trkpt lat="45.50638" lon="6.57503">
        <ele>816.4</ele>
        <time>2020-07-19T09:11:04Z</time>
      </trkpt>
      <trkpt lat="45.50633" lon="6.57508">
        <ele>816.6</ele>
        <time>2020-07-19T09:11:08Z</time>
      </trkpt>
      <trkpt lat="45.5063" lon="6.57514">
        <ele>817.4</ele>
        <time>2020-07-19T09:11:12Z</time>
      </trkpt>
      <trkpt lat="45.50629" lon="6.5752">
        <ele>818</ele>
        <time>2020-07-19T09:11:16Z</time>
      </trkpt>
      <trkpt lat="45.50627" lon="6.57526">
        <ele>818.8</ele>
        <time>2020-07-19T09:11:20Z</time>
      </trkpt>
      <trkpt lat="45.50624" lon="6.57533">
        <ele>819.6</ele>
        <time>2020-07-19T09:11:24Z</time>
      </trkpt>
      <trkpt lat="45.50623" lon="6.57538">
        <ele>820.4</ele>
        <time>2020-07-19T09:11:28Z</time>
      </trkpt>
      <trkpt lat="45.5062" lon="6.57549">
        <ele>821.2</ele>
        <time>2020-07-19T09:11:32Z</time>
      </trkpt>
      <trkpt lat="45.50616" lon="6.57559">
        <ele>821.8</ele>
        <time>2020-07-19T09:11:36Z</time>
      </trkpt>
      <trkpt lat="45.50617" lon="6.57566">
        <ele>822.2</ele>
        <time>2020-07-19T09:11:40Z</time>
      </trkpt>
      <trkpt lat="45.5062" lon="6.57573">
        <ele>823.2</ele>
        <time>2020-07-19T09:11:44Z</time>
      </trkpt>
      <trkpt lat="45.50624" lon="6.57579">
        <ele>824.2</ele>
        <time>2020-07-19T09:11:48Z</time>
      </trkpt>
      <trkpt lat="45.50629" lon="6.57583">
        <ele>824.4</ele>
        <time>2020-07-19T09:11:52Z</time>
      </trkpt>
      <trkpt lat="45.50629" lon="6.57583">
        <ele>825</ele>
        <time>2020-07-19T09:11:56Z</time>
      </trkpt>
      <trkpt lat="45.50634" lon="6.57589">
        <ele>825.6</ele>
        <time>2020-07-19T09:12:00Z</time>
      </trkpt>
      <trkpt lat="45.50639" lon="6.57596">
        <ele>826</ele>
        <time>2020-07-19T09:12:04Z</time>
      </trkpt>
      <trkpt lat="45.50646" lon="6.576">
        <ele>826.6</ele>
        <time>2020-07-19T09:12:08Z</time>
      </trkpt>
      <trkpt lat="45.50653" lon="6.57604">
        <ele>827.4</ele>
        <time>2020-07-19T09:12:12Z</time>
      </trkpt>
      <trkpt lat="45.50659" lon="6.57606">
        <ele>827.8</ele>
        <time>2020-07-19T09:12:16Z</time>
      </trkpt>
      <trkpt lat="45.50666" lon="6.57608">
        <ele>828.6</ele>
        <time>2020-07-19T09:12:20Z</time>
      </trkpt>
      <trkpt lat="45.50673" lon="6.57604">
        <ele>829.2</ele>
        <time>2020-07-19T09:12:24Z</time>
      </trkpt>
      <trkpt lat="45.50679" lon="6.57597">
        <ele>829.6</ele>
        <time>2020-07-19T09:12:28Z</time>
      </trkpt>
      <trkpt lat="45.50684" lon="6.57588">
        <ele>830.2</ele>
        <time>2020-07-19T09:12:32Z</time>
      </trkpt>
      <trkpt lat="45.50691" lon="6.57582">
        <ele>830.2</ele>
        <time>2020-07-19T09:12:36Z</time>
      </trkpt>
      <trkpt lat="45.50698" lon="6.57579">
        <ele>830.6</ele>
        <time>2020-07-19T09:12:40Z</time>
      </trkpt>
      <trkpt lat="45.50704" lon="6.57581">
        <ele>832.2</ele>
        <time>2020-07-19T09:12:44Z</time>
      </trkpt>
      <trkpt lat="45.50707" lon="6.57586">
        <ele>831.8</ele>
        <time>2020-07-19T09:12:48Z</time>
      </trkpt>
      <trkpt lat="45.50711" lon="6.57594">
        <ele>833</ele>
        <time>2020-07-19T09:12:52Z</time>
      </trkpt>
      <trkpt lat="45.50712" lon="6.57603">
        <ele>833.4</ele>
        <time>2020-07-19T09:12:56Z</time>
      </trkpt>
      <trkpt lat="45.50711" lon="6.57611">
        <ele>833.8</ele>
        <time>2020-07-19T09:13:00Z</time>
      </trkpt>
      <trkpt lat="45.50711" lon="6.57618">
        <ele>834.4</ele>
        <time>2020-07-19T09:13:04Z</time>
      </trkpt>
      <trkpt lat="45.50711" lon="6.57625">
        <ele>834.8</ele>
        <time>2020-07-19T09:13:08Z</time>
      </trkpt>
      <trkpt lat="45.50711" lon="6.57634">
        <ele>835.8</ele>
        <time>2020-07-19T09:13:12Z</time>
      </trkpt>
      <trkpt lat="45.50714" lon="6.57643">
        <ele>836.6</ele>
        <time>2020-07-19T09:13:16Z</time>
      </trkpt>
      <trkpt lat="45.50718" lon="6.57649">
        <ele>837.2</ele>
        <time>2020-07-19T09:13:20Z</time>
      </trkpt>
      <trkpt lat="45.50723" lon="6.57653">
        <ele>837.6</ele>
        <time>2020-07-19T09:13:24Z</time>
      </trkpt>
      <trkpt lat="45.5074" lon="6.57655">
        <ele>839</ele>
        <time>2020-07-19T09:14:21Z</time>
      </trkpt>
      <trkpt lat="45.50746" lon="6.57648">
        <ele>840</ele>
        <time>2020-07-19T09:14:25Z</time>
      </trkpt>
      <trkpt lat="45.50752" lon="6.57643">
        <ele>840.2</ele>
        <time>2020-07-19T09:14:29Z</time>
      </trkpt>
      <trkpt lat="45.50758" lon="6.57639">
        <ele>840.4</ele>
        <time>2020-07-19T09:14:33Z</time>
      </trkpt>
      <trkpt lat="45.50765" lon="6.57639">
        <ele>841</ele>
        <time>2020-07-19T09:14:37Z</time>
      </trkpt>
      <trkpt lat="45.50771" lon="6.57642">
        <ele>841.2</ele>
        <time>2020-07-19T09:14:41Z</time>
      </trkpt>
      <trkpt lat="45.50778" lon="6.57646">
        <ele>841.4</ele>
        <time>2020-07-19T09:14:45Z</time>
      </trkpt>
      <trkpt lat="45.50782" lon="6.57655">
        <ele>842</ele>
        <time>2020-07-19T09:14:49Z</time>
      </trkpt>
      <trkpt lat="45.50787" lon="6.57664">
        <ele>842</ele>
        <time>2020-07-19T09:14:53Z</time>
      </trkpt>
      <trkpt lat="45.50787" lon="6.57673">
        <ele>843</ele>
        <time>2020-07-19T09:14:57Z</time>
      </trkpt>
      <trkpt lat="45.50788" lon="6.57681">
        <ele>843.2</ele>
        <time>2020-07-19T09:15:01Z</time>
      </trkpt>
      <trkpt lat="45.50787" lon="6.57689">
        <ele>844.2</ele>
        <time>2020-07-19T09:15:05Z</time>
      </trkpt>
      <trkpt lat="45.50786" lon="6.57695">
        <ele>844.8</ele>
        <time>2020-07-19T09:15:09Z</time>
      </trkpt>
      <trkpt lat="45.50783" lon="6.57701">
        <ele>845.8</ele>
        <time>2020-07-19T09:15:13Z</time>
      </trkpt>
      <trkpt lat="45.50776" lon="6.57705">
        <ele>846.6</ele>
        <time>2020-07-19T09:15:17Z</time>
      </trkpt>
      <trkpt lat="45.50766" lon="6.57708">
        <ele>847.2</ele>
        <time>2020-07-19T09:15:21Z</time>
      </trkpt>
      <trkpt lat="45.50758" lon="6.57708">
        <ele>847.6</ele>
        <time>2020-07-19T09:15:25Z</time>
      </trkpt>
      <trkpt lat="45.50752" lon="6.57705">
        <ele>848.4</ele>
        <time>2020-07-19T09:15:29Z</time>
      </trkpt>
      <trkpt lat="45.50746" lon="6.57702">
        <ele>848.8</ele>
        <time>2020-07-19T09:15:33Z</time>
      </trkpt>
      <trkpt lat="45.5074" lon="6.57699">
        <ele>850</ele>
        <time>2020-07-19T09:15:37Z</time>
      </trkpt>
      <trkpt lat="45.50733" lon="6.57698">
        <ele>850.4</ele>
        <time>2020-07-19T09:15:41Z</time>
      </trkpt>
      <trkpt lat="45.50727" lon="6.57697">
        <ele>851.2</ele>
        <time>2020-07-19T09:15:45Z</time>
      </trkpt>
      <trkpt lat="45.50721" lon="6.57695">
        <ele>851.6</ele>
        <time>2020-07-19T09:15:49Z</time>
      </trkpt>
      <trkpt lat="45.50714" lon="6.57695">
        <ele>852</ele>
        <time>2020-07-19T09:15:53Z</time>
      </trkpt>
      <trkpt lat="45.50709" lon="6.57695">
        <ele>853</ele>
        <time>2020-07-19T09:15:57Z</time>
      </trkpt>
      <trkpt lat="45.50703" lon="6.57695">
        <ele>853.2</ele>
        <time>2020-07-19T09:16:01Z</time>
      </trkpt>
      <trkpt lat="45.50697" lon="6.57696">
        <ele>854</ele>
        <time>2020-07-19T09:16:05Z</time>
      </trkpt>
      <trkpt lat="45.50691" lon="6.57697">
        <ele>855.2</ele>
        <time>2020-07-19T09:16:09Z</time>
      </trkpt>
      <trkpt lat="45.50683" lon="6.57698">
        <ele>855.4</ele>
        <time>2020-07-19T09:16:13Z</time>
      </trkpt>
      <trkpt lat="45.50676" lon="6.57697">
        <ele>856.2</ele>
        <time>2020-07-19T09:16:17Z</time>
      </trkpt>
      <trkpt lat="45.5067" lon="6.57695">
        <ele>857</ele>
        <time>2020-07-19T09:16:21Z</time>
      </trkpt>
      <trkpt lat="45.50665" lon="6.57691">
        <ele>857.4</ele>
        <time>2020-07-19T09:16:25Z</time>
      </trkpt>
      <trkpt lat="45.50659" lon="6.57689">
        <ele>858.4</ele>
        <time>2020-07-19T09:16:29Z</time>
      </trkpt>
      <trkpt lat="45.50652" lon="6.57687">
        <ele>858.6</ele>
        <time>2020-07-19T09:16:33Z</time>
      </trkpt>
      <trkpt lat="45.50645" lon="6.57684">
        <ele>859.4</ele>
        <time>2020-07-19T09:16:37Z</time>
      </trkpt>
      <trkpt lat="45.50639" lon="6.57681">
        <ele>860.2</ele>
        <time>2020-07-19T09:16:41Z</time>
      </trkpt>
      <trkpt lat="45.50633" lon="6.57678">
        <ele>860.8</ele>
        <time>2020-07-19T09:16:45Z</time>
      </trkpt>
      <trkpt lat="45.50627" lon="6.57675">
        <ele>861.8</ele>
        <time>2020-07-19T09:16:49Z</time>
      </trkpt>
      <trkpt lat="45.5062" lon="6.57675">
        <ele>862.2</ele>
        <time>2020-07-19T09:16:53Z</time>
      </trkpt>
      <trkpt lat="45.50615" lon="6.57673">
        <ele>862.8</ele>
        <time>2020-07-19T09:16:57Z</time>
      </trkpt>
      <trkpt lat="45.50608" lon="6.57672">
        <ele>863.6</ele>
        <time>2020-07-19T09:17:01Z</time>
      </trkpt>
      <trkpt lat="45.50601" lon="6.5767">
        <ele>864</ele>
        <time>2020-07-19T09:17:05Z</time>
      </trkpt>
      <trkpt lat="45.50595" lon="6.57669">
        <ele>864.2</ele>
        <time>2020-07-19T09:17:09Z</time>
      </trkpt>
      <trkpt lat="45.50588" lon="6.57668">
        <ele>865.4</ele>
        <time>2020-07-19T09:17:13Z</time>
      </trkpt>
      <trkpt lat="45.50583" lon="6.57668">
        <ele>866</ele>
        <time>2020-07-19T09:17:17Z</time>
      </trkpt>
      <trkpt lat="45.50577" lon="6.57667">
        <ele>866.8</ele>
        <time>2020-07-19T09:17:21Z</time>
      </trkpt>
      <trkpt lat="45.50571" lon="6.5767">
        <ele>866.8</ele>
        <time>2020-07-19T09:17:25Z</time>
      </trkpt>
      <trkpt lat="45.50566" lon="6.57672">
        <ele>868</ele>
        <time>2020-07-19T09:17:29Z</time>
      </trkpt>
      <trkpt lat="45.5056" lon="6.57673">
        <ele>868.4</ele>
        <time>2020-07-19T09:17:33Z</time>
      </trkpt>
      <trkpt lat="45.50554" lon="6.57673">
        <ele>869.2</ele>
        <time>2020-07-19T09:17:37Z</time>
      </trkpt>
      <trkpt lat="45.50548" lon="6.57673">
        <ele>869.2</ele>
        <time>2020-07-19T09:17:41Z</time>
      </trkpt>
      <trkpt lat="45.50541" lon="6.57672">
        <ele>870</ele>
        <time>2020-07-19T09:17:45Z</time>
      </trkpt>
      <trkpt lat="45.50535" lon="6.57673">
        <ele>870.4</ele>
        <time>2020-07-19T09:17:49Z</time>
      </trkpt>
      <trkpt lat="45.50528" lon="6.57676">
        <ele>871</ele>
        <time>2020-07-19T09:17:53Z</time>
      </trkpt>
      <trkpt lat="45.50521" lon="6.57679">
        <ele>872</ele>
        <time>2020-07-19T09:17:57Z</time>
      </trkpt>
      <trkpt lat="45.50514" lon="6.57683">
        <ele>873</ele>
        <time>2020-07-19T09:18:01Z</time>
      </trkpt>
      <trkpt lat="45.50509" lon="6.57687">
        <ele>873.2</ele>
        <time>2020-07-19T09:18:05Z</time>
      </trkpt>
      <trkpt lat="45.50503" lon="6.57691">
        <ele>873.8</ele>
        <time>2020-07-19T09:18:09Z</time>
      </trkpt>
      <trkpt lat="45.50497" lon="6.57694">
        <ele>874.6</ele>
        <time>2020-07-19T09:18:13Z</time>
      </trkpt>
      <trkpt lat="45.50489" lon="6.57695">
        <ele>874.8</ele>
        <time>2020-07-19T09:18:17Z</time>
      </trkpt>
      <trkpt lat="45.50482" lon="6.57696">
        <ele>875.4</ele>
        <time>2020-07-19T09:18:21Z</time>
      </trkpt>
      <trkpt lat="45.50476" lon="6.57701">
        <ele>875.8</ele>
        <time>2020-07-19T09:18:25Z</time>
      </trkpt>
      <trkpt lat="45.50475" lon="6.5771">
        <ele>876.4</ele>
        <time>2020-07-19T09:18:29Z</time>
      </trkpt>
      <trkpt lat="45.50479" lon="6.57717">
        <ele>876.6</ele>
        <time>2020-07-19T09:18:33Z</time>
      </trkpt>
      <trkpt lat="45.50486" lon="6.57717">
        <ele>877.6</ele>
        <time>2020-07-19T09:18:37Z</time>
      </trkpt>
      <trkpt lat="45.50493" lon="6.57715">
        <ele>878.2</ele>
        <time>2020-07-19T09:18:41Z</time>
      </trkpt>
      <trkpt lat="45.505" lon="6.57715">
        <ele>878.4</ele>
        <time>2020-07-19T09:18:45Z</time>
      </trkpt>
      <trkpt lat="45.50507" lon="6.57714">
        <ele>879</ele>
        <time>2020-07-19T09:18:49Z</time>
      </trkpt>
      <trkpt lat="45.50514" lon="6.57714">
        <ele>879.4</ele>
        <time>2020-07-19T09:18:53Z</time>
      </trkpt>
      <trkpt lat="45.50521" lon="6.57714">
        <ele>880.4</ele>
        <time>2020-07-19T09:18:57Z</time>
      </trkpt>
      <trkpt lat="45.50528" lon="6.57714">
        <ele>880.6</ele>
        <time>2020-07-19T09:19:01Z</time>
      </trkpt>
      <trkpt lat="45.50534" lon="6.57716">
        <ele>881.6</ele>
        <time>2020-07-19T09:19:05Z</time>
      </trkpt>
      <trkpt lat="45.50541" lon="6.57718">
        <ele>882</ele>
        <time>2020-07-19T09:19:09Z</time>
      </trkpt>
      <trkpt lat="45.50548" lon="6.5772">
        <ele>883</ele>
        <time>2020-07-19T09:19:13Z</time>
      </trkpt>
      <trkpt lat="45.50554" lon="6.57722">
        <ele>883.6</ele>
        <time>2020-07-19T09:19:17Z</time>
      </trkpt>
      <trkpt lat="45.5056" lon="6.57724">
        <ele>884.2</ele>
        <time>2020-07-19T09:19:21Z</time>
      </trkpt>
      <trkpt lat="45.50566" lon="6.57727">
        <ele>884.8</ele>
        <time>2020-07-19T09:19:25Z</time>
      </trkpt>
      <trkpt lat="45.50572" lon="6.57729">
        <ele>885.8</ele>
        <time>2020-07-19T09:19:29Z</time>
      </trkpt>
      <trkpt lat="45.50578" lon="6.57732">
        <ele>886.2</ele>
        <time>2020-07-19T09:19:33Z</time>
      </trkpt>
      <trkpt lat="45.50585" lon="6.57735">
        <ele>887.2</ele>
        <time>2020-07-19T09:19:37Z</time>
      </trkpt>
      <trkpt lat="45.50591" lon="6.57738">
        <ele>887.2</ele>
        <time>2020-07-19T09:19:41Z</time>
      </trkpt>
      <trkpt lat="45.50598" lon="6.5774">
        <ele>888</ele>
        <time>2020-07-19T09:19:45Z</time>
      </trkpt>
      <trkpt lat="45.50603" lon="6.57742">
        <ele>888.8</ele>
        <time>2020-07-19T09:19:49Z</time>
      </trkpt>
      <trkpt lat="45.50609" lon="6.57746">
        <ele>889</ele>
        <time>2020-07-19T09:19:53Z</time>
      </trkpt>
      <trkpt lat="45.50616" lon="6.5775">
        <ele>890.2</ele>
        <time>2020-07-19T09:19:57Z</time>
      </trkpt>
      <trkpt lat="45.50622" lon="6.57753">
        <ele>890.4</ele>
        <time>2020-07-19T09:20:01Z</time>
      </trkpt>
      <trkpt lat="45.50627" lon="6.57757">
        <ele>891.4</ele>
        <time>2020-07-19T09:20:05Z</time>
      </trkpt>
      <trkpt lat="45.50632" lon="6.57761">
        <ele>892</ele>
        <time>2020-07-19T09:20:09Z</time>
      </trkpt>
      <trkpt lat="45.50637" lon="6.57766">
        <ele>892.2</ele>
        <time>2020-07-19T09:20:13Z</time>
      </trkpt>
      <trkpt lat="45.50642" lon="6.57771">
        <ele>893</ele>
        <time>2020-07-19T09:20:17Z</time>
      </trkpt>
      <trkpt lat="45.50647" lon="6.57775">
        <ele>893.8</ele>
        <time>2020-07-19T09:20:21Z</time>
      </trkpt>
      <trkpt lat="45.50652" lon="6.5778">
        <ele>894.2</ele>
        <time>2020-07-19T09:20:25Z</time>
      </trkpt>
      <trkpt lat="45.50653" lon="6.57789">
        <ele>894.2</ele>
        <time>2020-07-19T09:20:29Z</time>
      </trkpt>
      <trkpt lat="45.50648" lon="6.57792">
        <ele>894.6</ele>
        <time>2020-07-19T09:20:33Z</time>
      </trkpt>
      <trkpt lat="45.50642" lon="6.57789">
        <ele>895.6</ele>
        <time>2020-07-19T09:20:37Z</time>
      </trkpt>
      <trkpt lat="45.50638" lon="6.57783">
        <ele>896</ele>
        <time>2020-07-19T09:20:41Z</time>
      </trkpt>
      <trkpt lat="45.50633" lon="6.57776">
        <ele>896.8</ele>
        <time>2020-07-19T09:20:45Z</time>
      </trkpt>
      <trkpt lat="45.50627" lon="6.57771">
        <ele>897.2</ele>
        <time>2020-07-19T09:20:49Z</time>
      </trkpt>
      <trkpt lat="45.5062" lon="6.57768">
        <ele>898</ele>
        <time>2020-07-19T09:20:53Z</time>
      </trkpt>
      <trkpt lat="45.50613" lon="6.57766">
        <ele>899</ele>
        <time>2020-07-19T09:20:57Z</time>
      </trkpt>
      <trkpt lat="45.50607" lon="6.57766">
        <ele>899.4</ele>
        <time>2020-07-19T09:21:01Z</time>
      </trkpt>
      <trkpt lat="45.506" lon="6.57764">
        <ele>899.8</ele>
        <time>2020-07-19T09:21:05Z</time>
      </trkpt>
      <trkpt lat="45.50594" lon="6.57765">
        <ele>900.4</ele>
        <time>2020-07-19T09:21:09Z</time>
      </trkpt>
      <trkpt lat="45.50588" lon="6.57769">
        <ele>901.2</ele>
        <time>2020-07-19T09:21:13Z</time>
      </trkpt>
      <trkpt lat="45.50584" lon="6.57774">
        <ele>901.8</ele>
        <time>2020-07-19T09:21:17Z</time>
      </trkpt>
      <trkpt lat="45.5058" lon="6.5778">
        <ele>903.2</ele>
        <time>2020-07-19T09:21:21Z</time>
      </trkpt>
      <trkpt lat="45.50579" lon="6.57787">
        <ele>903.2</ele>
        <time>2020-07-19T09:21:25Z</time>
      </trkpt>
      <trkpt lat="45.50577" lon="6.57795">
        <ele>904.2</ele>
        <time>2020-07-19T09:21:29Z</time>
      </trkpt>
      <trkpt lat="45.50573" lon="6.578">
        <ele>905</ele>
        <time>2020-07-19T09:21:33Z</time>
      </trkpt>
      <trkpt lat="45.50568" lon="6.57805">
        <ele>905.6</ele>
        <time>2020-07-19T09:21:37Z</time>
      </trkpt>
      <trkpt lat="45.50563" lon="6.57807">
        <ele>905.8</ele>
        <time>2020-07-19T09:21:41Z</time>
      </trkpt>
      <trkpt lat="45.50556" lon="6.57807">
        <ele>906</ele>
        <time>2020-07-19T09:21:45Z</time>
      </trkpt>
      <trkpt lat="45.50547" lon="6.57808">
        <ele>906.8</ele>
        <time>2020-07-19T09:21:49Z</time>
      </trkpt>
      <trkpt lat="45.5054" lon="6.57809">
        <ele>907.4</ele>
        <time>2020-07-19T09:21:53Z</time>
      </trkpt>
      <trkpt lat="45.50534" lon="6.57806">
        <ele>907.6</ele>
        <time>2020-07-19T09:21:57Z</time>
      </trkpt>
      <trkpt lat="45.50527" lon="6.57804">
        <ele>909</ele>
        <time>2020-07-19T09:22:01Z</time>
      </trkpt>
      <trkpt lat="45.50519" lon="6.57804">
        <ele>909.8</ele>
        <time>2020-07-19T09:22:05Z</time>
      </trkpt>
      <trkpt lat="45.50514" lon="6.57802">
        <ele>910</ele>
        <time>2020-07-19T09:22:09Z</time>
      </trkpt>
      <trkpt lat="45.50506" lon="6.57803">
        <ele>910.2</ele>
        <time>2020-07-19T09:22:13Z</time>
      </trkpt>
      <trkpt lat="45.50498" lon="6.57806">
        <ele>910.8</ele>
        <time>2020-07-19T09:22:17Z</time>
      </trkpt>
      <trkpt lat="45.50491" lon="6.57811">
        <ele>910.8</ele>
        <time>2020-07-19T09:22:21Z</time>
      </trkpt>
      <trkpt lat="45.50485" lon="6.57817">
        <ele>912</ele>
        <time>2020-07-19T09:22:25Z</time>
      </trkpt>
      <trkpt lat="45.50479" lon="6.57823">
        <ele>912.8</ele>
        <time>2020-07-19T09:22:29Z</time>
      </trkpt>
      <trkpt lat="45.50472" lon="6.5783">
        <ele>913.2</ele>
        <time>2020-07-19T09:22:33Z</time>
      </trkpt>
      <trkpt lat="45.50466" lon="6.57836">
        <ele>913.6</ele>
        <time>2020-07-19T09:22:37Z</time>
      </trkpt>
      <trkpt lat="45.50459" lon="6.57842">
        <ele>914.4</ele>
        <time>2020-07-19T09:22:41Z</time>
      </trkpt>
      <trkpt lat="45.50452" lon="6.57846">
        <ele>915.2</ele>
        <time>2020-07-19T09:22:45Z</time>
      </trkpt>
      <trkpt lat="45.50445" lon="6.57849">
        <ele>915.8</ele>
        <time>2020-07-19T09:22:49Z</time>
      </trkpt>
      <trkpt lat="45.5044" lon="6.57854">
        <ele>916.2</ele>
        <time>2020-07-19T09:22:53Z</time>
      </trkpt>
      <trkpt lat="45.50438" lon="6.57862">
        <ele>916.6</ele>
        <time>2020-07-19T09:22:57Z</time>
      </trkpt>
      <trkpt lat="45.50441" lon="6.57871">
        <ele>917</ele>
        <time>2020-07-19T09:23:01Z</time>
      </trkpt>
      <trkpt lat="45.50448" lon="6.57874">
        <ele>917.2</ele>
        <time>2020-07-19T09:23:05Z</time>
      </trkpt>
      <trkpt lat="45.50456" lon="6.57873">
        <ele>918.2</ele>
        <time>2020-07-19T09:23:09Z</time>
      </trkpt>
      <trkpt lat="45.50463" lon="6.57872">
        <ele>919.2</ele>
        <time>2020-07-19T09:23:13Z</time>
      </trkpt>
      <trkpt lat="45.50469" lon="6.57871">
        <ele>919.8</ele>
        <time>2020-07-19T09:23:17Z</time>
      </trkpt>
      <trkpt lat="45.50476" lon="6.57872">
        <ele>920</ele>
        <time>2020-07-19T09:23:21Z</time>
      </trkpt>
      <trkpt lat="45.50483" lon="6.57873">
        <ele>921.4</ele>
        <time>2020-07-19T09:23:25Z</time>
      </trkpt>
      <trkpt lat="45.50489" lon="6.57874">
        <ele>922</ele>
        <time>2020-07-19T09:23:29Z</time>
      </trkpt>
      <trkpt lat="45.50496" lon="6.57874">
        <ele>922.4</ele>
        <time>2020-07-19T09:23:33Z</time>
      </trkpt>
      <trkpt lat="45.50503" lon="6.57874">
        <ele>923.6</ele>
        <time>2020-07-19T09:23:37Z</time>
      </trkpt>
      <trkpt lat="45.5051" lon="6.57873">
        <ele>923.6</ele>
        <time>2020-07-19T09:23:41Z</time>
      </trkpt>
      <trkpt lat="45.50517" lon="6.57871">
        <ele>924.2</ele>
        <time>2020-07-19T09:23:45Z</time>
      </trkpt>
      <trkpt lat="45.50523" lon="6.5787">
        <ele>925</ele>
        <time>2020-07-19T09:23:49Z</time>
      </trkpt>
      <trkpt lat="45.5053" lon="6.5787">
        <ele>926.2</ele>
        <time>2020-07-19T09:23:53Z</time>
      </trkpt>
      <trkpt lat="45.50536" lon="6.57871">
        <ele>926.6</ele>
        <time>2020-07-19T09:23:57Z</time>
      </trkpt>
      <trkpt lat="45.50542" lon="6.57871">
        <ele>927</ele>
        <time>2020-07-19T09:24:01Z</time>
      </trkpt>
      <trkpt lat="45.50548" lon="6.57873">
        <ele>927.8</ele>
        <time>2020-07-19T09:24:05Z</time>
      </trkpt>
      <trkpt lat="45.50555" lon="6.57875">
        <ele>928.4</ele>
        <time>2020-07-19T09:24:09Z</time>
      </trkpt>
      <trkpt lat="45.50562" lon="6.57878">
        <ele>929</ele>
        <time>2020-07-19T09:24:13Z</time>
      </trkpt>
      <trkpt lat="45.50568" lon="6.57882">
        <ele>929.2</ele>
        <time>2020-07-19T09:24:17Z</time>
      </trkpt>
      <trkpt lat="45.50574" lon="6.57887">
        <ele>930</ele>
        <time>2020-07-19T09:24:21Z</time>
      </trkpt>
      <trkpt lat="45.50579" lon="6.57893">
        <ele>930.6</ele>
        <time>2020-07-19T09:24:25Z</time>
      </trkpt>
      <trkpt lat="45.50583" lon="6.579">
        <ele>931.2</ele>
        <time>2020-07-19T09:24:29Z</time>
      </trkpt>
      <trkpt lat="45.50588" lon="6.57908">
        <ele>932</ele>
        <time>2020-07-19T09:24:33Z</time>
      </trkpt>
      <trkpt lat="45.5059" lon="6.57914">
        <ele>932.4</ele>
        <time>2020-07-19T09:24:37Z</time>
      </trkpt>
      <trkpt lat="45.50594" lon="6.5792">
        <ele>933.4</ele>
        <time>2020-07-19T09:24:41Z</time>
      </trkpt>
      <trkpt lat="45.50598" lon="6.57926">
        <ele>934</ele>
        <time>2020-07-19T09:24:45Z</time>
      </trkpt>
      <trkpt lat="45.50606" lon="6.57929">
        <ele>934.6</ele>
        <time>2020-07-19T09:24:49Z</time>
      </trkpt>
      <trkpt lat="45.50612" lon="6.57935">
        <ele>935.2</ele>
        <time>2020-07-19T09:24:53Z</time>
      </trkpt>
      <trkpt lat="45.50618" lon="6.57942">
        <ele>935.6</ele>
        <time>2020-07-19T09:24:57Z</time>
      </trkpt>
      <trkpt lat="45.50624" lon="6.57945">
        <ele>936.6</ele>
        <time>2020-07-19T09:25:01Z</time>
      </trkpt>
      <trkpt lat="45.50631" lon="6.57947">
        <ele>937.2</ele>
        <time>2020-07-19T09:25:05Z</time>
      </trkpt>
      <trkpt lat="45.50638" lon="6.57949">
        <ele>937.8</ele>
        <time>2020-07-19T09:25:09Z</time>
      </trkpt>
      <trkpt lat="45.50645" lon="6.57951">
        <ele>938.8</ele>
        <time>2020-07-19T09:25:13Z</time>
      </trkpt>
      <trkpt lat="45.50651" lon="6.57955">
        <ele>939.6</ele>
        <time>2020-07-19T09:25:17Z</time>
      </trkpt>
      <trkpt lat="45.50658" lon="6.5796">
        <ele>939.8</ele>
        <time>2020-07-19T09:25:21Z</time>
      </trkpt>
      <trkpt lat="45.50664" lon="6.57964">
        <ele>940.4</ele>
        <time>2020-07-19T09:25:25Z</time>
      </trkpt>
      <trkpt lat="45.50669" lon="6.57968">
        <ele>941.4</ele>
        <time>2020-07-19T09:25:29Z</time>
      </trkpt>
      <trkpt lat="45.50676" lon="6.57969">
        <ele>942.2</ele>
        <time>2020-07-19T09:25:33Z</time>
      </trkpt>
      <trkpt lat="45.50684" lon="6.57972">
        <ele>942.8</ele>
        <time>2020-07-19T09:25:37Z</time>
      </trkpt>
      <trkpt lat="45.5069" lon="6.57971">
        <ele>943.4</ele>
        <time>2020-07-19T09:25:41Z</time>
      </trkpt>
      <trkpt lat="45.50697" lon="6.57969">
        <ele>943.8</ele>
        <time>2020-07-19T09:25:45Z</time>
      </trkpt>
      <trkpt lat="45.50703" lon="6.57969">
        <ele>944.4</ele>
        <time>2020-07-19T09:25:49Z</time>
      </trkpt>
      <trkpt lat="45.50708" lon="6.57973">
        <ele>944.8</ele>
        <time>2020-07-19T09:25:53Z</time>
      </trkpt>
      <trkpt lat="45.50709" lon="6.57982">
        <ele>945.4</ele>
        <time>2020-07-19T09:25:57Z</time>
      </trkpt>
      <trkpt lat="45.50706" lon="6.57986">
        <ele>945.6</ele>
        <time>2020-07-19T09:26:01Z</time>
      </trkpt>
      <trkpt lat="45.50698" lon="6.57986">
        <ele>946.2</ele>
        <time>2020-07-19T09:26:05Z</time>
      </trkpt>
      <trkpt lat="45.50692" lon="6.57984">
        <ele>946.8</ele>
        <time>2020-07-19T09:26:09Z</time>
      </trkpt>
      <trkpt lat="45.50686" lon="6.57984">
        <ele>947</ele>
        <time>2020-07-19T09:26:13Z</time>
      </trkpt>
      <trkpt lat="45.5068" lon="6.57983">
        <ele>948.2</ele>
        <time>2020-07-19T09:26:17Z</time>
      </trkpt>
      <trkpt lat="45.50673" lon="6.57983">
        <ele>948.6</ele>
        <time>2020-07-19T09:26:21Z</time>
      </trkpt>
      <trkpt lat="45.50666" lon="6.57983">
        <ele>948.8</ele>
        <time>2020-07-19T09:26:25Z</time>
      </trkpt>
      <trkpt lat="45.50659" lon="6.57984">
        <ele>949</ele>
        <time>2020-07-19T09:26:29Z</time>
      </trkpt>
      <trkpt lat="45.50652" lon="6.57983">
        <ele>950.4</ele>
        <time>2020-07-19T09:26:33Z</time>
      </trkpt>
      <trkpt lat="45.50645" lon="6.57982">
        <ele>951.2</ele>
        <time>2020-07-19T09:26:37Z</time>
      </trkpt>
      <trkpt lat="45.50639" lon="6.57982">
        <ele>951.6</ele>
        <time>2020-07-19T09:26:41Z</time>
      </trkpt>
      <trkpt lat="45.50632" lon="6.57983">
        <ele>952.4</ele>
        <time>2020-07-19T09:26:45Z</time>
      </trkpt>
      <trkpt lat="45.50626" lon="6.57983">
        <ele>953.2</ele>
        <time>2020-07-19T09:26:49Z</time>
      </trkpt>
      <trkpt lat="45.5062" lon="6.57983">
        <ele>954</ele>
        <time>2020-07-19T09:26:53Z</time>
      </trkpt>
      <trkpt lat="45.50614" lon="6.57982">
        <ele>954.8</ele>
        <time>2020-07-19T09:26:57Z</time>
      </trkpt>
      <trkpt lat="45.50609" lon="6.57982">
        <ele>955.2</ele>
        <time>2020-07-19T09:27:01Z</time>
      </trkpt>
      <trkpt lat="45.50603" lon="6.57982">
        <ele>955.8</ele>
        <time>2020-07-19T09:27:05Z</time>
      </trkpt>
      <trkpt lat="45.50594" lon="6.57987">
        <ele>956.8</ele>
        <time>2020-07-19T09:27:09Z</time>
      </trkpt>
      <trkpt lat="45.50587" lon="6.57988">
        <ele>957.4</ele>
        <time>2020-07-19T09:27:13Z</time>
      </trkpt>
      <trkpt lat="45.5058" lon="6.57991">
        <ele>957.6</ele>
        <time>2020-07-19T09:27:17Z</time>
      </trkpt>
      <trkpt lat="45.50572" lon="6.57993">
        <ele>958.2</ele>
        <time>2020-07-19T09:27:21Z</time>
      </trkpt>
      <trkpt lat="45.50566" lon="6.57996">
        <ele>959</ele>
        <time>2020-07-19T09:27:25Z</time>
      </trkpt>
      <trkpt lat="45.5056" lon="6.57999">
        <ele>959.6</ele>
        <time>2020-07-19T09:27:29Z</time>
      </trkpt>
      <trkpt lat="45.50555" lon="6.58005">
        <ele>960</ele>
        <time>2020-07-19T09:27:33Z</time>
      </trkpt>
      <trkpt lat="45.50551" lon="6.58012">
        <ele>960.8</ele>
        <time>2020-07-19T09:27:37Z</time>
      </trkpt>
      <trkpt lat="45.50546" lon="6.58019">
        <ele>961</ele>
        <time>2020-07-19T09:27:41Z</time>
      </trkpt>
      <trkpt lat="45.50542" lon="6.58025">
        <ele>962</ele>
        <time>2020-07-19T09:27:45Z</time>
      </trkpt>
      <trkpt lat="45.50538" lon="6.58031">
        <ele>962.2</ele>
        <time>2020-07-19T09:27:49Z</time>
      </trkpt>
      <trkpt lat="45.50532" lon="6.58038">
        <ele>963</ele>
        <time>2020-07-19T09:27:53Z</time>
      </trkpt>
      <trkpt lat="45.50528" lon="6.58044">
        <ele>963.6</ele>
        <time>2020-07-19T09:27:57Z</time>
      </trkpt>
      <trkpt lat="45.50523" lon="6.58051">
        <ele>964.2</ele>
        <time>2020-07-19T09:28:01Z</time>
      </trkpt>
      <trkpt lat="45.50517" lon="6.58058">
        <ele>964.8</ele>
        <time>2020-07-19T09:28:05Z</time>
      </trkpt>
      <trkpt lat="45.50511" lon="6.58065">
        <ele>965.6</ele>
        <time>2020-07-19T09:28:09Z</time>
      </trkpt>
      <trkpt lat="45.50506" lon="6.58071">
        <ele>966</ele>
        <time>2020-07-19T09:28:13Z</time>
      </trkpt>
      <trkpt lat="45.50502" lon="6.58076">
        <ele>966.6</ele>
        <time>2020-07-19T09:28:17Z</time>
      </trkpt>
      <trkpt lat="45.50496" lon="6.58083">
        <ele>967.6</ele>
        <time>2020-07-19T09:28:21Z</time>
      </trkpt>
      <trkpt lat="45.5049" lon="6.58088">
        <ele>967.8</ele>
        <time>2020-07-19T09:28:25Z</time>
      </trkpt>
      <trkpt lat="45.50485" lon="6.58091">
        <ele>968.4</ele>
        <time>2020-07-19T09:28:29Z</time>
      </trkpt>
      <trkpt lat="45.50477" lon="6.58096">
        <ele>969.6</ele>
        <time>2020-07-19T09:28:33Z</time>
      </trkpt>
      <trkpt lat="45.50471" lon="6.58099">
        <ele>970.2</ele>
        <time>2020-07-19T09:28:37Z</time>
      </trkpt>
      <trkpt lat="45.50463" lon="6.58101">
        <ele>970.6</ele>
        <time>2020-07-19T09:28:41Z</time>
      </trkpt>
      <trkpt lat="45.50456" lon="6.58102">
        <ele>971.4</ele>
        <time>2020-07-19T09:28:45Z</time>
      </trkpt>
      <trkpt lat="45.5045" lon="6.58105">
        <ele>971.8</ele>
        <time>2020-07-19T09:28:49Z</time>
      </trkpt>
      <trkpt lat="45.50444" lon="6.58108">
        <ele>972.8</ele>
        <time>2020-07-19T09:28:53Z</time>
      </trkpt>
      <trkpt lat="45.50438" lon="6.58114">
        <ele>973.4</ele>
        <time>2020-07-19T09:28:57Z</time>
      </trkpt>
      <trkpt lat="45.50435" lon="6.58117">
        <ele>974.2</ele>
        <time>2020-07-19T09:29:01Z</time>
      </trkpt>
      <trkpt lat="45.5043" lon="6.58121">
        <ele>974.6</ele>
        <time>2020-07-19T09:29:05Z</time>
      </trkpt>
      <trkpt lat="45.50429" lon="6.5813">
        <ele>975</ele>
        <time>2020-07-19T09:29:09Z</time>
      </trkpt>
      <trkpt lat="45.5043" lon="6.58141">
        <ele>975.2</ele>
        <time>2020-07-19T09:29:13Z</time>
      </trkpt>
      <trkpt lat="45.50435" lon="6.58144">
        <ele>975.8</ele>
        <time>2020-07-19T09:29:17Z</time>
      </trkpt>
      <trkpt lat="45.50441" lon="6.58142">
        <ele>977.2</ele>
        <time>2020-07-19T09:29:21Z</time>
      </trkpt>
      <trkpt lat="45.50447" lon="6.58138">
        <ele>977.6</ele>
        <time>2020-07-19T09:29:25Z</time>
      </trkpt>
      <trkpt lat="45.50454" lon="6.58136">
        <ele>977.8</ele>
        <time>2020-07-19T09:29:29Z</time>
      </trkpt>
      <trkpt lat="45.5046" lon="6.58135">
        <ele>978.4</ele>
        <time>2020-07-19T09:29:33Z</time>
      </trkpt>
      <trkpt lat="45.50466" lon="6.58137">
        <ele>979.2</ele>
        <time>2020-07-19T09:29:37Z</time>
      </trkpt>
      <trkpt lat="45.50473" lon="6.58138">
        <ele>979.8</ele>
        <time>2020-07-19T09:29:41Z</time>
      </trkpt>
      <trkpt lat="45.50479" lon="6.58139">
        <ele>980.8</ele>
        <time>2020-07-19T09:29:45Z</time>
      </trkpt>
      <trkpt lat="45.50486" lon="6.58138">
        <ele>980.8</ele>
        <time>2020-07-19T09:29:49Z</time>
      </trkpt>
      <trkpt lat="45.50493" lon="6.58137">
        <ele>981.8</ele>
        <time>2020-07-19T09:29:53Z</time>
      </trkpt>
      <trkpt lat="45.50499" lon="6.58137">
        <ele>982.6</ele>
        <time>2020-07-19T09:29:57Z</time>
      </trkpt>
      <trkpt lat="45.50505" lon="6.58137">
        <ele>982.8</ele>
        <time>2020-07-19T09:30:01Z</time>
      </trkpt>
      <trkpt lat="45.50511" lon="6.58137">
        <ele>984</ele>
        <time>2020-07-19T09:30:05Z</time>
      </trkpt>
      <trkpt lat="45.50518" lon="6.58137">
        <ele>984.2</ele>
        <time>2020-07-19T09:30:09Z</time>
      </trkpt>
      <trkpt lat="45.50525" lon="6.58138">
        <ele>985.2</ele>
        <time>2020-07-19T09:30:13Z</time>
      </trkpt>
      <trkpt lat="45.50532" lon="6.58137">
        <ele>986</ele>
        <time>2020-07-19T09:30:17Z</time>
      </trkpt>
      <trkpt lat="45.50538" lon="6.58135">
        <ele>986.8</ele>
        <time>2020-07-19T09:30:21Z</time>
      </trkpt>
      <trkpt lat="45.50545" lon="6.58133">
        <ele>986.6</ele>
        <time>2020-07-19T09:30:25Z</time>
      </trkpt>
      <trkpt lat="45.50552" lon="6.5813">
        <ele>987.4</ele>
        <time>2020-07-19T09:30:29Z</time>
      </trkpt>
      <trkpt lat="45.50558" lon="6.58127">
        <ele>988.2</ele>
        <time>2020-07-19T09:30:33Z</time>
      </trkpt>
      <trkpt lat="45.50565" lon="6.58124">
        <ele>988.6</ele>
        <time>2020-07-19T09:30:37Z</time>
      </trkpt>
      <trkpt lat="45.50571" lon="6.58123">
        <ele>989.6</ele>
        <time>2020-07-19T09:30:41Z</time>
      </trkpt>
      <trkpt lat="45.50578" lon="6.5812">
        <ele>989.4</ele>
        <time>2020-07-19T09:30:45Z</time>
      </trkpt>
      <trkpt lat="45.50585" lon="6.58118">
        <ele>990.4</ele>
        <time>2020-07-19T09:30:49Z</time>
      </trkpt>
      <trkpt lat="45.50592" lon="6.58116">
        <ele>991</ele>
        <time>2020-07-19T09:30:53Z</time>
      </trkpt>
      <trkpt lat="45.50599" lon="6.58113">
        <ele>991.4</ele>
        <time>2020-07-19T09:30:57Z</time>
      </trkpt>
      <trkpt lat="45.50606" lon="6.58112">
        <ele>991.4</ele>
        <time>2020-07-19T09:31:01Z</time>
      </trkpt>
      <trkpt lat="45.50612" lon="6.58112">
        <ele>992.6</ele>
        <time>2020-07-19T09:31:05Z</time>
      </trkpt>
      <trkpt lat="45.50619" lon="6.58111">
        <ele>993</ele>
        <time>2020-07-19T09:31:09Z</time>
      </trkpt>
      <trkpt lat="45.50626" lon="6.58111">
        <ele>993.8</ele>
        <time>2020-07-19T09:31:13Z</time>
      </trkpt>
      <trkpt lat="45.50632" lon="6.58111">
        <ele>994.6</ele>
        <time>2020-07-19T09:31:17Z</time>
      </trkpt>
      <trkpt lat="45.50639" lon="6.58113">
        <ele>995.2</ele>
        <time>2020-07-19T09:31:21Z</time>
      </trkpt>
      <trkpt lat="45.50645" lon="6.58116">
        <ele>995.6</ele>
        <time>2020-07-19T09:31:25Z</time>
      </trkpt>
      <trkpt lat="45.50651" lon="6.58118">
        <ele>996.4</ele>
        <time>2020-07-19T09:31:29Z</time>
      </trkpt>
      <trkpt lat="45.50657" lon="6.58121">
        <ele>996.8</ele>
        <time>2020-07-19T09:31:33Z</time>
      </trkpt>
      <trkpt lat="45.50664" lon="6.58124">
        <ele>998.4</ele>
        <time>2020-07-19T09:31:37Z</time>
      </trkpt>
      <trkpt lat="45.5067" lon="6.58126">
        <ele>998.4</ele>
        <time>2020-07-19T09:31:41Z</time>
      </trkpt>
      <trkpt lat="45.50677" lon="6.58126">
        <ele>998.8</ele>
        <time>2020-07-19T09:31:45Z</time>
      </trkpt>
      <trkpt lat="45.50683" lon="6.58126">
        <ele>999.8</ele>
        <time>2020-07-19T09:31:49Z</time>
      </trkpt>
      <trkpt lat="45.5069" lon="6.58125">
        <ele>1000.2</ele>
        <time>2020-07-19T09:31:53Z</time>
      </trkpt>
      <trkpt lat="45.50697" lon="6.58125">
        <ele>1000.6</ele>
        <time>2020-07-19T09:31:57Z</time>
      </trkpt>
      <trkpt lat="45.50703" lon="6.58127">
        <ele>1001.8</ele>
        <time>2020-07-19T09:32:01Z</time>
      </trkpt>
      <trkpt lat="45.5071" lon="6.5813">
        <ele>1002.2</ele>
        <time>2020-07-19T09:32:05Z</time>
      </trkpt>
      <trkpt lat="45.50716" lon="6.58135">
        <ele>1002.8</ele>
        <time>2020-07-19T09:32:09Z</time>
      </trkpt>
      <trkpt lat="45.50721" lon="6.58142">
        <ele>1003</ele>
        <time>2020-07-19T09:32:13Z</time>
      </trkpt>
      <trkpt lat="45.50726" lon="6.5815">
        <ele>1003.8</ele>
        <time>2020-07-19T09:32:17Z</time>
      </trkpt>
      <trkpt lat="45.50731" lon="6.58157">
        <ele>1004.2</ele>
        <time>2020-07-19T09:32:21Z</time>
      </trkpt>
      <trkpt lat="45.50734" lon="6.58165">
        <ele>1005.2</ele>
        <time>2020-07-19T09:32:25Z</time>
      </trkpt>
      <trkpt lat="45.50738" lon="6.58171">
        <ele>1005.4</ele>
        <time>2020-07-19T09:32:29Z</time>
      </trkpt>
      <trkpt lat="45.50741" lon="6.5818">
        <ele>1005.6</ele>
        <time>2020-07-19T09:32:33Z</time>
      </trkpt>
      <trkpt lat="45.50745" lon="6.58187">
        <ele>1006.2</ele>
        <time>2020-07-19T09:32:37Z</time>
      </trkpt>
      <trkpt lat="45.50749" lon="6.58191">
        <ele>1006.6</ele>
        <time>2020-07-19T09:32:41Z</time>
      </trkpt>
      <trkpt lat="45.50754" lon="6.58198">
        <ele>1006.8</ele>
        <time>2020-07-19T09:32:45Z</time>
      </trkpt>
      <trkpt lat="45.5076" lon="6.58204">
        <ele>1007.2</ele>
        <time>2020-07-19T09:32:49Z</time>
      </trkpt>
      <trkpt lat="45.50766" lon="6.58211">
        <ele>1008.4</ele>
        <time>2020-07-19T09:32:53Z</time>
      </trkpt>
      <trkpt lat="45.50774" lon="6.58214">
        <ele>1008.8</ele>
        <time>2020-07-19T09:32:57Z</time>
      </trkpt>
      <trkpt lat="45.50783" lon="6.58219">
        <ele>1009.2</ele>
        <time>2020-07-19T09:33:01Z</time>
      </trkpt>
      <trkpt lat="45.5079" lon="6.58223">
        <ele>1009.4</ele>
        <time>2020-07-19T09:33:05Z</time>
      </trkpt>
      <trkpt lat="45.50796" lon="6.58223">
        <ele>1009.6</ele>
        <time>2020-07-19T09:33:09Z</time>
      </trkpt>
      <trkpt lat="45.50804" lon="6.58224">
        <ele>1009.8</ele>
        <time>2020-07-19T09:33:13Z</time>
      </trkpt>
      <trkpt lat="45.50811" lon="6.58226">
        <ele>1010.6</ele>
        <time>2020-07-19T09:33:17Z</time>
      </trkpt>
      <trkpt lat="45.50818" lon="6.58226">
        <ele>1011</ele>
        <time>2020-07-19T09:33:21Z</time>
      </trkpt>
      <trkpt lat="45.50825" lon="6.58225">
        <ele>1011.6</ele>
        <time>2020-07-19T09:33:25Z</time>
      </trkpt>
      <trkpt lat="45.50833" lon="6.58227">
        <ele>1012</ele>
        <time>2020-07-19T09:33:29Z</time>
      </trkpt>
      <trkpt lat="45.5084" lon="6.58228">
        <ele>1012.4</ele>
        <time>2020-07-19T09:33:33Z</time>
      </trkpt>
      <trkpt lat="45.50845" lon="6.5823">
        <ele>1013</ele>
        <time>2020-07-19T09:33:37Z</time>
      </trkpt>
      <trkpt lat="45.50852" lon="6.58233">
        <ele>1013.6</ele>
        <time>2020-07-19T09:33:41Z</time>
      </trkpt>
      <trkpt lat="45.50859" lon="6.58238">
        <ele>1013.8</ele>
        <time>2020-07-19T09:33:45Z</time>
      </trkpt>
      <trkpt lat="45.50867" lon="6.58242">
        <ele>1014.8</ele>
        <time>2020-07-19T09:33:49Z</time>
      </trkpt>
      <trkpt lat="45.50874" lon="6.58243">
        <ele>1015.2</ele>
        <time>2020-07-19T09:33:53Z</time>
      </trkpt>
      <trkpt lat="45.50881" lon="6.58245">
        <ele>1016.6</ele>
        <time>2020-07-19T09:33:57Z</time>
      </trkpt>
      <trkpt lat="45.50887" lon="6.58248">
        <ele>1016.8</ele>
        <time>2020-07-19T09:34:01Z</time>
      </trkpt>
      <trkpt lat="45.50894" lon="6.58249">
        <ele>1017.6</ele>
        <time>2020-07-19T09:34:05Z</time>
      </trkpt>
      <trkpt lat="45.509" lon="6.5825">
        <ele>1018</ele>
        <time>2020-07-19T09:34:09Z</time>
      </trkpt>
      <trkpt lat="45.50906" lon="6.58253">
        <ele>1018.8</ele>
        <time>2020-07-19T09:34:13Z</time>
      </trkpt>
      <trkpt lat="45.50912" lon="6.58256">
        <ele>1019.2</ele>
        <time>2020-07-19T09:34:17Z</time>
      </trkpt>
      <trkpt lat="45.50918" lon="6.5826">
        <ele>1020.2</ele>
        <time>2020-07-19T09:34:21Z</time>
      </trkpt>
      <trkpt lat="45.50923" lon="6.58264">
        <ele>1021</ele>
        <time>2020-07-19T09:34:25Z</time>
      </trkpt>
      <trkpt lat="45.50929" lon="6.58269">
        <ele>1021.8</ele>
        <time>2020-07-19T09:34:29Z</time>
      </trkpt>
      <trkpt lat="45.50934" lon="6.58275">
        <ele>1022</ele>
        <time>2020-07-19T09:34:33Z</time>
      </trkpt>
      <trkpt lat="45.50939" lon="6.58281">
        <ele>1023.6</ele>
        <time>2020-07-19T09:34:37Z</time>
      </trkpt>
      <trkpt lat="45.50944" lon="6.58288">
        <ele>1024</ele>
        <time>2020-07-19T09:34:41Z</time>
      </trkpt>
      <trkpt lat="45.50948" lon="6.58296">
        <ele>1024.4</ele>
        <time>2020-07-19T09:34:45Z</time>
      </trkpt>
      <trkpt lat="45.50951" lon="6.58304">
        <ele>1025.6</ele>
        <time>2020-07-19T09:34:49Z</time>
      </trkpt>
      <trkpt lat="45.50953" lon="6.58313">
        <ele>1025.8</ele>
        <time>2020-07-19T09:34:53Z</time>
      </trkpt>
      <trkpt lat="45.50953" lon="6.58321">
        <ele>1027</ele>
        <time>2020-07-19T09:34:57Z</time>
      </trkpt>
      <trkpt lat="45.50952" lon="6.58328">
        <ele>1027.2</ele>
        <time>2020-07-19T09:35:01Z</time>
      </trkpt>
      <trkpt lat="45.50948" lon="6.58332">
        <ele>1028.4</ele>
        <time>2020-07-19T09:36:20Z</time>
      </trkpt>
      <trkpt lat="45.50943" lon="6.58321">
        <ele>1028.2</ele>
        <time>2020-07-19T09:36:24Z</time>
      </trkpt>
      <trkpt lat="45.50937" lon="6.58312">
        <ele>1028.6</ele>
        <time>2020-07-19T09:36:28Z</time>
      </trkpt>
      <trkpt lat="45.5093" lon="6.58307">
        <ele>1029.4</ele>
        <time>2020-07-19T09:36:32Z</time>
      </trkpt>
      <trkpt lat="45.50923" lon="6.58304">
        <ele>1030.2</ele>
        <time>2020-07-19T09:36:36Z</time>
      </trkpt>
      <trkpt lat="45.50917" lon="6.58302">
        <ele>1031.4</ele>
        <time>2020-07-19T09:36:40Z</time>
      </trkpt>
      <trkpt lat="45.5091" lon="6.583">
        <ele>1032</ele>
        <time>2020-07-19T09:36:44Z</time>
      </trkpt>
      <trkpt lat="45.50903" lon="6.58301">
        <ele>1032.2</ele>
        <time>2020-07-19T09:36:48Z</time>
      </trkpt>
      <trkpt lat="45.50896" lon="6.58301">
        <ele>1033.2</ele>
        <time>2020-07-19T09:36:52Z</time>
      </trkpt>
      <trkpt lat="45.50889" lon="6.58299">
        <ele>1033.8</ele>
        <time>2020-07-19T09:36:56Z</time>
      </trkpt>
      <trkpt lat="45.50882" lon="6.58296">
        <ele>1034.2</ele>
        <time>2020-07-19T09:37:00Z</time>
      </trkpt>
      <trkpt lat="45.50878" lon="6.58291">
        <ele>1034.2</ele>
        <time>2020-07-19T09:37:04Z</time>
      </trkpt>
      <trkpt lat="45.50872" lon="6.58285">
        <ele>1035.6</ele>
        <time>2020-07-19T09:37:08Z</time>
      </trkpt>
      <trkpt lat="45.50865" lon="6.58282">
        <ele>1036.2</ele>
        <time>2020-07-19T09:37:12Z</time>
      </trkpt>
      <trkpt lat="45.50859" lon="6.58279">
        <ele>1036.6</ele>
        <time>2020-07-19T09:37:16Z</time>
      </trkpt>
      <trkpt lat="45.50852" lon="6.58278">
        <ele>1037.6</ele>
        <time>2020-07-19T09:37:20Z</time>
      </trkpt>
      <trkpt lat="45.50845" lon="6.58278">
        <ele>1038.2</ele>
        <time>2020-07-19T09:37:24Z</time>
      </trkpt>
      <trkpt lat="45.50839" lon="6.58279">
        <ele>1038.8</ele>
        <time>2020-07-19T09:37:28Z</time>
      </trkpt>
      <trkpt lat="45.50834" lon="6.58281">
        <ele>1039</ele>
        <time>2020-07-19T09:37:32Z</time>
      </trkpt>
      <trkpt lat="45.50828" lon="6.58281">
        <ele>1040</ele>
        <time>2020-07-19T09:37:36Z</time>
      </trkpt>
      <trkpt lat="45.50821" lon="6.58282">
        <ele>1040.6</ele>
        <time>2020-07-19T09:37:40Z</time>
      </trkpt>
      <trkpt lat="45.50815" lon="6.58283">
        <ele>1041</ele>
        <time>2020-07-19T09:37:44Z</time>
      </trkpt>
      <trkpt lat="45.50807" lon="6.58284">
        <ele>1041.8</ele>
        <time>2020-07-19T09:37:48Z</time>
      </trkpt>
      <trkpt lat="45.508" lon="6.58282">
        <ele>1042.2</ele>
        <time>2020-07-19T09:37:52Z</time>
      </trkpt>
      <trkpt lat="45.50792" lon="6.58282">
        <ele>1043</ele>
        <time>2020-07-19T09:37:56Z</time>
      </trkpt>
      <trkpt lat="45.50786" lon="6.58281">
        <ele>1043.6</ele>
        <time>2020-07-19T09:38:00Z</time>
      </trkpt>
      <trkpt lat="45.5078" lon="6.5828">
        <ele>1043.8</ele>
        <time>2020-07-19T09:38:04Z</time>
      </trkpt>
      <trkpt lat="45.50775" lon="6.58281">
        <ele>1044.8</ele>
        <time>2020-07-19T09:38:08Z</time>
      </trkpt>
      <trkpt lat="45.50769" lon="6.58283">
        <ele>1045.4</ele>
        <time>2020-07-19T09:38:12Z</time>
      </trkpt>
      <trkpt lat="45.50762" lon="6.58286">
        <ele>1046</ele>
        <time>2020-07-19T09:38:16Z</time>
      </trkpt>
      <trkpt lat="45.50756" lon="6.58289">
        <ele>1046.6</ele>
        <time>2020-07-19T09:38:20Z</time>
      </trkpt>
      <trkpt lat="45.50747" lon="6.58292">
        <ele>1047</ele>
        <time>2020-07-19T09:38:24Z</time>
      </trkpt>
      <trkpt lat="45.5074" lon="6.58296">
        <ele>1048.2</ele>
        <time>2020-07-19T09:38:28Z</time>
      </trkpt>
      <trkpt lat="45.50734" lon="6.583">
        <ele>1049</ele>
        <time>2020-07-19T09:38:32Z</time>
      </trkpt>
      <trkpt lat="45.50727" lon="6.58304">
        <ele>1049.6</ele>
        <time>2020-07-19T09:38:36Z</time>
      </trkpt>
      <trkpt lat="45.50721" lon="6.58309">
        <ele>1050.2</ele>
        <time>2020-07-19T09:38:40Z</time>
      </trkpt>
      <trkpt lat="45.50717" lon="6.58312">
        <ele>1050.8</ele>
        <time>2020-07-19T09:38:44Z</time>
      </trkpt>
      <trkpt lat="45.50712" lon="6.58316">
        <ele>1051.4</ele>
        <time>2020-07-19T09:38:48Z</time>
      </trkpt>
      <trkpt lat="45.50707" lon="6.58318">
        <ele>1051.8</ele>
        <time>2020-07-19T09:38:52Z</time>
      </trkpt>
      <trkpt lat="45.507" lon="6.58319">
        <ele>1052.8</ele>
        <time>2020-07-19T09:38:56Z</time>
      </trkpt>
      <trkpt lat="45.5069" lon="6.58319">
        <ele>1053.6</ele>
        <time>2020-07-19T09:39:00Z</time>
      </trkpt>
      <trkpt lat="45.50682" lon="6.5832">
        <ele>1054</ele>
        <time>2020-07-19T09:39:04Z</time>
      </trkpt>
      <trkpt lat="45.50674" lon="6.58321">
        <ele>1054.4</ele>
        <time>2020-07-19T09:39:08Z</time>
      </trkpt>
      <trkpt lat="45.50667" lon="6.58322">
        <ele>1055.6</ele>
        <time>2020-07-19T09:39:12Z</time>
      </trkpt>
      <trkpt lat="45.50661" lon="6.58324">
        <ele>1056</ele>
        <time>2020-07-19T09:39:16Z</time>
      </trkpt>
      <trkpt lat="45.50654" lon="6.58326">
        <ele>1056.6</ele>
        <time>2020-07-19T09:39:20Z</time>
      </trkpt>
      <trkpt lat="45.50647" lon="6.58329">
        <ele>1056.6</ele>
        <time>2020-07-19T09:39:24Z</time>
      </trkpt>
      <trkpt lat="45.5064" lon="6.58333">
        <ele>1058.2</ele>
        <time>2020-07-19T09:39:28Z</time>
      </trkpt>
      <trkpt lat="45.50634" lon="6.58338">
        <ele>1058.6</ele>
        <time>2020-07-19T09:39:32Z</time>
      </trkpt>
      <trkpt lat="45.50628" lon="6.58341">
        <ele>1059.2</ele>
        <time>2020-07-19T09:39:36Z</time>
      </trkpt>
      <trkpt lat="45.50623" lon="6.58345">
        <ele>1059.8</ele>
        <time>2020-07-19T09:39:40Z</time>
      </trkpt>
      <trkpt lat="45.50617" lon="6.58351">
        <ele>1060.6</ele>
        <time>2020-07-19T09:39:44Z</time>
      </trkpt>
      <trkpt lat="45.5061" lon="6.58358">
        <ele>1060.8</ele>
        <time>2020-07-19T09:39:48Z</time>
      </trkpt>
      <trkpt lat="45.50605" lon="6.58362">
        <ele>1061.8</ele>
        <time>2020-07-19T09:39:52Z</time>
      </trkpt>
      <trkpt lat="45.50599" lon="6.58367">
        <ele>1062.4</ele>
        <time>2020-07-19T09:39:56Z</time>
      </trkpt>
      <trkpt lat="45.50595" lon="6.58372">
        <ele>1063.4</ele>
        <time>2020-07-19T09:40:00Z</time>
      </trkpt>
      <trkpt lat="45.50588" lon="6.58376">
        <ele>1063.8</ele>
        <time>2020-07-19T09:40:04Z</time>
      </trkpt>
      <trkpt lat="45.5058" lon="6.5838">
        <ele>1064.4</ele>
        <time>2020-07-19T09:40:08Z</time>
      </trkpt>
      <trkpt lat="45.50572" lon="6.58384">
        <ele>1064.6</ele>
        <time>2020-07-19T09:40:12Z</time>
      </trkpt>
      <trkpt lat="45.50565" lon="6.58386">
        <ele>1065.6</ele>
        <time>2020-07-19T09:40:16Z</time>
      </trkpt>
      <trkpt lat="45.50557" lon="6.58386">
        <ele>1065.8</ele>
        <time>2020-07-19T09:40:20Z</time>
      </trkpt>
      <trkpt lat="45.5055" lon="6.58386">
        <ele>1066.4</ele>
        <time>2020-07-19T09:40:24Z</time>
      </trkpt>
      <trkpt lat="45.50542" lon="6.58388">
        <ele>1067.4</ele>
        <time>2020-07-19T09:40:28Z</time>
      </trkpt>
      <trkpt lat="45.50537" lon="6.58395">
        <ele>1068</ele>
        <time>2020-07-19T09:40:32Z</time>
      </trkpt>
      <trkpt lat="45.50539" lon="6.58405">
        <ele>1068.6</ele>
        <time>2020-07-19T09:40:36Z</time>
      </trkpt>
      <trkpt lat="45.50545" lon="6.58411">
        <ele>1069</ele>
        <time>2020-07-19T09:40:40Z</time>
      </trkpt>
      <trkpt lat="45.50553" lon="6.58412">
        <ele>1069.8</ele>
        <time>2020-07-19T09:40:44Z</time>
      </trkpt>
      <trkpt lat="45.5056" lon="6.58413">
        <ele>1070.6</ele>
        <time>2020-07-19T09:40:48Z</time>
      </trkpt>
      <trkpt lat="45.50567" lon="6.58414">
        <ele>1071.2</ele>
        <time>2020-07-19T09:40:52Z</time>
      </trkpt>
      <trkpt lat="45.50574" lon="6.58411">
        <ele>1072</ele>
        <time>2020-07-19T09:40:56Z</time>
      </trkpt>
      <trkpt lat="45.5058" lon="6.58408">
        <ele>1072.4</ele>
        <time>2020-07-19T09:41:00Z</time>
      </trkpt>
      <trkpt lat="45.50587" lon="6.58404">
        <ele>1072.8</ele>
        <time>2020-07-19T09:41:04Z</time>
      </trkpt>
      <trkpt lat="45.50594" lon="6.58401">
        <ele>1074</ele>
        <time>2020-07-19T09:41:08Z</time>
      </trkpt>
      <trkpt lat="45.50601" lon="6.58401">
        <ele>1074.6</ele>
        <time>2020-07-19T09:41:12Z</time>
      </trkpt>
      <trkpt lat="45.50608" lon="6.58401">
        <ele>1075.2</ele>
        <time>2020-07-19T09:41:16Z</time>
      </trkpt>
      <trkpt lat="45.50615" lon="6.584">
        <ele>1075.6</ele>
        <time>2020-07-19T09:41:20Z</time>
      </trkpt>
      <trkpt lat="45.50622" lon="6.58401">
        <ele>1076.4</ele>
        <time>2020-07-19T09:41:24Z</time>
      </trkpt>
      <trkpt lat="45.50629" lon="6.58401">
        <ele>1077.2</ele>
        <time>2020-07-19T09:41:28Z</time>
      </trkpt>
      <trkpt lat="45.50637" lon="6.58403">
        <ele>1077.8</ele>
        <time>2020-07-19T09:41:32Z</time>
      </trkpt>
      <trkpt lat="45.50643" lon="6.58402">
        <ele>1078.8</ele>
        <time>2020-07-19T09:41:36Z</time>
      </trkpt>
      <trkpt lat="45.5065" lon="6.58405">
        <ele>1079.4</ele>
        <time>2020-07-19T09:41:40Z</time>
      </trkpt>
      <trkpt lat="45.50657" lon="6.58406">
        <ele>1080.2</ele>
        <time>2020-07-19T09:41:44Z</time>
      </trkpt>
      <trkpt lat="45.50664" lon="6.58405">
        <ele>1080.6</ele>
        <time>2020-07-19T09:41:48Z</time>
      </trkpt>
      <trkpt lat="45.50671" lon="6.58405">
        <ele>1081.4</ele>
        <time>2020-07-19T09:41:52Z</time>
      </trkpt>
      <trkpt lat="45.50678" lon="6.58407">
        <ele>1081.4</ele>
        <time>2020-07-19T09:41:56Z</time>
      </trkpt>
      <trkpt lat="45.50683" lon="6.58415">
        <ele>1082.4</ele>
        <time>2020-07-19T09:42:00Z</time>
      </trkpt>
      <trkpt lat="45.50686" lon="6.58423">
        <ele>1083</ele>
        <time>2020-07-19T09:42:04Z</time>
      </trkpt>
      <trkpt lat="45.50688" lon="6.58432">
        <ele>1083.8</ele>
        <time>2020-07-19T09:42:08Z</time>
      </trkpt>
      <trkpt lat="45.50691" lon="6.5844">
        <ele>1084.6</ele>
        <time>2020-07-19T09:42:12Z</time>
      </trkpt>
      <trkpt lat="45.50695" lon="6.58448">
        <ele>1085</ele>
        <time>2020-07-19T09:42:16Z</time>
      </trkpt>
      <trkpt lat="45.50699" lon="6.58455">
        <ele>1085.8</ele>
        <time>2020-07-19T09:42:20Z</time>
      </trkpt>
      <trkpt lat="45.50705" lon="6.58459">
        <ele>1085.8</ele>
        <time>2020-07-19T09:42:24Z</time>
      </trkpt>
      <trkpt lat="45.50712" lon="6.58462">
        <ele>1087</ele>
        <time>2020-07-19T09:42:28Z</time>
      </trkpt>
      <trkpt lat="45.50718" lon="6.58465">
        <ele>1087.6</ele>
        <time>2020-07-19T09:42:32Z</time>
      </trkpt>
      <trkpt lat="45.50725" lon="6.58467">
        <ele>1088.4</ele>
        <time>2020-07-19T09:42:36Z</time>
      </trkpt>
      <trkpt lat="45.50731" lon="6.58466">
        <ele>1088.8</ele>
        <time>2020-07-19T09:42:40Z</time>
      </trkpt>
      <trkpt lat="45.50739" lon="6.58464">
        <ele>1090</ele>
        <time>2020-07-19T09:42:44Z</time>
      </trkpt>
      <trkpt lat="45.50745" lon="6.58463">
        <ele>1090.6</ele>
        <time>2020-07-19T09:42:48Z</time>
      </trkpt>
      <trkpt lat="45.50752" lon="6.58461">
        <ele>1090.8</ele>
        <time>2020-07-19T09:42:52Z</time>
      </trkpt>
      <trkpt lat="45.50758" lon="6.58456">
        <ele>1091.8</ele>
        <time>2020-07-19T09:42:56Z</time>
      </trkpt>
      <trkpt lat="45.50764" lon="6.58454">
        <ele>1092.4</ele>
        <time>2020-07-19T09:43:00Z</time>
      </trkpt>
      <trkpt lat="45.50771" lon="6.58453">
        <ele>1092.8</ele>
        <time>2020-07-19T09:43:04Z</time>
      </trkpt>
      <trkpt lat="45.50777" lon="6.58455">
        <ele>1094.4</ele>
        <time>2020-07-19T09:43:08Z</time>
      </trkpt>
      <trkpt lat="45.50784" lon="6.58458">
        <ele>1094.6</ele>
        <time>2020-07-19T09:43:12Z</time>
      </trkpt>
      <trkpt lat="45.5079" lon="6.58462">
        <ele>1095</ele>
        <time>2020-07-19T09:43:16Z</time>
      </trkpt>
      <trkpt lat="45.50796" lon="6.58465">
        <ele>1095.8</ele>
        <time>2020-07-19T09:43:20Z</time>
      </trkpt>
      <trkpt lat="45.50802" lon="6.58469">
        <ele>1096.2</ele>
        <time>2020-07-19T09:43:24Z</time>
      </trkpt>
      <trkpt lat="45.50809" lon="6.58472">
        <ele>1096.6</ele>
        <time>2020-07-19T09:43:28Z</time>
      </trkpt>
      <trkpt lat="45.50816" lon="6.58476">
        <ele>1097.4</ele>
        <time>2020-07-19T09:43:32Z</time>
      </trkpt>
      <trkpt lat="45.5082" lon="6.58483">
        <ele>1097.8</ele>
        <time>2020-07-19T09:43:36Z</time>
      </trkpt>
      <trkpt lat="45.5082" lon="6.58491">
        <ele>1098</ele>
        <time>2020-07-19T09:43:40Z</time>
      </trkpt>
      <trkpt lat="45.50812" lon="6.58492">
        <ele>1098.8</ele>
        <time>2020-07-19T09:43:44Z</time>
      </trkpt>
      <trkpt lat="45.50805" lon="6.58487">
        <ele>1099.2</ele>
        <time>2020-07-19T09:43:48Z</time>
      </trkpt>
      <trkpt lat="45.508" lon="6.58481">
        <ele>1099.6</ele>
        <time>2020-07-19T09:43:52Z</time>
      </trkpt>
      <trkpt lat="45.50794" lon="6.58477">
        <ele>1100.8</ele>
        <time>2020-07-19T09:43:56Z</time>
      </trkpt>
      <trkpt lat="45.50786" lon="6.58473">
        <ele>1100.6</ele>
        <time>2020-07-19T09:44:00Z</time>
      </trkpt>
      <trkpt lat="45.50778" lon="6.58473">
        <ele>1101.4</ele>
        <time>2020-07-19T09:44:04Z</time>
      </trkpt>
      <trkpt lat="45.50771" lon="6.58475">
        <ele>1102.2</ele>
        <time>2020-07-19T09:44:08Z</time>
      </trkpt>
      <trkpt lat="45.50764" lon="6.58477">
        <ele>1103</ele>
        <time>2020-07-19T09:44:12Z</time>
      </trkpt>
      <trkpt lat="45.50758" lon="6.58479">
        <ele>1104</ele>
        <time>2020-07-19T09:44:16Z</time>
      </trkpt>
      <trkpt lat="45.50751" lon="6.58482">
        <ele>1104.4</ele>
        <time>2020-07-19T09:44:20Z</time>
      </trkpt>
      <trkpt lat="45.50744" lon="6.58482">
        <ele>1104.8</ele>
        <time>2020-07-19T09:44:24Z</time>
      </trkpt>
      <trkpt lat="45.50739" lon="6.58488">
        <ele>1105.6</ele>
        <time>2020-07-19T09:44:28Z</time>
      </trkpt>
      <trkpt lat="45.50734" lon="6.58494">
        <ele>1106.4</ele>
        <time>2020-07-19T09:44:32Z</time>
      </trkpt>
      <trkpt lat="45.50729" lon="6.58501">
        <ele>1107.4</ele>
        <time>2020-07-19T09:44:36Z</time>
      </trkpt>
      <trkpt lat="45.50724" lon="6.58508">
        <ele>1108.2</ele>
        <time>2020-07-19T09:44:40Z</time>
      </trkpt>
      <trkpt lat="45.50717" lon="6.58514">
        <ele>1108.4</ele>
        <time>2020-07-19T09:44:44Z</time>
      </trkpt>
      <trkpt lat="45.50711" lon="6.58519">
        <ele>1109.2</ele>
        <time>2020-07-19T09:44:48Z</time>
      </trkpt>
      <trkpt lat="45.50704" lon="6.58523">
        <ele>1110.2</ele>
        <time>2020-07-19T09:44:52Z</time>
      </trkpt>
      <trkpt lat="45.50697" lon="6.58527">
        <ele>1110.6</ele>
        <time>2020-07-19T09:44:56Z</time>
      </trkpt>
      <trkpt lat="45.5069" lon="6.5853">
        <ele>1111</ele>
        <time>2020-07-19T09:45:00Z</time>
      </trkpt>
      <trkpt lat="45.50683" lon="6.58532">
        <ele>1111.6</ele>
        <time>2020-07-19T09:45:04Z</time>
      </trkpt>
      <trkpt lat="45.50676" lon="6.58535">
        <ele>1112</ele>
        <time>2020-07-19T09:45:08Z</time>
      </trkpt>
      <trkpt lat="45.50672" lon="6.5854">
        <ele>1112.8</ele>
        <time>2020-07-19T09:45:12Z</time>
      </trkpt>
      <trkpt lat="45.50672" lon="6.5855">
        <ele>1113.4</ele>
        <time>2020-07-19T09:45:16Z</time>
      </trkpt>
      <trkpt lat="45.50677" lon="6.58557">
        <ele>1114</ele>
        <time>2020-07-19T09:45:20Z</time>
      </trkpt>
      <trkpt lat="45.50685" lon="6.58558">
        <ele>1114.4</ele>
        <time>2020-07-19T09:45:24Z</time>
      </trkpt>
      <trkpt lat="45.50692" lon="6.58558">
        <ele>1115.4</ele>
        <time>2020-07-19T09:45:28Z</time>
      </trkpt>
      <trkpt lat="45.50697" lon="6.58553">
        <ele>1115.6</ele>
        <time>2020-07-19T09:45:32Z</time>
      </trkpt>
      <trkpt lat="45.50703" lon="6.58551">
        <ele>1116.2</ele>
        <time>2020-07-19T09:45:36Z</time>
      </trkpt>
      <trkpt lat="45.5071" lon="6.58549">
        <ele>1117</ele>
        <time>2020-07-19T09:45:40Z</time>
      </trkpt>
      <trkpt lat="45.50717" lon="6.58545">
        <ele>1116.6</ele>
        <time>2020-07-19T09:45:44Z</time>
      </trkpt>
      <trkpt lat="45.50724" lon="6.58541">
        <ele>1117.6</ele>
        <time>2020-07-19T09:45:48Z</time>
      </trkpt>
      <trkpt lat="45.50732" lon="6.5854">
        <ele>1118.6</ele>
        <time>2020-07-19T09:45:52Z</time>
      </trkpt>
      <trkpt lat="45.5074" lon="6.5854">
        <ele>1119.6</ele>
        <time>2020-07-19T09:45:56Z</time>
      </trkpt>
      <trkpt lat="45.50748" lon="6.58543">
        <ele>1119.8</ele>
        <time>2020-07-19T09:46:00Z</time>
      </trkpt>
      <trkpt lat="45.50755" lon="6.58546">
        <ele>1120.4</ele>
        <time>2020-07-19T09:46:04Z</time>
      </trkpt>
      <trkpt lat="45.50762" lon="6.5855">
        <ele>1121.4</ele>
        <time>2020-07-19T09:46:08Z</time>
      </trkpt>
      <trkpt lat="45.50769" lon="6.58553">
        <ele>1121.4</ele>
        <time>2020-07-19T09:46:12Z</time>
      </trkpt>
      <trkpt lat="45.50775" lon="6.58554">
        <ele>1122.6</ele>
        <time>2020-07-19T09:46:16Z</time>
      </trkpt>
      <trkpt lat="45.50782" lon="6.58556">
        <ele>1122.4</ele>
        <time>2020-07-19T09:46:20Z</time>
      </trkpt>
      <trkpt lat="45.50789" lon="6.58556">
        <ele>1124</ele>
        <time>2020-07-19T09:46:24Z</time>
      </trkpt>
      <trkpt lat="45.50796" lon="6.58558">
        <ele>1124.2</ele>
        <time>2020-07-19T09:46:28Z</time>
      </trkpt>
      <trkpt lat="45.50803" lon="6.58562">
        <ele>1124.8</ele>
        <time>2020-07-19T09:46:32Z</time>
      </trkpt>
      <trkpt lat="45.50808" lon="6.58568">
        <ele>1125.6</ele>
        <time>2020-07-19T09:46:36Z</time>
      </trkpt>
      <trkpt lat="45.50813" lon="6.58574">
        <ele>1126</ele>
        <time>2020-07-19T09:46:40Z</time>
      </trkpt>
      <trkpt lat="45.5082" lon="6.58581">
        <ele>1126.8</ele>
        <time>2020-07-19T09:46:44Z</time>
      </trkpt>
      <trkpt lat="45.50825" lon="6.58588">
        <ele>1127.4</ele>
        <time>2020-07-19T09:46:48Z</time>
      </trkpt>
      <trkpt lat="45.50828" lon="6.58596">
        <ele>1127.8</ele>
        <time>2020-07-19T09:46:52Z</time>
      </trkpt>
      <trkpt lat="45.50824" lon="6.58603">
        <ele>1127.6</ele>
        <time>2020-07-19T09:46:56Z</time>
      </trkpt>
      <trkpt lat="45.50816" lon="6.58601">
        <ele>1128.4</ele>
        <time>2020-07-19T09:47:00Z</time>
      </trkpt>
      <trkpt lat="45.5081" lon="6.58596">
        <ele>1129</ele>
        <time>2020-07-19T09:47:04Z</time>
      </trkpt>
      <trkpt lat="45.50803" lon="6.58591">
        <ele>1129.2</ele>
        <time>2020-07-19T09:47:08Z</time>
      </trkpt>
      <trkpt lat="45.50796" lon="6.58586">
        <ele>1130.2</ele>
        <time>2020-07-19T09:47:12Z</time>
      </trkpt>
      <trkpt lat="45.50788" lon="6.58583">
        <ele>1130.4</ele>
        <time>2020-07-19T09:47:16Z</time>
      </trkpt>
      <trkpt lat="45.5078" lon="6.58581">
        <ele>1130.8</ele>
        <time>2020-07-19T09:47:20Z</time>
      </trkpt>
      <trkpt lat="45.50773" lon="6.58579">
        <ele>1131.2</ele>
        <time>2020-07-19T09:47:24Z</time>
      </trkpt>
      <trkpt lat="45.50766" lon="6.58579">
        <ele>1132.4</ele>
        <time>2020-07-19T09:47:28Z</time>
      </trkpt>
      <trkpt lat="45.50759" lon="6.58581">
        <ele>1132.4</ele>
        <time>2020-07-19T09:47:32Z</time>
      </trkpt>
      <trkpt lat="45.50751" lon="6.58585">
        <ele>1133.2</ele>
        <time>2020-07-19T09:47:36Z</time>
      </trkpt>
      <trkpt lat="45.50744" lon="6.58589">
        <ele>1133.8</ele>
        <time>2020-07-19T09:47:40Z</time>
      </trkpt>
      <trkpt lat="45.50737" lon="6.58595">
        <ele>1134.2</ele>
        <time>2020-07-19T09:47:44Z</time>
      </trkpt>
      <trkpt lat="45.5073" lon="6.586">
        <ele>1135</ele>
        <time>2020-07-19T09:47:48Z</time>
      </trkpt>
      <trkpt lat="45.50724" lon="6.58608">
        <ele>1135.8</ele>
        <time>2020-07-19T09:47:52Z</time>
      </trkpt>
      <trkpt lat="45.50718" lon="6.58614">
        <ele>1136.6</ele>
        <time>2020-07-19T09:47:56Z</time>
      </trkpt>
      <trkpt lat="45.5071" lon="6.5862">
        <ele>1136.8</ele>
        <time>2020-07-19T09:48:00Z</time>
      </trkpt>
      <trkpt lat="45.50703" lon="6.58625">
        <ele>1137.8</ele>
        <time>2020-07-19T09:48:04Z</time>
      </trkpt>
      <trkpt lat="45.50696" lon="6.58628">
        <ele>1138</ele>
        <time>2020-07-19T09:48:08Z</time>
      </trkpt>
      <trkpt lat="45.50688" lon="6.58628">
        <ele>1139</ele>
        <time>2020-07-19T09:48:12Z</time>
      </trkpt>
      <trkpt lat="45.50682" lon="6.58634">
        <ele>1139.2</ele>
        <time>2020-07-19T09:48:16Z</time>
      </trkpt>
      <trkpt lat="45.50682" lon="6.58645">
        <ele>1140.2</ele>
        <time>2020-07-19T09:48:20Z</time>
      </trkpt>
      <trkpt lat="45.50688" lon="6.5865">
        <ele>1141.2</ele>
        <time>2020-07-19T09:48:24Z</time>
      </trkpt>
      <trkpt lat="45.50696" lon="6.58651">
        <ele>1141.2</ele>
        <time>2020-07-19T09:48:28Z</time>
      </trkpt>
      <trkpt lat="45.50703" lon="6.58651">
        <ele>1142.4</ele>
        <time>2020-07-19T09:48:32Z</time>
      </trkpt>
      <trkpt lat="45.50711" lon="6.5865">
        <ele>1142.6</ele>
        <time>2020-07-19T09:48:36Z</time>
      </trkpt>
      <trkpt lat="45.50719" lon="6.5865">
        <ele>1143.2</ele>
        <time>2020-07-19T09:48:40Z</time>
      </trkpt>
      <trkpt lat="45.50727" lon="6.58649">
        <ele>1143.6</ele>
        <time>2020-07-19T09:48:44Z</time>
      </trkpt>
      <trkpt lat="45.50736" lon="6.58648">
        <ele>1144</ele>
        <time>2020-07-19T09:48:48Z</time>
      </trkpt>
      <trkpt lat="45.50744" lon="6.58649">
        <ele>1144.8</ele>
        <time>2020-07-19T09:48:52Z</time>
      </trkpt>
      <trkpt lat="45.50752" lon="6.58653">
        <ele>1145.8</ele>
        <time>2020-07-19T09:48:56Z</time>
      </trkpt>
      <trkpt lat="45.50752" lon="6.58664">
        <ele>1146.2</ele>
        <time>2020-07-19T09:49:00Z</time>
      </trkpt>
      <trkpt lat="45.50745" lon="6.58668">
        <ele>1147</ele>
        <time>2020-07-19T09:49:04Z</time>
      </trkpt>
      <trkpt lat="45.50725" lon="6.58669">
        <ele>1148.4</ele>
        <time>2020-07-19T09:51:21Z</time>
      </trkpt>
      <trkpt lat="45.50717" lon="6.58672">
        <ele>1148.8</ele>
        <time>2020-07-19T09:51:25Z</time>
      </trkpt>
      <trkpt lat="45.50709" lon="6.58673">
        <ele>1149.6</ele>
        <time>2020-07-19T09:51:29Z</time>
      </trkpt>
      <trkpt lat="45.50701" lon="6.58673">
        <ele>1150.4</ele>
        <time>2020-07-19T09:51:33Z</time>
      </trkpt>
      <trkpt lat="45.50692" lon="6.58673">
        <ele>1151.2</ele>
        <time>2020-07-19T09:51:37Z</time>
      </trkpt>
      <trkpt lat="45.50686" lon="6.58673">
        <ele>1151.6</ele>
        <time>2020-07-19T09:51:41Z</time>
      </trkpt>
      <trkpt lat="45.50679" lon="6.58672">
        <ele>1151.8</ele>
        <time>2020-07-19T09:51:45Z</time>
      </trkpt>
      <trkpt lat="45.50673" lon="6.58671">
        <ele>1153</ele>
        <time>2020-07-19T09:51:49Z</time>
      </trkpt>
      <trkpt lat="45.50665" lon="6.58666">
        <ele>1153.2</ele>
        <time>2020-07-19T09:51:53Z</time>
      </trkpt>
      <trkpt lat="45.50658" lon="6.58662">
        <ele>1153.8</ele>
        <time>2020-07-19T09:51:57Z</time>
      </trkpt>
      <trkpt lat="45.50648" lon="6.58659">
        <ele>1154.8</ele>
        <time>2020-07-19T09:52:01Z</time>
      </trkpt>
      <trkpt lat="45.50639" lon="6.58653">
        <ele>1155.6</ele>
        <time>2020-07-19T09:52:05Z</time>
      </trkpt>
      <trkpt lat="45.5063" lon="6.58649">
        <ele>1156.2</ele>
        <time>2020-07-19T09:52:09Z</time>
      </trkpt>
      <trkpt lat="45.5062" lon="6.58646">
        <ele>1156.4</ele>
        <time>2020-07-19T09:52:13Z</time>
      </trkpt>
      <trkpt lat="45.50612" lon="6.5865">
        <ele>1156.8</ele>
        <time>2020-07-19T09:52:17Z</time>
      </trkpt>
      <trkpt lat="45.50612" lon="6.58662">
        <ele>1158</ele>
        <time>2020-07-19T09:52:21Z</time>
      </trkpt>
      <trkpt lat="45.50619" lon="6.58668">
        <ele>1158.4</ele>
        <time>2020-07-19T09:52:25Z</time>
      </trkpt>
      <trkpt lat="45.50626" lon="6.5867">
        <ele>1159.4</ele>
        <time>2020-07-19T09:52:29Z</time>
      </trkpt>
      <trkpt lat="45.50634" lon="6.58673">
        <ele>1160</ele>
        <time>2020-07-19T09:52:33Z</time>
      </trkpt>
      <trkpt lat="45.50635" lon="6.58672">
        <ele>1160.8</ele>
        <time>2020-07-19T09:52:37Z</time>
      </trkpt>
      <trkpt lat="45.50642" lon="6.58676">
        <ele>1161</ele>
        <time>2020-07-19T09:52:41Z</time>
      </trkpt>
      <trkpt lat="45.50646" lon="6.58681">
        <ele>1162.4</ele>
        <time>2020-07-19T09:52:45Z</time>
      </trkpt>
      <trkpt lat="45.50652" lon="6.58685">
        <ele>1162.8</ele>
        <time>2020-07-19T09:52:49Z</time>
      </trkpt>
      <trkpt lat="45.50659" lon="6.58691">
        <ele>1163</ele>
        <time>2020-07-19T09:52:53Z</time>
      </trkpt>
      <trkpt lat="45.50664" lon="6.58697">
        <ele>1164</ele>
        <time>2020-07-19T09:52:57Z</time>
      </trkpt>
      <trkpt lat="45.50671" lon="6.58704">
        <ele>1165</ele>
        <time>2020-07-19T09:53:01Z</time>
      </trkpt>
      <trkpt lat="45.50676" lon="6.58709">
        <ele>1165.6</ele>
        <time>2020-07-19T09:53:05Z</time>
      </trkpt>
      <trkpt lat="45.50682" lon="6.58716">
        <ele>1166.4</ele>
        <time>2020-07-19T09:53:09Z</time>
      </trkpt>
      <trkpt lat="45.50687" lon="6.58723">
        <ele>1167.2</ele>
        <time>2020-07-19T09:53:13Z</time>
      </trkpt>
      <trkpt lat="45.50692" lon="6.5873">
        <ele>1167.6</ele>
        <time>2020-07-19T09:53:17Z</time>
      </trkpt>
      <trkpt lat="45.50695" lon="6.58737">
        <ele>1168.4</ele>
        <time>2020-07-19T09:53:21Z</time>
      </trkpt>
      <trkpt lat="45.50701" lon="6.58743">
        <ele>1169.2</ele>
        <time>2020-07-19T09:53:25Z</time>
      </trkpt>
      <trkpt lat="45.50706" lon="6.58747">
        <ele>1170</ele>
        <time>2020-07-19T09:53:29Z</time>
      </trkpt>
      <trkpt lat="45.50711" lon="6.58751">
        <ele>1170.6</ele>
        <time>2020-07-19T09:53:33Z</time>
      </trkpt>
      <trkpt lat="45.50716" lon="6.58754">
        <ele>1170.8</ele>
        <time>2020-07-19T09:53:37Z</time>
      </trkpt>
      <trkpt lat="45.5072" lon="6.58756">
        <ele>1171.8</ele>
        <time>2020-07-19T09:53:41Z</time>
      </trkpt>
      <trkpt lat="45.50727" lon="6.5876">
        <ele>1172.4</ele>
        <time>2020-07-19T09:53:45Z</time>
      </trkpt>
      <trkpt lat="45.50734" lon="6.58762">
        <ele>1173.4</ele>
        <time>2020-07-19T09:53:49Z</time>
      </trkpt>
      <trkpt lat="45.50741" lon="6.58765">
        <ele>1173.8</ele>
        <time>2020-07-19T09:53:53Z</time>
      </trkpt>
      <trkpt lat="45.50749" lon="6.58769">
        <ele>1174.4</ele>
        <time>2020-07-19T09:53:57Z</time>
      </trkpt>
      <trkpt lat="45.50756" lon="6.58773">
        <ele>1174.8</ele>
        <time>2020-07-19T09:54:01Z</time>
      </trkpt>
      <trkpt lat="45.50764" lon="6.58777">
        <ele>1176.2</ele>
        <time>2020-07-19T09:54:05Z</time>
      </trkpt>
      <trkpt lat="45.50772" lon="6.58781">
        <ele>1176.2</ele>
        <time>2020-07-19T09:54:09Z</time>
      </trkpt>
      <trkpt lat="45.50779" lon="6.58785">
        <ele>1176.8</ele>
        <time>2020-07-19T09:54:13Z</time>
      </trkpt>
      <trkpt lat="45.50787" lon="6.58788">
        <ele>1177.4</ele>
        <time>2020-07-19T09:54:17Z</time>
      </trkpt>
      <trkpt lat="45.50796" lon="6.58791">
        <ele>1178</ele>
        <time>2020-07-19T09:54:21Z</time>
      </trkpt>
      <trkpt lat="45.50806" lon="6.58794">
        <ele>1178.6</ele>
        <time>2020-07-19T09:54:25Z</time>
      </trkpt>
      <trkpt lat="45.50813" lon="6.58797">
        <ele>1179.4</ele>
        <time>2020-07-19T09:54:29Z</time>
      </trkpt>
      <trkpt lat="45.50818" lon="6.58803">
        <ele>1180</ele>
        <time>2020-07-19T09:54:33Z</time>
      </trkpt>
      <trkpt lat="45.50816" lon="6.58811">
        <ele>1180.8</ele>
        <time>2020-07-19T09:54:37Z</time>
      </trkpt>
      <trkpt lat="45.50809" lon="6.58815">
        <ele>1181.2</ele>
        <time>2020-07-19T09:54:41Z</time>
      </trkpt>
      <trkpt lat="45.50802" lon="6.58815">
        <ele>1181.8</ele>
        <time>2020-07-19T09:54:45Z</time>
      </trkpt>
      <trkpt lat="45.50794" lon="6.58812">
        <ele>1182.6</ele>
        <time>2020-07-19T09:54:49Z</time>
      </trkpt>
      <trkpt lat="45.50786" lon="6.58812">
        <ele>1182.6</ele>
        <time>2020-07-19T09:54:53Z</time>
      </trkpt>
      <trkpt lat="45.50778" lon="6.58812">
        <ele>1182.8</ele>
        <time>2020-07-19T09:54:57Z</time>
      </trkpt>
      <trkpt lat="45.5077" lon="6.58811">
        <ele>1183.6</ele>
        <time>2020-07-19T09:55:01Z</time>
      </trkpt>
      <trkpt lat="45.50762" lon="6.58809">
        <ele>1184.2</ele>
        <time>2020-07-19T09:55:05Z</time>
      </trkpt>
      <trkpt lat="45.50754" lon="6.58808">
        <ele>1185.2</ele>
        <time>2020-07-19T09:55:09Z</time>
      </trkpt>
      <trkpt lat="45.50747" lon="6.58806">
        <ele>1185.6</ele>
        <time>2020-07-19T09:55:13Z</time>
      </trkpt>
      <trkpt lat="45.5074" lon="6.58806">
        <ele>1186.2</ele>
        <time>2020-07-19T09:55:17Z</time>
      </trkpt>
      <trkpt lat="45.50731" lon="6.58804">
        <ele>1187</ele>
        <time>2020-07-19T09:55:21Z</time>
      </trkpt>
      <trkpt lat="45.50726" lon="6.58803">
        <ele>1187.8</ele>
        <time>2020-07-19T09:55:25Z</time>
      </trkpt>
      <trkpt lat="45.50718" lon="6.58797">
        <ele>1188</ele>
        <time>2020-07-19T09:55:29Z</time>
      </trkpt>
      <trkpt lat="45.5071" lon="6.58791">
        <ele>1188.6</ele>
        <time>2020-07-19T09:55:33Z</time>
      </trkpt>
      <trkpt lat="45.50702" lon="6.58794">
        <ele>1189.4</ele>
        <time>2020-07-19T09:55:37Z</time>
      </trkpt>
      <trkpt lat="45.50701" lon="6.58803">
        <ele>1189.8</ele>
        <time>2020-07-19T09:55:41Z</time>
      </trkpt>
      <trkpt lat="45.50705" lon="6.58813">
        <ele>1190.4</ele>
        <time>2020-07-19T09:55:45Z</time>
      </trkpt>
      <trkpt lat="45.50712" lon="6.5882">
        <ele>1190.8</ele>
        <time>2020-07-19T09:55:49Z</time>
      </trkpt>
      <trkpt lat="45.50719" lon="6.58824">
        <ele>1191.6</ele>
        <time>2020-07-19T09:55:53Z</time>
      </trkpt>
      <trkpt lat="45.50725" lon="6.58826">
        <ele>1192.2</ele>
        <time>2020-07-19T09:55:57Z</time>
      </trkpt>
      <trkpt lat="45.50725" lon="6.58826">
        <ele>1192.8</ele>
        <time>2020-07-19T09:56:01Z</time>
      </trkpt>
      <trkpt lat="45.5073" lon="6.58828">
        <ele>1194.2</ele>
        <time>2020-07-19T09:56:05Z</time>
      </trkpt>
      <trkpt lat="45.50739" lon="6.58834">
        <ele>1195</ele>
        <time>2020-07-19T09:56:09Z</time>
      </trkpt>
      <trkpt lat="45.50746" lon="6.58838">
        <ele>1195.6</ele>
        <time>2020-07-19T09:56:13Z</time>
      </trkpt>
      <trkpt lat="45.50752" lon="6.58843">
        <ele>1196</ele>
        <time>2020-07-19T09:56:17Z</time>
      </trkpt>
      <trkpt lat="45.50759" lon="6.58846">
        <ele>1197.2</ele>
        <time>2020-07-19T09:56:21Z</time>
      </trkpt>
      <trkpt lat="45.50767" lon="6.5885">
        <ele>1197.8</ele>
        <time>2020-07-19T09:56:25Z</time>
      </trkpt>
      <trkpt lat="45.50773" lon="6.58852">
        <ele>1198.4</ele>
        <time>2020-07-19T09:56:29Z</time>
      </trkpt>
      <trkpt lat="45.5078" lon="6.58855">
        <ele>1199</ele>
        <time>2020-07-19T09:56:33Z</time>
      </trkpt>
      <trkpt lat="45.50787" lon="6.58857">
        <ele>1199.8</ele>
        <time>2020-07-19T09:56:37Z</time>
      </trkpt>
      <trkpt lat="45.50793" lon="6.58856">
        <ele>1200.4</ele>
        <time>2020-07-19T09:56:41Z</time>
      </trkpt>
      <trkpt lat="45.50799" lon="6.58856">
        <ele>1201.2</ele>
        <time>2020-07-19T09:56:45Z</time>
      </trkpt>
      <trkpt lat="45.50805" lon="6.58859">
        <ele>1201.6</ele>
        <time>2020-07-19T09:56:49Z</time>
      </trkpt>
      <trkpt lat="45.50811" lon="6.5886">
        <ele>1202.4</ele>
        <time>2020-07-19T09:56:53Z</time>
      </trkpt>
      <trkpt lat="45.50819" lon="6.58863">
        <ele>1203</ele>
        <time>2020-07-19T09:56:57Z</time>
      </trkpt>
      <trkpt lat="45.50826" lon="6.58865">
        <ele>1203.6</ele>
        <time>2020-07-19T09:57:01Z</time>
      </trkpt>
      <trkpt lat="45.50833" lon="6.58868">
        <ele>1204.6</ele>
        <time>2020-07-19T09:57:05Z</time>
      </trkpt>
      <trkpt lat="45.5084" lon="6.5887">
        <ele>1205</ele>
        <time>2020-07-19T09:57:09Z</time>
      </trkpt>
      <trkpt lat="45.50847" lon="6.58873">
        <ele>1205.6</ele>
        <time>2020-07-19T09:57:13Z</time>
      </trkpt>
      <trkpt lat="45.50853" lon="6.58876">
        <ele>1206.2</ele>
        <time>2020-07-19T09:57:17Z</time>
      </trkpt>
      <trkpt lat="45.5086" lon="6.58879">
        <ele>1207</ele>
        <time>2020-07-19T09:57:21Z</time>
      </trkpt>
      <trkpt lat="45.50866" lon="6.58882">
        <ele>1207.4</ele>
        <time>2020-07-19T09:57:25Z</time>
      </trkpt>
      <trkpt lat="45.50873" lon="6.58887">
        <ele>1207.8</ele>
        <time>2020-07-19T09:57:29Z</time>
      </trkpt>
      <trkpt lat="45.5088" lon="6.58891">
        <ele>1208.4</ele>
        <time>2020-07-19T09:57:33Z</time>
      </trkpt>
      <trkpt lat="45.50885" lon="6.58898">
        <ele>1209.8</ele>
        <time>2020-07-19T09:57:37Z</time>
      </trkpt>
      <trkpt lat="45.50888" lon="6.58906">
        <ele>1210.2</ele>
        <time>2020-07-19T09:57:41Z</time>
      </trkpt>
      <trkpt lat="45.50891" lon="6.58914">
        <ele>1211.2</ele>
        <time>2020-07-19T09:57:45Z</time>
      </trkpt>
      <trkpt lat="45.50893" lon="6.58925">
        <ele>1211.8</ele>
        <time>2020-07-19T09:57:49Z</time>
      </trkpt>
      <trkpt lat="45.50896" lon="6.58935">
        <ele>1212</ele>
        <time>2020-07-19T09:57:53Z</time>
      </trkpt>
      <trkpt lat="45.50899" lon="6.58945">
        <ele>1212.8</ele>
        <time>2020-07-19T09:57:57Z</time>
      </trkpt>
      <trkpt lat="45.50902" lon="6.58955">
        <ele>1213.2</ele>
        <time>2020-07-19T09:58:01Z</time>
      </trkpt>
      <trkpt lat="45.50904" lon="6.58963">
        <ele>1214.2</ele>
        <time>2020-07-19T09:58:05Z</time>
      </trkpt>
      <trkpt lat="45.5091" lon="6.58968">
        <ele>1214.4</ele>
        <time>2020-07-19T09:58:09Z</time>
      </trkpt>
      <trkpt lat="45.50917" lon="6.58965">
        <ele>1215.2</ele>
        <time>2020-07-19T09:58:13Z</time>
      </trkpt>
      <trkpt lat="45.50927" lon="6.58963">
        <ele>1216</ele>
        <time>2020-07-19T09:58:17Z</time>
      </trkpt>
      <trkpt lat="45.50933" lon="6.58956">
        <ele>1216.6</ele>
        <time>2020-07-19T09:58:21Z</time>
      </trkpt>
      <trkpt lat="45.50938" lon="6.58948">
        <ele>1217.6</ele>
        <time>2020-07-19T09:58:25Z</time>
      </trkpt>
      <trkpt lat="45.50943" lon="6.58939">
        <ele>1218</ele>
        <time>2020-07-19T09:58:29Z</time>
      </trkpt>
      <trkpt lat="45.50949" lon="6.58933">
        <ele>1218.8</ele>
        <time>2020-07-19T09:58:33Z</time>
      </trkpt>
      <trkpt lat="45.50956" lon="6.58929">
        <ele>1219.4</ele>
        <time>2020-07-19T09:58:37Z</time>
      </trkpt>
      <trkpt lat="45.50962" lon="6.58923">
        <ele>1220</ele>
        <time>2020-07-19T09:58:41Z</time>
      </trkpt>
      <trkpt lat="45.50966" lon="6.58916">
        <ele>1220.6</ele>
        <time>2020-07-19T09:58:45Z</time>
      </trkpt>
      <trkpt lat="45.5097" lon="6.58908">
        <ele>1221</ele>
        <time>2020-07-19T09:58:49Z</time>
      </trkpt>
      <trkpt lat="45.50973" lon="6.58899">
        <ele>1222</ele>
        <time>2020-07-19T09:58:53Z</time>
      </trkpt>
      <trkpt lat="45.5098" lon="6.58897">
        <ele>1221.6</ele>
        <time>2020-07-19T09:58:57Z</time>
      </trkpt>
      <trkpt lat="45.50988" lon="6.589">
        <ele>1222.8</ele>
        <time>2020-07-19T09:59:01Z</time>
      </trkpt>
      <trkpt lat="45.50994" lon="6.58903">
        <ele>1223.4</ele>
        <time>2020-07-19T09:59:05Z</time>
      </trkpt>
      <trkpt lat="45.51" lon="6.58907">
        <ele>1223.8</ele>
        <time>2020-07-19T09:59:09Z</time>
      </trkpt>
      <trkpt lat="45.51006" lon="6.5891">
        <ele>1224.8</ele>
        <time>2020-07-19T09:59:13Z</time>
      </trkpt>
      <trkpt lat="45.51012" lon="6.58915">
        <ele>1225.2</ele>
        <time>2020-07-19T09:59:17Z</time>
      </trkpt>
      <trkpt lat="45.51018" lon="6.5892">
        <ele>1225.6</ele>
        <time>2020-07-19T09:59:21Z</time>
      </trkpt>
      <trkpt lat="45.51024" lon="6.58924">
        <ele>1226.6</ele>
        <time>2020-07-19T09:59:25Z</time>
      </trkpt>
      <trkpt lat="45.51031" lon="6.58926">
        <ele>1227</ele>
        <time>2020-07-19T09:59:29Z</time>
      </trkpt>
      <trkpt lat="45.51038" lon="6.58931">
        <ele>1227.4</ele>
        <time>2020-07-19T09:59:33Z</time>
      </trkpt>
      <trkpt lat="45.51044" lon="6.58933">
        <ele>1228.4</ele>
        <time>2020-07-19T09:59:37Z</time>
      </trkpt>
      <trkpt lat="45.51051" lon="6.58936">
        <ele>1229</ele>
        <time>2020-07-19T09:59:41Z</time>
      </trkpt>
      <trkpt lat="45.51058" lon="6.58938">
        <ele>1229.6</ele>
        <time>2020-07-19T09:59:45Z</time>
      </trkpt>
      <trkpt lat="45.51066" lon="6.58943">
        <ele>1230.6</ele>
        <time>2020-07-19T09:59:49Z</time>
      </trkpt>
      <trkpt lat="45.51073" lon="6.58945">
        <ele>1231.2</ele>
        <time>2020-07-19T09:59:53Z</time>
      </trkpt>
      <trkpt lat="45.51081" lon="6.58946">
        <ele>1231.6</ele>
        <time>2020-07-19T09:59:57Z</time>
      </trkpt>
      <trkpt lat="45.51088" lon="6.5895">
        <ele>1231.8</ele>
        <time>2020-07-19T10:00:01Z</time>
      </trkpt>
      <trkpt lat="45.51096" lon="6.58953">
        <ele>1232</ele>
        <time>2020-07-19T10:00:05Z</time>
      </trkpt>
      <trkpt lat="45.51104" lon="6.58955">
        <ele>1233</ele>
        <time>2020-07-19T10:00:09Z</time>
      </trkpt>
      <trkpt lat="45.51111" lon="6.58959">
        <ele>1233</ele>
        <time>2020-07-19T10:00:13Z</time>
      </trkpt>
      <trkpt lat="45.51118" lon="6.58963">
        <ele>1234</ele>
        <time>2020-07-19T10:00:17Z</time>
      </trkpt>
      <trkpt lat="45.51125" lon="6.58968">
        <ele>1234.6</ele>
        <time>2020-07-19T10:00:21Z</time>
      </trkpt>
      <trkpt lat="45.51131" lon="6.58973">
        <ele>1235.2</ele>
        <time>2020-07-19T10:00:25Z</time>
      </trkpt>
      <trkpt lat="45.51138" lon="6.5898">
        <ele>1236</ele>
        <time>2020-07-19T10:00:29Z</time>
      </trkpt>
      <trkpt lat="45.51144" lon="6.58986">
        <ele>1236.6</ele>
        <time>2020-07-19T10:00:33Z</time>
      </trkpt>
      <trkpt lat="45.51151" lon="6.58992">
        <ele>1237.8</ele>
        <time>2020-07-19T10:00:37Z</time>
      </trkpt>
      <trkpt lat="45.51157" lon="6.58999">
        <ele>1238</ele>
        <time>2020-07-19T10:00:41Z</time>
      </trkpt>
      <trkpt lat="45.51163" lon="6.59005">
        <ele>1238.8</ele>
        <time>2020-07-19T10:00:45Z</time>
      </trkpt>
      <trkpt lat="45.51168" lon="6.59009">
        <ele>1239.2</ele>
        <time>2020-07-19T10:00:49Z</time>
      </trkpt>
      <trkpt lat="45.51173" lon="6.59015">
        <ele>1240</ele>
        <time>2020-07-19T10:00:53Z</time>
      </trkpt>
      <trkpt lat="45.5118" lon="6.59022">
        <ele>1240.8</ele>
        <time>2020-07-19T10:00:57Z</time>
      </trkpt>
      <trkpt lat="45.51186" lon="6.59029">
        <ele>1241.2</ele>
        <time>2020-07-19T10:01:01Z</time>
      </trkpt>
      <trkpt lat="45.51193" lon="6.59034">
        <ele>1241.8</ele>
        <time>2020-07-19T10:01:05Z</time>
      </trkpt>
      <trkpt lat="45.51198" lon="6.59039">
        <ele>1242.8</ele>
        <time>2020-07-19T10:01:09Z</time>
      </trkpt>
      <trkpt lat="45.51203" lon="6.59044">
        <ele>1243.6</ele>
        <time>2020-07-19T10:01:13Z</time>
      </trkpt>
      <trkpt lat="45.51208" lon="6.59049">
        <ele>1243.6</ele>
        <time>2020-07-19T10:01:17Z</time>
      </trkpt>
      <trkpt lat="45.51214" lon="6.59054">
        <ele>1244.2</ele>
        <time>2020-07-19T10:01:21Z</time>
      </trkpt>
      <trkpt lat="45.51221" lon="6.59058">
        <ele>1244.8</ele>
        <time>2020-07-19T10:01:25Z</time>
      </trkpt>
      <trkpt lat="45.51229" lon="6.59063">
        <ele>1245.6</ele>
        <time>2020-07-19T10:01:29Z</time>
      </trkpt>
      <trkpt lat="45.51236" lon="6.59065">
        <ele>1246.4</ele>
        <time>2020-07-19T10:01:33Z</time>
      </trkpt>
      <trkpt lat="45.51243" lon="6.59066">
        <ele>1246.4</ele>
        <time>2020-07-19T10:01:37Z</time>
      </trkpt>
      <trkpt lat="45.51249" lon="6.59069">
        <ele>1247.6</ele>
        <time>2020-07-19T10:01:41Z</time>
      </trkpt>
      <trkpt lat="45.51256" lon="6.59069">
        <ele>1247.8</ele>
        <time>2020-07-19T10:01:45Z</time>
      </trkpt>
      <trkpt lat="45.51262" lon="6.59069">
        <ele>1248.8</ele>
        <time>2020-07-19T10:01:49Z</time>
      </trkpt>
      <trkpt lat="45.51269" lon="6.59068">
        <ele>1249.2</ele>
        <time>2020-07-19T10:01:53Z</time>
      </trkpt>
      <trkpt lat="45.51277" lon="6.59068">
        <ele>1250.4</ele>
        <time>2020-07-19T10:01:57Z</time>
      </trkpt>
      <trkpt lat="45.51286" lon="6.59068">
        <ele>1250.6</ele>
        <time>2020-07-19T10:02:01Z</time>
      </trkpt>
      <trkpt lat="45.51293" lon="6.59067">
        <ele>1250.8</ele>
        <time>2020-07-19T10:02:05Z</time>
      </trkpt>
      <trkpt lat="45.51301" lon="6.59069">
        <ele>1251.8</ele>
        <time>2020-07-19T10:02:09Z</time>
      </trkpt>
      <trkpt lat="45.51308" lon="6.59068">
        <ele>1252.8</ele>
        <time>2020-07-19T10:02:13Z</time>
      </trkpt>
      <trkpt lat="45.51316" lon="6.59068">
        <ele>1253.4</ele>
        <time>2020-07-19T10:02:17Z</time>
      </trkpt>
      <trkpt lat="45.51322" lon="6.59068">
        <ele>1254</ele>
        <time>2020-07-19T10:02:21Z</time>
      </trkpt>
      <trkpt lat="45.51328" lon="6.59067">
        <ele>1255</ele>
        <time>2020-07-19T10:02:25Z</time>
      </trkpt>
      <trkpt lat="45.51335" lon="6.59067">
        <ele>1255.4</ele>
        <time>2020-07-19T10:02:29Z</time>
      </trkpt>
      <trkpt lat="45.51341" lon="6.59065">
        <ele>1255.8</ele>
        <time>2020-07-19T10:02:33Z</time>
      </trkpt>
      <trkpt lat="45.51348" lon="6.59059">
        <ele>1255.6</ele>
        <time>2020-07-19T10:02:37Z</time>
      </trkpt>
      <trkpt lat="45.51355" lon="6.59053">
        <ele>1256</ele>
        <time>2020-07-19T10:02:41Z</time>
      </trkpt>
      <trkpt lat="45.51362" lon="6.59054">
        <ele>1256.4</ele>
        <time>2020-07-19T10:02:45Z</time>
      </trkpt>
      <trkpt lat="45.51364" lon="6.59063">
        <ele>1256.4</ele>
        <time>2020-07-19T10:02:49Z</time>
      </trkpt>
      <trkpt lat="45.51359" lon="6.59069">
        <ele>1257.2</ele>
        <time>2020-07-19T10:02:53Z</time>
      </trkpt>
      <trkpt lat="45.51352" lon="6.59071">
        <ele>1258</ele>
        <time>2020-07-19T10:02:57Z</time>
      </trkpt>
      <trkpt lat="45.51344" lon="6.59072">
        <ele>1257.8</ele>
        <time>2020-07-19T10:03:01Z</time>
      </trkpt>
      <trkpt lat="45.51336" lon="6.59075">
        <ele>1258.2</ele>
        <time>2020-07-19T10:03:05Z</time>
      </trkpt>
      <trkpt lat="45.51328" lon="6.59077">
        <ele>1258.8</ele>
        <time>2020-07-19T10:03:09Z</time>
      </trkpt>
      <trkpt lat="45.5132" lon="6.5908">
        <ele>1259.2</ele>
        <time>2020-07-19T10:03:13Z</time>
      </trkpt>
      <trkpt lat="45.51313" lon="6.59084">
        <ele>1260</ele>
        <time>2020-07-19T10:03:17Z</time>
      </trkpt>
      <trkpt lat="45.51305" lon="6.59087">
        <ele>1260.4</ele>
        <time>2020-07-19T10:03:21Z</time>
      </trkpt>
      <trkpt lat="45.51298" lon="6.5909">
        <ele>1260.8</ele>
        <time>2020-07-19T10:03:25Z</time>
      </trkpt>
      <trkpt lat="45.51291" lon="6.59093">
        <ele>1261.2</ele>
        <time>2020-07-19T10:03:29Z</time>
      </trkpt>
      <trkpt lat="45.51283" lon="6.59095">
        <ele>1262.4</ele>
        <time>2020-07-19T10:03:33Z</time>
      </trkpt>
      <trkpt lat="45.51277" lon="6.59099">
        <ele>1262.4</ele>
        <time>2020-07-19T10:03:37Z</time>
      </trkpt>
      <trkpt lat="45.51269" lon="6.59101">
        <ele>1263.8</ele>
        <time>2020-07-19T10:03:41Z</time>
      </trkpt>
      <trkpt lat="45.51262" lon="6.59102">
        <ele>1263.6</ele>
        <time>2020-07-19T10:03:45Z</time>
      </trkpt>
      <trkpt lat="45.51255" lon="6.59104">
        <ele>1264.8</ele>
        <time>2020-07-19T10:03:49Z</time>
      </trkpt>
      <trkpt lat="45.51247" lon="6.59107">
        <ele>1265.2</ele>
        <time>2020-07-19T10:03:53Z</time>
      </trkpt>
      <trkpt lat="45.5124" lon="6.59109">
        <ele>1266.4</ele>
        <time>2020-07-19T10:03:57Z</time>
      </trkpt>
      <trkpt lat="45.51233" lon="6.59111">
        <ele>1266.6</ele>
        <time>2020-07-19T10:04:01Z</time>
      </trkpt>
      <trkpt lat="45.51225" lon="6.59113">
        <ele>1267.2</ele>
        <time>2020-07-19T10:04:05Z</time>
      </trkpt>
      <trkpt lat="45.51218" lon="6.59114">
        <ele>1268.6</ele>
        <time>2020-07-19T10:04:09Z</time>
      </trkpt>
      <trkpt lat="45.51212" lon="6.59116">
        <ele>1269</ele>
        <time>2020-07-19T10:04:13Z</time>
      </trkpt>
      <trkpt lat="45.51205" lon="6.59117">
        <ele>1270.4</ele>
        <time>2020-07-19T10:04:17Z</time>
      </trkpt>
      <trkpt lat="45.51198" lon="6.59119">
        <ele>1270.4</ele>
        <time>2020-07-19T10:04:21Z</time>
      </trkpt>
      <trkpt lat="45.51191" lon="6.59119">
        <ele>1271.4</ele>
        <time>2020-07-19T10:04:25Z</time>
      </trkpt>
      <trkpt lat="45.51182" lon="6.59118">
        <ele>1272.6</ele>
        <time>2020-07-19T10:04:29Z</time>
      </trkpt>
      <trkpt lat="45.51175" lon="6.59117">
        <ele>1272.6</ele>
        <time>2020-07-19T10:04:33Z</time>
      </trkpt>
      <trkpt lat="45.51168" lon="6.59116">
        <ele>1273.8</ele>
        <time>2020-07-19T10:04:37Z</time>
      </trkpt>
      <trkpt lat="45.51161" lon="6.59114">
        <ele>1274.2</ele>
        <time>2020-07-19T10:04:41Z</time>
      </trkpt>
      <trkpt lat="45.51153" lon="6.59112">
        <ele>1274.4</ele>
        <time>2020-07-19T10:04:45Z</time>
      </trkpt>
      <trkpt lat="45.51147" lon="6.5911">
        <ele>1275.4</ele>
        <time>2020-07-19T10:04:49Z</time>
      </trkpt>
      <trkpt lat="45.5114" lon="6.59108">
        <ele>1275.6</ele>
        <time>2020-07-19T10:04:53Z</time>
      </trkpt>
      <trkpt lat="45.51134" lon="6.59106">
        <ele>1276.8</ele>
        <time>2020-07-19T10:04:57Z</time>
      </trkpt>
      <trkpt lat="45.51127" lon="6.59104">
        <ele>1277.4</ele>
        <time>2020-07-19T10:05:01Z</time>
      </trkpt>
      <trkpt lat="45.5112" lon="6.59101">
        <ele>1278</ele>
        <time>2020-07-19T10:05:05Z</time>
      </trkpt>
      <trkpt lat="45.51113" lon="6.59098">
        <ele>1278</ele>
        <time>2020-07-19T10:05:09Z</time>
      </trkpt>
      <trkpt lat="45.51106" lon="6.59095">
        <ele>1279.2</ele>
        <time>2020-07-19T10:05:13Z</time>
      </trkpt>
      <trkpt lat="45.51098" lon="6.59094">
        <ele>1279.8</ele>
        <time>2020-07-19T10:05:17Z</time>
      </trkpt>
      <trkpt lat="45.51091" lon="6.59096">
        <ele>1281</ele>
        <time>2020-07-19T10:05:21Z</time>
      </trkpt>
      <trkpt lat="45.51084" lon="6.59101">
        <ele>1281.8</ele>
        <time>2020-07-19T10:05:25Z</time>
      </trkpt>
      <trkpt lat="45.51078" lon="6.59105">
        <ele>1281.8</ele>
        <time>2020-07-19T10:05:29Z</time>
      </trkpt>
      <trkpt lat="45.51071" lon="6.59108">
        <ele>1282.8</ele>
        <time>2020-07-19T10:05:33Z</time>
      </trkpt>
      <trkpt lat="45.51065" lon="6.59112">
        <ele>1283.2</ele>
        <time>2020-07-19T10:05:37Z</time>
      </trkpt>
      <trkpt lat="45.51058" lon="6.59116">
        <ele>1283.8</ele>
        <time>2020-07-19T10:05:41Z</time>
      </trkpt>
      <trkpt lat="45.51052" lon="6.59119">
        <ele>1285.2</ele>
        <time>2020-07-19T10:05:45Z</time>
      </trkpt>
      <trkpt lat="45.51046" lon="6.59123">
        <ele>1285.2</ele>
        <time>2020-07-19T10:05:49Z</time>
      </trkpt>
      <trkpt lat="45.51039" lon="6.59126">
        <ele>1285.6</ele>
        <time>2020-07-19T10:05:53Z</time>
      </trkpt>
      <trkpt lat="45.51032" lon="6.5913">
        <ele>1286.2</ele>
        <time>2020-07-19T10:05:57Z</time>
      </trkpt>
      <trkpt lat="45.51026" lon="6.59132">
        <ele>1287</ele>
        <time>2020-07-19T10:06:01Z</time>
      </trkpt>
      <trkpt lat="45.51019" lon="6.59134">
        <ele>1288.4</ele>
        <time>2020-07-19T10:06:05Z</time>
      </trkpt>
      <trkpt lat="45.51012" lon="6.59136">
        <ele>1288.4</ele>
        <time>2020-07-19T10:06:09Z</time>
      </trkpt>
      <trkpt lat="45.51008" lon="6.59142">
        <ele>1289.6</ele>
        <time>2020-07-19T10:06:13Z</time>
      </trkpt>
      <trkpt lat="45.5101" lon="6.59151">
        <ele>1290.2</ele>
        <time>2020-07-19T10:06:17Z</time>
      </trkpt>
      <trkpt lat="45.51017" lon="6.59154">
        <ele>1291</ele>
        <time>2020-07-19T10:06:21Z</time>
      </trkpt>
      <trkpt lat="45.51024" lon="6.59153">
        <ele>1291.2</ele>
        <time>2020-07-19T10:06:25Z</time>
      </trkpt>
      <trkpt lat="45.51032" lon="6.59154">
        <ele>1290.8</ele>
        <time>2020-07-19T10:06:29Z</time>
      </trkpt>
      <trkpt lat="45.51039" lon="6.59156">
        <ele>1291.4</ele>
        <time>2020-07-19T10:06:33Z</time>
      </trkpt>
      <trkpt lat="45.51046" lon="6.59159">
        <ele>1292.2</ele>
        <time>2020-07-19T10:06:37Z</time>
      </trkpt>
      <trkpt lat="45.51053" lon="6.59162">
        <ele>1292.4</ele>
        <time>2020-07-19T10:06:41Z</time>
      </trkpt>
      <trkpt lat="45.51059" lon="6.59166">
        <ele>1293.6</ele>
        <time>2020-07-19T10:06:45Z</time>
      </trkpt>
      <trkpt lat="45.51066" lon="6.59169">
        <ele>1293.6</ele>
        <time>2020-07-19T10:06:49Z</time>
      </trkpt>
      <trkpt lat="45.51072" lon="6.59172">
        <ele>1294.6</ele>
        <time>2020-07-19T10:06:53Z</time>
      </trkpt>
      <trkpt lat="45.51078" lon="6.59174">
        <ele>1295.2</ele>
        <time>2020-07-19T10:06:57Z</time>
      </trkpt>
      <trkpt lat="45.51085" lon="6.59178">
        <ele>1295.8</ele>
        <time>2020-07-19T10:07:01Z</time>
      </trkpt>
      <trkpt lat="45.51092" lon="6.59181">
        <ele>1296.2</ele>
        <time>2020-07-19T10:07:05Z</time>
      </trkpt>
      <trkpt lat="45.51099" lon="6.59185">
        <ele>1296.2</ele>
        <time>2020-07-19T10:07:09Z</time>
      </trkpt>
      <trkpt lat="45.51107" lon="6.59188">
        <ele>1297.4</ele>
        <time>2020-07-19T10:07:13Z</time>
      </trkpt>
      <trkpt lat="45.51114" lon="6.59191">
        <ele>1298.2</ele>
        <time>2020-07-19T10:07:17Z</time>
      </trkpt>
      <trkpt lat="45.5112" lon="6.59194">
        <ele>1298.8</ele>
        <time>2020-07-19T10:07:21Z</time>
      </trkpt>
      <trkpt lat="45.51127" lon="6.59198">
        <ele>1299.4</ele>
        <time>2020-07-19T10:07:25Z</time>
      </trkpt>
      <trkpt lat="45.51133" lon="6.59203">
        <ele>1300</ele>
        <time>2020-07-19T10:07:29Z</time>
      </trkpt>
      <trkpt lat="45.51138" lon="6.59208">
        <ele>1301</ele>
        <time>2020-07-19T10:07:33Z</time>
      </trkpt>
      <trkpt lat="45.51143" lon="6.59212">
        <ele>1300.6</ele>
        <time>2020-07-19T10:07:37Z</time>
      </trkpt>
      <trkpt lat="45.51149" lon="6.59217">
        <ele>1301.6</ele>
        <time>2020-07-19T10:07:41Z</time>
      </trkpt>
      <trkpt lat="45.51156" lon="6.5922">
        <ele>1302.2</ele>
        <time>2020-07-19T10:07:45Z</time>
      </trkpt>
      <trkpt lat="45.51163" lon="6.59222">
        <ele>1302.8</ele>
        <time>2020-07-19T10:07:49Z</time>
      </trkpt>
      <trkpt lat="45.5117" lon="6.59223">
        <ele>1303.8</ele>
        <time>2020-07-19T10:07:53Z</time>
      </trkpt>
      <trkpt lat="45.51177" lon="6.59221">
        <ele>1304.4</ele>
        <time>2020-07-19T10:07:57Z</time>
      </trkpt>
      <trkpt lat="45.51184" lon="6.5922">
        <ele>1304.8</ele>
        <time>2020-07-19T10:08:01Z</time>
      </trkpt>
      <trkpt lat="45.51191" lon="6.59219">
        <ele>1305.6</ele>
        <time>2020-07-19T10:08:05Z</time>
      </trkpt>
      <trkpt lat="45.51198" lon="6.59217">
        <ele>1306</ele>
        <time>2020-07-19T10:08:09Z</time>
      </trkpt>
      <trkpt lat="45.51205" lon="6.59216">
        <ele>1306.6</ele>
        <time>2020-07-19T10:08:13Z</time>
      </trkpt>
      <trkpt lat="45.51212" lon="6.59214">
        <ele>1307.4</ele>
        <time>2020-07-19T10:08:17Z</time>
      </trkpt>
      <trkpt lat="45.51219" lon="6.5921">
        <ele>1308.2</ele>
        <time>2020-07-19T10:08:21Z</time>
      </trkpt>
      <trkpt lat="45.51226" lon="6.59207">
        <ele>1308</ele>
        <time>2020-07-19T10:08:25Z</time>
      </trkpt>
      <trkpt lat="45.51233" lon="6.59211">
        <ele>1308.2</ele>
        <time>2020-07-19T10:08:29Z</time>
      </trkpt>
      <trkpt lat="45.51233" lon="6.59221">
        <ele>1309</ele>
        <time>2020-07-19T10:08:33Z</time>
      </trkpt>
      <trkpt lat="45.51227" lon="6.59226">
        <ele>1308.8</ele>
        <time>2020-07-19T10:08:37Z</time>
      </trkpt>
      <trkpt lat="45.5122" lon="6.59228">
        <ele>1309.8</ele>
        <time>2020-07-19T10:08:41Z</time>
      </trkpt>
      <trkpt lat="45.51213" lon="6.59232">
        <ele>1310</ele>
        <time>2020-07-19T10:08:45Z</time>
      </trkpt>
      <trkpt lat="45.51207" lon="6.59238">
        <ele>1310.4</ele>
        <time>2020-07-19T10:08:49Z</time>
      </trkpt>
      <trkpt lat="45.51202" lon="6.59245">
        <ele>1311.6</ele>
        <time>2020-07-19T10:08:53Z</time>
      </trkpt>
      <trkpt lat="45.51197" lon="6.59252">
        <ele>1311.8</ele>
        <time>2020-07-19T10:08:57Z</time>
      </trkpt>
      <trkpt lat="45.51192" lon="6.59259">
        <ele>1312.4</ele>
        <time>2020-07-19T10:09:01Z</time>
      </trkpt>
      <trkpt lat="45.51187" lon="6.59267">
        <ele>1313.4</ele>
        <time>2020-07-19T10:09:05Z</time>
      </trkpt>
      <trkpt lat="45.51182" lon="6.59274">
        <ele>1314</ele>
        <time>2020-07-19T10:09:09Z</time>
      </trkpt>
      <trkpt lat="45.51178" lon="6.59282">
        <ele>1314</ele>
        <time>2020-07-19T10:09:13Z</time>
      </trkpt>
      <trkpt lat="45.51174" lon="6.59291">
        <ele>1315.6</ele>
        <time>2020-07-19T10:09:17Z</time>
      </trkpt>
      <trkpt lat="45.51169" lon="6.59299">
        <ele>1316.2</ele>
        <time>2020-07-19T10:09:21Z</time>
      </trkpt>
      <trkpt lat="45.51164" lon="6.59305">
        <ele>1316.8</ele>
        <time>2020-07-19T10:09:25Z</time>
      </trkpt>
      <trkpt lat="45.51159" lon="6.59309">
        <ele>1317.4</ele>
        <time>2020-07-19T10:09:29Z</time>
      </trkpt>
      <trkpt lat="45.51152" lon="6.59309">
        <ele>1318.2</ele>
        <time>2020-07-19T10:09:33Z</time>
      </trkpt>
      <trkpt lat="45.51145" lon="6.59307">
        <ele>1319</ele>
        <time>2020-07-19T10:09:37Z</time>
      </trkpt>
      <trkpt lat="45.51138" lon="6.59305">
        <ele>1319.4</ele>
        <time>2020-07-19T10:09:41Z</time>
      </trkpt>
      <trkpt lat="45.51131" lon="6.59301">
        <ele>1320.8</ele>
        <time>2020-07-19T10:09:45Z</time>
      </trkpt>
      <trkpt lat="45.51125" lon="6.59298">
        <ele>1320.8</ele>
        <time>2020-07-19T10:09:49Z</time>
      </trkpt>
      <trkpt lat="45.51119" lon="6.59294">
        <ele>1321.4</ele>
        <time>2020-07-19T10:09:53Z</time>
      </trkpt>
      <trkpt lat="45.51113" lon="6.59295">
        <ele>1322.2</ele>
        <time>2020-07-19T10:09:57Z</time>
      </trkpt>
      <trkpt lat="45.51106" lon="6.59297">
        <ele>1322.6</ele>
        <time>2020-07-19T10:10:01Z</time>
      </trkpt>
      <trkpt lat="45.511" lon="6.59301">
        <ele>1323.2</ele>
        <time>2020-07-19T10:10:05Z</time>
      </trkpt>
      <trkpt lat="45.51093" lon="6.59304">
        <ele>1323.6</ele>
        <time>2020-07-19T10:10:09Z</time>
      </trkpt>
      <trkpt lat="45.51087" lon="6.59308">
        <ele>1323.6</ele>
        <time>2020-07-19T10:10:13Z</time>
      </trkpt>
      <trkpt lat="45.51083" lon="6.59315">
        <ele>1324.6</ele>
        <time>2020-07-19T10:10:17Z</time>
      </trkpt>
      <trkpt lat="45.51082" lon="6.59324">
        <ele>1324.8</ele>
        <time>2020-07-19T10:10:21Z</time>
      </trkpt>
      <trkpt lat="45.5108" lon="6.59333">
        <ele>1325.8</ele>
        <time>2020-07-19T10:10:25Z</time>
      </trkpt>
      <trkpt lat="45.51077" lon="6.59342">
        <ele>1326</ele>
        <time>2020-07-19T10:10:29Z</time>
      </trkpt>
      <trkpt lat="45.51075" lon="6.5935">
        <ele>1327.2</ele>
        <time>2020-07-19T10:10:33Z</time>
      </trkpt>
      <trkpt lat="45.51072" lon="6.59359">
        <ele>1327.8</ele>
        <time>2020-07-19T10:10:37Z</time>
      </trkpt>
      <trkpt lat="45.51071" lon="6.59369">
        <ele>1328.4</ele>
        <time>2020-07-19T10:10:41Z</time>
      </trkpt>
      <trkpt lat="45.51075" lon="6.59377">
        <ele>1328.2</ele>
        <time>2020-07-19T10:10:45Z</time>
      </trkpt>
      <trkpt lat="45.5108" lon="6.59383">
        <ele>1328.6</ele>
        <time>2020-07-19T10:10:49Z</time>
      </trkpt>
      <trkpt lat="45.51084" lon="6.59392">
        <ele>1329.2</ele>
        <time>2020-07-19T10:10:53Z</time>
      </trkpt>
      <trkpt lat="45.51088" lon="6.59401">
        <ele>1329.4</ele>
        <time>2020-07-19T10:10:57Z</time>
      </trkpt>
      <trkpt lat="45.51091" lon="6.5941">
        <ele>1329.8</ele>
        <time>2020-07-19T10:11:01Z</time>
      </trkpt>
      <trkpt lat="45.51095" lon="6.59418">
        <ele>1330</ele>
        <time>2020-07-19T10:11:05Z</time>
      </trkpt>
      <trkpt lat="45.511" lon="6.59426">
        <ele>1330.2</ele>
        <time>2020-07-19T10:11:09Z</time>
      </trkpt>
      <trkpt lat="45.51107" lon="6.59431">
        <ele>1329.6</ele>
        <time>2020-07-19T10:11:13Z</time>
      </trkpt>
      <trkpt lat="45.51114" lon="6.59429">
        <ele>1330.2</ele>
        <time>2020-07-19T10:11:17Z</time>
      </trkpt>
      <trkpt lat="45.51128" lon="6.59436">
        <ele>1329.8</ele>
        <time>2020-07-19T10:14:42Z</time>
      </trkpt>
      <trkpt lat="45.51136" lon="6.59443">
        <ele>1330.2</ele>
        <time>2020-07-19T10:14:46Z</time>
      </trkpt>
      <trkpt lat="45.51144" lon="6.5945">
        <ele>1330.4</ele>
        <time>2020-07-19T10:14:50Z</time>
      </trkpt>
      <trkpt lat="45.51151" lon="6.59456">
        <ele>1330.6</ele>
        <time>2020-07-19T10:14:54Z</time>
      </trkpt>
      <trkpt lat="45.51159" lon="6.59463">
        <ele>1330.6</ele>
        <time>2020-07-19T10:14:58Z</time>
      </trkpt>
      <trkpt lat="45.51167" lon="6.59471">
        <ele>1331.6</ele>
        <time>2020-07-19T10:15:02Z</time>
      </trkpt>
      <trkpt lat="45.51174" lon="6.59483">
        <ele>1331.2</ele>
        <time>2020-07-19T10:15:06Z</time>
      </trkpt>
      <trkpt lat="45.51179" lon="6.59495">
        <ele>1332.2</ele>
        <time>2020-07-19T10:15:10Z</time>
      </trkpt>
      <trkpt lat="45.51185" lon="6.59504">
        <ele>1332</ele>
        <time>2020-07-19T10:15:14Z</time>
      </trkpt>
      <trkpt lat="45.51191" lon="6.5951">
        <ele>1333.2</ele>
        <time>2020-07-19T10:15:18Z</time>
      </trkpt>
      <trkpt lat="45.51197" lon="6.59513">
        <ele>1333.6</ele>
        <time>2020-07-19T10:15:22Z</time>
      </trkpt>
      <trkpt lat="45.51204" lon="6.59518">
        <ele>1334.6</ele>
        <time>2020-07-19T10:15:26Z</time>
      </trkpt>
      <trkpt lat="45.5121" lon="6.59525">
        <ele>1335.2</ele>
        <time>2020-07-19T10:15:30Z</time>
      </trkpt>
      <trkpt lat="45.51216" lon="6.5953">
        <ele>1335.4</ele>
        <time>2020-07-19T10:15:34Z</time>
      </trkpt>
      <trkpt lat="45.51223" lon="6.59537">
        <ele>1336</ele>
        <time>2020-07-19T10:15:38Z</time>
      </trkpt>
      <trkpt lat="45.51229" lon="6.59544">
        <ele>1336.6</ele>
        <time>2020-07-19T10:15:42Z</time>
      </trkpt>
      <trkpt lat="45.51234" lon="6.59551">
        <ele>1337.2</ele>
        <time>2020-07-19T10:15:46Z</time>
      </trkpt>
      <trkpt lat="45.5124" lon="6.59557">
        <ele>1337.4</ele>
        <time>2020-07-19T10:15:50Z</time>
      </trkpt>
      <trkpt lat="45.51245" lon="6.59564">
        <ele>1338.2</ele>
        <time>2020-07-19T10:15:54Z</time>
      </trkpt>
      <trkpt lat="45.51252" lon="6.59571">
        <ele>1339</ele>
        <time>2020-07-19T10:15:58Z</time>
      </trkpt>
      <trkpt lat="45.51257" lon="6.59577">
        <ele>1339.2</ele>
        <time>2020-07-19T10:16:02Z</time>
      </trkpt>
      <trkpt lat="45.51262" lon="6.59585">
        <ele>1340</ele>
        <time>2020-07-19T10:16:06Z</time>
      </trkpt>
      <trkpt lat="45.51267" lon="6.59596">
        <ele>1341.2</ele>
        <time>2020-07-19T10:16:10Z</time>
      </trkpt>
      <trkpt lat="45.51271" lon="6.59605">
        <ele>1341</ele>
        <time>2020-07-19T10:16:14Z</time>
      </trkpt>
      <trkpt lat="45.51274" lon="6.59615">
        <ele>1341.8</ele>
        <time>2020-07-19T10:16:18Z</time>
      </trkpt>
      <trkpt lat="45.51279" lon="6.59622">
        <ele>1342</ele>
        <time>2020-07-19T10:16:22Z</time>
      </trkpt>
      <trkpt lat="45.51283" lon="6.59627">
        <ele>1342.4</ele>
        <time>2020-07-19T10:16:26Z</time>
      </trkpt>
      <trkpt lat="45.5129" lon="6.59622">
        <ele>1344</ele>
        <time>2020-07-19T10:17:59Z</time>
      </trkpt>
      <trkpt lat="45.51286" lon="6.5961">
        <ele>1344.4</ele>
        <time>2020-07-19T10:18:03Z</time>
      </trkpt>
      <trkpt lat="45.51283" lon="6.59599">
        <ele>1345.4</ele>
        <time>2020-07-19T10:18:07Z</time>
      </trkpt>
      <trkpt lat="45.51279" lon="6.59589">
        <ele>1346.2</ele>
        <time>2020-07-19T10:18:11Z</time>
      </trkpt>
      <trkpt lat="45.51278" lon="6.59579">
        <ele>1347</ele>
        <time>2020-07-19T10:18:15Z</time>
      </trkpt>
      <trkpt lat="45.51276" lon="6.59569">
        <ele>1348.4</ele>
        <time>2020-07-19T10:18:19Z</time>
      </trkpt>
      <trkpt lat="45.5128" lon="6.59562">
        <ele>1348.8</ele>
        <time>2020-07-19T10:18:23Z</time>
      </trkpt>
      <trkpt lat="45.51285" lon="6.59562">
        <ele>1349</ele>
        <time>2020-07-19T10:18:27Z</time>
      </trkpt>
      <trkpt lat="45.5129" lon="6.59563">
        <ele>1349.8</ele>
        <time>2020-07-19T10:18:31Z</time>
      </trkpt>
      <trkpt lat="45.51294" lon="6.59564">
        <ele>1350.8</ele>
        <time>2020-07-19T10:18:35Z</time>
      </trkpt>
      <trkpt lat="45.51302" lon="6.59566">
        <ele>1350.6</ele>
        <time>2020-07-19T10:18:39Z</time>
      </trkpt>
      <trkpt lat="45.51307" lon="6.59567">
        <ele>1351.6</ele>
        <time>2020-07-19T10:18:43Z</time>
      </trkpt>
      <trkpt lat="45.51316" lon="6.5957">
        <ele>1352.4</ele>
        <time>2020-07-19T10:18:47Z</time>
      </trkpt>
      <trkpt lat="45.51325" lon="6.59573">
        <ele>1352.8</ele>
        <time>2020-07-19T10:18:51Z</time>
      </trkpt>
      <trkpt lat="45.51332" lon="6.59578">
        <ele>1353.8</ele>
        <time>2020-07-19T10:18:55Z</time>
      </trkpt>
      <trkpt lat="45.5134" lon="6.59581">
        <ele>1354.2</ele>
        <time>2020-07-19T10:18:59Z</time>
      </trkpt>
      <trkpt lat="45.51347" lon="6.59585">
        <ele>1355.4</ele>
        <time>2020-07-19T10:19:03Z</time>
      </trkpt>
      <trkpt lat="45.51353" lon="6.59588">
        <ele>1356</ele>
        <time>2020-07-19T10:19:07Z</time>
      </trkpt>
      <trkpt lat="45.5136" lon="6.5959">
        <ele>1356.4</ele>
        <time>2020-07-19T10:19:11Z</time>
      </trkpt>
      <trkpt lat="45.51367" lon="6.59592">
        <ele>1357.4</ele>
        <time>2020-07-19T10:19:15Z</time>
      </trkpt>
      <trkpt lat="45.51373" lon="6.59589">
        <ele>1357.8</ele>
        <time>2020-07-19T10:19:19Z</time>
      </trkpt>
      <trkpt lat="45.51378" lon="6.59582">
        <ele>1357.4</ele>
        <time>2020-07-19T10:19:23Z</time>
      </trkpt>
      <trkpt lat="45.51383" lon="6.59573">
        <ele>1357.6</ele>
        <time>2020-07-19T10:19:27Z</time>
      </trkpt>
      <trkpt lat="45.51387" lon="6.59564">
        <ele>1358</ele>
        <time>2020-07-19T10:19:31Z</time>
      </trkpt>
      <trkpt lat="45.51389" lon="6.59554">
        <ele>1357.6</ele>
        <time>2020-07-19T10:19:35Z</time>
      </trkpt>
      <trkpt lat="45.51388" lon="6.59546">
        <ele>1357.2</ele>
        <time>2020-07-19T10:19:39Z</time>
      </trkpt>
      <trkpt lat="45.51384" lon="6.59538">
        <ele>1358.2</ele>
        <time>2020-07-19T10:19:43Z</time>
      </trkpt>
      <trkpt lat="45.51378" lon="6.59531">
        <ele>1357.8</ele>
        <time>2020-07-19T10:19:47Z</time>
      </trkpt>
      <trkpt lat="45.51372" lon="6.59525">
        <ele>1357.6</ele>
        <time>2020-07-19T10:19:51Z</time>
      </trkpt>
      <trkpt lat="45.51366" lon="6.59517">
        <ele>1357.6</ele>
        <time>2020-07-19T10:19:55Z</time>
      </trkpt>
      <trkpt lat="45.51363" lon="6.59506">
        <ele>1356.8</ele>
        <time>2020-07-19T10:19:59Z</time>
      </trkpt>
      <trkpt lat="45.51362" lon="6.59496">
        <ele>1356.6</ele>
        <time>2020-07-19T10:20:03Z</time>
      </trkpt>
      <trkpt lat="45.51367" lon="6.59485">
        <ele>1357</ele>
        <time>2020-07-19T10:20:07Z</time>
      </trkpt>
      <trkpt lat="45.51374" lon="6.59481">
        <ele>1357</ele>
        <time>2020-07-19T10:20:11Z</time>
      </trkpt>
      <trkpt lat="45.51371" lon="6.59491">
        <ele>1358</ele>
        <time>2020-07-19T10:20:15Z</time>
      </trkpt>
      <trkpt lat="45.51366" lon="6.59501">
        <ele>1357.8</ele>
        <time>2020-07-19T10:20:19Z</time>
      </trkpt>
      <trkpt lat="45.51367" lon="6.59514">
        <ele>1358</ele>
        <time>2020-07-19T10:20:23Z</time>
      </trkpt>
      <trkpt lat="45.51374" lon="6.59525">
        <ele>1357.6</ele>
        <time>2020-07-19T10:20:27Z</time>
      </trkpt>
      <trkpt lat="45.51382" lon="6.59537">
        <ele>1358</ele>
        <time>2020-07-19T10:20:31Z</time>
      </trkpt>
      <trkpt lat="45.51388" lon="6.59553">
        <ele>1357.8</ele>
        <time>2020-07-19T10:20:35Z</time>
      </trkpt>
      <trkpt lat="45.51384" lon="6.59571">
        <ele>1357.8</ele>
        <time>2020-07-19T10:20:39Z</time>
      </trkpt>
      <trkpt lat="45.51383" lon="6.59588">
        <ele>1358.2</ele>
        <time>2020-07-19T10:20:43Z</time>
      </trkpt>
      <trkpt lat="45.51394" lon="6.59599">
        <ele>1358</ele>
        <time>2020-07-19T10:20:47Z</time>
      </trkpt>
      <trkpt lat="45.51407" lon="6.59604">
        <ele>1358.4</ele>
        <time>2020-07-19T10:20:51Z</time>
      </trkpt>
      <trkpt lat="45.51418" lon="6.59599">
        <ele>1359.4</ele>
        <time>2020-07-19T10:20:55Z</time>
      </trkpt>
      <trkpt lat="45.51428" lon="6.59588">
        <ele>1359.6</ele>
        <time>2020-07-19T10:20:59Z</time>
      </trkpt>
      <trkpt lat="45.51437" lon="6.59573">
        <ele>1359.4</ele>
        <time>2020-07-19T10:21:03Z</time>
      </trkpt>
      <trkpt lat="45.51447" lon="6.5956">
        <ele>1359.6</ele>
        <time>2020-07-19T10:21:07Z</time>
      </trkpt>
      <trkpt lat="45.51456" lon="6.59547">
        <ele>1361</ele>
        <time>2020-07-19T10:21:11Z</time>
      </trkpt>
      <trkpt lat="45.51468" lon="6.59543">
        <ele>1361.4</ele>
        <time>2020-07-19T10:21:15Z</time>
      </trkpt>
      <trkpt lat="45.51479" lon="6.59549">
        <ele>1362.8</ele>
        <time>2020-07-19T10:21:19Z</time>
      </trkpt>
      <trkpt lat="45.51487" lon="6.59559">
        <ele>1364</ele>
        <time>2020-07-19T10:21:23Z</time>
      </trkpt>
      <trkpt lat="45.51495" lon="6.59568">
        <ele>1364.8</ele>
        <time>2020-07-19T10:21:27Z</time>
      </trkpt>
      <trkpt lat="45.51505" lon="6.59575">
        <ele>1366.2</ele>
        <time>2020-07-19T10:21:31Z</time>
      </trkpt>
      <trkpt lat="45.51515" lon="6.59581">
        <ele>1366.4</ele>
        <time>2020-07-19T10:21:35Z</time>
      </trkpt>
      <trkpt lat="45.51525" lon="6.59586">
        <ele>1366.6</ele>
        <time>2020-07-19T10:21:39Z</time>
      </trkpt>
      <trkpt lat="45.51534" lon="6.5959">
        <ele>1367</ele>
        <time>2020-07-19T10:21:43Z</time>
      </trkpt>
      <trkpt lat="45.51543" lon="6.59593">
        <ele>1366.8</ele>
        <time>2020-07-19T10:21:47Z</time>
      </trkpt>
      <trkpt lat="45.51551" lon="6.59592">
        <ele>1366.8</ele>
        <time>2020-07-19T10:21:51Z</time>
      </trkpt>
      <trkpt lat="45.51561" lon="6.59608">
        <ele>1365.4</ele>
        <time>2020-07-19T10:23:23Z</time>
      </trkpt>
      <trkpt lat="45.51572" lon="6.59616">
        <ele>1365.4</ele>
        <time>2020-07-19T10:23:27Z</time>
      </trkpt>
      <trkpt lat="45.51586" lon="6.59627">
        <ele>1363.4</ele>
        <time>2020-07-19T10:23:31Z</time>
      </trkpt>
      <trkpt lat="45.51607" lon="6.59643">
        <ele>1361</ele>
        <time>2020-07-19T10:23:35Z</time>
      </trkpt>
      <trkpt lat="45.51632" lon="6.59661">
        <ele>1359.4</ele>
        <time>2020-07-19T10:23:39Z</time>
      </trkpt>
      <trkpt lat="45.51652" lon="6.59674">
        <ele>1358</ele>
        <time>2020-07-19T10:23:43Z</time>
      </trkpt>
      <trkpt lat="45.51672" lon="6.59687">
        <ele>1355.6</ele>
        <time>2020-07-19T10:23:47Z</time>
      </trkpt>
      <trkpt lat="45.51698" lon="6.59703">
        <ele>1352.8</ele>
        <time>2020-07-19T10:23:51Z</time>
      </trkpt>
      <trkpt lat="45.51732" lon="6.59712">
        <ele>1349.4</ele>
        <time>2020-07-19T10:23:55Z</time>
      </trkpt>
      <trkpt lat="45.51772" lon="6.59718">
        <ele>1343.8</ele>
        <time>2020-07-19T10:23:59Z</time>
      </trkpt>
      <trkpt lat="45.51805" lon="6.59726">
        <ele>1342.8</ele>
        <time>2020-07-19T10:24:03Z</time>
      </trkpt>
      <trkpt lat="45.51829" lon="6.59728">
        <ele>1340.6</ele>
        <time>2020-07-19T10:24:07Z</time>
      </trkpt>
      <trkpt lat="45.51856" lon="6.59708">
        <ele>1339.6</ele>
        <time>2020-07-19T10:24:11Z</time>
      </trkpt>
      <trkpt lat="45.51874" lon="6.59681">
        <ele>1336.8</ele>
        <time>2020-07-19T10:24:15Z</time>
      </trkpt>
      <trkpt lat="45.51884" lon="6.5966">
        <ele>1335.6</ele>
        <time>2020-07-19T10:24:19Z</time>
      </trkpt>
      <trkpt lat="45.5189" lon="6.59644">
        <ele>1335.2</ele>
        <time>2020-07-19T10:24:23Z</time>
      </trkpt>
      <trkpt lat="45.51893" lon="6.59631">
        <ele>1334.6</ele>
        <time>2020-07-19T10:24:27Z</time>
      </trkpt>
      <trkpt lat="45.51897" lon="6.59616">
        <ele>1333.4</ele>
        <time>2020-07-19T10:24:31Z</time>
      </trkpt>
      <trkpt lat="45.51898" lon="6.59593">
        <ele>1330</ele>
        <time>2020-07-19T10:24:35Z</time>
      </trkpt>
      <trkpt lat="45.51897" lon="6.5956">
        <ele>1329.6</ele>
        <time>2020-07-19T10:24:39Z</time>
      </trkpt>
      <trkpt lat="45.51891" lon="6.59526">
        <ele>1329.8</ele>
        <time>2020-07-19T10:24:43Z</time>
      </trkpt>
      <trkpt lat="45.51896" lon="6.59503">
        <ele>1328.6</ele>
        <time>2020-07-19T10:24:47Z</time>
      </trkpt>
      <trkpt lat="45.51902" lon="6.59512">
        <ele>1325.8</ele>
        <time>2020-07-19T10:24:51Z</time>
      </trkpt>
      <trkpt lat="45.51907" lon="6.59535">
        <ele>1325.2</ele>
        <time>2020-07-19T10:24:55Z</time>
      </trkpt>
      <trkpt lat="45.51913" lon="6.59568">
        <ele>1322.2</ele>
        <time>2020-07-19T10:24:59Z</time>
      </trkpt>
      <trkpt lat="45.5192" lon="6.59612">
        <ele>1316.8</ele>
        <time>2020-07-19T10:25:03Z</time>
      </trkpt>
      <trkpt lat="45.5193" lon="6.59665">
        <ele>1314.6</ele>
        <time>2020-07-19T10:25:07Z</time>
      </trkpt>
      <trkpt lat="45.51934" lon="6.5972">
        <ele>1310.8</ele>
        <time>2020-07-19T10:25:11Z</time>
      </trkpt>
      <trkpt lat="45.51926" lon="6.59775">
        <ele>1305.8</ele>
        <time>2020-07-19T10:25:15Z</time>
      </trkpt>
      <trkpt lat="45.51919" lon="6.59828">
        <ele>1301.6</ele>
        <time>2020-07-19T10:25:19Z</time>
      </trkpt>
      <trkpt lat="45.51927" lon="6.59886">
        <ele>1300.4</ele>
        <time>2020-07-19T10:25:23Z</time>
      </trkpt>
      <trkpt lat="45.51939" lon="6.59939">
        <ele>1298.6</ele>
        <time>2020-07-19T10:25:27Z</time>
      </trkpt>
      <trkpt lat="45.51953" lon="6.59983">
        <ele>1295.6</ele>
        <time>2020-07-19T10:25:31Z</time>
      </trkpt>
      <trkpt lat="45.51971" lon="6.60024">
        <ele>1292.8</ele>
        <time>2020-07-19T10:25:35Z</time>
      </trkpt>
      <trkpt lat="45.52006" lon="6.60054">
        <ele>1291.2</ele>
        <time>2020-07-19T10:25:39Z</time>
      </trkpt>
      <trkpt lat="45.52041" lon="6.60073">
        <ele>1292.4</ele>
        <time>2020-07-19T10:25:43Z</time>
      </trkpt>
      <trkpt lat="45.52064" lon="6.60085">
        <ele>1292</ele>
        <time>2020-07-19T10:25:47Z</time>
      </trkpt>
      <trkpt lat="45.52077" lon="6.60092">
        <ele>1292</ele>
        <time>2020-07-19T10:25:51Z</time>
      </trkpt>
      <trkpt lat="45.52086" lon="6.60091">
        <ele>1292.6</ele>
        <time>2020-07-19T11:13:47Z</time>
      </trkpt>
      <trkpt lat="45.52097" lon="6.60105">
        <ele>1291.8</ele>
        <time>2020-07-19T11:13:51Z</time>
      </trkpt>
      <trkpt lat="45.52109" lon="6.60128">
        <ele>1291</ele>
        <time>2020-07-19T11:13:55Z</time>
      </trkpt>
      <trkpt lat="45.52117" lon="6.6015">
        <ele>1289.8</ele>
        <time>2020-07-19T11:13:59Z</time>
      </trkpt>
      <trkpt lat="45.52123" lon="6.60163">
        <ele>1289.4</ele>
        <time>2020-07-19T11:14:03Z</time>
      </trkpt>
      <trkpt lat="45.52133" lon="6.60178">
        <ele>1288.8</ele>
        <time>2020-07-19T11:14:07Z</time>
      </trkpt>
      <trkpt lat="45.5215" lon="6.60193">
        <ele>1287.8</ele>
        <time>2020-07-19T11:14:11Z</time>
      </trkpt>
      <trkpt lat="45.52168" lon="6.60214">
        <ele>1285.6</ele>
        <time>2020-07-19T11:14:15Z</time>
      </trkpt>
      <trkpt lat="45.52185" lon="6.60239">
        <ele>1284.4</ele>
        <time>2020-07-19T11:14:19Z</time>
      </trkpt>
      <trkpt lat="45.52204" lon="6.60264">
        <ele>1283.2</ele>
        <time>2020-07-19T11:14:23Z</time>
      </trkpt>
      <trkpt lat="45.52228" lon="6.60292">
        <ele>1281.8</ele>
        <time>2020-07-19T11:14:27Z</time>
      </trkpt>
      <trkpt lat="45.52249" lon="6.60326">
        <ele>1280.4</ele>
        <time>2020-07-19T11:14:31Z</time>
      </trkpt>
      <trkpt lat="45.52279" lon="6.60372">
        <ele>1279</ele>
        <time>2020-07-19T11:14:35Z</time>
      </trkpt>
      <trkpt lat="45.52306" lon="6.60407">
        <ele>1277.4</ele>
        <time>2020-07-19T11:14:39Z</time>
      </trkpt>
      <trkpt lat="45.52329" lon="6.60448">
        <ele>1277</ele>
        <time>2020-07-19T11:14:43Z</time>
      </trkpt>
      <trkpt lat="45.52338" lon="6.60489">
        <ele>1277.2</ele>
        <time>2020-07-19T11:14:47Z</time>
      </trkpt>
      <trkpt lat="45.52362" lon="6.60525">
        <ele>1276.8</ele>
        <time>2020-07-19T11:14:51Z</time>
      </trkpt>
      <trkpt lat="45.52384" lon="6.60557">
        <ele>1276</ele>
        <time>2020-07-19T11:14:55Z</time>
      </trkpt>
      <trkpt lat="45.52402" lon="6.6059">
        <ele>1275.2</ele>
        <time>2020-07-19T11:14:59Z</time>
      </trkpt>
      <trkpt lat="45.52424" lon="6.60622">
        <ele>1273</ele>
        <time>2020-07-19T11:15:03Z</time>
      </trkpt>
      <trkpt lat="45.52449" lon="6.60656">
        <ele>1270.8</ele>
        <time>2020-07-19T11:15:07Z</time>
      </trkpt>
      <trkpt lat="45.52479" lon="6.60688">
        <ele>1266.6</ele>
        <time>2020-07-19T11:15:11Z</time>
      </trkpt>
      <trkpt lat="45.52511" lon="6.60721">
        <ele>1268.6</ele>
        <time>2020-07-19T11:15:15Z</time>
      </trkpt>
      <trkpt lat="45.52538" lon="6.6075">
        <ele>1268.6</ele>
        <time>2020-07-19T11:15:19Z</time>
      </trkpt>
      <trkpt lat="45.52565" lon="6.60774">
        <ele>1268.8</ele>
        <time>2020-07-19T11:15:23Z</time>
      </trkpt>
      <trkpt lat="45.52594" lon="6.608">
        <ele>1268.6</ele>
        <time>2020-07-19T11:15:27Z</time>
      </trkpt>
      <trkpt lat="45.52616" lon="6.60825">
        <ele>1269</ele>
        <time>2020-07-19T11:15:31Z</time>
      </trkpt>
      <trkpt lat="45.52636" lon="6.60849">
        <ele>1269.2</ele>
        <time>2020-07-19T11:15:35Z</time>
      </trkpt>
      <trkpt lat="45.52654" lon="6.60873">
        <ele>1267.8</ele>
        <time>2020-07-19T11:15:39Z</time>
      </trkpt>
      <trkpt lat="45.52673" lon="6.60897">
        <ele>1268</ele>
        <time>2020-07-19T11:15:43Z</time>
      </trkpt>
      <trkpt lat="45.5269" lon="6.60918">
        <ele>1266.6</ele>
        <time>2020-07-19T11:15:47Z</time>
      </trkpt>
      <trkpt lat="45.5271" lon="6.60937">
        <ele>1267.2</ele>
        <time>2020-07-19T11:15:51Z</time>
      </trkpt>
      <trkpt lat="45.52726" lon="6.60958">
        <ele>1266.6</ele>
        <time>2020-07-19T11:15:55Z</time>
      </trkpt>
      <trkpt lat="45.52747" lon="6.60979">
        <ele>1265.2</ele>
        <time>2020-07-19T11:15:59Z</time>
      </trkpt>
      <trkpt lat="45.52768" lon="6.61008">
        <ele>1265.2</ele>
        <time>2020-07-19T11:16:03Z</time>
      </trkpt>
      <trkpt lat="45.52787" lon="6.61033">
        <ele>1264</ele>
        <time>2020-07-19T11:16:07Z</time>
      </trkpt>
      <trkpt lat="45.52804" lon="6.61057">
        <ele>1264.8</ele>
        <time>2020-07-19T11:16:11Z</time>
      </trkpt>
      <trkpt lat="45.52816" lon="6.61086">
        <ele>1264.2</ele>
        <time>2020-07-19T11:16:15Z</time>
      </trkpt>
      <trkpt lat="45.52827" lon="6.61115">
        <ele>1262.4</ele>
        <time>2020-07-19T11:16:19Z</time>
      </trkpt>
      <trkpt lat="45.52837" lon="6.61145">
        <ele>1263.2</ele>
        <time>2020-07-19T11:16:23Z</time>
      </trkpt>
      <trkpt lat="45.52847" lon="6.61177">
        <ele>1262.4</ele>
        <time>2020-07-19T11:16:27Z</time>
      </trkpt>
      <trkpt lat="45.52859" lon="6.61206">
        <ele>1261.8</ele>
        <time>2020-07-19T11:16:31Z</time>
      </trkpt>
      <trkpt lat="45.52868" lon="6.61228">
        <ele>1263.2</ele>
        <time>2020-07-19T11:16:35Z</time>
      </trkpt>
      <trkpt lat="45.52881" lon="6.6125">
        <ele>1263.6</ele>
        <time>2020-07-19T11:16:39Z</time>
      </trkpt>
      <trkpt lat="45.52894" lon="6.61272">
        <ele>1263.2</ele>
        <time>2020-07-19T11:16:43Z</time>
      </trkpt>
      <trkpt lat="45.52894" lon="6.61295">
        <ele>1262</ele>
        <time>2020-07-19T11:16:47Z</time>
      </trkpt>
      <trkpt lat="45.52894" lon="6.61316">
        <ele>1262.4</ele>
        <time>2020-07-19T11:16:51Z</time>
      </trkpt>
      <trkpt lat="45.52887" lon="6.61337">
        <ele>1261.6</ele>
        <time>2020-07-19T11:16:55Z</time>
      </trkpt>
      <trkpt lat="45.52871" lon="6.61345">
        <ele>1261</ele>
        <time>2020-07-19T11:16:59Z</time>
      </trkpt>
      <trkpt lat="45.52851" lon="6.61346">
        <ele>1258.8</ele>
        <time>2020-07-19T11:17:03Z</time>
      </trkpt>
      <trkpt lat="45.52826" lon="6.61355">
        <ele>1256.4</ele>
        <time>2020-07-19T11:17:07Z</time>
      </trkpt>
      <trkpt lat="45.52805" lon="6.61383">
        <ele>1254.4</ele>
        <time>2020-07-19T11:17:11Z</time>
      </trkpt>
      <trkpt lat="45.52791" lon="6.61424">
        <ele>1251.6</ele>
        <time>2020-07-19T11:17:15Z</time>
      </trkpt>
      <trkpt lat="45.52768" lon="6.61468">
        <ele>1248.4</ele>
        <time>2020-07-19T11:17:19Z</time>
      </trkpt>
      <trkpt lat="45.5275" lon="6.61516">
        <ele>1247.4</ele>
        <time>2020-07-19T11:17:23Z</time>
      </trkpt>
      <trkpt lat="45.52722" lon="6.61542">
        <ele>1243.2</ele>
        <time>2020-07-19T11:17:27Z</time>
      </trkpt>
      <trkpt lat="45.5269" lon="6.61571">
        <ele>1240</ele>
        <time>2020-07-19T11:17:31Z</time>
      </trkpt>
      <trkpt lat="45.52657" lon="6.6161">
        <ele>1234.8</ele>
        <time>2020-07-19T11:17:35Z</time>
      </trkpt>
      <trkpt lat="45.52629" lon="6.61642">
        <ele>1236.8</ele>
        <time>2020-07-19T11:17:39Z</time>
      </trkpt>
      <trkpt lat="45.52604" lon="6.61661">
        <ele>1238.2</ele>
        <time>2020-07-19T11:17:43Z</time>
      </trkpt>
      <trkpt lat="45.52609" lon="6.6169">
        <ele>1238.4</ele>
        <time>2020-07-19T11:17:47Z</time>
      </trkpt>
      <trkpt lat="45.52625" lon="6.61698">
        <ele>1240.6</ele>
        <time>2020-07-19T11:17:51Z</time>
      </trkpt>
      <trkpt lat="45.52637" lon="6.617">
        <ele>1241.8</ele>
        <time>2020-07-19T11:17:55Z</time>
      </trkpt>
      <trkpt lat="45.52647" lon="6.617">
        <ele>1242.2</ele>
        <time>2020-07-19T11:17:59Z</time>
      </trkpt>
      <trkpt lat="45.52656" lon="6.61698">
        <ele>1242.6</ele>
        <time>2020-07-19T11:18:03Z</time>
      </trkpt>
      <trkpt lat="45.52664" lon="6.617">
        <ele>1243.6</ele>
        <time>2020-07-19T11:18:07Z</time>
      </trkpt>
      <trkpt lat="45.52673" lon="6.61703">
        <ele>1244</ele>
        <time>2020-07-19T11:18:11Z</time>
      </trkpt>
      <trkpt lat="45.5268" lon="6.61705">
        <ele>1245</ele>
        <time>2020-07-19T11:18:15Z</time>
      </trkpt>
      <trkpt lat="45.52687" lon="6.61708">
        <ele>1245.2</ele>
        <time>2020-07-19T11:18:19Z</time>
      </trkpt>
      <trkpt lat="45.52694" lon="6.61712">
        <ele>1245.4</ele>
        <time>2020-07-19T11:18:23Z</time>
      </trkpt>
      <trkpt lat="45.52701" lon="6.61716">
        <ele>1246.4</ele>
        <time>2020-07-19T11:18:27Z</time>
      </trkpt>
      <trkpt lat="45.52708" lon="6.61718">
        <ele>1246.8</ele>
        <time>2020-07-19T11:18:31Z</time>
      </trkpt>
      <trkpt lat="45.52719" lon="6.61717">
        <ele>1247.8</ele>
        <time>2020-07-19T11:18:35Z</time>
      </trkpt>
      <trkpt lat="45.52731" lon="6.61717">
        <ele>1248.6</ele>
        <time>2020-07-19T11:18:39Z</time>
      </trkpt>
      <trkpt lat="45.5274" lon="6.61715">
        <ele>1249</ele>
        <time>2020-07-19T11:18:43Z</time>
      </trkpt>
      <trkpt lat="45.52748" lon="6.61713">
        <ele>1249.6</ele>
        <time>2020-07-19T11:18:47Z</time>
      </trkpt>
      <trkpt lat="45.52755" lon="6.6171">
        <ele>1250.2</ele>
        <time>2020-07-19T11:18:51Z</time>
      </trkpt>
      <trkpt lat="45.52764" lon="6.61707">
        <ele>1250.6</ele>
        <time>2020-07-19T11:18:55Z</time>
      </trkpt>
      <trkpt lat="45.5277" lon="6.61705">
        <ele>1251.6</ele>
        <time>2020-07-19T11:18:59Z</time>
      </trkpt>
      <trkpt lat="45.52777" lon="6.61703">
        <ele>1252.4</ele>
        <time>2020-07-19T11:19:03Z</time>
      </trkpt>
      <trkpt lat="45.52783" lon="6.61698">
        <ele>1252.8</ele>
        <time>2020-07-19T11:19:07Z</time>
      </trkpt>
      <trkpt lat="45.52789" lon="6.61691">
        <ele>1253.2</ele>
        <time>2020-07-19T11:19:11Z</time>
      </trkpt>
      <trkpt lat="45.52795" lon="6.61686">
        <ele>1254.2</ele>
        <time>2020-07-19T11:19:15Z</time>
      </trkpt>
      <trkpt lat="45.52802" lon="6.61681">
        <ele>1254.8</ele>
        <time>2020-07-19T11:19:19Z</time>
      </trkpt>
      <trkpt lat="45.52807" lon="6.61673">
        <ele>1255.4</ele>
        <time>2020-07-19T11:19:23Z</time>
      </trkpt>
      <trkpt lat="45.52813" lon="6.61668">
        <ele>1256.2</ele>
        <time>2020-07-19T11:19:27Z</time>
      </trkpt>
      <trkpt lat="45.52819" lon="6.6166">
        <ele>1256.8</ele>
        <time>2020-07-19T11:19:31Z</time>
      </trkpt>
      <trkpt lat="45.52823" lon="6.61651">
        <ele>1258.8</ele>
        <time>2020-07-19T11:19:35Z</time>
      </trkpt>
      <trkpt lat="45.52828" lon="6.61643">
        <ele>1258.8</ele>
        <time>2020-07-19T11:19:39Z</time>
      </trkpt>
      <trkpt lat="45.52834" lon="6.61635">
        <ele>1259</ele>
        <time>2020-07-19T11:19:43Z</time>
      </trkpt>
      <trkpt lat="45.5284" lon="6.61628">
        <ele>1259.8</ele>
        <time>2020-07-19T11:19:47Z</time>
      </trkpt>
      <trkpt lat="45.52849" lon="6.61625">
        <ele>1259.6</ele>
        <time>2020-07-19T11:19:51Z</time>
      </trkpt>
      <trkpt lat="45.52858" lon="6.61626">
        <ele>1260.6</ele>
        <time>2020-07-19T11:19:55Z</time>
      </trkpt>
      <trkpt lat="45.52866" lon="6.6163">
        <ele>1261</ele>
        <time>2020-07-19T11:19:59Z</time>
      </trkpt>
      <trkpt lat="45.52877" lon="6.61633">
        <ele>1262</ele>
        <time>2020-07-19T11:20:03Z</time>
      </trkpt>
      <trkpt lat="45.52888" lon="6.61633">
        <ele>1262</ele>
        <time>2020-07-19T11:20:07Z</time>
      </trkpt>
      <trkpt lat="45.529" lon="6.61631">
        <ele>1262.2</ele>
        <time>2020-07-19T11:20:11Z</time>
      </trkpt>
      <trkpt lat="45.52912" lon="6.61631">
        <ele>1262.2</ele>
        <time>2020-07-19T11:20:15Z</time>
      </trkpt>
      <trkpt lat="45.52924" lon="6.61638">
        <ele>1262.8</ele>
        <time>2020-07-19T11:20:19Z</time>
      </trkpt>
      <trkpt lat="45.52935" lon="6.61651">
        <ele>1262.2</ele>
        <time>2020-07-19T11:20:23Z</time>
      </trkpt>
      <trkpt lat="45.52945" lon="6.61666">
        <ele>1262.4</ele>
        <time>2020-07-19T11:20:27Z</time>
      </trkpt>
      <trkpt lat="45.52953" lon="6.61679">
        <ele>1262.4</ele>
        <time>2020-07-19T11:20:31Z</time>
      </trkpt>
      <trkpt lat="45.52961" lon="6.61691">
        <ele>1262</ele>
        <time>2020-07-19T11:21:16Z</time>
      </trkpt>
      <trkpt lat="45.52971" lon="6.61705">
        <ele>1261.8</ele>
        <time>2020-07-19T11:21:20Z</time>
      </trkpt>
      <trkpt lat="45.52979" lon="6.61723">
        <ele>1261.2</ele>
        <time>2020-07-19T11:21:24Z</time>
      </trkpt>
      <trkpt lat="45.52988" lon="6.61745">
        <ele>1260.8</ele>
        <time>2020-07-19T11:21:28Z</time>
      </trkpt>
      <trkpt lat="45.52998" lon="6.61766">
        <ele>1261</ele>
        <time>2020-07-19T11:21:32Z</time>
      </trkpt>
      <trkpt lat="45.53011" lon="6.61786">
        <ele>1260.6</ele>
        <time>2020-07-19T11:21:36Z</time>
      </trkpt>
      <trkpt lat="45.53025" lon="6.61805">
        <ele>1260.6</ele>
        <time>2020-07-19T11:21:40Z</time>
      </trkpt>
      <trkpt lat="45.53041" lon="6.61824">
        <ele>1260.2</ele>
        <time>2020-07-19T11:21:44Z</time>
      </trkpt>
      <trkpt lat="45.53058" lon="6.61846">
        <ele>1259.4</ele>
        <time>2020-07-19T11:21:48Z</time>
      </trkpt>
      <trkpt lat="45.53075" lon="6.6187">
        <ele>1258.8</ele>
        <time>2020-07-19T11:21:52Z</time>
      </trkpt>
      <trkpt lat="45.53094" lon="6.61897">
        <ele>1257.6</ele>
        <time>2020-07-19T11:21:56Z</time>
      </trkpt>
      <trkpt lat="45.5312" lon="6.61923">
        <ele>1255</ele>
        <time>2020-07-19T11:22:00Z</time>
      </trkpt>
      <trkpt lat="45.53148" lon="6.61957">
        <ele>1252</ele>
        <time>2020-07-19T11:22:04Z</time>
      </trkpt>
      <trkpt lat="45.53177" lon="6.62001">
        <ele>1247.4</ele>
        <time>2020-07-19T11:22:08Z</time>
      </trkpt>
      <trkpt lat="45.53209" lon="6.62049">
        <ele>1243.8</ele>
        <time>2020-07-19T11:22:12Z</time>
      </trkpt>
      <trkpt lat="45.53244" lon="6.6209">
        <ele>1243.4</ele>
        <time>2020-07-19T11:22:16Z</time>
      </trkpt>
      <trkpt lat="45.53281" lon="6.6212">
        <ele>1243.8</ele>
        <time>2020-07-19T11:22:20Z</time>
      </trkpt>
      <trkpt lat="45.53317" lon="6.62141">
        <ele>1245.6</ele>
        <time>2020-07-19T11:22:24Z</time>
      </trkpt>
      <trkpt lat="45.53349" lon="6.62159">
        <ele>1246</ele>
        <time>2020-07-19T11:22:28Z</time>
      </trkpt>
      <trkpt lat="45.53375" lon="6.62172">
        <ele>1247.6</ele>
        <time>2020-07-19T11:22:32Z</time>
      </trkpt>
      <trkpt lat="45.53394" lon="6.62183">
        <ele>1250.4</ele>
        <time>2020-07-19T11:22:36Z</time>
      </trkpt>
      <trkpt lat="45.53408" lon="6.62191">
        <ele>1250.6</ele>
        <time>2020-07-19T11:22:40Z</time>
      </trkpt>
      <trkpt lat="45.53421" lon="6.62201">
        <ele>1251.6</ele>
        <time>2020-07-19T11:22:44Z</time>
      </trkpt>
      <trkpt lat="45.53434" lon="6.62215">
        <ele>1251.4</ele>
        <time>2020-07-19T11:22:48Z</time>
      </trkpt>
      <trkpt lat="45.53444" lon="6.62233">
        <ele>1251.8</ele>
        <time>2020-07-19T11:22:52Z</time>
      </trkpt>
      <trkpt lat="45.53454" lon="6.62252">
        <ele>1252</ele>
        <time>2020-07-19T11:22:56Z</time>
      </trkpt>
      <trkpt lat="45.53464" lon="6.62271">
        <ele>1251.8</ele>
        <time>2020-07-19T11:23:00Z</time>
      </trkpt>
      <trkpt lat="45.53474" lon="6.62292">
        <ele>1252</ele>
        <time>2020-07-19T11:23:04Z</time>
      </trkpt>
      <trkpt lat="45.53485" lon="6.62315">
        <ele>1250.6</ele>
        <time>2020-07-19T11:23:08Z</time>
      </trkpt>
      <trkpt lat="45.53499" lon="6.62344">
        <ele>1249.4</ele>
        <time>2020-07-19T11:23:12Z</time>
      </trkpt>
      <trkpt lat="45.53513" lon="6.62378">
        <ele>1248.4</ele>
        <time>2020-07-19T11:23:16Z</time>
      </trkpt>
      <trkpt lat="45.53529" lon="6.62417">
        <ele>1245.6</ele>
        <time>2020-07-19T11:23:20Z</time>
      </trkpt>
      <trkpt lat="45.53546" lon="6.6246">
        <ele>1244.4</ele>
        <time>2020-07-19T11:23:24Z</time>
      </trkpt>
      <trkpt lat="45.53565" lon="6.62504">
        <ele>1242.8</ele>
        <time>2020-07-19T11:23:28Z</time>
      </trkpt>
      <trkpt lat="45.53586" lon="6.62546">
        <ele>1242.2</ele>
        <time>2020-07-19T11:23:32Z</time>
      </trkpt>
      <trkpt lat="45.53607" lon="6.62587">
        <ele>1241.8</ele>
        <time>2020-07-19T11:23:36Z</time>
      </trkpt>
      <trkpt lat="45.53627" lon="6.62625">
        <ele>1241</ele>
        <time>2020-07-19T11:23:40Z</time>
      </trkpt>
      <trkpt lat="45.53647" lon="6.62662">
        <ele>1241</ele>
        <time>2020-07-19T11:23:44Z</time>
      </trkpt>
      <trkpt lat="45.53662" lon="6.62699">
        <ele>1240.6</ele>
        <time>2020-07-19T11:23:48Z</time>
      </trkpt>
      <trkpt lat="45.53672" lon="6.62722">
        <ele>1242.6</ele>
        <time>2020-07-19T11:23:52Z</time>
      </trkpt>
      <trkpt lat="45.53686" lon="6.62721">
        <ele>1243</ele>
        <time>2020-07-19T11:23:56Z</time>
      </trkpt>
      <trkpt lat="45.53705" lon="6.62722">
        <ele>1241.6</ele>
        <time>2020-07-19T11:24:00Z</time>
      </trkpt>
      <trkpt lat="45.53725" lon="6.62725">
        <ele>1241.4</ele>
        <time>2020-07-19T11:24:04Z</time>
      </trkpt>
      <trkpt lat="45.53737" lon="6.62734">
        <ele>1241.8</ele>
        <time>2020-07-19T11:24:08Z</time>
      </trkpt>
      <trkpt lat="45.53744" lon="6.62745">
        <ele>1241.8</ele>
        <time>2020-07-19T11:24:12Z</time>
      </trkpt>
      <trkpt lat="45.5375" lon="6.6276">
        <ele>1241.8</ele>
        <time>2020-07-19T11:24:16Z</time>
      </trkpt>
      <trkpt lat="45.53757" lon="6.62776">
        <ele>1241.6</ele>
        <time>2020-07-19T11:24:20Z</time>
      </trkpt>
      <trkpt lat="45.53764" lon="6.62796">
        <ele>1240.6</ele>
        <time>2020-07-19T11:24:24Z</time>
      </trkpt>
      <trkpt lat="45.53773" lon="6.62818">
        <ele>1240.4</ele>
        <time>2020-07-19T11:24:28Z</time>
      </trkpt>
      <trkpt lat="45.53779" lon="6.62841">
        <ele>1240.2</ele>
        <time>2020-07-19T11:24:32Z</time>
      </trkpt>
      <trkpt lat="45.53785" lon="6.62868">
        <ele>1238.2</ele>
        <time>2020-07-19T11:24:36Z</time>
      </trkpt>
      <trkpt lat="45.53785" lon="6.6289">
        <ele>1238</ele>
        <time>2020-07-19T11:24:40Z</time>
      </trkpt>
      <trkpt lat="45.53781" lon="6.62912">
        <ele>1238</ele>
        <time>2020-07-19T11:24:44Z</time>
      </trkpt>
      <trkpt lat="45.53778" lon="6.62937">
        <ele>1237.4</ele>
        <time>2020-07-19T11:24:48Z</time>
      </trkpt>
      <trkpt lat="45.53781" lon="6.62965">
        <ele>1237.2</ele>
        <time>2020-07-19T11:24:52Z</time>
      </trkpt>
      <trkpt lat="45.53792" lon="6.62994">
        <ele>1235</ele>
        <time>2020-07-19T11:24:56Z</time>
      </trkpt>
      <trkpt lat="45.53808" lon="6.6303">
        <ele>1233</ele>
        <time>2020-07-19T11:25:00Z</time>
      </trkpt>
      <trkpt lat="45.5383" lon="6.63073">
        <ele>1228.4</ele>
        <time>2020-07-19T11:25:04Z</time>
      </trkpt>
      <trkpt lat="45.53855" lon="6.63123">
        <ele>1226</ele>
        <time>2020-07-19T11:25:08Z</time>
      </trkpt>
      <trkpt lat="45.53881" lon="6.63179">
        <ele>1220.4</ele>
        <time>2020-07-19T11:25:12Z</time>
      </trkpt>
      <trkpt lat="45.53911" lon="6.63238">
        <ele>1216</ele>
        <time>2020-07-19T11:25:16Z</time>
      </trkpt>
      <trkpt lat="45.53942" lon="6.63301">
        <ele>1211.4</ele>
        <time>2020-07-19T11:25:20Z</time>
      </trkpt>
      <trkpt lat="45.53964" lon="6.63367">
        <ele>1208.2</ele>
        <time>2020-07-19T11:25:24Z</time>
      </trkpt>
      <trkpt lat="45.53966" lon="6.63441">
        <ele>1205</ele>
        <time>2020-07-19T11:25:28Z</time>
      </trkpt>
      <trkpt lat="45.53978" lon="6.63517">
        <ele>1199</ele>
        <time>2020-07-19T11:25:32Z</time>
      </trkpt>
      <trkpt lat="45.53981" lon="6.63589">
        <ele>1194.2</ele>
        <time>2020-07-19T11:25:36Z</time>
      </trkpt>
      <trkpt lat="45.53977" lon="6.63657">
        <ele>1189.6</ele>
        <time>2020-07-19T11:25:40Z</time>
      </trkpt>
      <trkpt lat="45.54" lon="6.63718">
        <ele>1186</ele>
        <time>2020-07-19T11:25:44Z</time>
      </trkpt>
      <trkpt lat="45.54033" lon="6.63777">
        <ele>1181.6</ele>
        <time>2020-07-19T11:25:48Z</time>
      </trkpt>
      <trkpt lat="45.54063" lon="6.63841">
        <ele>1177.2</ele>
        <time>2020-07-19T11:25:52Z</time>
      </trkpt>
      <trkpt lat="45.54086" lon="6.63916">
        <ele>1169.8</ele>
        <time>2020-07-19T11:25:56Z</time>
      </trkpt>
      <trkpt lat="45.54096" lon="6.6398">
        <ele>1168.2</ele>
        <time>2020-07-19T11:26:00Z</time>
      </trkpt>
      <trkpt lat="45.54093" lon="6.64034">
        <ele>1167.2</ele>
        <time>2020-07-19T11:26:04Z</time>
      </trkpt>
      <trkpt lat="45.54105" lon="6.64056">
        <ele>1167</ele>
        <time>2020-07-19T11:26:08Z</time>
      </trkpt>
      <trkpt lat="45.54109" lon="6.64026">
        <ele>1165.6</ele>
        <time>2020-07-19T11:26:12Z</time>
      </trkpt>
      <trkpt lat="45.54114" lon="6.63986">
        <ele>1162.6</ele>
        <time>2020-07-19T11:26:16Z</time>
      </trkpt>
      <trkpt lat="45.54116" lon="6.63943">
        <ele>1161.6</ele>
        <time>2020-07-19T11:26:20Z</time>
      </trkpt>
      <trkpt lat="45.54112" lon="6.63894">
        <ele>1157.6</ele>
        <time>2020-07-19T11:26:24Z</time>
      </trkpt>
      <trkpt lat="45.54104" lon="6.6384">
        <ele>1152.8</ele>
        <time>2020-07-19T11:26:28Z</time>
      </trkpt>
      <trkpt lat="45.54081" lon="6.63787">
        <ele>1148.2</ele>
        <time>2020-07-19T11:26:32Z</time>
      </trkpt>
      <trkpt lat="45.54073" lon="6.63737">
        <ele>1146</ele>
        <time>2020-07-19T11:26:36Z</time>
      </trkpt>
      <trkpt lat="45.54089" lon="6.63679">
        <ele>1141</ele>
        <time>2020-07-19T11:26:40Z</time>
      </trkpt>
      <trkpt lat="45.54112" lon="6.63626">
        <ele>1137.6</ele>
        <time>2020-07-19T11:26:44Z</time>
      </trkpt>
      <trkpt lat="45.54128" lon="6.63568">
        <ele>1134.4</ele>
        <time>2020-07-19T11:26:48Z</time>
      </trkpt>
      <trkpt lat="45.54121" lon="6.6351">
        <ele>1132.2</ele>
        <time>2020-07-19T11:26:52Z</time>
      </trkpt>
      <trkpt lat="45.54129" lon="6.63503">
        <ele>1134.8</ele>
        <time>2020-07-19T11:26:56Z</time>
      </trkpt>
      <trkpt lat="45.54135" lon="6.63535">
        <ele>1132.4</ele>
        <time>2020-07-19T11:27:00Z</time>
      </trkpt>
      <trkpt lat="45.54138" lon="6.63581">
        <ele>1128.4</ele>
        <time>2020-07-19T11:27:04Z</time>
      </trkpt>
      <trkpt lat="45.54136" lon="6.63637">
        <ele>1123</ele>
        <time>2020-07-19T11:27:08Z</time>
      </trkpt>
      <trkpt lat="45.54122" lon="6.63698">
        <ele>1119</ele>
        <time>2020-07-19T11:27:12Z</time>
      </trkpt>
      <trkpt lat="45.54127" lon="6.63763">
        <ele>1111.6</ele>
        <time>2020-07-19T11:27:16Z</time>
      </trkpt>
      <trkpt lat="45.54144" lon="6.63828">
        <ele>1108.8</ele>
        <time>2020-07-19T11:27:20Z</time>
      </trkpt>
      <trkpt lat="45.54166" lon="6.63895">
        <ele>1104</ele>
        <time>2020-07-19T11:27:24Z</time>
      </trkpt>
      <trkpt lat="45.54193" lon="6.63966">
        <ele>1098.6</ele>
        <time>2020-07-19T11:27:28Z</time>
      </trkpt>
      <trkpt lat="45.54223" lon="6.64038">
        <ele>1091.2</ele>
        <time>2020-07-19T11:27:32Z</time>
      </trkpt>
      <trkpt lat="45.54248" lon="6.64107">
        <ele>1088.2</ele>
        <time>2020-07-19T11:27:36Z</time>
      </trkpt>
      <trkpt lat="45.54264" lon="6.64172">
        <ele>1086</ele>
        <time>2020-07-19T11:27:40Z</time>
      </trkpt>
      <trkpt lat="45.54283" lon="6.64237">
        <ele>1080.8</ele>
        <time>2020-07-19T11:27:44Z</time>
      </trkpt>
      <trkpt lat="45.54301" lon="6.64297">
        <ele>1078</ele>
        <time>2020-07-19T11:27:48Z</time>
      </trkpt>
      <trkpt lat="45.54319" lon="6.64357">
        <ele>1072.6</ele>
        <time>2020-07-19T11:27:52Z</time>
      </trkpt>
      <trkpt lat="45.54338" lon="6.64418">
        <ele>1066.8</ele>
        <time>2020-07-19T11:27:56Z</time>
      </trkpt>
      <trkpt lat="45.5435" lon="6.6449">
        <ele>1063.6</ele>
        <time>2020-07-19T11:28:00Z</time>
      </trkpt>
      <trkpt lat="45.5436" lon="6.64556">
        <ele>1060.6</ele>
        <time>2020-07-19T11:28:04Z</time>
      </trkpt>
      <trkpt lat="45.54371" lon="6.6462">
        <ele>1056.2</ele>
        <time>2020-07-19T11:28:08Z</time>
      </trkpt>
      <trkpt lat="45.54386" lon="6.64685">
        <ele>1052</ele>
        <time>2020-07-19T11:28:12Z</time>
      </trkpt>
      <trkpt lat="45.54403" lon="6.64741">
        <ele>1049</ele>
        <time>2020-07-19T11:28:16Z</time>
      </trkpt>
      <trkpt lat="45.54424" lon="6.64793">
        <ele>1041.8</ele>
        <time>2020-07-19T11:28:20Z</time>
      </trkpt>
      <trkpt lat="45.54452" lon="6.64846">
        <ele>1039</ele>
        <time>2020-07-19T11:28:24Z</time>
      </trkpt>
      <trkpt lat="45.54464" lon="6.649">
        <ele>1036.8</ele>
        <time>2020-07-19T11:28:28Z</time>
      </trkpt>
      <trkpt lat="45.54468" lon="6.64965">
        <ele>1032.8</ele>
        <time>2020-07-19T11:28:32Z</time>
      </trkpt>
      <trkpt lat="45.54476" lon="6.6503">
        <ele>1027</ele>
        <time>2020-07-19T11:28:36Z</time>
      </trkpt>
      <trkpt lat="45.54489" lon="6.651">
        <ele>1018.6</ele>
        <time>2020-07-19T11:28:40Z</time>
      </trkpt>
      <trkpt lat="45.54504" lon="6.65166">
        <ele>1016.4</ele>
        <time>2020-07-19T11:28:44Z</time>
      </trkpt>
      <trkpt lat="45.54509" lon="6.65235">
        <ele>1012</ele>
        <time>2020-07-19T11:28:48Z</time>
      </trkpt>
      <trkpt lat="45.54503" lon="6.65296">
        <ele>1011.2</ele>
        <time>2020-07-19T11:28:52Z</time>
      </trkpt>
      <trkpt lat="45.545" lon="6.65334">
        <ele>1011.6</ele>
        <time>2020-07-19T11:28:56Z</time>
      </trkpt>
      <trkpt lat="45.54518" lon="6.65325">
        <ele>1010.8</ele>
        <time>2020-07-19T11:29:00Z</time>
      </trkpt>
      <trkpt lat="45.54521" lon="6.65289">
        <ele>1009.6</ele>
        <time>2020-07-19T11:29:04Z</time>
      </trkpt>
      <trkpt lat="45.54529" lon="6.65248">
        <ele>1007.8</ele>
        <time>2020-07-19T11:29:08Z</time>
      </trkpt>
      <trkpt lat="45.54541" lon="6.65202">
        <ele>1003.4</ele>
        <time>2020-07-19T11:29:12Z</time>
      </trkpt>
      <trkpt lat="45.54554" lon="6.65146">
        <ele>999.8</ele>
        <time>2020-07-19T11:29:16Z</time>
      </trkpt>
      <trkpt lat="45.54555" lon="6.65081">
        <ele>995</ele>
        <time>2020-07-19T11:29:20Z</time>
      </trkpt>
      <trkpt lat="45.54557" lon="6.65015">
        <ele>990</ele>
        <time>2020-07-19T11:29:24Z</time>
      </trkpt>
      <trkpt lat="45.54561" lon="6.64972">
        <ele>992.8</ele>
        <time>2020-07-19T11:29:28Z</time>
      </trkpt>
      <trkpt lat="45.54572" lon="6.64979">
        <ele>992</ele>
        <time>2020-07-19T11:29:32Z</time>
      </trkpt>
      <trkpt lat="45.54573" lon="6.6501">
        <ele>988.6</ele>
        <time>2020-07-19T11:29:36Z</time>
      </trkpt>
      <trkpt lat="45.54578" lon="6.65049">
        <ele>986.6</ele>
        <time>2020-07-19T11:29:40Z</time>
      </trkpt>
      <trkpt lat="45.54587" lon="6.65102">
        <ele>983.2</ele>
        <time>2020-07-19T11:29:44Z</time>
      </trkpt>
      <trkpt lat="45.54586" lon="6.65161">
        <ele>978.6</ele>
        <time>2020-07-19T11:29:48Z</time>
      </trkpt>
      <trkpt lat="45.54585" lon="6.65222">
        <ele>975</ele>
        <time>2020-07-19T11:29:52Z</time>
      </trkpt>
      <trkpt lat="45.54589" lon="6.65275">
        <ele>969.8</ele>
        <time>2020-07-19T11:29:56Z</time>
      </trkpt>
      <trkpt lat="45.54616" lon="6.65319">
        <ele>965.6</ele>
        <time>2020-07-19T11:30:00Z</time>
      </trkpt>
      <trkpt lat="45.54625" lon="6.65361">
        <ele>965</ele>
        <time>2020-07-19T11:30:04Z</time>
      </trkpt>
      <trkpt lat="45.54642" lon="6.65361">
        <ele>965.8</ele>
        <time>2020-07-19T11:30:08Z</time>
      </trkpt>
      <trkpt lat="45.54636" lon="6.65323">
        <ele>961.8</ele>
        <time>2020-07-19T11:30:12Z</time>
      </trkpt>
      <trkpt lat="45.54631" lon="6.6527">
        <ele>958.8</ele>
        <time>2020-07-19T11:30:16Z</time>
      </trkpt>
      <trkpt lat="45.54652" lon="6.65217">
        <ele>953.2</ele>
        <time>2020-07-19T11:30:20Z</time>
      </trkpt>
      <trkpt lat="45.54679" lon="6.65166">
        <ele>947.4</ele>
        <time>2020-07-19T11:30:24Z</time>
      </trkpt>
      <trkpt lat="45.54685" lon="6.65103">
        <ele>945.6</ele>
        <time>2020-07-19T11:30:28Z</time>
      </trkpt>
      <trkpt lat="45.54697" lon="6.65041">
        <ele>943.4</ele>
        <time>2020-07-19T11:30:32Z</time>
      </trkpt>
      <trkpt lat="45.54707" lon="6.64981">
        <ele>936.6</ele>
        <time>2020-07-19T11:30:36Z</time>
      </trkpt>
      <trkpt lat="45.54685" lon="6.64918">
        <ele>936.6</ele>
        <time>2020-07-19T11:30:40Z</time>
      </trkpt>
      <trkpt lat="45.5467" lon="6.64854">
        <ele>932.4</ele>
        <time>2020-07-19T11:30:44Z</time>
      </trkpt>
      <trkpt lat="45.54665" lon="6.64786">
        <ele>928.4</ele>
        <time>2020-07-19T11:30:48Z</time>
      </trkpt>
      <trkpt lat="45.54654" lon="6.64715">
        <ele>923.4</ele>
        <time>2020-07-19T11:30:52Z</time>
      </trkpt>
      <trkpt lat="45.54643" lon="6.64649">
        <ele>919.2</ele>
        <time>2020-07-19T11:30:56Z</time>
      </trkpt>
      <trkpt lat="45.54636" lon="6.64593">
        <ele>917.4</ele>
        <time>2020-07-19T11:31:00Z</time>
      </trkpt>
      <trkpt lat="45.54645" lon="6.64572">
        <ele>920</ele>
        <time>2020-07-19T11:31:04Z</time>
      </trkpt>
      <trkpt lat="45.5465" lon="6.64605">
        <ele>917.4</ele>
        <time>2020-07-19T11:31:08Z</time>
      </trkpt>
      <trkpt lat="45.54658" lon="6.64646">
        <ele>914.4</ele>
        <time>2020-07-19T11:31:12Z</time>
      </trkpt>
      <trkpt lat="45.54671" lon="6.6469">
        <ele>911.6</ele>
        <time>2020-07-19T11:31:16Z</time>
      </trkpt>
      <trkpt lat="45.54684" lon="6.64738">
        <ele>908.6</ele>
        <time>2020-07-19T11:31:20Z</time>
      </trkpt>
      <trkpt lat="45.54697" lon="6.6479">
        <ele>905.8</ele>
        <time>2020-07-19T11:31:24Z</time>
      </trkpt>
      <trkpt lat="45.54714" lon="6.64844">
        <ele>900.8</ele>
        <time>2020-07-19T11:31:28Z</time>
      </trkpt>
      <trkpt lat="45.5473" lon="6.64897">
        <ele>897</ele>
        <time>2020-07-19T11:31:32Z</time>
      </trkpt>
      <trkpt lat="45.54755" lon="6.64953">
        <ele>894.4</ele>
        <time>2020-07-19T11:31:36Z</time>
      </trkpt>
      <trkpt lat="45.54779" lon="6.6501">
        <ele>891.6</ele>
        <time>2020-07-19T11:31:40Z</time>
      </trkpt>
      <trkpt lat="45.54794" lon="6.65076">
        <ele>888.8</ele>
        <time>2020-07-19T11:31:44Z</time>
      </trkpt>
      <trkpt lat="45.54793" lon="6.65146">
        <ele>883.2</ele>
        <time>2020-07-19T11:31:48Z</time>
      </trkpt>
      <trkpt lat="45.54801" lon="6.65213">
        <ele>880.2</ele>
        <time>2020-07-19T11:31:52Z</time>
      </trkpt>
      <trkpt lat="45.54804" lon="6.65283">
        <ele>874.6</ele>
        <time>2020-07-19T11:31:56Z</time>
      </trkpt>
      <trkpt lat="45.54797" lon="6.65359">
        <ele>868.8</ele>
        <time>2020-07-19T11:32:00Z</time>
      </trkpt>
      <trkpt lat="45.54788" lon="6.65433">
        <ele>865.2</ele>
        <time>2020-07-19T11:32:04Z</time>
      </trkpt>
      <trkpt lat="45.54785" lon="6.65506">
        <ele>862.4</ele>
        <time>2020-07-19T11:32:08Z</time>
      </trkpt>
      <trkpt lat="45.54794" lon="6.65574">
        <ele>859.6</ele>
        <time>2020-07-19T11:32:12Z</time>
      </trkpt>
      <trkpt lat="45.54806" lon="6.65642">
        <ele>856</ele>
        <time>2020-07-19T11:32:16Z</time>
      </trkpt>
      <trkpt lat="45.54813" lon="6.65715">
        <ele>852.6</ele>
        <time>2020-07-19T11:32:20Z</time>
      </trkpt>
      <trkpt lat="45.54811" lon="6.6579">
        <ele>847.4</ele>
        <time>2020-07-19T11:32:24Z</time>
      </trkpt>
      <trkpt lat="45.54817" lon="6.65869">
        <ele>841.8</ele>
        <time>2020-07-19T11:32:28Z</time>
      </trkpt>
      <trkpt lat="45.54833" lon="6.65949">
        <ele>834.4</ele>
        <time>2020-07-19T11:32:32Z</time>
      </trkpt>
      <trkpt lat="45.54846" lon="6.66017">
        <ele>833.6</ele>
        <time>2020-07-19T11:32:36Z</time>
      </trkpt>
      <trkpt lat="45.54857" lon="6.66079">
        <ele>830.8</ele>
        <time>2020-07-19T11:32:40Z</time>
      </trkpt>
      <trkpt lat="45.54886" lon="6.66129">
        <ele>826.6</ele>
        <time>2020-07-19T11:32:44Z</time>
      </trkpt>
      <trkpt lat="45.54916" lon="6.66176">
        <ele>825.2</ele>
        <time>2020-07-19T11:32:48Z</time>
      </trkpt>
      <trkpt lat="45.54943" lon="6.66229">
        <ele>822.8</ele>
        <time>2020-07-19T11:32:52Z</time>
      </trkpt>
      <trkpt lat="45.54961" lon="6.66296">
        <ele>815.6</ele>
        <time>2020-07-19T11:32:56Z</time>
      </trkpt>
      <trkpt lat="45.54974" lon="6.66362">
        <ele>813.4</ele>
        <time>2020-07-19T11:33:00Z</time>
      </trkpt>
      <trkpt lat="45.54983" lon="6.664">
        <ele>812.2</ele>
        <time>2020-07-19T11:33:04Z</time>
      </trkpt>
      <trkpt lat="45.54996" lon="6.66407">
        <ele>812.2</ele>
        <time>2020-07-19T11:33:08Z</time>
      </trkpt>
      <trkpt lat="45.55009" lon="6.66387">
        <ele>809.4</ele>
        <time>2020-07-19T11:33:12Z</time>
      </trkpt>
      <trkpt lat="45.55026" lon="6.6636">
        <ele>807.2</ele>
        <time>2020-07-19T11:33:16Z</time>
      </trkpt>
      <trkpt lat="45.55045" lon="6.6633">
        <ele>805.6</ele>
        <time>2020-07-19T11:33:20Z</time>
      </trkpt>
      <trkpt lat="45.55069" lon="6.66294">
        <ele>802</ele>
        <time>2020-07-19T11:33:24Z</time>
      </trkpt>
      <trkpt lat="45.55097" lon="6.66259">
        <ele>797.8</ele>
        <time>2020-07-19T11:33:28Z</time>
      </trkpt>
      <trkpt lat="45.55129" lon="6.66224">
        <ele>794.4</ele>
        <time>2020-07-19T11:33:32Z</time>
      </trkpt>
      <trkpt lat="45.55152" lon="6.66178">
        <ele>789.8</ele>
        <time>2020-07-19T11:33:36Z</time>
      </trkpt>
      <trkpt lat="45.55162" lon="6.66123">
        <ele>789.4</ele>
        <time>2020-07-19T11:33:40Z</time>
      </trkpt>
      <trkpt lat="45.55182" lon="6.66072">
        <ele>785.8</ele>
        <time>2020-07-19T11:33:44Z</time>
      </trkpt>
      <trkpt lat="45.55207" lon="6.66024">
        <ele>784.6</ele>
        <time>2020-07-19T11:33:48Z</time>
      </trkpt>
      <trkpt lat="45.55239" lon="6.65979">
        <ele>779.8</ele>
        <time>2020-07-19T11:33:52Z</time>
      </trkpt>
      <trkpt lat="45.55256" lon="6.65922">
        <ele>775.2</ele>
        <time>2020-07-19T11:33:56Z</time>
      </trkpt>
      <trkpt lat="45.55278" lon="6.65892">
        <ele>775.8</ele>
        <time>2020-07-19T11:34:00Z</time>
      </trkpt>
      <trkpt lat="45.55312" lon="6.65918">
        <ele>773.6</ele>
        <time>2020-07-19T11:34:04Z</time>
      </trkpt>
      <trkpt lat="45.55347" lon="6.65955">
        <ele>769.8</ele>
        <time>2020-07-19T11:34:08Z</time>
      </trkpt>
      <trkpt lat="45.55386" lon="6.65994">
        <ele>765.4</ele>
        <time>2020-07-19T11:34:12Z</time>
      </trkpt>
      <trkpt lat="45.55423" lon="6.66032">
        <ele>762.6</ele>
        <time>2020-07-19T11:34:16Z</time>
      </trkpt>
      <trkpt lat="45.5546" lon="6.66074">
        <ele>758.2</ele>
        <time>2020-07-19T11:34:20Z</time>
      </trkpt>
      <trkpt lat="45.55489" lon="6.6613">
        <ele>754.4</ele>
        <time>2020-07-19T11:34:24Z</time>
      </trkpt>
      <trkpt lat="45.55519" lon="6.66165">
        <ele>753.4</ele>
        <time>2020-07-19T11:34:28Z</time>
      </trkpt>
      <trkpt lat="45.55555" lon="6.66149">
        <ele>753.8</ele>
        <time>2020-07-19T11:34:32Z</time>
      </trkpt>
      <trkpt lat="45.55577" lon="6.66108">
        <ele>751</ele>
        <time>2020-07-19T11:34:36Z</time>
      </trkpt>
      <trkpt lat="45.55588" lon="6.66066">
        <ele>752</ele>
        <time>2020-07-19T11:34:40Z</time>
      </trkpt>
      <trkpt lat="45.55599" lon="6.6604">
        <ele>755.6</ele>
        <time>2020-07-19T11:34:44Z</time>
      </trkpt>
      <trkpt lat="45.55612" lon="6.66027">
        <ele>757.4</ele>
        <time>2020-07-19T11:34:48Z</time>
      </trkpt>
      <trkpt lat="45.55627" lon="6.66019">
        <ele>757</ele>
        <time>2020-07-19T11:34:52Z</time>
      </trkpt>
      <trkpt lat="45.55642" lon="6.6601">
        <ele>757.4</ele>
        <time>2020-07-19T11:34:56Z</time>
      </trkpt>
      <trkpt lat="45.55653" lon="6.65996">
        <ele>757.8</ele>
        <time>2020-07-19T11:35:00Z</time>
      </trkpt>
      <trkpt lat="45.55659" lon="6.65978">
        <ele>757</ele>
        <time>2020-07-19T11:35:04Z</time>
      </trkpt>
      <trkpt lat="45.55661" lon="6.65969">
        <ele>758.6</ele>
        <time>2020-07-19T11:35:08Z</time>
      </trkpt>
      <trkpt lat="45.5566" lon="6.65959">
        <ele>757.6</ele>
        <time>2020-07-19T11:35:12Z</time>
      </trkpt>
      <trkpt lat="45.55655" lon="6.65968">
        <ele>759.4</ele>
        <time>2020-07-19T11:35:16Z</time>
      </trkpt>
      <trkpt lat="45.55654" lon="6.65985">
        <ele>758</ele>
        <time>2020-07-19T11:35:20Z</time>
      </trkpt>
      <trkpt lat="45.55654" lon="6.65998">
        <ele>758</ele>
        <time>2020-07-19T11:35:24Z</time>
      </trkpt>
      <trkpt lat="45.5566" lon="6.65989">
        <ele>757.8</ele>
        <time>2020-07-19T11:35:28Z</time>
      </trkpt>
      <trkpt lat="45.55662" lon="6.65979">
        <ele>759.6</ele>
        <time>2020-07-19T11:35:32Z</time>
      </trkpt>
      <trkpt lat="45.55665" lon="6.65972">
        <ele>759.6</ele>
        <time>2020-07-19T11:35:36Z</time>
      </trkpt>
      <trkpt lat="45.55664" lon="6.65955">
        <ele>760</ele>
        <time>2020-07-19T11:35:40Z</time>
      </trkpt>
      <trkpt lat="45.55663" lon="6.65938">
        <ele>759.4</ele>
        <time>2020-07-19T11:35:44Z</time>
      </trkpt>
      <trkpt lat="45.55661" lon="6.65921">
        <ele>760.4</ele>
        <time>2020-07-19T11:35:48Z</time>
      </trkpt>
      <trkpt lat="45.55661" lon="6.65921">
        <ele>761.4</ele>
        <time>2020-07-19T11:35:52Z</time>
      </trkpt>
      <trkpt lat="45.55656" lon="6.65889">
        <ele>762.4</ele>
        <time>2020-07-19T11:38:22Z</time>
      </trkpt>
      <trkpt lat="45.55657" lon="6.65878">
        <ele>762.8</ele>
        <time>2020-07-19T11:38:26Z</time>
      </trkpt>
      <trkpt lat="45.55658" lon="6.65867">
        <ele>763.6</ele>
        <time>2020-07-19T11:38:30Z</time>
      </trkpt>
      <trkpt lat="45.55659" lon="6.65857">
        <ele>763.6</ele>
        <time>2020-07-19T11:38:34Z</time>
      </trkpt>
      <trkpt lat="45.5566" lon="6.65847">
        <ele>764.4</ele>
        <time>2020-07-19T11:38:38Z</time>
      </trkpt>
      <trkpt lat="45.55661" lon="6.65836">
        <ele>764</ele>
        <time>2020-07-19T11:38:42Z</time>
      </trkpt>
      <trkpt lat="45.55662" lon="6.65825">
        <ele>764</ele>
        <time>2020-07-19T11:38:46Z</time>
      </trkpt>
      <trkpt lat="45.55665" lon="6.65809">
        <ele>764.8</ele>
        <time>2020-07-19T11:38:50Z</time>
      </trkpt>
      <trkpt lat="45.55667" lon="6.65793">
        <ele>765.2</ele>
        <time>2020-07-19T11:38:54Z</time>
      </trkpt>
      <trkpt lat="45.55669" lon="6.65781">
        <ele>765.2</ele>
        <time>2020-07-19T11:38:58Z</time>
      </trkpt>
      <trkpt lat="45.55671" lon="6.65768">
        <ele>765.8</ele>
        <time>2020-07-19T11:39:02Z</time>
      </trkpt>
      <trkpt lat="45.55672" lon="6.65756">
        <ele>765</ele>
        <time>2020-07-19T11:39:06Z</time>
      </trkpt>
      <trkpt lat="45.55673" lon="6.65744">
        <ele>766.8</ele>
        <time>2020-07-19T11:39:10Z</time>
      </trkpt>
      <trkpt lat="45.55675" lon="6.65732">
        <ele>768.8</ele>
        <time>2020-07-19T11:39:14Z</time>
      </trkpt>
      <trkpt lat="45.55676" lon="6.6572">
        <ele>769</ele>
        <time>2020-07-19T11:39:18Z</time>
      </trkpt>
      <trkpt lat="45.55677" lon="6.65708">
        <ele>769.4</ele>
        <time>2020-07-19T11:39:22Z</time>
      </trkpt>
      <trkpt lat="45.55678" lon="6.65696">
        <ele>770.2</ele>
        <time>2020-07-19T11:39:26Z</time>
      </trkpt>
      <trkpt lat="45.55679" lon="6.65685">
        <ele>771.2</ele>
        <time>2020-07-19T11:39:30Z</time>
      </trkpt>
      <trkpt lat="45.55684" lon="6.65676">
        <ele>771.8</ele>
        <time>2020-07-19T11:39:34Z</time>
      </trkpt>
      <trkpt lat="45.5569" lon="6.65672">
        <ele>772.6</ele>
        <time>2020-07-19T11:39:38Z</time>
      </trkpt>
      <trkpt lat="45.55695" lon="6.65676">
        <ele>775</ele>
        <time>2020-07-19T11:39:42Z</time>
      </trkpt>
      <trkpt lat="45.55698" lon="6.65685">
        <ele>774.4</ele>
        <time>2020-07-19T11:39:46Z</time>
      </trkpt>
      <trkpt lat="45.55704" lon="6.65685">
        <ele>773.6</ele>
        <time>2020-07-19T11:39:50Z</time>
      </trkpt>
      <trkpt lat="45.55708" lon="6.65674">
        <ele>774</ele>
        <time>2020-07-19T11:39:54Z</time>
      </trkpt>
      <trkpt lat="45.55712" lon="6.65661">
        <ele>773.2</ele>
        <time>2020-07-19T11:39:58Z</time>
      </trkpt>
      <trkpt lat="45.55718" lon="6.65648">
        <ele>773</ele>
        <time>2020-07-19T11:40:02Z</time>
      </trkpt>
      <trkpt lat="45.55723" lon="6.65633">
        <ele>773</ele>
        <time>2020-07-19T11:40:06Z</time>
      </trkpt>
      <trkpt lat="45.55727" lon="6.65617">
        <ele>772.8</ele>
        <time>2020-07-19T11:40:10Z</time>
      </trkpt>
      <trkpt lat="45.55732" lon="6.65601">
        <ele>772.4</ele>
        <time>2020-07-19T11:40:14Z</time>
      </trkpt>
      <trkpt lat="45.55736" lon="6.65585">
        <ele>773.6</ele>
        <time>2020-07-19T11:40:18Z</time>
      </trkpt>
      <trkpt lat="45.5574" lon="6.65567">
        <ele>773.4</ele>
        <time>2020-07-19T11:40:22Z</time>
      </trkpt>
      <trkpt lat="45.55743" lon="6.65549">
        <ele>774</ele>
        <time>2020-07-19T11:40:26Z</time>
      </trkpt>
      <trkpt lat="45.55745" lon="6.6553">
        <ele>774.2</ele>
        <time>2020-07-19T11:40:30Z</time>
      </trkpt>
      <trkpt lat="45.55747" lon="6.65512">
        <ele>774.8</ele>
        <time>2020-07-19T11:40:34Z</time>
      </trkpt>
      <trkpt lat="45.55747" lon="6.65494">
        <ele>774.2</ele>
        <time>2020-07-19T11:40:38Z</time>
      </trkpt>
      <trkpt lat="45.55747" lon="6.65475">
        <ele>774.8</ele>
        <time>2020-07-19T11:40:42Z</time>
      </trkpt>
      <trkpt lat="45.55747" lon="6.65457">
        <ele>774.6</ele>
        <time>2020-07-19T11:40:46Z</time>
      </trkpt>
      <trkpt lat="45.55753" lon="6.65444">
        <ele>776.2</ele>
        <time>2020-07-19T11:40:50Z</time>
      </trkpt>
      <trkpt lat="45.55761" lon="6.65437">
        <ele>777.2</ele>
        <time>2020-07-19T11:40:54Z</time>
      </trkpt>
      <trkpt lat="45.55768" lon="6.65432">
        <ele>777.2</ele>
        <time>2020-07-19T11:40:58Z</time>
      </trkpt>
      <trkpt lat="45.55775" lon="6.65427">
        <ele>777.8</ele>
        <time>2020-07-19T11:41:02Z</time>
      </trkpt>
      <trkpt lat="45.55782" lon="6.65422">
        <ele>779</ele>
        <time>2020-07-19T11:41:06Z</time>
      </trkpt>
      <trkpt lat="45.55788" lon="6.65418">
        <ele>779.2</ele>
        <time>2020-07-19T11:41:10Z</time>
      </trkpt>
      <trkpt lat="45.55795" lon="6.65414">
        <ele>780</ele>
        <time>2020-07-19T11:41:14Z</time>
      </trkpt>
      <trkpt lat="45.55801" lon="6.65408">
        <ele>781</ele>
        <time>2020-07-19T11:41:18Z</time>
      </trkpt>
      <trkpt lat="45.55806" lon="6.65399">
        <ele>782.6</ele>
        <time>2020-07-19T11:41:22Z</time>
      </trkpt>
      <trkpt lat="45.55809" lon="6.65388">
        <ele>782.8</ele>
        <time>2020-07-19T11:41:26Z</time>
      </trkpt>
      <trkpt lat="45.55811" lon="6.65376">
        <ele>783</ele>
        <time>2020-07-19T11:41:30Z</time>
      </trkpt>
      <trkpt lat="45.55812" lon="6.65364">
        <ele>783.4</ele>
        <time>2020-07-19T11:41:34Z</time>
      </trkpt>
      <trkpt lat="45.55814" lon="6.65352">
        <ele>784</ele>
        <time>2020-07-19T11:41:38Z</time>
      </trkpt>
      <trkpt lat="45.55817" lon="6.65341">
        <ele>784.2</ele>
        <time>2020-07-19T11:41:42Z</time>
      </trkpt>
      <trkpt lat="45.55822" lon="6.65332">
        <ele>785.6</ele>
        <time>2020-07-19T11:41:46Z</time>
      </trkpt>
      <trkpt lat="45.55829" lon="6.65325">
        <ele>785.8</ele>
        <time>2020-07-19T11:41:50Z</time>
      </trkpt>
      <trkpt lat="45.55836" lon="6.6532">
        <ele>786.2</ele>
        <time>2020-07-19T11:41:54Z</time>
      </trkpt>
      <trkpt lat="45.55844" lon="6.65313">
        <ele>787.2</ele>
        <time>2020-07-19T11:41:58Z</time>
      </trkpt>
      <trkpt lat="45.55851" lon="6.65306">
        <ele>787.6</ele>
        <time>2020-07-19T11:42:02Z</time>
      </trkpt>
      <trkpt lat="45.55857" lon="6.65296">
        <ele>788</ele>
        <time>2020-07-19T11:42:06Z</time>
      </trkpt>
      <trkpt lat="45.55861" lon="6.65285">
        <ele>788.8</ele>
        <time>2020-07-19T11:42:10Z</time>
      </trkpt>
      <trkpt lat="45.55864" lon="6.65273">
        <ele>788.6</ele>
        <time>2020-07-19T11:42:14Z</time>
      </trkpt>
      <trkpt lat="45.55867" lon="6.6526">
        <ele>788.6</ele>
        <time>2020-07-19T11:42:18Z</time>
      </trkpt>
      <trkpt lat="45.55868" lon="6.65249">
        <ele>789</ele>
        <time>2020-07-19T11:42:22Z</time>
      </trkpt>
      <trkpt lat="45.55865" lon="6.65238">
        <ele>789.2</ele>
        <time>2020-07-19T11:42:26Z</time>
      </trkpt>
      <trkpt lat="45.55855" lon="6.65229">
        <ele>789.4</ele>
        <time>2020-07-19T11:42:30Z</time>
      </trkpt>
      <trkpt lat="45.55843" lon="6.6522">
        <ele>789.2</ele>
        <time>2020-07-19T11:42:34Z</time>
      </trkpt>
      <trkpt lat="45.55833" lon="6.65207">
        <ele>787.2</ele>
        <time>2020-07-19T11:42:38Z</time>
      </trkpt>
      <trkpt lat="45.55824" lon="6.65194">
        <ele>788.6</ele>
        <time>2020-07-19T11:42:42Z</time>
      </trkpt>
      <trkpt lat="45.55808" lon="6.65185">
        <ele>787.6</ele>
        <time>2020-07-19T11:42:46Z</time>
      </trkpt>
      <trkpt lat="45.55788" lon="6.6518">
        <ele>785.8</ele>
        <time>2020-07-19T11:42:50Z</time>
      </trkpt>
      <trkpt lat="45.55778" lon="6.65159">
        <ele>786</ele>
        <time>2020-07-19T11:42:54Z</time>
      </trkpt>
      <trkpt lat="45.55775" lon="6.65135">
        <ele>787.2</ele>
        <time>2020-07-19T11:42:58Z</time>
      </trkpt>
      <trkpt lat="45.55771" lon="6.65117">
        <ele>787.2</ele>
        <time>2020-07-19T11:43:02Z</time>
      </trkpt>
      <trkpt lat="45.55767" lon="6.65099">
        <ele>787.4</ele>
        <time>2020-07-19T11:43:06Z</time>
      </trkpt>
      <trkpt lat="45.55762" lon="6.65082">
        <ele>787.8</ele>
        <time>2020-07-19T11:43:10Z</time>
      </trkpt>
      <trkpt lat="45.55757" lon="6.65065">
        <ele>787.4</ele>
        <time>2020-07-19T11:43:14Z</time>
      </trkpt>
      <trkpt lat="45.55752" lon="6.6505">
        <ele>787.4</ele>
        <time>2020-07-19T11:43:18Z</time>
      </trkpt>
      <trkpt lat="45.55749" lon="6.65035">
        <ele>788</ele>
        <time>2020-07-19T11:43:22Z</time>
      </trkpt>
      <trkpt lat="45.55746" lon="6.6502">
        <ele>788.8</ele>
        <time>2020-07-19T11:43:26Z</time>
      </trkpt>
      <trkpt lat="45.55744" lon="6.65004">
        <ele>789.6</ele>
        <time>2020-07-19T11:43:30Z</time>
      </trkpt>
      <trkpt lat="45.55744" lon="6.6499">
        <ele>790.6</ele>
        <time>2020-07-19T11:43:34Z</time>
      </trkpt>
      <trkpt lat="45.55745" lon="6.64976">
        <ele>790.8</ele>
        <time>2020-07-19T11:43:38Z</time>
      </trkpt>
      <trkpt lat="45.55748" lon="6.64961">
        <ele>791.2</ele>
        <time>2020-07-19T11:43:42Z</time>
      </trkpt>
      <trkpt lat="45.55752" lon="6.64946">
        <ele>792.4</ele>
        <time>2020-07-19T11:43:46Z</time>
      </trkpt>
      <trkpt lat="45.55758" lon="6.64935">
        <ele>792.8</ele>
        <time>2020-07-19T11:43:50Z</time>
      </trkpt>
      <trkpt lat="45.55767" lon="6.64928">
        <ele>794</ele>
        <time>2020-07-19T11:43:54Z</time>
      </trkpt>
      <trkpt lat="45.55774" lon="6.64916">
        <ele>794.2</ele>
        <time>2020-07-19T11:43:58Z</time>
      </trkpt>
      <trkpt lat="45.5578" lon="6.64904">
        <ele>794.2</ele>
        <time>2020-07-19T11:44:02Z</time>
      </trkpt>
      <trkpt lat="45.55782" lon="6.64891">
        <ele>795</ele>
        <time>2020-07-19T11:44:06Z</time>
      </trkpt>
      <trkpt lat="45.55783" lon="6.64878">
        <ele>796.2</ele>
        <time>2020-07-19T11:44:10Z</time>
      </trkpt>
      <trkpt lat="45.55783" lon="6.64865">
        <ele>796.4</ele>
        <time>2020-07-19T11:44:14Z</time>
      </trkpt>
      <trkpt lat="45.55782" lon="6.64853">
        <ele>797</ele>
        <time>2020-07-19T11:44:18Z</time>
      </trkpt>
      <trkpt lat="45.55781" lon="6.6484">
        <ele>797.2</ele>
        <time>2020-07-19T11:44:22Z</time>
      </trkpt>
      <trkpt lat="45.55781" lon="6.64826">
        <ele>798</ele>
        <time>2020-07-19T11:44:26Z</time>
      </trkpt>
      <trkpt lat="45.55781" lon="6.64814">
        <ele>798.4</ele>
        <time>2020-07-19T11:44:30Z</time>
      </trkpt>
      <trkpt lat="45.55782" lon="6.64801">
        <ele>799.2</ele>
        <time>2020-07-19T11:44:34Z</time>
      </trkpt>
      <trkpt lat="45.55783" lon="6.6479">
        <ele>800</ele>
        <time>2020-07-19T11:44:38Z</time>
      </trkpt>
      <trkpt lat="45.55783" lon="6.64777">
        <ele>800.2</ele>
        <time>2020-07-19T11:44:42Z</time>
      </trkpt>
      <trkpt lat="45.55782" lon="6.64764">
        <ele>800.8</ele>
        <time>2020-07-19T11:44:46Z</time>
      </trkpt>
      <trkpt lat="45.55781" lon="6.64752">
        <ele>801.4</ele>
        <time>2020-07-19T11:44:50Z</time>
      </trkpt>
      <trkpt lat="45.55778" lon="6.6474">
        <ele>802</ele>
        <time>2020-07-19T11:44:54Z</time>
      </trkpt>
      <trkpt lat="45.55775" lon="6.64728">
        <ele>803.2</ele>
        <time>2020-07-19T11:44:58Z</time>
      </trkpt>
      <trkpt lat="45.55772" lon="6.64716">
        <ele>803.8</ele>
        <time>2020-07-19T11:45:02Z</time>
      </trkpt>
      <trkpt lat="45.55769" lon="6.64703">
        <ele>804</ele>
        <time>2020-07-19T11:45:06Z</time>
      </trkpt>
      <trkpt lat="45.55768" lon="6.64691">
        <ele>804.8</ele>
        <time>2020-07-19T11:45:10Z</time>
      </trkpt>
      <trkpt lat="45.55765" lon="6.6468">
        <ele>805.6</ele>
        <time>2020-07-19T11:45:14Z</time>
      </trkpt>
      <trkpt lat="45.55763" lon="6.64668">
        <ele>806.4</ele>
        <time>2020-07-19T11:45:18Z</time>
      </trkpt>
      <trkpt lat="45.5576" lon="6.64657">
        <ele>807</ele>
        <time>2020-07-19T11:45:22Z</time>
      </trkpt>
      <trkpt lat="45.55758" lon="6.64644">
        <ele>807.6</ele>
        <time>2020-07-19T11:45:26Z</time>
      </trkpt>
      <trkpt lat="45.55756" lon="6.64632">
        <ele>807.8</ele>
        <time>2020-07-19T11:45:30Z</time>
      </trkpt>
      <trkpt lat="45.55754" lon="6.64619">
        <ele>807.8</ele>
        <time>2020-07-19T11:45:34Z</time>
      </trkpt>
      <trkpt lat="45.55752" lon="6.64607">
        <ele>809</ele>
        <time>2020-07-19T11:45:38Z</time>
      </trkpt>
      <trkpt lat="45.55751" lon="6.64595">
        <ele>809.6</ele>
        <time>2020-07-19T11:45:42Z</time>
      </trkpt>
      <trkpt lat="45.55749" lon="6.64584">
        <ele>810.2</ele>
        <time>2020-07-19T11:45:46Z</time>
      </trkpt>
      <trkpt lat="45.55747" lon="6.64572">
        <ele>810.6</ele>
        <time>2020-07-19T11:45:50Z</time>
      </trkpt>
      <trkpt lat="45.55744" lon="6.64561">
        <ele>811.4</ele>
        <time>2020-07-19T11:45:54Z</time>
      </trkpt>
      <trkpt lat="45.55741" lon="6.64552">
        <ele>811.4</ele>
        <time>2020-07-19T11:45:58Z</time>
      </trkpt>
      <trkpt lat="45.55737" lon="6.64542">
        <ele>811.8</ele>
        <time>2020-07-19T11:46:02Z</time>
      </trkpt>
      <trkpt lat="45.55733" lon="6.64531">
        <ele>811.8</ele>
        <time>2020-07-19T11:46:06Z</time>
      </trkpt>
      <trkpt lat="45.5573" lon="6.6452">
        <ele>813</ele>
        <time>2020-07-19T11:46:10Z</time>
      </trkpt>
      <trkpt lat="45.55728" lon="6.64508">
        <ele>813.6</ele>
        <time>2020-07-19T11:46:14Z</time>
      </trkpt>
      <trkpt lat="45.55727" lon="6.64495">
        <ele>813.6</ele>
        <time>2020-07-19T11:46:18Z</time>
      </trkpt>
      <trkpt lat="45.55729" lon="6.64484">
        <ele>814.8</ele>
        <time>2020-07-19T11:46:22Z</time>
      </trkpt>
      <trkpt lat="45.55733" lon="6.64473">
        <ele>815.6</ele>
        <time>2020-07-19T11:46:26Z</time>
      </trkpt>
      <trkpt lat="45.55737" lon="6.64463">
        <ele>815.6</ele>
        <time>2020-07-19T11:46:30Z</time>
      </trkpt>
      <trkpt lat="45.55739" lon="6.64451">
        <ele>815.8</ele>
        <time>2020-07-19T11:46:34Z</time>
      </trkpt>
      <trkpt lat="45.55739" lon="6.64439">
        <ele>816.2</ele>
        <time>2020-07-19T11:46:38Z</time>
      </trkpt>
      <trkpt lat="45.55739" lon="6.64428">
        <ele>816.2</ele>
        <time>2020-07-19T11:46:42Z</time>
      </trkpt>
      <trkpt lat="45.55737" lon="6.64416">
        <ele>817</ele>
        <time>2020-07-19T11:46:46Z</time>
      </trkpt>
      <trkpt lat="45.55737" lon="6.64403">
        <ele>818</ele>
        <time>2020-07-19T11:46:50Z</time>
      </trkpt>
      <trkpt lat="45.55737" lon="6.6439">
        <ele>819</ele>
        <time>2020-07-19T11:46:54Z</time>
      </trkpt>
      <trkpt lat="45.55737" lon="6.64376">
        <ele>819.4</ele>
        <time>2020-07-19T11:46:58Z</time>
      </trkpt>
      <trkpt lat="45.55737" lon="6.64364">
        <ele>819.4</ele>
        <time>2020-07-19T11:47:02Z</time>
      </trkpt>
      <trkpt lat="45.55737" lon="6.64351">
        <ele>819.6</ele>
        <time>2020-07-19T11:47:06Z</time>
      </trkpt>
      <trkpt lat="45.55737" lon="6.64339">
        <ele>821</ele>
        <time>2020-07-19T11:47:10Z</time>
      </trkpt>
      <trkpt lat="45.55737" lon="6.64326">
        <ele>821</ele>
        <time>2020-07-19T11:47:14Z</time>
      </trkpt>
      <trkpt lat="45.55737" lon="6.64313">
        <ele>821.4</ele>
        <time>2020-07-19T11:47:18Z</time>
      </trkpt>
      <trkpt lat="45.55737" lon="6.643">
        <ele>823.4</ele>
        <time>2020-07-19T11:47:22Z</time>
      </trkpt>
      <trkpt lat="45.55738" lon="6.64287">
        <ele>822.8</ele>
        <time>2020-07-19T11:47:26Z</time>
      </trkpt>
      <trkpt lat="45.55739" lon="6.64275">
        <ele>823</ele>
        <time>2020-07-19T11:47:30Z</time>
      </trkpt>
      <trkpt lat="45.5574" lon="6.64262">
        <ele>823</ele>
        <time>2020-07-19T11:47:34Z</time>
      </trkpt>
      <trkpt lat="45.55742" lon="6.6425">
        <ele>824</ele>
        <time>2020-07-19T11:47:38Z</time>
      </trkpt>
      <trkpt lat="45.55743" lon="6.64238">
        <ele>824.4</ele>
        <time>2020-07-19T11:47:42Z</time>
      </trkpt>
      <trkpt lat="45.55745" lon="6.64225">
        <ele>824.2</ele>
        <time>2020-07-19T11:47:46Z</time>
      </trkpt>
      <trkpt lat="45.55745" lon="6.64213">
        <ele>826</ele>
        <time>2020-07-19T11:47:50Z</time>
      </trkpt>
      <trkpt lat="45.55746" lon="6.642">
        <ele>825</ele>
        <time>2020-07-19T11:47:54Z</time>
      </trkpt>
      <trkpt lat="45.55747" lon="6.64188">
        <ele>826.4</ele>
        <time>2020-07-19T11:47:58Z</time>
      </trkpt>
      <trkpt lat="45.55747" lon="6.64177">
        <ele>827.4</ele>
        <time>2020-07-19T11:48:02Z</time>
      </trkpt>
      <trkpt lat="45.55747" lon="6.64165">
        <ele>828</ele>
        <time>2020-07-19T11:48:06Z</time>
      </trkpt>
      <trkpt lat="45.55748" lon="6.64153">
        <ele>828.6</ele>
        <time>2020-07-19T11:48:10Z</time>
      </trkpt>
      <trkpt lat="45.55748" lon="6.64141">
        <ele>829</ele>
        <time>2020-07-19T11:48:14Z</time>
      </trkpt>
      <trkpt lat="45.55749" lon="6.64129">
        <ele>829.8</ele>
        <time>2020-07-19T11:48:18Z</time>
      </trkpt>
      <trkpt lat="45.55749" lon="6.64116">
        <ele>830.2</ele>
        <time>2020-07-19T11:48:22Z</time>
      </trkpt>
      <trkpt lat="45.55749" lon="6.64104">
        <ele>829.8</ele>
        <time>2020-07-19T11:48:26Z</time>
      </trkpt>
      <trkpt lat="45.55749" lon="6.64093">
        <ele>830.6</ele>
        <time>2020-07-19T11:48:30Z</time>
      </trkpt>
      <trkpt lat="45.5575" lon="6.64081">
        <ele>830.8</ele>
        <time>2020-07-19T11:48:34Z</time>
      </trkpt>
      <trkpt lat="45.5575" lon="6.64068">
        <ele>832</ele>
        <time>2020-07-19T11:48:38Z</time>
      </trkpt>
      <trkpt lat="45.55751" lon="6.64055">
        <ele>832.8</ele>
        <time>2020-07-19T11:48:42Z</time>
      </trkpt>
      <trkpt lat="45.55751" lon="6.64043">
        <ele>833.2</ele>
        <time>2020-07-19T11:48:46Z</time>
      </trkpt>
      <trkpt lat="45.55752" lon="6.64031">
        <ele>833.4</ele>
        <time>2020-07-19T11:48:50Z</time>
      </trkpt>
      <trkpt lat="45.55751" lon="6.64019">
        <ele>834.6</ele>
        <time>2020-07-19T11:48:54Z</time>
      </trkpt>
      <trkpt lat="45.55749" lon="6.64007">
        <ele>835.4</ele>
        <time>2020-07-19T11:48:58Z</time>
      </trkpt>
      <trkpt lat="45.55748" lon="6.63994">
        <ele>835.2</ele>
        <time>2020-07-19T11:49:02Z</time>
      </trkpt>
      <trkpt lat="45.55746" lon="6.63981">
        <ele>836.2</ele>
        <time>2020-07-19T11:49:06Z</time>
      </trkpt>
      <trkpt lat="45.55746" lon="6.63969">
        <ele>836.8</ele>
        <time>2020-07-19T11:49:10Z</time>
      </trkpt>
      <trkpt lat="45.55746" lon="6.63956">
        <ele>836.6</ele>
        <time>2020-07-19T11:49:14Z</time>
      </trkpt>
      <trkpt lat="45.55747" lon="6.63943">
        <ele>838.4</ele>
        <time>2020-07-19T11:49:18Z</time>
      </trkpt>
      <trkpt lat="45.55748" lon="6.63931">
        <ele>839</ele>
        <time>2020-07-19T11:49:22Z</time>
      </trkpt>
      <trkpt lat="45.55749" lon="6.63919">
        <ele>839.6</ele>
        <time>2020-07-19T11:49:26Z</time>
      </trkpt>
      <trkpt lat="45.5575" lon="6.63907">
        <ele>840</ele>
        <time>2020-07-19T11:49:30Z</time>
      </trkpt>
      <trkpt lat="45.55751" lon="6.63894">
        <ele>840.6</ele>
        <time>2020-07-19T11:49:34Z</time>
      </trkpt>
      <trkpt lat="45.55752" lon="6.63882">
        <ele>840.8</ele>
        <time>2020-07-19T11:49:38Z</time>
      </trkpt>
      <trkpt lat="45.55753" lon="6.6387">
        <ele>842</ele>
        <time>2020-07-19T11:49:42Z</time>
      </trkpt>
      <trkpt lat="45.55754" lon="6.63858">
        <ele>841.6</ele>
        <time>2020-07-19T11:49:46Z</time>
      </trkpt>
      <trkpt lat="45.55754" lon="6.63846">
        <ele>842.2</ele>
        <time>2020-07-19T11:49:50Z</time>
      </trkpt>
      <trkpt lat="45.55753" lon="6.63834">
        <ele>842.6</ele>
        <time>2020-07-19T11:49:54Z</time>
      </trkpt>
      <trkpt lat="45.55752" lon="6.63822">
        <ele>843.4</ele>
        <time>2020-07-19T11:49:58Z</time>
      </trkpt>
      <trkpt lat="45.55751" lon="6.6381">
        <ele>844.4</ele>
        <time>2020-07-19T11:50:02Z</time>
      </trkpt>
      <trkpt lat="45.5575" lon="6.63798">
        <ele>844.4</ele>
        <time>2020-07-19T11:50:06Z</time>
      </trkpt>
      <trkpt lat="45.55748" lon="6.63786">
        <ele>845.4</ele>
        <time>2020-07-19T11:50:10Z</time>
      </trkpt>
      <trkpt lat="45.55747" lon="6.63774">
        <ele>845.4</ele>
        <time>2020-07-19T11:50:14Z</time>
      </trkpt>
      <trkpt lat="45.55746" lon="6.63762">
        <ele>845.6</ele>
        <time>2020-07-19T11:50:18Z</time>
      </trkpt>
      <trkpt lat="45.55745" lon="6.63751">
        <ele>846.2</ele>
        <time>2020-07-19T11:50:22Z</time>
      </trkpt>
      <trkpt lat="45.55744" lon="6.63739">
        <ele>848.4</ele>
        <time>2020-07-19T11:50:26Z</time>
      </trkpt>
      <trkpt lat="45.55743" lon="6.63727">
        <ele>848</ele>
        <time>2020-07-19T11:50:30Z</time>
      </trkpt>
      <trkpt lat="45.55743" lon="6.63715">
        <ele>848.4</ele>
        <time>2020-07-19T11:50:34Z</time>
      </trkpt>
      <trkpt lat="45.55745" lon="6.63702">
        <ele>849.2</ele>
        <time>2020-07-19T11:50:38Z</time>
      </trkpt>
      <trkpt lat="45.55745" lon="6.63689">
        <ele>849.8</ele>
        <time>2020-07-19T11:50:42Z</time>
      </trkpt>
      <trkpt lat="45.55744" lon="6.63676">
        <ele>850.8</ele>
        <time>2020-07-19T11:50:46Z</time>
      </trkpt>
      <trkpt lat="45.5574" lon="6.63663">
        <ele>850.8</ele>
        <time>2020-07-19T11:50:50Z</time>
      </trkpt>
      <trkpt lat="45.55735" lon="6.63652">
        <ele>852.6</ele>
        <time>2020-07-19T11:50:54Z</time>
      </trkpt>
      <trkpt lat="45.55728" lon="6.63642">
        <ele>851.8</ele>
        <time>2020-07-19T11:50:58Z</time>
      </trkpt>
      <trkpt lat="45.55723" lon="6.63632">
        <ele>852</ele>
        <time>2020-07-19T11:51:02Z</time>
      </trkpt>
      <trkpt lat="45.55719" lon="6.63621">
        <ele>852.6</ele>
        <time>2020-07-19T11:51:06Z</time>
      </trkpt>
      <trkpt lat="45.55716" lon="6.6361">
        <ele>853.2</ele>
        <time>2020-07-19T11:51:10Z</time>
      </trkpt>
      <trkpt lat="45.55714" lon="6.63597">
        <ele>853.4</ele>
        <time>2020-07-19T11:51:14Z</time>
      </trkpt>
      <trkpt lat="45.55713" lon="6.63584">
        <ele>853</ele>
        <time>2020-07-19T11:51:18Z</time>
      </trkpt>
      <trkpt lat="45.55715" lon="6.63571">
        <ele>854.6</ele>
        <time>2020-07-19T11:51:22Z</time>
      </trkpt>
      <trkpt lat="45.55718" lon="6.6356">
        <ele>855.6</ele>
        <time>2020-07-19T11:51:26Z</time>
      </trkpt>
      <trkpt lat="45.55723" lon="6.63548">
        <ele>856.2</ele>
        <time>2020-07-19T11:51:30Z</time>
      </trkpt>
      <trkpt lat="45.55727" lon="6.63537">
        <ele>856.4</ele>
        <time>2020-07-19T11:51:34Z</time>
      </trkpt>
      <trkpt lat="45.5573" lon="6.63525">
        <ele>856.4</ele>
        <time>2020-07-19T11:51:38Z</time>
      </trkpt>
      <trkpt lat="45.55732" lon="6.63512">
        <ele>857.4</ele>
        <time>2020-07-19T11:51:42Z</time>
      </trkpt>
      <trkpt lat="45.55732" lon="6.63512">
        <ele>856.8</ele>
        <time>2020-07-19T11:51:46Z</time>
      </trkpt>
      <trkpt lat="45.55733" lon="6.63495">
        <ele>856.6</ele>
        <time>2020-07-19T11:51:50Z</time>
      </trkpt>
      <trkpt lat="45.55734" lon="6.63483">
        <ele>858.2</ele>
        <time>2020-07-19T11:51:54Z</time>
      </trkpt>
      <trkpt lat="45.55734" lon="6.63471">
        <ele>858.4</ele>
        <time>2020-07-19T11:51:58Z</time>
      </trkpt>
      <trkpt lat="45.55732" lon="6.63457">
        <ele>858.6</ele>
        <time>2020-07-19T11:52:02Z</time>
      </trkpt>
      <trkpt lat="45.55732" lon="6.63445">
        <ele>860.6</ele>
        <time>2020-07-19T11:52:06Z</time>
      </trkpt>
      <trkpt lat="45.55729" lon="6.63432">
        <ele>860.4</ele>
        <time>2020-07-19T11:52:10Z</time>
      </trkpt>
      <trkpt lat="45.55726" lon="6.63418">
        <ele>860.2</ele>
        <time>2020-07-19T11:52:14Z</time>
      </trkpt>
      <trkpt lat="45.55721" lon="6.63404">
        <ele>861</ele>
        <time>2020-07-19T11:52:18Z</time>
      </trkpt>
      <trkpt lat="45.55717" lon="6.63392">
        <ele>861</ele>
        <time>2020-07-19T11:52:22Z</time>
      </trkpt>
      <trkpt lat="45.55712" lon="6.63379">
        <ele>860.6</ele>
        <time>2020-07-19T11:52:26Z</time>
      </trkpt>
      <trkpt lat="45.55706" lon="6.63367">
        <ele>860.8</ele>
        <time>2020-07-19T11:52:30Z</time>
      </trkpt>
      <trkpt lat="45.55699" lon="6.63356">
        <ele>861.2</ele>
        <time>2020-07-19T11:52:34Z</time>
      </trkpt>
      <trkpt lat="45.55691" lon="6.63346">
        <ele>861</ele>
        <time>2020-07-19T11:52:38Z</time>
      </trkpt>
      <trkpt lat="45.55684" lon="6.63336">
        <ele>861.2</ele>
        <time>2020-07-19T11:52:42Z</time>
      </trkpt>
      <trkpt lat="45.55678" lon="6.63327">
        <ele>861.8</ele>
        <time>2020-07-19T11:52:46Z</time>
      </trkpt>
      <trkpt lat="45.5567" lon="6.63318">
        <ele>861.6</ele>
        <time>2020-07-19T11:52:50Z</time>
      </trkpt>
      <trkpt lat="45.55663" lon="6.63308">
        <ele>861.6</ele>
        <time>2020-07-19T11:52:54Z</time>
      </trkpt>
      <trkpt lat="45.55656" lon="6.633">
        <ele>861.6</ele>
        <time>2020-07-19T11:52:58Z</time>
      </trkpt>
      <trkpt lat="45.5565" lon="6.6329">
        <ele>861.8</ele>
        <time>2020-07-19T11:53:02Z</time>
      </trkpt>
      <trkpt lat="45.55644" lon="6.63281">
        <ele>862.6</ele>
        <time>2020-07-19T11:53:06Z</time>
      </trkpt>
      <trkpt lat="45.55639" lon="6.6327">
        <ele>863.8</ele>
        <time>2020-07-19T11:53:10Z</time>
      </trkpt>
      <trkpt lat="45.55635" lon="6.63259">
        <ele>864</ele>
        <time>2020-07-19T11:53:14Z</time>
      </trkpt>
      <trkpt lat="45.55631" lon="6.63248">
        <ele>864</ele>
        <time>2020-07-19T11:53:18Z</time>
      </trkpt>
      <trkpt lat="45.55626" lon="6.63238">
        <ele>864.2</ele>
        <time>2020-07-19T11:53:22Z</time>
      </trkpt>
      <trkpt lat="45.55622" lon="6.63227">
        <ele>864.4</ele>
        <time>2020-07-19T11:53:26Z</time>
      </trkpt>
      <trkpt lat="45.55618" lon="6.63216">
        <ele>864.6</ele>
        <time>2020-07-19T11:53:30Z</time>
      </trkpt>
      <trkpt lat="45.55615" lon="6.63205">
        <ele>865.8</ele>
        <time>2020-07-19T11:53:34Z</time>
      </trkpt>
      <trkpt lat="45.55611" lon="6.63193">
        <ele>865.8</ele>
        <time>2020-07-19T11:53:38Z</time>
      </trkpt>
      <trkpt lat="45.55608" lon="6.63182">
        <ele>865.6</ele>
        <time>2020-07-19T11:53:42Z</time>
      </trkpt>
      <trkpt lat="45.55605" lon="6.6317">
        <ele>867</ele>
        <time>2020-07-19T11:53:46Z</time>
      </trkpt>
      <trkpt lat="45.55602" lon="6.63158">
        <ele>867.2</ele>
        <time>2020-07-19T11:53:50Z</time>
      </trkpt>
      <trkpt lat="45.55599" lon="6.63146">
        <ele>867.6</ele>
        <time>2020-07-19T11:53:54Z</time>
      </trkpt>
      <trkpt lat="45.55596" lon="6.63134">
        <ele>867.8</ele>
        <time>2020-07-19T11:53:58Z</time>
      </trkpt>
      <trkpt lat="45.55593" lon="6.63123">
        <ele>868.4</ele>
        <time>2020-07-19T11:54:02Z</time>
      </trkpt>
      <trkpt lat="45.5559" lon="6.63111">
        <ele>868.8</ele>
        <time>2020-07-19T11:54:06Z</time>
      </trkpt>
      <trkpt lat="45.55587" lon="6.63099">
        <ele>870</ele>
        <time>2020-07-19T11:54:10Z</time>
      </trkpt>
      <trkpt lat="45.55583" lon="6.63088">
        <ele>869.8</ele>
        <time>2020-07-19T11:54:14Z</time>
      </trkpt>
      <trkpt lat="45.55578" lon="6.63078">
        <ele>869.8</ele>
        <time>2020-07-19T11:54:18Z</time>
      </trkpt>
      <trkpt lat="45.55573" lon="6.63068">
        <ele>870</ele>
        <time>2020-07-19T11:54:22Z</time>
      </trkpt>
      <trkpt lat="45.55567" lon="6.63059">
        <ele>870.4</ele>
        <time>2020-07-19T11:54:26Z</time>
      </trkpt>
      <trkpt lat="45.5556" lon="6.63051">
        <ele>872</ele>
        <time>2020-07-19T11:54:30Z</time>
      </trkpt>
      <trkpt lat="45.55554" lon="6.63043">
        <ele>872.6</ele>
        <time>2020-07-19T11:54:34Z</time>
      </trkpt>
      <trkpt lat="45.55555" lon="6.63031">
        <ele>873.2</ele>
        <time>2020-07-19T11:54:38Z</time>
      </trkpt>
      <trkpt lat="45.55562" lon="6.6303">
        <ele>874</ele>
        <time>2020-07-19T11:54:42Z</time>
      </trkpt>
      <trkpt lat="45.5557" lon="6.63034">
        <ele>874</ele>
        <time>2020-07-19T11:54:46Z</time>
      </trkpt>
      <trkpt lat="45.55576" lon="6.6304">
        <ele>874.8</ele>
        <time>2020-07-19T11:54:50Z</time>
      </trkpt>
      <trkpt lat="45.55583" lon="6.63045">
        <ele>875</ele>
        <time>2020-07-19T11:54:54Z</time>
      </trkpt>
      <trkpt lat="45.55589" lon="6.6305">
        <ele>875.8</ele>
        <time>2020-07-19T11:54:58Z</time>
      </trkpt>
      <trkpt lat="45.55596" lon="6.63055">
        <ele>876.4</ele>
        <time>2020-07-19T11:55:02Z</time>
      </trkpt>
      <trkpt lat="45.55603" lon="6.63061">
        <ele>876.4</ele>
        <time>2020-07-19T11:55:06Z</time>
      </trkpt>
      <trkpt lat="45.55609" lon="6.63067">
        <ele>877.8</ele>
        <time>2020-07-19T11:55:10Z</time>
      </trkpt>
      <trkpt lat="45.55615" lon="6.63073">
        <ele>878</ele>
        <time>2020-07-19T11:55:14Z</time>
      </trkpt>
      <trkpt lat="45.55621" lon="6.6308">
        <ele>878.4</ele>
        <time>2020-07-19T11:55:18Z</time>
      </trkpt>
      <trkpt lat="45.55627" lon="6.63088">
        <ele>879.2</ele>
        <time>2020-07-19T11:55:22Z</time>
      </trkpt>
      <trkpt lat="45.55632" lon="6.63097">
        <ele>879.8</ele>
        <time>2020-07-19T11:55:26Z</time>
      </trkpt>
      <trkpt lat="45.55637" lon="6.63105">
        <ele>880</ele>
        <time>2020-07-19T11:55:30Z</time>
      </trkpt>
      <trkpt lat="45.55642" lon="6.63114">
        <ele>881</ele>
        <time>2020-07-19T11:55:34Z</time>
      </trkpt>
      <trkpt lat="45.55647" lon="6.63121">
        <ele>881.6</ele>
        <time>2020-07-19T11:55:38Z</time>
      </trkpt>
      <trkpt lat="45.55652" lon="6.6313">
        <ele>882.4</ele>
        <time>2020-07-19T11:55:42Z</time>
      </trkpt>
      <trkpt lat="45.55659" lon="6.63138">
        <ele>882.8</ele>
        <time>2020-07-19T11:55:46Z</time>
      </trkpt>
      <trkpt lat="45.55665" lon="6.63145">
        <ele>883.4</ele>
        <time>2020-07-19T11:55:50Z</time>
      </trkpt>
      <trkpt lat="45.55672" lon="6.63152">
        <ele>883.8</ele>
        <time>2020-07-19T11:55:54Z</time>
      </trkpt>
      <trkpt lat="45.55678" lon="6.63158">
        <ele>884.4</ele>
        <time>2020-07-19T11:55:58Z</time>
      </trkpt>
      <trkpt lat="45.55683" lon="6.63165">
        <ele>885.2</ele>
        <time>2020-07-19T11:56:02Z</time>
      </trkpt>
      <trkpt lat="45.5569" lon="6.63172">
        <ele>885.6</ele>
        <time>2020-07-19T11:56:06Z</time>
      </trkpt>
      <trkpt lat="45.55697" lon="6.6318">
        <ele>886.6</ele>
        <time>2020-07-19T11:56:10Z</time>
      </trkpt>
      <trkpt lat="45.55702" lon="6.63188">
        <ele>887.2</ele>
        <time>2020-07-19T11:56:14Z</time>
      </trkpt>
      <trkpt lat="45.55709" lon="6.63195">
        <ele>887.4</ele>
        <time>2020-07-19T11:56:18Z</time>
      </trkpt>
      <trkpt lat="45.55714" lon="6.63202">
        <ele>888.2</ele>
        <time>2020-07-19T11:56:22Z</time>
      </trkpt>
      <trkpt lat="45.55721" lon="6.6321">
        <ele>889</ele>
        <time>2020-07-19T11:56:26Z</time>
      </trkpt>
      <trkpt lat="45.55726" lon="6.63217">
        <ele>889.4</ele>
        <time>2020-07-19T11:56:30Z</time>
      </trkpt>
      <trkpt lat="45.55729" lon="6.63225">
        <ele>889.8</ele>
        <time>2020-07-19T11:56:34Z</time>
      </trkpt>
      <trkpt lat="45.55733" lon="6.63234">
        <ele>890</ele>
        <time>2020-07-19T11:56:38Z</time>
      </trkpt>
      <trkpt lat="45.55737" lon="6.63244">
        <ele>890.6</ele>
        <time>2020-07-19T11:56:42Z</time>
      </trkpt>
      <trkpt lat="45.5574" lon="6.63255">
        <ele>891.2</ele>
        <time>2020-07-19T11:56:46Z</time>
      </trkpt>
      <trkpt lat="45.55743" lon="6.63265">
        <ele>891</ele>
        <time>2020-07-19T11:56:50Z</time>
      </trkpt>
      <trkpt lat="45.55746" lon="6.63275">
        <ele>892.2</ele>
        <time>2020-07-19T11:56:54Z</time>
      </trkpt>
      <trkpt lat="45.5575" lon="6.63284">
        <ele>893.2</ele>
        <time>2020-07-19T11:56:58Z</time>
      </trkpt>
      <trkpt lat="45.55756" lon="6.63294">
        <ele>893</ele>
        <time>2020-07-19T11:57:02Z</time>
      </trkpt>
      <trkpt lat="45.5576" lon="6.63305">
        <ele>894</ele>
        <time>2020-07-19T11:57:06Z</time>
      </trkpt>
      <trkpt lat="45.55764" lon="6.63317">
        <ele>894.6</ele>
        <time>2020-07-19T11:57:10Z</time>
      </trkpt>
      <trkpt lat="45.55768" lon="6.63328">
        <ele>894.4</ele>
        <time>2020-07-19T11:57:14Z</time>
      </trkpt>
      <trkpt lat="45.55771" lon="6.6334">
        <ele>895.6</ele>
        <time>2020-07-19T11:57:18Z</time>
      </trkpt>
      <trkpt lat="45.55773" lon="6.63351">
        <ele>895.8</ele>
        <time>2020-07-19T11:57:22Z</time>
      </trkpt>
      <trkpt lat="45.55774" lon="6.63363">
        <ele>896.8</ele>
        <time>2020-07-19T11:57:26Z</time>
      </trkpt>
      <trkpt lat="45.55775" lon="6.63375">
        <ele>897.2</ele>
        <time>2020-07-19T11:57:30Z</time>
      </trkpt>
      <trkpt lat="45.55776" lon="6.63386">
        <ele>897.4</ele>
        <time>2020-07-19T11:57:34Z</time>
      </trkpt>
      <trkpt lat="45.55777" lon="6.63398">
        <ele>898</ele>
        <time>2020-07-19T11:57:38Z</time>
      </trkpt>
      <trkpt lat="45.55778" lon="6.63409">
        <ele>898.6</ele>
        <time>2020-07-19T11:57:42Z</time>
      </trkpt>
      <trkpt lat="45.55779" lon="6.63421">
        <ele>898.6</ele>
        <time>2020-07-19T11:57:46Z</time>
      </trkpt>
      <trkpt lat="45.5578" lon="6.63432">
        <ele>900.6</ele>
        <time>2020-07-19T11:57:50Z</time>
      </trkpt>
      <trkpt lat="45.55782" lon="6.63443">
        <ele>900.6</ele>
        <time>2020-07-19T11:57:54Z</time>
      </trkpt>
      <trkpt lat="45.55783" lon="6.63454">
        <ele>900.8</ele>
        <time>2020-07-19T11:57:58Z</time>
      </trkpt>
      <trkpt lat="45.55786" lon="6.63465">
        <ele>901.8</ele>
        <time>2020-07-19T11:58:02Z</time>
      </trkpt>
      <trkpt lat="45.55789" lon="6.63476">
        <ele>902.4</ele>
        <time>2020-07-19T11:58:06Z</time>
      </trkpt>
      <trkpt lat="45.55791" lon="6.63488">
        <ele>903.2</ele>
        <time>2020-07-19T11:58:10Z</time>
      </trkpt>
      <trkpt lat="45.55794" lon="6.63498">
        <ele>903.2</ele>
        <time>2020-07-19T11:58:14Z</time>
      </trkpt>
      <trkpt lat="45.55798" lon="6.63508">
        <ele>903.6</ele>
        <time>2020-07-19T11:58:18Z</time>
      </trkpt>
      <trkpt lat="45.55801" lon="6.63519">
        <ele>904</ele>
        <time>2020-07-19T11:58:22Z</time>
      </trkpt>
      <trkpt lat="45.55804" lon="6.63528">
        <ele>905.2</ele>
        <time>2020-07-19T11:58:26Z</time>
      </trkpt>
      <trkpt lat="45.55809" lon="6.63537">
        <ele>906.4</ele>
        <time>2020-07-19T11:58:30Z</time>
      </trkpt>
      <trkpt lat="45.55816" lon="6.63545">
        <ele>906.6</ele>
        <time>2020-07-19T11:58:34Z</time>
      </trkpt>
      <trkpt lat="45.55821" lon="6.63552">
        <ele>907.6</ele>
        <time>2020-07-19T11:58:38Z</time>
      </trkpt>
      <trkpt lat="45.55829" lon="6.63558">
        <ele>908</ele>
        <time>2020-07-19T11:58:42Z</time>
      </trkpt>
      <trkpt lat="45.55836" lon="6.63563">
        <ele>909</ele>
        <time>2020-07-19T11:58:46Z</time>
      </trkpt>
      <trkpt lat="45.55842" lon="6.63568">
        <ele>909.2</ele>
        <time>2020-07-19T11:58:50Z</time>
      </trkpt>
      <trkpt lat="45.5585" lon="6.63572">
        <ele>909.6</ele>
        <time>2020-07-19T11:58:54Z</time>
      </trkpt>
      <trkpt lat="45.55857" lon="6.63576">
        <ele>909.8</ele>
        <time>2020-07-19T11:58:58Z</time>
      </trkpt>
      <trkpt lat="45.55865" lon="6.6358">
        <ele>911</ele>
        <time>2020-07-19T11:59:02Z</time>
      </trkpt>
      <trkpt lat="45.55872" lon="6.63583">
        <ele>912</ele>
        <time>2020-07-19T11:59:06Z</time>
      </trkpt>
      <trkpt lat="45.55879" lon="6.63588">
        <ele>912.4</ele>
        <time>2020-07-19T11:59:10Z</time>
      </trkpt>
      <trkpt lat="45.55886" lon="6.63593">
        <ele>912.8</ele>
        <time>2020-07-19T11:59:14Z</time>
      </trkpt>
      <trkpt lat="45.55893" lon="6.63598">
        <ele>913.4</ele>
        <time>2020-07-19T11:59:18Z</time>
      </trkpt>
      <trkpt lat="45.55898" lon="6.63605">
        <ele>913.6</ele>
        <time>2020-07-19T11:59:22Z</time>
      </trkpt>
      <trkpt lat="45.55905" lon="6.63612">
        <ele>914.2</ele>
        <time>2020-07-19T11:59:26Z</time>
      </trkpt>
      <trkpt lat="45.5591" lon="6.63619">
        <ele>914.8</ele>
        <time>2020-07-19T11:59:30Z</time>
      </trkpt>
      <trkpt lat="45.55916" lon="6.63628">
        <ele>915.4</ele>
        <time>2020-07-19T11:59:34Z</time>
      </trkpt>
      <trkpt lat="45.55921" lon="6.63637">
        <ele>915.4</ele>
        <time>2020-07-19T11:59:38Z</time>
      </trkpt>
      <trkpt lat="45.55926" lon="6.63645">
        <ele>916.4</ele>
        <time>2020-07-19T11:59:42Z</time>
      </trkpt>
      <trkpt lat="45.55931" lon="6.63654">
        <ele>916.4</ele>
        <time>2020-07-19T11:59:46Z</time>
      </trkpt>
      <trkpt lat="45.55935" lon="6.63664">
        <ele>917</ele>
        <time>2020-07-19T11:59:50Z</time>
      </trkpt>
      <trkpt lat="45.55938" lon="6.63674">
        <ele>917.6</ele>
        <time>2020-07-19T11:59:54Z</time>
      </trkpt>
      <trkpt lat="45.55941" lon="6.63684">
        <ele>918.2</ele>
        <time>2020-07-19T11:59:58Z</time>
      </trkpt>
      <trkpt lat="45.55945" lon="6.63694">
        <ele>918.8</ele>
        <time>2020-07-19T12:00:02Z</time>
      </trkpt>
      <trkpt lat="45.55948" lon="6.63705">
        <ele>919.6</ele>
        <time>2020-07-19T12:00:06Z</time>
      </trkpt>
      <trkpt lat="45.5595" lon="6.63715">
        <ele>920.8</ele>
        <time>2020-07-19T12:00:10Z</time>
      </trkpt>
      <trkpt lat="45.55952" lon="6.63725">
        <ele>921</ele>
        <time>2020-07-19T12:00:14Z</time>
      </trkpt>
      <trkpt lat="45.55954" lon="6.63736">
        <ele>921.8</ele>
        <time>2020-07-19T12:00:18Z</time>
      </trkpt>
      <trkpt lat="45.55955" lon="6.63747">
        <ele>922.2</ele>
        <time>2020-07-19T12:00:22Z</time>
      </trkpt>
      <trkpt lat="45.55955" lon="6.63758">
        <ele>922.8</ele>
        <time>2020-07-19T12:00:26Z</time>
      </trkpt>
      <trkpt lat="45.55956" lon="6.63769">
        <ele>923.8</ele>
        <time>2020-07-19T12:00:30Z</time>
      </trkpt>
      <trkpt lat="45.55957" lon="6.6378">
        <ele>924.2</ele>
        <time>2020-07-19T12:00:34Z</time>
      </trkpt>
      <trkpt lat="45.55958" lon="6.63792">
        <ele>925.4</ele>
        <time>2020-07-19T12:00:38Z</time>
      </trkpt>
      <trkpt lat="45.5596" lon="6.63803">
        <ele>925.4</ele>
        <time>2020-07-19T12:00:42Z</time>
      </trkpt>
      <trkpt lat="45.55961" lon="6.63814">
        <ele>926.4</ele>
        <time>2020-07-19T12:00:46Z</time>
      </trkpt>
      <trkpt lat="45.55962" lon="6.63825">
        <ele>927</ele>
        <time>2020-07-19T12:00:50Z</time>
      </trkpt>
      <trkpt lat="45.55963" lon="6.63837">
        <ele>927.4</ele>
        <time>2020-07-19T12:00:54Z</time>
      </trkpt>
      <trkpt lat="45.55966" lon="6.63848">
        <ele>928</ele>
        <time>2020-07-19T12:00:58Z</time>
      </trkpt>
      <trkpt lat="45.55967" lon="6.63858">
        <ele>928.8</ele>
        <time>2020-07-19T12:01:02Z</time>
      </trkpt>
      <trkpt lat="45.5597" lon="6.63869">
        <ele>929.8</ele>
        <time>2020-07-19T12:01:06Z</time>
      </trkpt>
      <trkpt lat="45.55972" lon="6.63879">
        <ele>930</ele>
        <time>2020-07-19T12:01:10Z</time>
      </trkpt>
      <trkpt lat="45.55976" lon="6.63889">
        <ele>931</ele>
        <time>2020-07-19T12:01:14Z</time>
      </trkpt>
      <trkpt lat="45.5598" lon="6.63898">
        <ele>931.4</ele>
        <time>2020-07-19T12:01:18Z</time>
      </trkpt>
      <trkpt lat="45.55985" lon="6.63907">
        <ele>932.2</ele>
        <time>2020-07-19T12:01:22Z</time>
      </trkpt>
      <trkpt lat="45.55989" lon="6.63915">
        <ele>932.6</ele>
        <time>2020-07-19T12:01:26Z</time>
      </trkpt>
      <trkpt lat="45.55994" lon="6.63924">
        <ele>933.2</ele>
        <time>2020-07-19T12:01:30Z</time>
      </trkpt>
      <trkpt lat="45.55999" lon="6.63931">
        <ele>934.4</ele>
        <time>2020-07-19T12:01:34Z</time>
      </trkpt>
      <trkpt lat="45.56002" lon="6.63939">
        <ele>934.6</ele>
        <time>2020-07-19T12:01:38Z</time>
      </trkpt>
      <trkpt lat="45.56004" lon="6.63948">
        <ele>935.4</ele>
        <time>2020-07-19T12:01:42Z</time>
      </trkpt>
      <trkpt lat="45.56005" lon="6.63958">
        <ele>935.8</ele>
        <time>2020-07-19T12:01:46Z</time>
      </trkpt>
      <trkpt lat="45.56006" lon="6.63968">
        <ele>936.2</ele>
        <time>2020-07-19T12:01:50Z</time>
      </trkpt>
      <trkpt lat="45.56007" lon="6.6398">
        <ele>936.6</ele>
        <time>2020-07-19T12:01:54Z</time>
      </trkpt>
      <trkpt lat="45.56007" lon="6.63991">
        <ele>937.4</ele>
        <time>2020-07-19T12:01:58Z</time>
      </trkpt>
      <trkpt lat="45.56007" lon="6.64001">
        <ele>937.8</ele>
        <time>2020-07-19T12:02:02Z</time>
      </trkpt>
      <trkpt lat="45.56007" lon="6.64012">
        <ele>938.6</ele>
        <time>2020-07-19T12:02:06Z</time>
      </trkpt>
      <trkpt lat="45.56006" lon="6.64023">
        <ele>938.6</ele>
        <time>2020-07-19T12:02:10Z</time>
      </trkpt>
      <trkpt lat="45.56005" lon="6.64033">
        <ele>939.2</ele>
        <time>2020-07-19T12:02:14Z</time>
      </trkpt>
      <trkpt lat="45.56005" lon="6.64044">
        <ele>940</ele>
        <time>2020-07-19T12:02:18Z</time>
      </trkpt>
      <trkpt lat="45.56007" lon="6.64053">
        <ele>940.8</ele>
        <time>2020-07-19T12:02:22Z</time>
      </trkpt>
      <trkpt lat="45.56012" lon="6.64061">
        <ele>941.6</ele>
        <time>2020-07-19T12:02:26Z</time>
      </trkpt>
      <trkpt lat="45.56018" lon="6.64064">
        <ele>941</ele>
        <time>2020-07-19T12:02:30Z</time>
      </trkpt>
      <trkpt lat="45.56023" lon="6.64063">
        <ele>941</ele>
        <time>2020-07-19T12:02:34Z</time>
      </trkpt>
      <trkpt lat="45.56028" lon="6.64044">
        <ele>941</ele>
        <time>2020-07-19T12:03:05Z</time>
      </trkpt>
      <trkpt lat="45.56027" lon="6.64035">
        <ele>941.4</ele>
        <time>2020-07-19T12:03:09Z</time>
      </trkpt>
      <trkpt lat="45.56024" lon="6.64029">
        <ele>942.6</ele>
        <time>2020-07-19T12:03:13Z</time>
      </trkpt>
      <trkpt lat="45.56025" lon="6.64014">
        <ele>942.6</ele>
        <time>2020-07-19T12:04:13Z</time>
      </trkpt>
      <trkpt lat="45.56027" lon="6.64004">
        <ele>943</ele>
        <time>2020-07-19T12:04:17Z</time>
      </trkpt>
      <trkpt lat="45.56029" lon="6.63994">
        <ele>944.6</ele>
        <time>2020-07-19T12:04:21Z</time>
      </trkpt>
      <trkpt lat="45.56032" lon="6.63984">
        <ele>945.2</ele>
        <time>2020-07-19T12:04:25Z</time>
      </trkpt>
      <trkpt lat="45.56036" lon="6.63976">
        <ele>945.6</ele>
        <time>2020-07-19T12:04:29Z</time>
      </trkpt>
      <trkpt lat="45.56039" lon="6.63967">
        <ele>945.8</ele>
        <time>2020-07-19T12:04:33Z</time>
      </trkpt>
      <trkpt lat="45.56042" lon="6.63957">
        <ele>946.6</ele>
        <time>2020-07-19T12:04:37Z</time>
      </trkpt>
      <trkpt lat="45.56042" lon="6.63947">
        <ele>946.8</ele>
        <time>2020-07-19T12:04:41Z</time>
      </trkpt>
      <trkpt lat="45.56042" lon="6.63937">
        <ele>947.6</ele>
        <time>2020-07-19T12:04:45Z</time>
      </trkpt>
      <trkpt lat="45.56041" lon="6.63928">
        <ele>948</ele>
        <time>2020-07-19T12:04:49Z</time>
      </trkpt>
      <trkpt lat="45.56041" lon="6.63918">
        <ele>948.4</ele>
        <time>2020-07-19T12:04:53Z</time>
      </trkpt>
      <trkpt lat="45.56041" lon="6.63908">
        <ele>949.2</ele>
        <time>2020-07-19T12:04:57Z</time>
      </trkpt>
      <trkpt lat="45.56042" lon="6.63898">
        <ele>949.8</ele>
        <time>2020-07-19T12:05:01Z</time>
      </trkpt>
      <trkpt lat="45.56043" lon="6.63888">
        <ele>950.4</ele>
        <time>2020-07-19T12:05:05Z</time>
      </trkpt>
      <trkpt lat="45.56044" lon="6.63879">
        <ele>951.6</ele>
        <time>2020-07-19T12:05:09Z</time>
      </trkpt>
      <trkpt lat="45.56045" lon="6.63869">
        <ele>952.6</ele>
        <time>2020-07-19T12:05:13Z</time>
      </trkpt>
      <trkpt lat="45.56046" lon="6.6386">
        <ele>952.6</ele>
        <time>2020-07-19T12:05:17Z</time>
      </trkpt>
      <trkpt lat="45.56048" lon="6.6385">
        <ele>953.2</ele>
        <time>2020-07-19T12:05:21Z</time>
      </trkpt>
      <trkpt lat="45.56049" lon="6.63841">
        <ele>954</ele>
        <time>2020-07-19T12:05:25Z</time>
      </trkpt>
      <trkpt lat="45.56049" lon="6.63831">
        <ele>954.8</ele>
        <time>2020-07-19T12:05:29Z</time>
      </trkpt>
      <trkpt lat="45.56049" lon="6.6382">
        <ele>955.2</ele>
        <time>2020-07-19T12:05:33Z</time>
      </trkpt>
      <trkpt lat="45.56049" lon="6.63809">
        <ele>955.6</ele>
        <time>2020-07-19T12:05:37Z</time>
      </trkpt>
      <trkpt lat="45.56049" lon="6.63799">
        <ele>956.2</ele>
        <time>2020-07-19T12:05:41Z</time>
      </trkpt>
      <trkpt lat="45.56048" lon="6.63788">
        <ele>956.8</ele>
        <time>2020-07-19T12:05:45Z</time>
      </trkpt>
      <trkpt lat="45.56048" lon="6.63778">
        <ele>957.4</ele>
        <time>2020-07-19T12:05:49Z</time>
      </trkpt>
      <trkpt lat="45.56047" lon="6.63768">
        <ele>957.6</ele>
        <time>2020-07-19T12:05:53Z</time>
      </trkpt>
      <trkpt lat="45.56047" lon="6.63758">
        <ele>958.4</ele>
        <time>2020-07-19T12:05:57Z</time>
      </trkpt>
      <trkpt lat="45.56046" lon="6.63747">
        <ele>958.4</ele>
        <time>2020-07-19T12:06:01Z</time>
      </trkpt>
      <trkpt lat="45.56045" lon="6.63737">
        <ele>958.8</ele>
        <time>2020-07-19T12:06:05Z</time>
      </trkpt>
      <trkpt lat="45.56043" lon="6.63726">
        <ele>960.6</ele>
        <time>2020-07-19T12:06:09Z</time>
      </trkpt>
      <trkpt lat="45.56041" lon="6.63715">
        <ele>960.8</ele>
        <time>2020-07-19T12:06:13Z</time>
      </trkpt>
      <trkpt lat="45.56038" lon="6.63705">
        <ele>961.6</ele>
        <time>2020-07-19T12:06:17Z</time>
      </trkpt>
      <trkpt lat="45.56035" lon="6.63696">
        <ele>962.2</ele>
        <time>2020-07-19T12:06:21Z</time>
      </trkpt>
      <trkpt lat="45.56031" lon="6.63688">
        <ele>963.2</ele>
        <time>2020-07-19T12:06:25Z</time>
      </trkpt>
      <trkpt lat="45.56027" lon="6.63678">
        <ele>963.2</ele>
        <time>2020-07-19T12:06:29Z</time>
      </trkpt>
      <trkpt lat="45.56023" lon="6.63669">
        <ele>963.6</ele>
        <time>2020-07-19T12:06:33Z</time>
      </trkpt>
      <trkpt lat="45.56019" lon="6.63659">
        <ele>964.2</ele>
        <time>2020-07-19T12:06:37Z</time>
      </trkpt>
      <trkpt lat="45.56014" lon="6.6365">
        <ele>965</ele>
        <time>2020-07-19T12:06:41Z</time>
      </trkpt>
      <trkpt lat="45.5601" lon="6.63641">
        <ele>966</ele>
        <time>2020-07-19T12:06:45Z</time>
      </trkpt>
      <trkpt lat="45.56006" lon="6.63632">
        <ele>966.2</ele>
        <time>2020-07-19T12:06:49Z</time>
      </trkpt>
      <trkpt lat="45.56002" lon="6.63623">
        <ele>966.8</ele>
        <time>2020-07-19T12:06:53Z</time>
      </trkpt>
      <trkpt lat="45.55998" lon="6.63615">
        <ele>967.6</ele>
        <time>2020-07-19T12:06:57Z</time>
      </trkpt>
      <trkpt lat="45.55995" lon="6.63606">
        <ele>968.4</ele>
        <time>2020-07-19T12:07:01Z</time>
      </trkpt>
      <trkpt lat="45.55991" lon="6.63597">
        <ele>969</ele>
        <time>2020-07-19T12:07:05Z</time>
      </trkpt>
      <trkpt lat="45.55987" lon="6.63588">
        <ele>969.8</ele>
        <time>2020-07-19T12:07:09Z</time>
      </trkpt>
      <trkpt lat="45.55983" lon="6.63579">
        <ele>970.4</ele>
        <time>2020-07-19T12:07:13Z</time>
      </trkpt>
      <trkpt lat="45.5598" lon="6.63571">
        <ele>970.8</ele>
        <time>2020-07-19T12:07:17Z</time>
      </trkpt>
      <trkpt lat="45.55977" lon="6.63561">
        <ele>971.6</ele>
        <time>2020-07-19T12:07:21Z</time>
      </trkpt>
      <trkpt lat="45.55973" lon="6.63553">
        <ele>972.8</ele>
        <time>2020-07-19T12:07:25Z</time>
      </trkpt>
      <trkpt lat="45.55971" lon="6.63543">
        <ele>973.2</ele>
        <time>2020-07-19T12:07:29Z</time>
      </trkpt>
      <trkpt lat="45.55969" lon="6.63533">
        <ele>974</ele>
        <time>2020-07-19T12:07:33Z</time>
      </trkpt>
      <trkpt lat="45.55967" lon="6.63522">
        <ele>973.8</ele>
        <time>2020-07-19T12:07:37Z</time>
      </trkpt>
      <trkpt lat="45.55965" lon="6.63512">
        <ele>974</ele>
        <time>2020-07-19T12:07:41Z</time>
      </trkpt>
      <trkpt lat="45.55961" lon="6.63502">
        <ele>975</ele>
        <time>2020-07-19T12:07:45Z</time>
      </trkpt>
      <trkpt lat="45.55956" lon="6.63494">
        <ele>975.2</ele>
        <time>2020-07-19T12:07:49Z</time>
      </trkpt>
      <trkpt lat="45.55951" lon="6.63486">
        <ele>976.6</ele>
        <time>2020-07-19T12:07:53Z</time>
      </trkpt>
      <trkpt lat="45.55945" lon="6.63479">
        <ele>977.2</ele>
        <time>2020-07-19T12:07:57Z</time>
      </trkpt>
      <trkpt lat="45.5594" lon="6.63471">
        <ele>977.8</ele>
        <time>2020-07-19T12:08:01Z</time>
      </trkpt>
      <trkpt lat="45.55935" lon="6.63464">
        <ele>978.8</ele>
        <time>2020-07-19T12:08:05Z</time>
      </trkpt>
      <trkpt lat="45.55929" lon="6.63456">
        <ele>978.4</ele>
        <time>2020-07-19T12:08:09Z</time>
      </trkpt>
      <trkpt lat="45.55924" lon="6.63448">
        <ele>979.6</ele>
        <time>2020-07-19T12:08:13Z</time>
      </trkpt>
      <trkpt lat="45.5592" lon="6.6344">
        <ele>979.2</ele>
        <time>2020-07-19T12:08:17Z</time>
      </trkpt>
      <trkpt lat="45.55916" lon="6.63432">
        <ele>979.8</ele>
        <time>2020-07-19T12:08:21Z</time>
      </trkpt>
      <trkpt lat="45.55911" lon="6.63424">
        <ele>981.4</ele>
        <time>2020-07-19T12:08:25Z</time>
      </trkpt>
      <trkpt lat="45.55908" lon="6.63414">
        <ele>982</ele>
        <time>2020-07-19T12:08:29Z</time>
      </trkpt>
      <trkpt lat="45.55904" lon="6.63405">
        <ele>982</ele>
        <time>2020-07-19T12:08:33Z</time>
      </trkpt>
      <trkpt lat="45.55902" lon="6.63395">
        <ele>982.6</ele>
        <time>2020-07-19T12:08:37Z</time>
      </trkpt>
      <trkpt lat="45.559" lon="6.63385">
        <ele>983.8</ele>
        <time>2020-07-19T12:08:41Z</time>
      </trkpt>
      <trkpt lat="45.55898" lon="6.63374">
        <ele>984.4</ele>
        <time>2020-07-19T12:08:45Z</time>
      </trkpt>
      <trkpt lat="45.55896" lon="6.63365">
        <ele>984.2</ele>
        <time>2020-07-19T12:08:49Z</time>
      </trkpt>
      <trkpt lat="45.55894" lon="6.63355">
        <ele>984.8</ele>
        <time>2020-07-19T12:08:53Z</time>
      </trkpt>
      <trkpt lat="45.55893" lon="6.63345">
        <ele>984.6</ele>
        <time>2020-07-19T12:08:57Z</time>
      </trkpt>
      <trkpt lat="45.55891" lon="6.63335">
        <ele>986.2</ele>
        <time>2020-07-19T12:09:01Z</time>
      </trkpt>
      <trkpt lat="45.55889" lon="6.63325">
        <ele>986</ele>
        <time>2020-07-19T12:09:05Z</time>
      </trkpt>
      <trkpt lat="45.55886" lon="6.63316">
        <ele>988.2</ele>
        <time>2020-07-19T12:09:09Z</time>
      </trkpt>
      <trkpt lat="45.55885" lon="6.63306">
        <ele>988.8</ele>
        <time>2020-07-19T12:09:13Z</time>
      </trkpt>
      <trkpt lat="45.55882" lon="6.63296">
        <ele>988.4</ele>
        <time>2020-07-19T12:09:17Z</time>
      </trkpt>
      <trkpt lat="45.5588" lon="6.63286">
        <ele>988.6</ele>
        <time>2020-07-19T12:09:21Z</time>
      </trkpt>
      <trkpt lat="45.55878" lon="6.63276">
        <ele>989.8</ele>
        <time>2020-07-19T12:09:25Z</time>
      </trkpt>
      <trkpt lat="45.55875" lon="6.63266">
        <ele>990.2</ele>
        <time>2020-07-19T12:09:29Z</time>
      </trkpt>
      <trkpt lat="45.55872" lon="6.63256">
        <ele>991</ele>
        <time>2020-07-19T12:09:33Z</time>
      </trkpt>
      <trkpt lat="45.5587" lon="6.63246">
        <ele>991.2</ele>
        <time>2020-07-19T12:09:37Z</time>
      </trkpt>
      <trkpt lat="45.55869" lon="6.63236">
        <ele>991.2</ele>
        <time>2020-07-19T12:09:41Z</time>
      </trkpt>
      <trkpt lat="45.55867" lon="6.63225">
        <ele>992</ele>
        <time>2020-07-19T12:09:45Z</time>
      </trkpt>
      <trkpt lat="45.55865" lon="6.63215">
        <ele>992.4</ele>
        <time>2020-07-19T12:09:49Z</time>
      </trkpt>
      <trkpt lat="45.55864" lon="6.63205">
        <ele>992.8</ele>
        <time>2020-07-19T12:09:53Z</time>
      </trkpt>
      <trkpt lat="45.55864" lon="6.63195">
        <ele>993.8</ele>
        <time>2020-07-19T12:09:57Z</time>
      </trkpt>
      <trkpt lat="45.55864" lon="6.63185">
        <ele>994.2</ele>
        <time>2020-07-19T12:10:01Z</time>
      </trkpt>
      <trkpt lat="45.55866" lon="6.63175">
        <ele>994.2</ele>
        <time>2020-07-19T12:10:05Z</time>
      </trkpt>
      <trkpt lat="45.55868" lon="6.63165">
        <ele>995</ele>
        <time>2020-07-19T12:10:09Z</time>
      </trkpt>
      <trkpt lat="45.55871" lon="6.63156">
        <ele>996.2</ele>
        <time>2020-07-19T12:10:13Z</time>
      </trkpt>
      <trkpt lat="45.55875" lon="6.63146">
        <ele>996.6</ele>
        <time>2020-07-19T12:10:17Z</time>
      </trkpt>
      <trkpt lat="45.55879" lon="6.63137">
        <ele>997.6</ele>
        <time>2020-07-19T12:10:21Z</time>
      </trkpt>
      <trkpt lat="45.55882" lon="6.63127">
        <ele>998</ele>
        <time>2020-07-19T12:10:25Z</time>
      </trkpt>
      <trkpt lat="45.55884" lon="6.63117">
        <ele>998.8</ele>
        <time>2020-07-19T12:10:29Z</time>
      </trkpt>
      <trkpt lat="45.55887" lon="6.63107">
        <ele>999</ele>
        <time>2020-07-19T12:10:33Z</time>
      </trkpt>
      <trkpt lat="45.5589" lon="6.63097">
        <ele>1000.2</ele>
        <time>2020-07-19T12:10:37Z</time>
      </trkpt>
      <trkpt lat="45.55892" lon="6.63087">
        <ele>1000.6</ele>
        <time>2020-07-19T12:10:41Z</time>
      </trkpt>
      <trkpt lat="45.55895" lon="6.63077">
        <ele>1001.6</ele>
        <time>2020-07-19T12:10:45Z</time>
      </trkpt>
      <trkpt lat="45.55897" lon="6.63067">
        <ele>1002</ele>
        <time>2020-07-19T12:10:49Z</time>
      </trkpt>
      <trkpt lat="45.55901" lon="6.63057">
        <ele>1002</ele>
        <time>2020-07-19T12:10:53Z</time>
      </trkpt>
      <trkpt lat="45.55904" lon="6.63048">
        <ele>1003.2</ele>
        <time>2020-07-19T12:10:57Z</time>
      </trkpt>
      <trkpt lat="45.55907" lon="6.63039">
        <ele>1004</ele>
        <time>2020-07-19T12:11:01Z</time>
      </trkpt>
      <trkpt lat="45.5591" lon="6.63029">
        <ele>1004.6</ele>
        <time>2020-07-19T12:11:05Z</time>
      </trkpt>
      <trkpt lat="45.55911" lon="6.63018">
        <ele>1004.8</ele>
        <time>2020-07-19T12:11:09Z</time>
      </trkpt>
      <trkpt lat="45.55911" lon="6.63007">
        <ele>1005.6</ele>
        <time>2020-07-19T12:11:13Z</time>
      </trkpt>
      <trkpt lat="45.5591" lon="6.62996">
        <ele>1006.4</ele>
        <time>2020-07-19T12:11:17Z</time>
      </trkpt>
      <trkpt lat="45.55909" lon="6.62985">
        <ele>1006.6</ele>
        <time>2020-07-19T12:11:21Z</time>
      </trkpt>
      <trkpt lat="45.55905" lon="6.62974">
        <ele>1007.2</ele>
        <time>2020-07-19T12:11:25Z</time>
      </trkpt>
      <trkpt lat="45.55901" lon="6.62965">
        <ele>1007.8</ele>
        <time>2020-07-19T12:11:29Z</time>
      </trkpt>
      <trkpt lat="45.55897" lon="6.62956">
        <ele>1007.8</ele>
        <time>2020-07-19T12:11:33Z</time>
      </trkpt>
      <trkpt lat="45.55891" lon="6.62947">
        <ele>1008.8</ele>
        <time>2020-07-19T12:11:37Z</time>
      </trkpt>
      <trkpt lat="45.55886" lon="6.6294">
        <ele>1008.8</ele>
        <time>2020-07-19T12:11:41Z</time>
      </trkpt>
      <trkpt lat="45.55881" lon="6.62932">
        <ele>1009</ele>
        <time>2020-07-19T12:11:45Z</time>
      </trkpt>
      <trkpt lat="45.55876" lon="6.62924">
        <ele>1008.6</ele>
        <time>2020-07-19T12:11:49Z</time>
      </trkpt>
      <trkpt lat="45.55871" lon="6.62916">
        <ele>1011</ele>
        <time>2020-07-19T12:11:53Z</time>
      </trkpt>
      <trkpt lat="45.55867" lon="6.62907">
        <ele>1011.4</ele>
        <time>2020-07-19T12:11:57Z</time>
      </trkpt>
      <trkpt lat="45.55862" lon="6.62898">
        <ele>1012.4</ele>
        <time>2020-07-19T12:12:01Z</time>
      </trkpt>
      <trkpt lat="45.55859" lon="6.62888">
        <ele>1013.2</ele>
        <time>2020-07-19T12:12:05Z</time>
      </trkpt>
      <trkpt lat="45.55856" lon="6.62878">
        <ele>1014.4</ele>
        <time>2020-07-19T12:12:09Z</time>
      </trkpt>
      <trkpt lat="45.55853" lon="6.62868">
        <ele>1014.4</ele>
        <time>2020-07-19T12:12:13Z</time>
      </trkpt>
      <trkpt lat="45.55851" lon="6.62858">
        <ele>1015.2</ele>
        <time>2020-07-19T12:12:17Z</time>
      </trkpt>
      <trkpt lat="45.55849" lon="6.62848">
        <ele>1016.2</ele>
        <time>2020-07-19T12:12:21Z</time>
      </trkpt>
      <trkpt lat="45.55847" lon="6.62838">
        <ele>1016.8</ele>
        <time>2020-07-19T12:12:25Z</time>
      </trkpt>
      <trkpt lat="45.55844" lon="6.62827">
        <ele>1017.2</ele>
        <time>2020-07-19T12:12:29Z</time>
      </trkpt>
      <trkpt lat="45.55839" lon="6.62818">
        <ele>1017.4</ele>
        <time>2020-07-19T12:12:33Z</time>
      </trkpt>
      <trkpt lat="45.55834" lon="6.6281">
        <ele>1017.4</ele>
        <time>2020-07-19T12:12:37Z</time>
      </trkpt>
      <trkpt lat="45.55828" lon="6.62802">
        <ele>1017.4</ele>
        <time>2020-07-19T12:12:41Z</time>
      </trkpt>
      <trkpt lat="45.55823" lon="6.62794">
        <ele>1019</ele>
        <time>2020-07-19T12:12:45Z</time>
      </trkpt>
      <trkpt lat="45.55817" lon="6.62786">
        <ele>1019.2</ele>
        <time>2020-07-19T12:12:49Z</time>
      </trkpt>
      <trkpt lat="45.55811" lon="6.62778">
        <ele>1020.4</ele>
        <time>2020-07-19T12:12:53Z</time>
      </trkpt>
      <trkpt lat="45.55807" lon="6.62771">
        <ele>1020.6</ele>
        <time>2020-07-19T12:12:57Z</time>
      </trkpt>
      <trkpt lat="45.55802" lon="6.62761">
        <ele>1020.8</ele>
        <time>2020-07-19T12:13:01Z</time>
      </trkpt>
      <trkpt lat="45.55798" lon="6.6275">
        <ele>1021.4</ele>
        <time>2020-07-19T12:13:05Z</time>
      </trkpt>
      <trkpt lat="45.55795" lon="6.62739">
        <ele>1022</ele>
        <time>2020-07-19T12:13:09Z</time>
      </trkpt>
      <trkpt lat="45.55792" lon="6.6273">
        <ele>1021.6</ele>
        <time>2020-07-19T12:13:13Z</time>
      </trkpt>
      <trkpt lat="45.55787" lon="6.6272">
        <ele>1022.6</ele>
        <time>2020-07-19T12:13:17Z</time>
      </trkpt>
      <trkpt lat="45.55783" lon="6.62711">
        <ele>1023</ele>
        <time>2020-07-19T12:13:21Z</time>
      </trkpt>
      <trkpt lat="45.55779" lon="6.62701">
        <ele>1022.8</ele>
        <time>2020-07-19T12:13:25Z</time>
      </trkpt>
      <trkpt lat="45.55775" lon="6.62691">
        <ele>1023.4</ele>
        <time>2020-07-19T12:13:29Z</time>
      </trkpt>
      <trkpt lat="45.55773" lon="6.62681">
        <ele>1022.8</ele>
        <time>2020-07-19T12:13:33Z</time>
      </trkpt>
      <trkpt lat="45.55769" lon="6.62671">
        <ele>1024.2</ele>
        <time>2020-07-19T12:13:37Z</time>
      </trkpt>
      <trkpt lat="45.55765" lon="6.62661">
        <ele>1024.8</ele>
        <time>2020-07-19T12:13:41Z</time>
      </trkpt>
      <trkpt lat="45.55763" lon="6.62649">
        <ele>1026</ele>
        <time>2020-07-19T12:13:45Z</time>
      </trkpt>
      <trkpt lat="45.55762" lon="6.62637">
        <ele>1026.6</ele>
        <time>2020-07-19T12:13:49Z</time>
      </trkpt>
      <trkpt lat="45.55764" lon="6.62628">
        <ele>1027.4</ele>
        <time>2020-07-19T12:13:53Z</time>
      </trkpt>
      <trkpt lat="45.55765" lon="6.62617">
        <ele>1026.8</ele>
        <time>2020-07-19T12:13:57Z</time>
      </trkpt>
      <trkpt lat="45.55767" lon="6.62608">
        <ele>1027.6</ele>
        <time>2020-07-19T12:14:01Z</time>
      </trkpt>
      <trkpt lat="45.55771" lon="6.62601">
        <ele>1028.2</ele>
        <time>2020-07-19T12:14:05Z</time>
      </trkpt>
      <trkpt lat="45.55773" lon="6.62589">
        <ele>1029</ele>
        <time>2020-07-19T12:14:09Z</time>
      </trkpt>
      <trkpt lat="45.55774" lon="6.62578">
        <ele>1028.8</ele>
        <time>2020-07-19T12:14:13Z</time>
      </trkpt>
      <trkpt lat="45.55774" lon="6.62568">
        <ele>1029.6</ele>
        <time>2020-07-19T12:14:17Z</time>
      </trkpt>
      <trkpt lat="45.55774" lon="6.62557">
        <ele>1030.4</ele>
        <time>2020-07-19T12:14:21Z</time>
      </trkpt>
      <trkpt lat="45.55773" lon="6.62546">
        <ele>1030.2</ele>
        <time>2020-07-19T12:14:25Z</time>
      </trkpt>
      <trkpt lat="45.55776" lon="6.62537">
        <ele>1030.6</ele>
        <time>2020-07-19T12:14:29Z</time>
      </trkpt>
      <trkpt lat="45.55773" lon="6.62527">
        <ele>1031.2</ele>
        <time>2020-07-19T12:14:33Z</time>
      </trkpt>
      <trkpt lat="45.55771" lon="6.62514">
        <ele>1031.4</ele>
        <time>2020-07-19T12:14:37Z</time>
      </trkpt>
      <trkpt lat="45.55767" lon="6.62498">
        <ele>1031.2</ele>
        <time>2020-07-19T12:14:41Z</time>
      </trkpt>
      <trkpt lat="45.55764" lon="6.62485">
        <ele>1032.2</ele>
        <time>2020-07-19T12:14:45Z</time>
      </trkpt>
      <trkpt lat="45.55761" lon="6.6247">
        <ele>1032.2</ele>
        <time>2020-07-19T12:14:49Z</time>
      </trkpt>
      <trkpt lat="45.55759" lon="6.62457">
        <ele>1032.6</ele>
        <time>2020-07-19T12:14:53Z</time>
      </trkpt>
      <trkpt lat="45.55758" lon="6.62447">
        <ele>1033.4</ele>
        <time>2020-07-19T12:14:57Z</time>
      </trkpt>
      <trkpt lat="45.5576" lon="6.62442">
        <ele>1034.2</ele>
        <time>2020-07-19T12:18:28Z</time>
      </trkpt>
      <trkpt lat="45.55765" lon="6.62448">
        <ele>1034.2</ele>
        <time>2020-07-19T12:18:32Z</time>
      </trkpt>
      <trkpt lat="45.55769" lon="6.62456">
        <ele>1034.6</ele>
        <time>2020-07-19T12:18:36Z</time>
      </trkpt>
      <trkpt lat="45.5577" lon="6.62465">
        <ele>1035.2</ele>
        <time>2020-07-19T12:18:40Z</time>
      </trkpt>
      <trkpt lat="45.55772" lon="6.62475">
        <ele>1035.2</ele>
        <time>2020-07-19T12:18:44Z</time>
      </trkpt>
      <trkpt lat="45.55773" lon="6.62485">
        <ele>1035.2</ele>
        <time>2020-07-19T12:18:48Z</time>
      </trkpt>
      <trkpt lat="45.55775" lon="6.62495">
        <ele>1036.4</ele>
        <time>2020-07-19T12:18:52Z</time>
      </trkpt>
      <trkpt lat="45.55777" lon="6.62505">
        <ele>1036.4</ele>
        <time>2020-07-19T12:18:56Z</time>
      </trkpt>
      <trkpt lat="45.5578" lon="6.62515">
        <ele>1036.6</ele>
        <time>2020-07-19T12:19:00Z</time>
      </trkpt>
      <trkpt lat="45.55784" lon="6.62522">
        <ele>1036.8</ele>
        <time>2020-07-19T12:19:04Z</time>
      </trkpt>
      <trkpt lat="45.55786" lon="6.62531">
        <ele>1037.2</ele>
        <time>2020-07-19T12:19:08Z</time>
      </trkpt>
      <trkpt lat="45.55786" lon="6.62541">
        <ele>1037.4</ele>
        <time>2020-07-19T12:19:12Z</time>
      </trkpt>
      <trkpt lat="45.55786" lon="6.62551">
        <ele>1038.6</ele>
        <time>2020-07-19T12:19:16Z</time>
      </trkpt>
      <trkpt lat="45.55787" lon="6.62563">
        <ele>1038.2</ele>
        <time>2020-07-19T12:19:20Z</time>
      </trkpt>
      <trkpt lat="45.55789" lon="6.62575">
        <ele>1040</ele>
        <time>2020-07-19T12:19:24Z</time>
      </trkpt>
      <trkpt lat="45.55792" lon="6.62587">
        <ele>1040</ele>
        <time>2020-07-19T12:19:28Z</time>
      </trkpt>
      <trkpt lat="45.55797" lon="6.62597">
        <ele>1039.6</ele>
        <time>2020-07-19T12:19:32Z</time>
      </trkpt>
      <trkpt lat="45.55801" lon="6.62607">
        <ele>1039.8</ele>
        <time>2020-07-19T12:19:36Z</time>
      </trkpt>
      <trkpt lat="45.55802" lon="6.62618">
        <ele>1040</ele>
        <time>2020-07-19T12:19:40Z</time>
      </trkpt>
      <trkpt lat="45.55807" lon="6.62628">
        <ele>1041</ele>
        <time>2020-07-19T12:19:44Z</time>
      </trkpt>
      <trkpt lat="45.55812" lon="6.62638">
        <ele>1040.8</ele>
        <time>2020-07-19T12:19:48Z</time>
      </trkpt>
      <trkpt lat="45.55816" lon="6.62646">
        <ele>1040.6</ele>
        <time>2020-07-19T12:19:52Z</time>
      </trkpt>
      <trkpt lat="45.55818" lon="6.62656">
        <ele>1040.6</ele>
        <time>2020-07-19T12:19:56Z</time>
      </trkpt>
      <trkpt lat="45.5582" lon="6.62667">
        <ele>1040.8</ele>
        <time>2020-07-19T12:20:00Z</time>
      </trkpt>
      <trkpt lat="45.55825" lon="6.6268">
        <ele>1041.4</ele>
        <time>2020-07-19T12:20:04Z</time>
      </trkpt>
      <trkpt lat="45.5583" lon="6.62692">
        <ele>1041.4</ele>
        <time>2020-07-19T12:20:08Z</time>
      </trkpt>
      <trkpt lat="45.55834" lon="6.62704">
        <ele>1041.6</ele>
        <time>2020-07-19T12:20:12Z</time>
      </trkpt>
      <trkpt lat="45.55843" lon="6.62714">
        <ele>1042</ele>
        <time>2020-07-19T12:20:16Z</time>
      </trkpt>
      <trkpt lat="45.55848" lon="6.62723">
        <ele>1042.4</ele>
        <time>2020-07-19T12:20:20Z</time>
      </trkpt>
      <trkpt lat="45.55851" lon="6.62732">
        <ele>1043</ele>
        <time>2020-07-19T12:20:24Z</time>
      </trkpt>
      <trkpt lat="45.55855" lon="6.62742">
        <ele>1043.2</ele>
        <time>2020-07-19T12:20:28Z</time>
      </trkpt>
      <trkpt lat="45.55861" lon="6.6275">
        <ele>1043.8</ele>
        <time>2020-07-19T12:20:32Z</time>
      </trkpt>
      <trkpt lat="45.55866" lon="6.62757">
        <ele>1044.6</ele>
        <time>2020-07-19T12:20:36Z</time>
      </trkpt>
      <trkpt lat="45.55871" lon="6.62763">
        <ele>1045</ele>
        <time>2020-07-19T12:20:40Z</time>
      </trkpt>
      <trkpt lat="45.55876" lon="6.62769">
        <ele>1045.8</ele>
        <time>2020-07-19T12:20:44Z</time>
      </trkpt>
      <trkpt lat="45.55881" lon="6.62775">
        <ele>1046</ele>
        <time>2020-07-19T12:20:48Z</time>
      </trkpt>
      <trkpt lat="45.55886" lon="6.62781">
        <ele>1046.8</ele>
        <time>2020-07-19T12:20:52Z</time>
      </trkpt>
      <trkpt lat="45.55891" lon="6.62787">
        <ele>1047.6</ele>
        <time>2020-07-19T12:20:56Z</time>
      </trkpt>
      <trkpt lat="45.55897" lon="6.62792">
        <ele>1048</ele>
        <time>2020-07-19T12:21:00Z</time>
      </trkpt>
      <trkpt lat="45.55903" lon="6.62795">
        <ele>1048.4</ele>
        <time>2020-07-19T12:21:04Z</time>
      </trkpt>
      <trkpt lat="45.55909" lon="6.62791">
        <ele>1048.6</ele>
        <time>2020-07-19T12:21:08Z</time>
      </trkpt>
      <trkpt lat="45.5591" lon="6.62781">
        <ele>1048.8</ele>
        <time>2020-07-19T12:21:12Z</time>
      </trkpt>
      <trkpt lat="45.55906" lon="6.62773">
        <ele>1049</ele>
        <time>2020-07-19T12:21:16Z</time>
      </trkpt>
      <trkpt lat="45.55899" lon="6.62767">
        <ele>1049.6</ele>
        <time>2020-07-19T12:21:20Z</time>
      </trkpt>
      <trkpt lat="45.55893" lon="6.6276">
        <ele>1050</ele>
        <time>2020-07-19T12:21:24Z</time>
      </trkpt>
      <trkpt lat="45.55889" lon="6.6275">
        <ele>1049.6</ele>
        <time>2020-07-19T12:21:28Z</time>
      </trkpt>
      <trkpt lat="45.55888" lon="6.6274">
        <ele>1050</ele>
        <time>2020-07-19T12:21:32Z</time>
      </trkpt>
      <trkpt lat="45.55888" lon="6.6273">
        <ele>1050.8</ele>
        <time>2020-07-19T12:21:36Z</time>
      </trkpt>
      <trkpt lat="45.55887" lon="6.62721">
        <ele>1051</ele>
        <time>2020-07-19T12:21:40Z</time>
      </trkpt>
      <trkpt lat="45.55887" lon="6.62712">
        <ele>1052</ele>
        <time>2020-07-19T12:21:44Z</time>
      </trkpt>
      <trkpt lat="45.55886" lon="6.62703">
        <ele>1052.4</ele>
        <time>2020-07-19T12:21:48Z</time>
      </trkpt>
      <trkpt lat="45.55884" lon="6.62691">
        <ele>1052.4</ele>
        <time>2020-07-19T12:21:52Z</time>
      </trkpt>
      <trkpt lat="45.55883" lon="6.6268">
        <ele>1054</ele>
        <time>2020-07-19T12:21:56Z</time>
      </trkpt>
      <trkpt lat="45.55881" lon="6.62669">
        <ele>1053.8</ele>
        <time>2020-07-19T12:22:00Z</time>
      </trkpt>
      <trkpt lat="45.55879" lon="6.62659">
        <ele>1054.8</ele>
        <time>2020-07-19T12:22:04Z</time>
      </trkpt>
      <trkpt lat="45.55876" lon="6.62649">
        <ele>1054.4</ele>
        <time>2020-07-19T12:22:08Z</time>
      </trkpt>
      <trkpt lat="45.55874" lon="6.62639">
        <ele>1055</ele>
        <time>2020-07-19T12:22:12Z</time>
      </trkpt>
      <trkpt lat="45.55872" lon="6.62628">
        <ele>1056.2</ele>
        <time>2020-07-19T12:22:16Z</time>
      </trkpt>
      <trkpt lat="45.55869" lon="6.62618">
        <ele>1056</ele>
        <time>2020-07-19T12:22:20Z</time>
      </trkpt>
      <trkpt lat="45.55867" lon="6.62608">
        <ele>1057.4</ele>
        <time>2020-07-19T12:22:24Z</time>
      </trkpt>
      <trkpt lat="45.55865" lon="6.62597">
        <ele>1057</ele>
        <time>2020-07-19T12:22:28Z</time>
      </trkpt>
      <trkpt lat="45.55863" lon="6.62586">
        <ele>1057.8</ele>
        <time>2020-07-19T12:22:32Z</time>
      </trkpt>
      <trkpt lat="45.5586" lon="6.62576">
        <ele>1058.8</ele>
        <time>2020-07-19T12:22:36Z</time>
      </trkpt>
      <trkpt lat="45.55856" lon="6.62566">
        <ele>1058.6</ele>
        <time>2020-07-19T12:22:40Z</time>
      </trkpt>
      <trkpt lat="45.55853" lon="6.62555">
        <ele>1060</ele>
        <time>2020-07-19T12:22:44Z</time>
      </trkpt>
      <trkpt lat="45.55848" lon="6.62546">
        <ele>1060.4</ele>
        <time>2020-07-19T12:22:48Z</time>
      </trkpt>
      <trkpt lat="45.55844" lon="6.62536">
        <ele>1059.8</ele>
        <time>2020-07-19T12:22:52Z</time>
      </trkpt>
      <trkpt lat="45.55839" lon="6.62526">
        <ele>1060.8</ele>
        <time>2020-07-19T12:22:56Z</time>
      </trkpt>
      <trkpt lat="45.55835" lon="6.62515">
        <ele>1061.2</ele>
        <time>2020-07-19T12:23:00Z</time>
      </trkpt>
      <trkpt lat="45.55832" lon="6.62504">
        <ele>1061.4</ele>
        <time>2020-07-19T12:23:04Z</time>
      </trkpt>
      <trkpt lat="45.55829" lon="6.62493">
        <ele>1061.4</ele>
        <time>2020-07-19T12:23:08Z</time>
      </trkpt>
      <trkpt lat="45.55826" lon="6.62482">
        <ele>1061.8</ele>
        <time>2020-07-19T12:23:12Z</time>
      </trkpt>
      <trkpt lat="45.55824" lon="6.62472">
        <ele>1062.2</ele>
        <time>2020-07-19T12:23:16Z</time>
      </trkpt>
      <trkpt lat="45.55822" lon="6.62462">
        <ele>1062.8</ele>
        <time>2020-07-19T12:23:20Z</time>
      </trkpt>
      <trkpt lat="45.55821" lon="6.62451">
        <ele>1063</ele>
        <time>2020-07-19T12:23:24Z</time>
      </trkpt>
      <trkpt lat="45.55819" lon="6.62441">
        <ele>1063.4</ele>
        <time>2020-07-19T12:23:28Z</time>
      </trkpt>
      <trkpt lat="45.55817" lon="6.6243">
        <ele>1064.6</ele>
        <time>2020-07-19T12:23:32Z</time>
      </trkpt>
      <trkpt lat="45.55816" lon="6.62419">
        <ele>1065.6</ele>
        <time>2020-07-19T12:23:36Z</time>
      </trkpt>
      <trkpt lat="45.55818" lon="6.62409">
        <ele>1065.8</ele>
        <time>2020-07-19T12:23:40Z</time>
      </trkpt>
      <trkpt lat="45.55819" lon="6.62399">
        <ele>1065.8</ele>
        <time>2020-07-19T12:23:44Z</time>
      </trkpt>
      <trkpt lat="45.55819" lon="6.6239">
        <ele>1066.6</ele>
        <time>2020-07-19T12:23:48Z</time>
      </trkpt>
      <trkpt lat="45.5582" lon="6.6238">
        <ele>1068</ele>
        <time>2020-07-19T12:23:52Z</time>
      </trkpt>
      <trkpt lat="45.55819" lon="6.62371">
        <ele>1068.4</ele>
        <time>2020-07-19T12:23:56Z</time>
      </trkpt>
      <trkpt lat="45.55819" lon="6.62361">
        <ele>1069</ele>
        <time>2020-07-19T12:24:00Z</time>
      </trkpt>
      <trkpt lat="45.55819" lon="6.62351">
        <ele>1069.2</ele>
        <time>2020-07-19T12:24:04Z</time>
      </trkpt>
      <trkpt lat="45.55819" lon="6.62342">
        <ele>1070.8</ele>
        <time>2020-07-19T12:24:08Z</time>
      </trkpt>
      <trkpt lat="45.55819" lon="6.62333">
        <ele>1070.4</ele>
        <time>2020-07-19T12:24:12Z</time>
      </trkpt>
      <trkpt lat="45.55818" lon="6.62322">
        <ele>1071.8</ele>
        <time>2020-07-19T12:24:16Z</time>
      </trkpt>
      <trkpt lat="45.55817" lon="6.62311">
        <ele>1072.4</ele>
        <time>2020-07-19T12:24:20Z</time>
      </trkpt>
      <trkpt lat="45.55816" lon="6.62302">
        <ele>1072.8</ele>
        <time>2020-07-19T12:24:24Z</time>
      </trkpt>
      <trkpt lat="45.55815" lon="6.62292">
        <ele>1073.4</ele>
        <time>2020-07-19T12:24:28Z</time>
      </trkpt>
      <trkpt lat="45.55816" lon="6.62282">
        <ele>1074</ele>
        <time>2020-07-19T12:24:32Z</time>
      </trkpt>
      <trkpt lat="45.55818" lon="6.62272">
        <ele>1074.6</ele>
        <time>2020-07-19T12:24:36Z</time>
      </trkpt>
      <trkpt lat="45.55821" lon="6.62264">
        <ele>1075.2</ele>
        <time>2020-07-19T12:24:40Z</time>
      </trkpt>
      <trkpt lat="45.55823" lon="6.62254">
        <ele>1075.6</ele>
        <time>2020-07-19T12:24:44Z</time>
      </trkpt>
      <trkpt lat="45.55827" lon="6.62245">
        <ele>1076.6</ele>
        <time>2020-07-19T12:24:48Z</time>
      </trkpt>
      <trkpt lat="45.5583" lon="6.62237">
        <ele>1076.8</ele>
        <time>2020-07-19T12:24:52Z</time>
      </trkpt>
      <trkpt lat="45.55834" lon="6.62228">
        <ele>1077.6</ele>
        <time>2020-07-19T12:24:56Z</time>
      </trkpt>
      <trkpt lat="45.55836" lon="6.6222">
        <ele>1078</ele>
        <time>2020-07-19T12:25:00Z</time>
      </trkpt>
      <trkpt lat="45.5584" lon="6.62212">
        <ele>1078.8</ele>
        <time>2020-07-19T12:25:04Z</time>
      </trkpt>
      <trkpt lat="45.55844" lon="6.62204">
        <ele>1079.2</ele>
        <time>2020-07-19T12:25:08Z</time>
      </trkpt>
      <trkpt lat="45.55848" lon="6.62197">
        <ele>1079.8</ele>
        <time>2020-07-19T12:25:12Z</time>
      </trkpt>
      <trkpt lat="45.55852" lon="6.62189">
        <ele>1080.8</ele>
        <time>2020-07-19T12:25:16Z</time>
      </trkpt>
      <trkpt lat="45.55856" lon="6.62181">
        <ele>1081.2</ele>
        <time>2020-07-19T12:25:20Z</time>
      </trkpt>
      <trkpt lat="45.55859" lon="6.62172">
        <ele>1081.8</ele>
        <time>2020-07-19T12:25:24Z</time>
      </trkpt>
      <trkpt lat="45.55861" lon="6.62163">
        <ele>1082</ele>
        <time>2020-07-19T12:25:28Z</time>
      </trkpt>
      <trkpt lat="45.55864" lon="6.62154">
        <ele>1083.2</ele>
        <time>2020-07-19T12:25:32Z</time>
      </trkpt>
      <trkpt lat="45.55867" lon="6.62144">
        <ele>1082.8</ele>
        <time>2020-07-19T12:25:36Z</time>
      </trkpt>
      <trkpt lat="45.5587" lon="6.62135">
        <ele>1083.4</ele>
        <time>2020-07-19T12:25:40Z</time>
      </trkpt>
      <trkpt lat="45.55872" lon="6.62125">
        <ele>1083.8</ele>
        <time>2020-07-19T12:25:44Z</time>
      </trkpt>
      <trkpt lat="45.55874" lon="6.62114">
        <ele>1084.2</ele>
        <time>2020-07-19T12:25:48Z</time>
      </trkpt>
      <trkpt lat="45.55876" lon="6.62104">
        <ele>1085.2</ele>
        <time>2020-07-19T12:25:52Z</time>
      </trkpt>
      <trkpt lat="45.55878" lon="6.62094">
        <ele>1085.6</ele>
        <time>2020-07-19T12:25:56Z</time>
      </trkpt>
      <trkpt lat="45.55878" lon="6.62084">
        <ele>1086.6</ele>
        <time>2020-07-19T12:26:00Z</time>
      </trkpt>
      <trkpt lat="45.55878" lon="6.62074">
        <ele>1087.6</ele>
        <time>2020-07-19T12:26:04Z</time>
      </trkpt>
      <trkpt lat="45.55878" lon="6.62064">
        <ele>1087.8</ele>
        <time>2020-07-19T12:26:08Z</time>
      </trkpt>
      <trkpt lat="45.55877" lon="6.62055">
        <ele>1089.2</ele>
        <time>2020-07-19T12:26:12Z</time>
      </trkpt>
      <trkpt lat="45.55875" lon="6.62044">
        <ele>1089.8</ele>
        <time>2020-07-19T12:26:16Z</time>
      </trkpt>
      <trkpt lat="45.55872" lon="6.62034">
        <ele>1089.8</ele>
        <time>2020-07-19T12:26:20Z</time>
      </trkpt>
      <trkpt lat="45.55869" lon="6.62025">
        <ele>1090.4</ele>
        <time>2020-07-19T12:26:24Z</time>
      </trkpt>
      <trkpt lat="45.55865" lon="6.62017">
        <ele>1091.2</ele>
        <time>2020-07-19T12:26:28Z</time>
      </trkpt>
      <trkpt lat="45.55863" lon="6.6201">
        <ele>1091.6</ele>
        <time>2020-07-19T12:26:32Z</time>
      </trkpt>
      <trkpt lat="45.55859" lon="6.62002">
        <ele>1092.2</ele>
        <time>2020-07-19T12:26:36Z</time>
      </trkpt>
      <trkpt lat="45.55855" lon="6.61993">
        <ele>1092.8</ele>
        <time>2020-07-19T12:26:40Z</time>
      </trkpt>
      <trkpt lat="45.55852" lon="6.61983">
        <ele>1093.8</ele>
        <time>2020-07-19T12:26:44Z</time>
      </trkpt>
      <trkpt lat="45.55851" lon="6.61972">
        <ele>1095.2</ele>
        <time>2020-07-19T12:26:48Z</time>
      </trkpt>
      <trkpt lat="45.55853" lon="6.61962">
        <ele>1095.6</ele>
        <time>2020-07-19T12:26:52Z</time>
      </trkpt>
      <trkpt lat="45.55855" lon="6.61953">
        <ele>1096.2</ele>
        <time>2020-07-19T12:26:56Z</time>
      </trkpt>
      <trkpt lat="45.5586" lon="6.61946">
        <ele>1097.2</ele>
        <time>2020-07-19T12:27:00Z</time>
      </trkpt>
      <trkpt lat="45.55866" lon="6.61942">
        <ele>1097.6</ele>
        <time>2020-07-19T12:27:04Z</time>
      </trkpt>
      <trkpt lat="45.55873" lon="6.61938">
        <ele>1098</ele>
        <time>2020-07-19T12:27:08Z</time>
      </trkpt>
      <trkpt lat="45.55879" lon="6.61934">
        <ele>1099.2</ele>
        <time>2020-07-19T12:27:12Z</time>
      </trkpt>
      <trkpt lat="45.55886" lon="6.6193">
        <ele>1099.4</ele>
        <time>2020-07-19T12:27:16Z</time>
      </trkpt>
      <trkpt lat="45.55892" lon="6.61925">
        <ele>1100</ele>
        <time>2020-07-19T12:27:20Z</time>
      </trkpt>
      <trkpt lat="45.55898" lon="6.61919">
        <ele>1101.2</ele>
        <time>2020-07-19T12:27:24Z</time>
      </trkpt>
      <trkpt lat="45.55903" lon="6.61912">
        <ele>1100.8</ele>
        <time>2020-07-19T12:27:28Z</time>
      </trkpt>
      <trkpt lat="45.55909" lon="6.61905">
        <ele>1101.2</ele>
        <time>2020-07-19T12:27:32Z</time>
      </trkpt>
      <trkpt lat="45.55913" lon="6.61897">
        <ele>1101.6</ele>
        <time>2020-07-19T12:27:36Z</time>
      </trkpt>
      <trkpt lat="45.55917" lon="6.61887">
        <ele>1102.6</ele>
        <time>2020-07-19T12:27:40Z</time>
      </trkpt>
      <trkpt lat="45.55919" lon="6.61877">
        <ele>1102.2</ele>
        <time>2020-07-19T12:27:44Z</time>
      </trkpt>
      <trkpt lat="45.55919" lon="6.61867">
        <ele>1103.2</ele>
        <time>2020-07-19T12:27:48Z</time>
      </trkpt>
      <trkpt lat="45.55919" lon="6.61857">
        <ele>1103.6</ele>
        <time>2020-07-19T12:27:52Z</time>
      </trkpt>
      <trkpt lat="45.5592" lon="6.61848">
        <ele>1104.2</ele>
        <time>2020-07-19T12:27:56Z</time>
      </trkpt>
      <trkpt lat="45.55918" lon="6.61838">
        <ele>1104.8</ele>
        <time>2020-07-19T12:28:00Z</time>
      </trkpt>
      <trkpt lat="45.55917" lon="6.6183">
        <ele>1105.2</ele>
        <time>2020-07-19T12:28:04Z</time>
      </trkpt>
      <trkpt lat="45.55915" lon="6.6182">
        <ele>1106</ele>
        <time>2020-07-19T12:28:08Z</time>
      </trkpt>
      <trkpt lat="45.55912" lon="6.6181">
        <ele>1106.6</ele>
        <time>2020-07-19T12:28:12Z</time>
      </trkpt>
      <trkpt lat="45.55909" lon="6.618">
        <ele>1107.4</ele>
        <time>2020-07-19T12:28:16Z</time>
      </trkpt>
      <trkpt lat="45.55905" lon="6.61791">
        <ele>1108</ele>
        <time>2020-07-19T12:28:20Z</time>
      </trkpt>
      <trkpt lat="45.55901" lon="6.61783">
        <ele>1108.8</ele>
        <time>2020-07-19T12:28:24Z</time>
      </trkpt>
      <trkpt lat="45.55897" lon="6.61777">
        <ele>1109.4</ele>
        <time>2020-07-19T12:28:28Z</time>
      </trkpt>
      <trkpt lat="45.55891" lon="6.6177">
        <ele>1109.8</ele>
        <time>2020-07-19T12:28:32Z</time>
      </trkpt>
      <trkpt lat="45.55886" lon="6.61764">
        <ele>1110.6</ele>
        <time>2020-07-19T12:28:36Z</time>
      </trkpt>
      <trkpt lat="45.55881" lon="6.61757">
        <ele>1111.2</ele>
        <time>2020-07-19T12:28:40Z</time>
      </trkpt>
      <trkpt lat="45.55876" lon="6.6175">
        <ele>1111.4</ele>
        <time>2020-07-19T12:28:44Z</time>
      </trkpt>
      <trkpt lat="45.55871" lon="6.61743">
        <ele>1112</ele>
        <time>2020-07-19T12:28:48Z</time>
      </trkpt>
      <trkpt lat="45.55866" lon="6.61736">
        <ele>1113.4</ele>
        <time>2020-07-19T12:28:52Z</time>
      </trkpt>
      <trkpt lat="45.55861" lon="6.61728">
        <ele>1113.8</ele>
        <time>2020-07-19T12:28:56Z</time>
      </trkpt>
      <trkpt lat="45.55856" lon="6.61722">
        <ele>1114.4</ele>
        <time>2020-07-19T12:29:00Z</time>
      </trkpt>
      <trkpt lat="45.55853" lon="6.61715">
        <ele>1114.8</ele>
        <time>2020-07-19T12:29:04Z</time>
      </trkpt>
      <trkpt lat="45.55849" lon="6.61707">
        <ele>1115.4</ele>
        <time>2020-07-19T12:29:08Z</time>
      </trkpt>
      <trkpt lat="45.55844" lon="6.61698">
        <ele>1116.4</ele>
        <time>2020-07-19T12:29:12Z</time>
      </trkpt>
      <trkpt lat="45.55842" lon="6.61689">
        <ele>1117.2</ele>
        <time>2020-07-19T12:29:16Z</time>
      </trkpt>
      <trkpt lat="45.5584" lon="6.61679">
        <ele>1117.4</ele>
        <time>2020-07-19T12:29:20Z</time>
      </trkpt>
      <trkpt lat="45.55839" lon="6.61669">
        <ele>1118.4</ele>
        <time>2020-07-19T12:29:24Z</time>
      </trkpt>
      <trkpt lat="45.55837" lon="6.61659">
        <ele>1118.8</ele>
        <time>2020-07-19T12:29:28Z</time>
      </trkpt>
      <trkpt lat="45.55835" lon="6.61649">
        <ele>1119.6</ele>
        <time>2020-07-19T12:29:32Z</time>
      </trkpt>
      <trkpt lat="45.55832" lon="6.61641">
        <ele>1119.8</ele>
        <time>2020-07-19T12:29:36Z</time>
      </trkpt>
      <trkpt lat="45.5583" lon="6.61633">
        <ele>1120</ele>
        <time>2020-07-19T12:29:40Z</time>
      </trkpt>
      <trkpt lat="45.55828" lon="6.61625">
        <ele>1121</ele>
        <time>2020-07-19T12:29:44Z</time>
      </trkpt>
      <trkpt lat="45.55823" lon="6.61615">
        <ele>1121.6</ele>
        <time>2020-07-19T12:29:48Z</time>
      </trkpt>
      <trkpt lat="45.55817" lon="6.61606">
        <ele>1123</ele>
        <time>2020-07-19T12:29:52Z</time>
      </trkpt>
      <trkpt lat="45.5581" lon="6.61596">
        <ele>1121.8</ele>
        <time>2020-07-19T12:29:56Z</time>
      </trkpt>
      <trkpt lat="45.55805" lon="6.61587">
        <ele>1123.2</ele>
        <time>2020-07-19T12:30:00Z</time>
      </trkpt>
      <trkpt lat="45.55801" lon="6.61578">
        <ele>1123.4</ele>
        <time>2020-07-19T12:30:04Z</time>
      </trkpt>
      <trkpt lat="45.55799" lon="6.61566">
        <ele>1123.2</ele>
        <time>2020-07-19T12:30:08Z</time>
      </trkpt>
      <trkpt lat="45.558" lon="6.61554">
        <ele>1124.4</ele>
        <time>2020-07-19T12:30:12Z</time>
      </trkpt>
      <trkpt lat="45.55802" lon="6.61543">
        <ele>1124.6</ele>
        <time>2020-07-19T12:30:16Z</time>
      </trkpt>
      <trkpt lat="45.55804" lon="6.61532">
        <ele>1126</ele>
        <time>2020-07-19T12:30:20Z</time>
      </trkpt>
      <trkpt lat="45.55808" lon="6.61521">
        <ele>1125.8</ele>
        <time>2020-07-19T12:30:24Z</time>
      </trkpt>
      <trkpt lat="45.55813" lon="6.6151">
        <ele>1125.6</ele>
        <time>2020-07-19T12:30:28Z</time>
      </trkpt>
      <trkpt lat="45.55818" lon="6.61501">
        <ele>1126.2</ele>
        <time>2020-07-19T12:30:32Z</time>
      </trkpt>
      <trkpt lat="45.55826" lon="6.61493">
        <ele>1126.2</ele>
        <time>2020-07-19T12:30:36Z</time>
      </trkpt>
      <trkpt lat="45.55832" lon="6.61486">
        <ele>1126.4</ele>
        <time>2020-07-19T12:30:40Z</time>
      </trkpt>
      <trkpt lat="45.5584" lon="6.61482">
        <ele>1126.8</ele>
        <time>2020-07-19T12:30:44Z</time>
      </trkpt>
      <trkpt lat="45.55844" lon="6.61474">
        <ele>1127.4</ele>
        <time>2020-07-19T12:30:48Z</time>
      </trkpt>
      <trkpt lat="45.55849" lon="6.61468">
        <ele>1127.6</ele>
        <time>2020-07-19T12:30:52Z</time>
      </trkpt>
      <trkpt lat="45.55853" lon="6.61458">
        <ele>1127.6</ele>
        <time>2020-07-19T12:30:56Z</time>
      </trkpt>
      <trkpt lat="45.55856" lon="6.61447">
        <ele>1127.6</ele>
        <time>2020-07-19T12:31:00Z</time>
      </trkpt>
      <trkpt lat="45.55861" lon="6.61437">
        <ele>1128</ele>
        <time>2020-07-19T12:31:04Z</time>
      </trkpt>
      <trkpt lat="45.55868" lon="6.61428">
        <ele>1128.4</ele>
        <time>2020-07-19T12:31:08Z</time>
      </trkpt>
      <trkpt lat="45.55876" lon="6.61424">
        <ele>1128.8</ele>
        <time>2020-07-19T12:31:12Z</time>
      </trkpt>
      <trkpt lat="45.55883" lon="6.61419">
        <ele>1128.6</ele>
        <time>2020-07-19T12:31:16Z</time>
      </trkpt>
      <trkpt lat="45.55892" lon="6.61415">
        <ele>1128.8</ele>
        <time>2020-07-19T12:31:20Z</time>
      </trkpt>
      <trkpt lat="45.559" lon="6.61411">
        <ele>1129.4</ele>
        <time>2020-07-19T12:31:24Z</time>
      </trkpt>
      <trkpt lat="45.55906" lon="6.61404">
        <ele>1129.2</ele>
        <time>2020-07-19T12:31:28Z</time>
      </trkpt>
      <trkpt lat="45.5591" lon="6.61392">
        <ele>1128.6</ele>
        <time>2020-07-19T12:31:32Z</time>
      </trkpt>
      <trkpt lat="45.55911" lon="6.6138">
        <ele>1128.8</ele>
        <time>2020-07-19T12:31:36Z</time>
      </trkpt>
      <trkpt lat="45.55908" lon="6.61369">
        <ele>1130</ele>
        <time>2020-07-19T12:31:40Z</time>
      </trkpt>
      <trkpt lat="45.55901" lon="6.61362">
        <ele>1131.2</ele>
        <time>2020-07-19T12:31:44Z</time>
      </trkpt>
      <trkpt lat="45.55894" lon="6.61359">
        <ele>1131.4</ele>
        <time>2020-07-19T12:31:48Z</time>
      </trkpt>
      <trkpt lat="45.55887" lon="6.61361">
        <ele>1132.2</ele>
        <time>2020-07-19T12:31:52Z</time>
      </trkpt>
      <trkpt lat="45.55881" lon="6.61363">
        <ele>1132.4</ele>
        <time>2020-07-19T12:31:56Z</time>
      </trkpt>
      <trkpt lat="45.55875" lon="6.61365">
        <ele>1133</ele>
        <time>2020-07-19T12:32:00Z</time>
      </trkpt>
      <trkpt lat="45.55869" lon="6.6137">
        <ele>1133.8</ele>
        <time>2020-07-19T12:32:04Z</time>
      </trkpt>
      <trkpt lat="45.55865" lon="6.61372">
        <ele>1134.2</ele>
        <time>2020-07-19T12:32:08Z</time>
      </trkpt>
      <trkpt lat="45.55859" lon="6.61377">
        <ele>1134.4</ele>
        <time>2020-07-19T12:32:12Z</time>
      </trkpt>
      <trkpt lat="45.55853" lon="6.61383">
        <ele>1134.6</ele>
        <time>2020-07-19T12:32:16Z</time>
      </trkpt>
      <trkpt lat="45.55846" lon="6.61385">
        <ele>1135.4</ele>
        <time>2020-07-19T12:32:20Z</time>
      </trkpt>
      <trkpt lat="45.55839" lon="6.61386">
        <ele>1136</ele>
        <time>2020-07-19T12:32:24Z</time>
      </trkpt>
      <trkpt lat="45.55832" lon="6.61385">
        <ele>1136.2</ele>
        <time>2020-07-19T12:32:28Z</time>
      </trkpt>
      <trkpt lat="45.55826" lon="6.61383">
        <ele>1137.2</ele>
        <time>2020-07-19T12:32:32Z</time>
      </trkpt>
      <trkpt lat="45.5582" lon="6.6138">
        <ele>1137.2</ele>
        <time>2020-07-19T12:32:36Z</time>
      </trkpt>
      <trkpt lat="45.55814" lon="6.61378">
        <ele>1137.8</ele>
        <time>2020-07-19T12:32:40Z</time>
      </trkpt>
      <trkpt lat="45.55809" lon="6.61375">
        <ele>1138.4</ele>
        <time>2020-07-19T12:32:44Z</time>
      </trkpt>
      <trkpt lat="45.55803" lon="6.61374">
        <ele>1139.2</ele>
        <time>2020-07-19T12:32:48Z</time>
      </trkpt>
      <trkpt lat="45.55798" lon="6.61372">
        <ele>1139.8</ele>
        <time>2020-07-19T12:32:52Z</time>
      </trkpt>
      <trkpt lat="45.55792" lon="6.6137">
        <ele>1140.2</ele>
        <time>2020-07-19T12:32:56Z</time>
      </trkpt>
      <trkpt lat="45.55786" lon="6.61368">
        <ele>1141.2</ele>
        <time>2020-07-19T12:33:00Z</time>
      </trkpt>
      <trkpt lat="45.55781" lon="6.61366">
        <ele>1141.2</ele>
        <time>2020-07-19T12:33:04Z</time>
      </trkpt>
      <trkpt lat="45.55776" lon="6.61364">
        <ele>1142.2</ele>
        <time>2020-07-19T12:33:08Z</time>
      </trkpt>
      <trkpt lat="45.5577" lon="6.61362">
        <ele>1142.6</ele>
        <time>2020-07-19T12:33:12Z</time>
      </trkpt>
      <trkpt lat="45.55765" lon="6.6136">
        <ele>1143.2</ele>
        <time>2020-07-19T12:33:16Z</time>
      </trkpt>
      <trkpt lat="45.55759" lon="6.61358">
        <ele>1143.8</ele>
        <time>2020-07-19T12:33:20Z</time>
      </trkpt>
      <trkpt lat="45.55753" lon="6.61358">
        <ele>1144.6</ele>
        <time>2020-07-19T12:33:24Z</time>
      </trkpt>
      <trkpt lat="45.55747" lon="6.61358">
        <ele>1145</ele>
        <time>2020-07-19T12:33:28Z</time>
      </trkpt>
      <trkpt lat="45.55741" lon="6.61357">
        <ele>1145.4</ele>
        <time>2020-07-19T12:33:32Z</time>
      </trkpt>
      <trkpt lat="45.55736" lon="6.61357">
        <ele>1146</ele>
        <time>2020-07-19T12:33:36Z</time>
      </trkpt>
      <trkpt lat="45.5573" lon="6.61356">
        <ele>1146.6</ele>
        <time>2020-07-19T12:33:40Z</time>
      </trkpt>
      <trkpt lat="45.55725" lon="6.61355">
        <ele>1147.4</ele>
        <time>2020-07-19T12:33:44Z</time>
      </trkpt>
      <trkpt lat="45.55719" lon="6.61354">
        <ele>1148.2</ele>
        <time>2020-07-19T12:33:48Z</time>
      </trkpt>
      <trkpt lat="45.55714" lon="6.61351">
        <ele>1148</ele>
        <time>2020-07-19T12:33:52Z</time>
      </trkpt>
      <trkpt lat="45.5571" lon="6.61344">
        <ele>1149.2</ele>
        <time>2020-07-19T12:33:56Z</time>
      </trkpt>
      <trkpt lat="45.55708" lon="6.61336">
        <ele>1150</ele>
        <time>2020-07-19T12:34:00Z</time>
      </trkpt>
      <trkpt lat="45.55706" lon="6.61328">
        <ele>1150.4</ele>
        <time>2020-07-19T12:34:04Z</time>
      </trkpt>
      <trkpt lat="45.55705" lon="6.6132">
        <ele>1150.2</ele>
        <time>2020-07-19T12:34:08Z</time>
      </trkpt>
      <trkpt lat="45.55703" lon="6.61312">
        <ele>1151.8</ele>
        <time>2020-07-19T12:34:12Z</time>
      </trkpt>
      <trkpt lat="45.55701" lon="6.61306">
        <ele>1152.2</ele>
        <time>2020-07-19T12:34:16Z</time>
      </trkpt>
      <trkpt lat="45.55698" lon="6.61298">
        <ele>1152.8</ele>
        <time>2020-07-19T12:34:20Z</time>
      </trkpt>
      <trkpt lat="45.55693" lon="6.61291">
        <ele>1153.4</ele>
        <time>2020-07-19T12:34:24Z</time>
      </trkpt>
      <trkpt lat="45.55689" lon="6.61285">
        <ele>1153</ele>
        <time>2020-07-19T12:34:28Z</time>
      </trkpt>
      <trkpt lat="45.55684" lon="6.61278">
        <ele>1154.8</ele>
        <time>2020-07-19T12:34:32Z</time>
      </trkpt>
      <trkpt lat="45.5568" lon="6.61271">
        <ele>1154.2</ele>
        <time>2020-07-19T12:34:36Z</time>
      </trkpt>
      <trkpt lat="45.55676" lon="6.61263">
        <ele>1154.8</ele>
        <time>2020-07-19T12:34:40Z</time>
      </trkpt>
      <trkpt lat="45.55673" lon="6.61256">
        <ele>1155.6</ele>
        <time>2020-07-19T12:34:44Z</time>
      </trkpt>
      <trkpt lat="45.55668" lon="6.61249">
        <ele>1155.6</ele>
        <time>2020-07-19T12:34:48Z</time>
      </trkpt>
      <trkpt lat="45.55664" lon="6.61241">
        <ele>1156</ele>
        <time>2020-07-19T12:34:52Z</time>
      </trkpt>
      <trkpt lat="45.5566" lon="6.61233">
        <ele>1157.6</ele>
        <time>2020-07-19T12:34:56Z</time>
      </trkpt>
      <trkpt lat="45.55658" lon="6.61226">
        <ele>1157.6</ele>
        <time>2020-07-19T12:35:00Z</time>
      </trkpt>
      <trkpt lat="45.55656" lon="6.61217">
        <ele>1158.4</ele>
        <time>2020-07-19T12:35:04Z</time>
      </trkpt>
      <trkpt lat="45.55655" lon="6.61209">
        <ele>1159</ele>
        <time>2020-07-19T12:35:08Z</time>
      </trkpt>
      <trkpt lat="45.55655" lon="6.612">
        <ele>1159.8</ele>
        <time>2020-07-19T12:35:12Z</time>
      </trkpt>
      <trkpt lat="45.55659" lon="6.61193">
        <ele>1160.4</ele>
        <time>2020-07-19T12:35:16Z</time>
      </trkpt>
      <trkpt lat="45.55663" lon="6.61187">
        <ele>1160.2</ele>
        <time>2020-07-19T12:35:20Z</time>
      </trkpt>
      <trkpt lat="45.55668" lon="6.61181">
        <ele>1160.6</ele>
        <time>2020-07-19T12:35:24Z</time>
      </trkpt>
      <trkpt lat="45.55673" lon="6.61176">
        <ele>1161.6</ele>
        <time>2020-07-19T12:35:28Z</time>
      </trkpt>
      <trkpt lat="45.55677" lon="6.6117">
        <ele>1161.8</ele>
        <time>2020-07-19T12:35:32Z</time>
      </trkpt>
      <trkpt lat="45.55682" lon="6.61163">
        <ele>1162.8</ele>
        <time>2020-07-19T12:35:36Z</time>
      </trkpt>
      <trkpt lat="45.55686" lon="6.61158">
        <ele>1162.8</ele>
        <time>2020-07-19T12:35:40Z</time>
      </trkpt>
      <trkpt lat="45.55696" lon="6.61137">
        <ele>1160</ele>
        <time>2020-07-19T12:43:14Z</time>
      </trkpt>
      <trkpt lat="45.55692" lon="6.61116">
        <ele>1156.8</ele>
        <time>2020-07-19T12:43:18Z</time>
      </trkpt>
      <trkpt lat="45.55673" lon="6.61097">
        <ele>1152.8</ele>
        <time>2020-07-19T12:43:22Z</time>
      </trkpt>
      <trkpt lat="45.55654" lon="6.61067">
        <ele>1149.6</ele>
        <time>2020-07-19T12:43:26Z</time>
      </trkpt>
      <trkpt lat="45.55641" lon="6.61039">
        <ele>1147.6</ele>
        <time>2020-07-19T12:43:30Z</time>
      </trkpt>
      <trkpt lat="45.55626" lon="6.61006">
        <ele>1142.6</ele>
        <time>2020-07-19T12:43:34Z</time>
      </trkpt>
      <trkpt lat="45.55612" lon="6.60966">
        <ele>1137.8</ele>
        <time>2020-07-19T12:43:38Z</time>
      </trkpt>
      <trkpt lat="45.55597" lon="6.60928">
        <ele>1137.2</ele>
        <time>2020-07-19T12:43:42Z</time>
      </trkpt>
      <trkpt lat="45.5558" lon="6.60898">
        <ele>1133.2</ele>
        <time>2020-07-19T12:43:46Z</time>
      </trkpt>
      <trkpt lat="45.55558" lon="6.60877">
        <ele>1128.8</ele>
        <time>2020-07-19T12:43:50Z</time>
      </trkpt>
      <trkpt lat="45.55534" lon="6.60858">
        <ele>1126.6</ele>
        <time>2020-07-19T12:43:54Z</time>
      </trkpt>
      <trkpt lat="45.55517" lon="6.60824">
        <ele>1124.2</ele>
        <time>2020-07-19T12:43:58Z</time>
      </trkpt>
      <trkpt lat="45.55498" lon="6.60785">
        <ele>1116.8</ele>
        <time>2020-07-19T12:44:02Z</time>
      </trkpt>
      <trkpt lat="45.55475" lon="6.6075">
        <ele>1113.6</ele>
        <time>2020-07-19T12:44:06Z</time>
      </trkpt>
      <trkpt lat="45.55454" lon="6.60715">
        <ele>1112.2</ele>
        <time>2020-07-19T12:44:10Z</time>
      </trkpt>
      <trkpt lat="45.55435" lon="6.6068">
        <ele>1109</ele>
        <time>2020-07-19T12:44:14Z</time>
      </trkpt>
      <trkpt lat="45.55413" lon="6.60645">
        <ele>1105.6</ele>
        <time>2020-07-19T12:44:18Z</time>
      </trkpt>
      <trkpt lat="45.55391" lon="6.60617">
        <ele>1102.8</ele>
        <time>2020-07-19T12:44:22Z</time>
      </trkpt>
      <trkpt lat="45.55377" lon="6.60574">
        <ele>1101.4</ele>
        <time>2020-07-19T12:44:26Z</time>
      </trkpt>
      <trkpt lat="45.55361" lon="6.60553">
        <ele>1099</ele>
        <time>2020-07-19T12:44:30Z</time>
      </trkpt>
      <trkpt lat="45.55335" lon="6.60551">
        <ele>1092.8</ele>
        <time>2020-07-19T12:44:34Z</time>
      </trkpt>
      <trkpt lat="45.55304" lon="6.60542">
        <ele>1089.8</ele>
        <time>2020-07-19T12:44:38Z</time>
      </trkpt>
      <trkpt lat="45.55279" lon="6.6053">
        <ele>1085</ele>
        <time>2020-07-19T12:44:42Z</time>
      </trkpt>
      <trkpt lat="45.55266" lon="6.60489">
        <ele>1082.6</ele>
        <time>2020-07-19T12:44:46Z</time>
      </trkpt>
      <trkpt lat="45.55254" lon="6.60447">
        <ele>1075.2</ele>
        <time>2020-07-19T12:44:50Z</time>
      </trkpt>
      <trkpt lat="45.55231" lon="6.60413">
        <ele>1076.6</ele>
        <time>2020-07-19T12:44:54Z</time>
      </trkpt>
      <trkpt lat="45.55215" lon="6.60387">
        <ele>1079.2</ele>
        <time>2020-07-19T12:44:58Z</time>
      </trkpt>
      <trkpt lat="45.55207" lon="6.60399">
        <ele>1077.2</ele>
        <time>2020-07-19T12:45:02Z</time>
      </trkpt>
      <trkpt lat="45.5522" lon="6.60428">
        <ele>1073.6</ele>
        <time>2020-07-19T12:45:06Z</time>
      </trkpt>
      <trkpt lat="45.55224" lon="6.60467">
        <ele>1070.8</ele>
        <time>2020-07-19T12:45:10Z</time>
      </trkpt>
      <trkpt lat="45.55219" lon="6.60507">
        <ele>1066.4</ele>
        <time>2020-07-19T12:45:14Z</time>
      </trkpt>
      <trkpt lat="45.55223" lon="6.6055">
        <ele>1065</ele>
        <time>2020-07-19T12:45:18Z</time>
      </trkpt>
      <trkpt lat="45.55231" lon="6.60586">
        <ele>1063.4</ele>
        <time>2020-07-19T12:45:22Z</time>
      </trkpt>
      <trkpt lat="45.55247" lon="6.60603">
        <ele>1060.6</ele>
        <time>2020-07-19T12:45:26Z</time>
      </trkpt>
      <trkpt lat="45.55236" lon="6.60614">
        <ele>1058.6</ele>
        <time>2020-07-19T12:45:30Z</time>
      </trkpt>
      <trkpt lat="45.55216" lon="6.60599">
        <ele>1054.2</ele>
        <time>2020-07-19T12:45:34Z</time>
      </trkpt>
      <trkpt lat="45.55195" lon="6.60573">
        <ele>1049.8</ele>
        <time>2020-07-19T12:45:38Z</time>
      </trkpt>
      <trkpt lat="45.55172" lon="6.60546">
        <ele>1048.2</ele>
        <time>2020-07-19T12:45:42Z</time>
      </trkpt>
      <trkpt lat="45.55154" lon="6.60515">
        <ele>1043</ele>
        <time>2020-07-19T12:45:46Z</time>
      </trkpt>
      <trkpt lat="45.55132" lon="6.60483">
        <ele>1041</ele>
        <time>2020-07-19T12:45:50Z</time>
      </trkpt>
      <trkpt lat="45.55118" lon="6.60444">
        <ele>1037.8</ele>
        <time>2020-07-19T12:45:54Z</time>
      </trkpt>
      <trkpt lat="45.55106" lon="6.60402">
        <ele>1035</ele>
        <time>2020-07-19T12:45:58Z</time>
      </trkpt>
      <trkpt lat="45.55087" lon="6.60361">
        <ele>1033.6</ele>
        <time>2020-07-19T12:46:02Z</time>
      </trkpt>
      <trkpt lat="45.55087" lon="6.60323">
        <ele>1031.8</ele>
        <time>2020-07-19T12:46:06Z</time>
      </trkpt>
      <trkpt lat="45.55083" lon="6.60289">
        <ele>1028.8</ele>
        <time>2020-07-19T12:46:10Z</time>
      </trkpt>
      <trkpt lat="45.55055" lon="6.60277">
        <ele>1025</ele>
        <time>2020-07-19T12:46:14Z</time>
      </trkpt>
      <trkpt lat="45.55034" lon="6.60256">
        <ele>1022.6</ele>
        <time>2020-07-19T12:46:18Z</time>
      </trkpt>
      <trkpt lat="45.5502" lon="6.60226">
        <ele>1016.6</ele>
        <time>2020-07-19T12:46:22Z</time>
      </trkpt>
      <trkpt lat="45.54996" lon="6.60215">
        <ele>1018.2</ele>
        <time>2020-07-19T12:46:26Z</time>
      </trkpt>
      <trkpt lat="45.54989" lon="6.60196">
        <ele>1016.6</ele>
        <time>2020-07-19T12:46:30Z</time>
      </trkpt>
      <trkpt lat="45.54996" lon="6.60177">
        <ele>1014.4</ele>
        <time>2020-07-19T12:46:34Z</time>
      </trkpt>
      <trkpt lat="45.54998" lon="6.60154">
        <ele>1011.2</ele>
        <time>2020-07-19T12:46:38Z</time>
      </trkpt>
      <trkpt lat="45.54991" lon="6.60138">
        <ele>1010.6</ele>
        <time>2020-07-19T12:46:42Z</time>
      </trkpt>
      <trkpt lat="45.54989" lon="6.60121">
        <ele>1008.2</ele>
        <time>2020-07-19T12:46:46Z</time>
      </trkpt>
      <trkpt lat="45.54995" lon="6.60098">
        <ele>1007</ele>
        <time>2020-07-19T12:46:50Z</time>
      </trkpt>
      <trkpt lat="45.54993" lon="6.60083">
        <ele>1005.8</ele>
        <time>2020-07-19T12:46:54Z</time>
      </trkpt>
      <trkpt lat="45.54977" lon="6.60088">
        <ele>1002.8</ele>
        <time>2020-07-19T12:46:58Z</time>
      </trkpt>
      <trkpt lat="45.54968" lon="6.601">
        <ele>1001.6</ele>
        <time>2020-07-19T12:47:02Z</time>
      </trkpt>
      <trkpt lat="45.54966" lon="6.60122">
        <ele>999.4</ele>
        <time>2020-07-19T12:47:06Z</time>
      </trkpt>
      <trkpt lat="45.54969" lon="6.60141">
        <ele>998.2</ele>
        <time>2020-07-19T12:47:10Z</time>
      </trkpt>
      <trkpt lat="45.54955" lon="6.6016">
        <ele>995</ele>
        <time>2020-07-19T12:47:14Z</time>
      </trkpt>
      <trkpt lat="45.54944" lon="6.60181">
        <ele>995.6</ele>
        <time>2020-07-19T12:47:18Z</time>
      </trkpt>
      <trkpt lat="45.54936" lon="6.60199">
        <ele>994.6</ele>
        <time>2020-07-19T12:47:40Z</time>
      </trkpt>
      <trkpt lat="45.54936" lon="6.60214">
        <ele>993.2</ele>
        <time>2020-07-19T12:47:44Z</time>
      </trkpt>
      <trkpt lat="45.54942" lon="6.60237">
        <ele>990.6</ele>
        <time>2020-07-19T12:47:48Z</time>
      </trkpt>
      <trkpt lat="45.54952" lon="6.60258">
        <ele>988.4</ele>
        <time>2020-07-19T12:47:52Z</time>
      </trkpt>
      <trkpt lat="45.5496" lon="6.60275">
        <ele>986.6</ele>
        <time>2020-07-19T12:47:56Z</time>
      </trkpt>
      <trkpt lat="45.54965" lon="6.603">
        <ele>984.8</ele>
        <time>2020-07-19T12:48:00Z</time>
      </trkpt>
      <trkpt lat="45.54975" lon="6.60325">
        <ele>983</ele>
        <time>2020-07-19T12:48:04Z</time>
      </trkpt>
      <trkpt lat="45.54984" lon="6.60346">
        <ele>979.2</ele>
        <time>2020-07-19T12:48:08Z</time>
      </trkpt>
      <trkpt lat="45.54983" lon="6.60372">
        <ele>979</ele>
        <time>2020-07-19T12:48:12Z</time>
      </trkpt>
      <trkpt lat="45.54996" lon="6.60399">
        <ele>978</ele>
        <time>2020-07-19T12:48:16Z</time>
      </trkpt>
      <trkpt lat="45.54991" lon="6.60415">
        <ele>975.6</ele>
        <time>2020-07-19T12:48:20Z</time>
      </trkpt>
      <trkpt lat="45.54987" lon="6.60406">
        <ele>972.8</ele>
        <time>2020-07-19T12:48:24Z</time>
      </trkpt>
      <trkpt lat="45.54978" lon="6.60387">
        <ele>970.8</ele>
        <time>2020-07-19T12:48:28Z</time>
      </trkpt>
      <trkpt lat="45.54973" lon="6.60365">
        <ele>967</ele>
        <time>2020-07-19T12:48:32Z</time>
      </trkpt>
      <trkpt lat="45.54951" lon="6.60345">
        <ele>964.8</ele>
        <time>2020-07-19T12:48:36Z</time>
      </trkpt>
      <trkpt lat="45.54937" lon="6.60327">
        <ele>963.4</ele>
        <time>2020-07-19T12:48:40Z</time>
      </trkpt>
      <trkpt lat="45.54936" lon="6.60307">
        <ele>962</ele>
        <time>2020-07-19T12:48:44Z</time>
      </trkpt>
      <trkpt lat="45.54939" lon="6.60286">
        <ele>958</ele>
        <time>2020-07-19T12:48:48Z</time>
      </trkpt>
      <trkpt lat="45.5494" lon="6.60259">
        <ele>955.4</ele>
        <time>2020-07-19T12:48:52Z</time>
      </trkpt>
      <trkpt lat="45.54939" lon="6.6023">
        <ele>954.6</ele>
        <time>2020-07-19T12:48:56Z</time>
      </trkpt>
      <trkpt lat="45.54947" lon="6.60209">
        <ele>954.4</ele>
        <time>2020-07-19T12:49:00Z</time>
      </trkpt>
      <trkpt lat="45.54956" lon="6.60186">
        <ele>953.6</ele>
        <time>2020-07-19T12:49:04Z</time>
      </trkpt>
      <trkpt lat="45.54959" lon="6.60161">
        <ele>950</ele>
        <time>2020-07-19T12:49:08Z</time>
      </trkpt>
      <trkpt lat="45.54955" lon="6.60131">
        <ele>947.4</ele>
        <time>2020-07-19T12:49:12Z</time>
      </trkpt>
      <trkpt lat="45.5494" lon="6.60107">
        <ele>948.2</ele>
        <time>2020-07-19T12:49:16Z</time>
      </trkpt>
      <trkpt lat="45.54924" lon="6.60088">
        <ele>945.4</ele>
        <time>2020-07-19T12:49:20Z</time>
      </trkpt>
      <trkpt lat="45.5491" lon="6.60068">
        <ele>944.2</ele>
        <time>2020-07-19T12:49:24Z</time>
      </trkpt>
      <trkpt lat="45.54899" lon="6.60071">
        <ele>941.4</ele>
        <time>2020-07-19T12:49:28Z</time>
      </trkpt>
      <trkpt lat="45.5489" lon="6.60075">
        <ele>939.6</ele>
        <time>2020-07-19T12:49:32Z</time>
      </trkpt>
      <trkpt lat="45.54874" lon="6.60057">
        <ele>937.8</ele>
        <time>2020-07-19T12:49:36Z</time>
      </trkpt>
      <trkpt lat="45.54858" lon="6.60055">
        <ele>933.2</ele>
        <time>2020-07-19T12:49:40Z</time>
      </trkpt>
      <trkpt lat="45.54866" lon="6.60062">
        <ele>931.4</ele>
        <time>2020-07-19T12:49:44Z</time>
      </trkpt>
      <trkpt lat="45.54867" lon="6.60067">
        <ele>930.8</ele>
        <time>2020-07-19T12:49:48Z</time>
      </trkpt>
      <trkpt lat="45.54851" lon="6.60063">
        <ele>929.8</ele>
        <time>2020-07-19T12:49:52Z</time>
      </trkpt>
      <trkpt lat="45.5483" lon="6.60052">
        <ele>929.4</ele>
        <time>2020-07-19T12:49:56Z</time>
      </trkpt>
      <trkpt lat="45.54818" lon="6.60059">
        <ele>924.6</ele>
        <time>2020-07-19T12:50:00Z</time>
      </trkpt>
      <trkpt lat="45.54834" lon="6.60071">
        <ele>923.2</ele>
        <time>2020-07-19T12:50:04Z</time>
      </trkpt>
      <trkpt lat="45.54849" lon="6.60079">
        <ele>922.8</ele>
        <time>2020-07-19T12:50:08Z</time>
      </trkpt>
      <trkpt lat="45.54845" lon="6.60092">
        <ele>921.4</ele>
        <time>2020-07-19T12:50:12Z</time>
      </trkpt>
      <trkpt lat="45.54833" lon="6.60093">
        <ele>922.4</ele>
        <time>2020-07-19T12:50:16Z</time>
      </trkpt>
      <trkpt lat="45.54818" lon="6.60099">
        <ele>918.8</ele>
        <time>2020-07-19T12:50:20Z</time>
      </trkpt>
      <trkpt lat="45.54797" lon="6.60098">
        <ele>917.8</ele>
        <time>2020-07-19T12:50:24Z</time>
      </trkpt>
      <trkpt lat="45.54786" lon="6.60105">
        <ele>915.8</ele>
        <time>2020-07-19T12:50:28Z</time>
      </trkpt>
      <trkpt lat="45.548" lon="6.60118">
        <ele>911.6</ele>
        <time>2020-07-19T12:50:32Z</time>
      </trkpt>
      <trkpt lat="45.54816" lon="6.60133">
        <ele>911.6</ele>
        <time>2020-07-19T12:50:36Z</time>
      </trkpt>
      <trkpt lat="45.54836" lon="6.60142">
        <ele>909.8</ele>
        <time>2020-07-19T12:50:40Z</time>
      </trkpt>
      <trkpt lat="45.54843" lon="6.60154">
        <ele>909.8</ele>
        <time>2020-07-19T12:50:44Z</time>
      </trkpt>
      <trkpt lat="45.54827" lon="6.60159">
        <ele>908.8</ele>
        <time>2020-07-19T12:50:48Z</time>
      </trkpt>
      <trkpt lat="45.54804" lon="6.60165">
        <ele>905.2</ele>
        <time>2020-07-19T12:50:52Z</time>
      </trkpt>
      <trkpt lat="45.54781" lon="6.60167">
        <ele>904.4</ele>
        <time>2020-07-19T12:50:56Z</time>
      </trkpt>
      <trkpt lat="45.54761" lon="6.60159">
        <ele>902.2</ele>
        <time>2020-07-19T12:51:00Z</time>
      </trkpt>
      <trkpt lat="45.54749" lon="6.60151">
        <ele>901.6</ele>
        <time>2020-07-19T12:51:04Z</time>
      </trkpt>
      <trkpt lat="45.5474" lon="6.60164">
        <ele>900</ele>
        <time>2020-07-19T12:51:08Z</time>
      </trkpt>
      <trkpt lat="45.54752" lon="6.60184">
        <ele>897.6</ele>
        <time>2020-07-19T12:51:12Z</time>
      </trkpt>
      <trkpt lat="45.54765" lon="6.6021">
        <ele>895.6</ele>
        <time>2020-07-19T12:51:16Z</time>
      </trkpt>
      <trkpt lat="45.54775" lon="6.60234">
        <ele>891.6</ele>
        <time>2020-07-19T12:51:20Z</time>
      </trkpt>
      <trkpt lat="45.54789" lon="6.60255">
        <ele>891.4</ele>
        <time>2020-07-19T12:51:24Z</time>
      </trkpt>
      <trkpt lat="45.54802" lon="6.6026">
        <ele>890</ele>
        <time>2020-07-19T12:51:28Z</time>
      </trkpt>
      <trkpt lat="45.54805" lon="6.60271">
        <ele>888.6</ele>
        <time>2020-07-19T12:51:32Z</time>
      </trkpt>
      <trkpt lat="45.5479" lon="6.60278">
        <ele>887.2</ele>
        <time>2020-07-19T12:51:36Z</time>
      </trkpt>
      <trkpt lat="45.54771" lon="6.60286">
        <ele>885.6</ele>
        <time>2020-07-19T12:51:40Z</time>
      </trkpt>
      <trkpt lat="45.54754" lon="6.60275">
        <ele>882</ele>
        <time>2020-07-19T12:51:44Z</time>
      </trkpt>
      <trkpt lat="45.54735" lon="6.60269">
        <ele>879.8</ele>
        <time>2020-07-19T12:51:48Z</time>
      </trkpt>
      <trkpt lat="45.54713" lon="6.60268">
        <ele>878.8</ele>
        <time>2020-07-19T12:51:52Z</time>
      </trkpt>
      <trkpt lat="45.54692" lon="6.60259">
        <ele>877.2</ele>
        <time>2020-07-19T12:51:56Z</time>
      </trkpt>
      <trkpt lat="45.54671" lon="6.60248">
        <ele>873.8</ele>
        <time>2020-07-19T12:52:00Z</time>
      </trkpt>
      <trkpt lat="45.5465" lon="6.60236">
        <ele>873</ele>
        <time>2020-07-19T12:52:04Z</time>
      </trkpt>
      <trkpt lat="45.54636" lon="6.60218">
        <ele>871.4</ele>
        <time>2020-07-19T12:52:08Z</time>
      </trkpt>
      <trkpt lat="45.54626" lon="6.60211">
        <ele>870.8</ele>
        <time>2020-07-19T12:52:12Z</time>
      </trkpt>
      <trkpt lat="45.54622" lon="6.60242">
        <ele>866.8</ele>
        <time>2020-07-19T12:52:16Z</time>
      </trkpt>
      <trkpt lat="45.54622" lon="6.60277">
        <ele>865.8</ele>
        <time>2020-07-19T12:52:20Z</time>
      </trkpt>
      <trkpt lat="45.54615" lon="6.60295">
        <ele>865.2</ele>
        <time>2020-07-19T12:52:24Z</time>
      </trkpt>
      <trkpt lat="45.54603" lon="6.60283">
        <ele>862.8</ele>
        <time>2020-07-19T12:52:28Z</time>
      </trkpt>
      <trkpt lat="45.54598" lon="6.60265">
        <ele>863.4</ele>
        <time>2020-07-19T12:52:32Z</time>
      </trkpt>
      <trkpt lat="45.54588" lon="6.6026">
        <ele>862</ele>
        <time>2020-07-19T12:52:36Z</time>
      </trkpt>
      <trkpt lat="45.5458" lon="6.6028">
        <ele>860.8</ele>
        <time>2020-07-19T12:52:40Z</time>
      </trkpt>
      <trkpt lat="45.54574" lon="6.60307">
        <ele>860.2</ele>
        <time>2020-07-19T12:52:44Z</time>
      </trkpt>
      <trkpt lat="45.54568" lon="6.60319">
        <ele>860.4</ele>
        <time>2020-07-19T12:52:48Z</time>
      </trkpt>
      <trkpt lat="45.54563" lon="6.60312">
        <ele>858.8</ele>
        <time>2020-07-19T12:52:52Z</time>
      </trkpt>
      <trkpt lat="45.5456" lon="6.60309">
        <ele>858.8</ele>
        <time>2020-07-19T12:53:00Z</time>
      </trkpt>
      <trkpt lat="45.54557" lon="6.60296">
        <ele>857.4</ele>
        <time>2020-07-19T12:53:04Z</time>
      </trkpt>
      <trkpt lat="45.54553" lon="6.6028">
        <ele>857.8</ele>
        <time>2020-07-19T12:53:08Z</time>
      </trkpt>
      <trkpt lat="45.5454" lon="6.60257">
        <ele>858</ele>
        <time>2020-07-19T12:55:40Z</time>
      </trkpt>
      <trkpt lat="45.54538" lon="6.60243">
        <ele>857.4</ele>
        <time>2020-07-19T12:55:44Z</time>
      </trkpt>
      <trkpt lat="45.54535" lon="6.60232">
        <ele>857.4</ele>
        <time>2020-07-19T12:55:48Z</time>
      </trkpt>
      <trkpt lat="45.54535" lon="6.6022">
        <ele>857.4</ele>
        <time>2020-07-19T12:55:52Z</time>
      </trkpt>
      <trkpt lat="45.54534" lon="6.60208">
        <ele>857</ele>
        <time>2020-07-19T12:55:56Z</time>
      </trkpt>
      <trkpt lat="45.54534" lon="6.6019">
        <ele>856.4</ele>
        <time>2020-07-19T12:56:00Z</time>
      </trkpt>
      <trkpt lat="45.5453" lon="6.60165">
        <ele>854.6</ele>
        <time>2020-07-19T12:56:04Z</time>
      </trkpt>
      <trkpt lat="45.5452" lon="6.60135">
        <ele>853.8</ele>
        <time>2020-07-19T12:56:08Z</time>
      </trkpt>
      <trkpt lat="45.54506" lon="6.60105">
        <ele>852.6</ele>
        <time>2020-07-19T12:56:12Z</time>
      </trkpt>
      <trkpt lat="45.54491" lon="6.60078">
        <ele>852.8</ele>
        <time>2020-07-19T12:56:16Z</time>
      </trkpt>
      <trkpt lat="45.54479" lon="6.60053">
        <ele>852.2</ele>
        <time>2020-07-19T12:56:20Z</time>
      </trkpt>
      <trkpt lat="45.54467" lon="6.60032">
        <ele>852.6</ele>
        <time>2020-07-19T12:56:24Z</time>
      </trkpt>
      <trkpt lat="45.54456" lon="6.60014">
        <ele>854.2</ele>
        <time>2020-07-19T12:56:28Z</time>
      </trkpt>
      <trkpt lat="45.54448" lon="6.59999">
        <ele>853.6</ele>
        <time>2020-07-19T12:56:32Z</time>
      </trkpt>
      <trkpt lat="45.54441" lon="6.59985">
        <ele>854</ele>
        <time>2020-07-19T12:56:36Z</time>
      </trkpt>
      <trkpt lat="45.54433" lon="6.59972">
        <ele>855.4</ele>
        <time>2020-07-19T12:56:40Z</time>
      </trkpt>
      <trkpt lat="45.54426" lon="6.59959">
        <ele>855</ele>
        <time>2020-07-19T12:56:44Z</time>
      </trkpt>
      <trkpt lat="45.54418" lon="6.59944">
        <ele>855</ele>
        <time>2020-07-19T12:56:48Z</time>
      </trkpt>
      <trkpt lat="45.5441" lon="6.59931">
        <ele>855.2</ele>
        <time>2020-07-19T12:56:52Z</time>
      </trkpt>
      <trkpt lat="45.54403" lon="6.59918">
        <ele>856</ele>
        <time>2020-07-19T12:56:56Z</time>
      </trkpt>
      <trkpt lat="45.54396" lon="6.59905">
        <ele>855.6</ele>
        <time>2020-07-19T12:57:00Z</time>
      </trkpt>
      <trkpt lat="45.54389" lon="6.59891">
        <ele>856.2</ele>
        <time>2020-07-19T12:57:04Z</time>
      </trkpt>
      <trkpt lat="45.54382" lon="6.59878">
        <ele>855.2</ele>
        <time>2020-07-19T12:57:08Z</time>
      </trkpt>
      <trkpt lat="45.54376" lon="6.59865">
        <ele>856.2</ele>
        <time>2020-07-19T12:57:12Z</time>
      </trkpt>
      <trkpt lat="45.54368" lon="6.5985">
        <ele>857</ele>
        <time>2020-07-19T12:57:16Z</time>
      </trkpt>
      <trkpt lat="45.5436" lon="6.59837">
        <ele>857</ele>
        <time>2020-07-19T12:57:20Z</time>
      </trkpt>
      <trkpt lat="45.54352" lon="6.59827">
        <ele>858</ele>
        <time>2020-07-19T12:57:24Z</time>
      </trkpt>
      <trkpt lat="45.54345" lon="6.59819">
        <ele>858.6</ele>
        <time>2020-07-19T12:57:28Z</time>
      </trkpt>
      <trkpt lat="45.54338" lon="6.59811">
        <ele>859.2</ele>
        <time>2020-07-19T12:57:32Z</time>
      </trkpt>
      <trkpt lat="45.54331" lon="6.59804">
        <ele>860.2</ele>
        <time>2020-07-19T12:57:36Z</time>
      </trkpt>
      <trkpt lat="45.54325" lon="6.59796">
        <ele>860.8</ele>
        <time>2020-07-19T12:57:40Z</time>
      </trkpt>
      <trkpt lat="45.54321" lon="6.59785">
        <ele>861</ele>
        <time>2020-07-19T12:57:44Z</time>
      </trkpt>
      <trkpt lat="45.54318" lon="6.59772">
        <ele>861</ele>
        <time>2020-07-19T12:57:48Z</time>
      </trkpt>
      <trkpt lat="45.54314" lon="6.59757">
        <ele>860.4</ele>
        <time>2020-07-19T12:57:52Z</time>
      </trkpt>
      <trkpt lat="45.54307" lon="6.59744">
        <ele>860.4</ele>
        <time>2020-07-19T12:57:56Z</time>
      </trkpt>
      <trkpt lat="45.54299" lon="6.59731">
        <ele>861.6</ele>
        <time>2020-07-19T12:58:00Z</time>
      </trkpt>
      <trkpt lat="45.54287" lon="6.5972">
        <ele>861.8</ele>
        <time>2020-07-19T12:58:04Z</time>
      </trkpt>
      <trkpt lat="45.54273" lon="6.59714">
        <ele>862</ele>
        <time>2020-07-19T12:58:08Z</time>
      </trkpt>
      <trkpt lat="45.5426" lon="6.59712">
        <ele>862.2</ele>
        <time>2020-07-19T12:58:12Z</time>
      </trkpt>
      <trkpt lat="45.54249" lon="6.59712">
        <ele>863</ele>
        <time>2020-07-19T12:58:16Z</time>
      </trkpt>
      <trkpt lat="45.54239" lon="6.59712">
        <ele>864.2</ele>
        <time>2020-07-19T12:58:20Z</time>
      </trkpt>
      <trkpt lat="45.5423" lon="6.59709">
        <ele>864.2</ele>
        <time>2020-07-19T12:58:24Z</time>
      </trkpt>
      <trkpt lat="45.54221" lon="6.59702">
        <ele>864.4</ele>
        <time>2020-07-19T12:58:28Z</time>
      </trkpt>
      <trkpt lat="45.54215" lon="6.59691">
        <ele>864.2</ele>
        <time>2020-07-19T12:58:32Z</time>
      </trkpt>
      <trkpt lat="45.54211" lon="6.59678">
        <ele>864.8</ele>
        <time>2020-07-19T12:58:36Z</time>
      </trkpt>
      <trkpt lat="45.54208" lon="6.59656">
        <ele>863.4</ele>
        <time>2020-07-19T12:58:40Z</time>
      </trkpt>
      <trkpt lat="45.54201" lon="6.59636">
        <ele>863</ele>
        <time>2020-07-19T12:58:44Z</time>
      </trkpt>
      <trkpt lat="45.54189" lon="6.59622">
        <ele>863.4</ele>
        <time>2020-07-19T12:58:48Z</time>
      </trkpt>
      <trkpt lat="45.54179" lon="6.59613">
        <ele>863.6</ele>
        <time>2020-07-19T12:58:52Z</time>
      </trkpt>
      <trkpt lat="45.54169" lon="6.59605">
        <ele>864.4</ele>
        <time>2020-07-19T12:58:56Z</time>
      </trkpt>
      <trkpt lat="45.54161" lon="6.59597">
        <ele>864.2</ele>
        <time>2020-07-19T12:59:00Z</time>
      </trkpt>
      <trkpt lat="45.54151" lon="6.59583">
        <ele>863.6</ele>
        <time>2020-07-19T12:59:04Z</time>
      </trkpt>
      <trkpt lat="45.5414" lon="6.59563">
        <ele>862.4</ele>
        <time>2020-07-19T12:59:08Z</time>
      </trkpt>
      <trkpt lat="45.54122" lon="6.59546">
        <ele>859.2</ele>
        <time>2020-07-19T12:59:12Z</time>
      </trkpt>
      <trkpt lat="45.54101" lon="6.59538">
        <ele>860.6</ele>
        <time>2020-07-19T12:59:16Z</time>
      </trkpt>
      <trkpt lat="45.54082" lon="6.59536">
        <ele>859.6</ele>
        <time>2020-07-19T12:59:20Z</time>
      </trkpt>
      <trkpt lat="45.54064" lon="6.59533">
        <ele>861</ele>
        <time>2020-07-19T12:59:24Z</time>
      </trkpt>
      <trkpt lat="45.5405" lon="6.59523">
        <ele>861.6</ele>
        <time>2020-07-19T12:59:28Z</time>
      </trkpt>
      <trkpt lat="45.54041" lon="6.59502">
        <ele>861</ele>
        <time>2020-07-19T12:59:32Z</time>
      </trkpt>
      <trkpt lat="45.54028" lon="6.59485">
        <ele>859.6</ele>
        <time>2020-07-19T12:59:36Z</time>
      </trkpt>
      <trkpt lat="45.54013" lon="6.59482">
        <ele>859.8</ele>
        <time>2020-07-19T12:59:40Z</time>
      </trkpt>
      <trkpt lat="45.53997" lon="6.59478">
        <ele>857.8</ele>
        <time>2020-07-19T12:59:44Z</time>
      </trkpt>
      <trkpt lat="45.53979" lon="6.59474">
        <ele>858</ele>
        <time>2020-07-19T12:59:48Z</time>
      </trkpt>
      <trkpt lat="45.53957" lon="6.59464">
        <ele>854.2</ele>
        <time>2020-07-19T12:59:52Z</time>
      </trkpt>
      <trkpt lat="45.53924" lon="6.59448">
        <ele>849.2</ele>
        <time>2020-07-19T12:59:56Z</time>
      </trkpt>
      <trkpt lat="45.5389" lon="6.59431">
        <ele>847.6</ele>
        <time>2020-07-19T13:00:00Z</time>
      </trkpt>
      <trkpt lat="45.5386" lon="6.59404">
        <ele>847.8</ele>
        <time>2020-07-19T13:00:04Z</time>
      </trkpt>
      <trkpt lat="45.53833" lon="6.59376">
        <ele>847.8</ele>
        <time>2020-07-19T13:00:08Z</time>
      </trkpt>
      <trkpt lat="45.53813" lon="6.59353">
        <ele>849.2</ele>
        <time>2020-07-19T13:00:12Z</time>
      </trkpt>
      <trkpt lat="45.53796" lon="6.59333">
        <ele>850</ele>
        <time>2020-07-19T13:00:16Z</time>
      </trkpt>
      <trkpt lat="45.53781" lon="6.59318">
        <ele>850.2</ele>
        <time>2020-07-19T13:00:20Z</time>
      </trkpt>
      <trkpt lat="45.53768" lon="6.59304">
        <ele>852.6</ele>
        <time>2020-07-19T13:00:24Z</time>
      </trkpt>
      <trkpt lat="45.53755" lon="6.59292">
        <ele>852.6</ele>
        <time>2020-07-19T13:00:28Z</time>
      </trkpt>
      <trkpt lat="45.53742" lon="6.59279">
        <ele>852.4</ele>
        <time>2020-07-19T13:00:32Z</time>
      </trkpt>
      <trkpt lat="45.53729" lon="6.59267">
        <ele>851.8</ele>
        <time>2020-07-19T13:00:36Z</time>
      </trkpt>
      <trkpt lat="45.53718" lon="6.59256">
        <ele>852</ele>
        <time>2020-07-19T13:00:40Z</time>
      </trkpt>
      <trkpt lat="45.53708" lon="6.59246">
        <ele>853.4</ele>
        <time>2020-07-19T13:00:44Z</time>
      </trkpt>
      <trkpt lat="45.537" lon="6.59237">
        <ele>854</ele>
        <time>2020-07-19T13:00:48Z</time>
      </trkpt>
      <trkpt lat="45.53691" lon="6.59226">
        <ele>852.4</ele>
        <time>2020-07-19T13:00:52Z</time>
      </trkpt>
      <trkpt lat="45.53679" lon="6.59213">
        <ele>850.4</ele>
        <time>2020-07-19T13:00:56Z</time>
      </trkpt>
      <trkpt lat="45.53664" lon="6.59196">
        <ele>850</ele>
        <time>2020-07-19T13:01:00Z</time>
      </trkpt>
      <trkpt lat="45.53645" lon="6.59175">
        <ele>848.2</ele>
        <time>2020-07-19T13:01:04Z</time>
      </trkpt>
      <trkpt lat="45.5362" lon="6.5915">
        <ele>844.8</ele>
        <time>2020-07-19T13:01:08Z</time>
      </trkpt>
      <trkpt lat="45.53595" lon="6.59124">
        <ele>844.8</ele>
        <time>2020-07-19T13:01:12Z</time>
      </trkpt>
      <trkpt lat="45.53569" lon="6.59097">
        <ele>842.6</ele>
        <time>2020-07-19T13:01:16Z</time>
      </trkpt>
      <trkpt lat="45.53542" lon="6.59069">
        <ele>841</ele>
        <time>2020-07-19T13:01:20Z</time>
      </trkpt>
      <trkpt lat="45.53515" lon="6.5904">
        <ele>837.2</ele>
        <time>2020-07-19T13:01:24Z</time>
      </trkpt>
      <trkpt lat="45.53482" lon="6.59005">
        <ele>830.6</ele>
        <time>2020-07-19T13:01:28Z</time>
      </trkpt>
      <trkpt lat="45.53448" lon="6.58969">
        <ele>825</ele>
        <time>2020-07-19T13:01:32Z</time>
      </trkpt>
      <trkpt lat="45.53411" lon="6.58931">
        <ele>823.6</ele>
        <time>2020-07-19T13:01:36Z</time>
      </trkpt>
      <trkpt lat="45.53377" lon="6.58896">
        <ele>822.6</ele>
        <time>2020-07-19T13:01:40Z</time>
      </trkpt>
      <trkpt lat="45.53348" lon="6.58864">
        <ele>822</ele>
        <time>2020-07-19T13:01:44Z</time>
      </trkpt>
      <trkpt lat="45.53321" lon="6.58837">
        <ele>823.6</ele>
        <time>2020-07-19T13:01:48Z</time>
      </trkpt>
      <trkpt lat="45.53298" lon="6.58815">
        <ele>825.8</ele>
        <time>2020-07-19T13:01:52Z</time>
      </trkpt>
      <trkpt lat="45.53282" lon="6.58801">
        <ele>827.6</ele>
        <time>2020-07-19T13:01:56Z</time>
      </trkpt>
      <trkpt lat="45.53275" lon="6.58794">
        <ele>830.8</ele>
        <time>2020-07-19T13:02:00Z</time>
      </trkpt>
      <trkpt lat="45.53281" lon="6.58789">
        <ele>831</ele>
        <time>2020-07-19T13:03:31Z</time>
      </trkpt>
      <trkpt lat="45.53286" lon="6.58794">
        <ele>831.4</ele>
        <time>2020-07-19T13:03:35Z</time>
      </trkpt>
      <trkpt lat="45.53295" lon="6.58797">
        <ele>832.4</ele>
        <time>2020-07-19T13:03:39Z</time>
      </trkpt>
      <trkpt lat="45.53303" lon="6.58801">
        <ele>832.6</ele>
        <time>2020-07-19T13:03:43Z</time>
      </trkpt>
      <trkpt lat="45.53311" lon="6.58804">
        <ele>833.8</ele>
        <time>2020-07-19T13:03:47Z</time>
      </trkpt>
      <trkpt lat="45.53318" lon="6.58807">
        <ele>834.2</ele>
        <time>2020-07-19T13:03:51Z</time>
      </trkpt>
      <trkpt lat="45.53325" lon="6.58811">
        <ele>835</ele>
        <time>2020-07-19T13:03:55Z</time>
      </trkpt>
      <trkpt lat="45.53332" lon="6.58814">
        <ele>835.6</ele>
        <time>2020-07-19T13:03:59Z</time>
      </trkpt>
      <trkpt lat="45.53338" lon="6.58818">
        <ele>836.2</ele>
        <time>2020-07-19T13:04:03Z</time>
      </trkpt>
      <trkpt lat="45.53344" lon="6.58823">
        <ele>837</ele>
        <time>2020-07-19T13:04:07Z</time>
      </trkpt>
      <trkpt lat="45.53349" lon="6.5883">
        <ele>837.6</ele>
        <time>2020-07-19T13:04:11Z</time>
      </trkpt>
      <trkpt lat="45.53354" lon="6.58838">
        <ele>838.8</ele>
        <time>2020-07-19T13:04:15Z</time>
      </trkpt>
      <trkpt lat="45.5336" lon="6.58845">
        <ele>839.4</ele>
        <time>2020-07-19T13:04:19Z</time>
      </trkpt>
      <trkpt lat="45.53366" lon="6.58851">
        <ele>840.2</ele>
        <time>2020-07-19T13:04:23Z</time>
      </trkpt>
      <trkpt lat="45.5337" lon="6.58858">
        <ele>840.4</ele>
        <time>2020-07-19T13:04:27Z</time>
      </trkpt>
      <trkpt lat="45.53375" lon="6.58865">
        <ele>841.4</ele>
        <time>2020-07-19T13:04:31Z</time>
      </trkpt>
      <trkpt lat="45.53381" lon="6.58867">
        <ele>841.6</ele>
        <time>2020-07-19T13:04:35Z</time>
      </trkpt>
      <trkpt lat="45.53385" lon="6.58861">
        <ele>842.8</ele>
        <time>2020-07-19T13:04:39Z</time>
      </trkpt>
      <trkpt lat="45.53383" lon="6.58853">
        <ele>843.8</ele>
        <time>2020-07-19T13:04:43Z</time>
      </trkpt>
      <trkpt lat="45.53379" lon="6.58847">
        <ele>843.2</ele>
        <time>2020-07-19T13:04:47Z</time>
      </trkpt>
      <trkpt lat="45.53375" lon="6.58842">
        <ele>844</ele>
        <time>2020-07-19T13:04:51Z</time>
      </trkpt>
      <trkpt lat="45.53371" lon="6.58835">
        <ele>844.2</ele>
        <time>2020-07-19T13:04:55Z</time>
      </trkpt>
      <trkpt lat="45.53367" lon="6.58827">
        <ele>845</ele>
        <time>2020-07-19T13:04:59Z</time>
      </trkpt>
      <trkpt lat="45.53363" lon="6.5882">
        <ele>846</ele>
        <time>2020-07-19T13:05:03Z</time>
      </trkpt>
      <trkpt lat="45.53359" lon="6.58812">
        <ele>846.4</ele>
        <time>2020-07-19T13:05:07Z</time>
      </trkpt>
      <trkpt lat="45.53354" lon="6.58804">
        <ele>846.8</ele>
        <time>2020-07-19T13:05:11Z</time>
      </trkpt>
      <trkpt lat="45.5335" lon="6.58796">
        <ele>847.8</ele>
        <time>2020-07-19T13:05:15Z</time>
      </trkpt>
      <trkpt lat="45.53347" lon="6.58787">
        <ele>848.8</ele>
        <time>2020-07-19T13:05:19Z</time>
      </trkpt>
      <trkpt lat="45.53343" lon="6.58779">
        <ele>848.6</ele>
        <time>2020-07-19T13:05:23Z</time>
      </trkpt>
      <trkpt lat="45.53337" lon="6.58771">
        <ele>849</ele>
        <time>2020-07-19T13:05:27Z</time>
      </trkpt>
      <trkpt lat="45.53333" lon="6.58763">
        <ele>849.6</ele>
        <time>2020-07-19T13:05:31Z</time>
      </trkpt>
      <trkpt lat="45.53329" lon="6.58754">
        <ele>850</ele>
        <time>2020-07-19T13:05:35Z</time>
      </trkpt>
      <trkpt lat="45.53325" lon="6.58745">
        <ele>850.8</ele>
        <time>2020-07-19T13:05:39Z</time>
      </trkpt>
      <trkpt lat="45.5332" lon="6.58735">
        <ele>851.4</ele>
        <time>2020-07-19T13:05:43Z</time>
      </trkpt>
      <trkpt lat="45.53317" lon="6.58725">
        <ele>851.6</ele>
        <time>2020-07-19T13:05:47Z</time>
      </trkpt>
      <trkpt lat="45.53315" lon="6.58714">
        <ele>853</ele>
        <time>2020-07-19T13:05:51Z</time>
      </trkpt>
      <trkpt lat="45.53314" lon="6.58702">
        <ele>854.2</ele>
        <time>2020-07-19T13:05:55Z</time>
      </trkpt>
      <trkpt lat="45.53313" lon="6.58691">
        <ele>854.4</ele>
        <time>2020-07-19T13:05:59Z</time>
      </trkpt>
      <trkpt lat="45.53312" lon="6.58681">
        <ele>855</ele>
        <time>2020-07-19T13:06:03Z</time>
      </trkpt>
      <trkpt lat="45.53309" lon="6.58671">
        <ele>855.8</ele>
        <time>2020-07-19T13:06:07Z</time>
      </trkpt>
      <trkpt lat="45.53305" lon="6.58662">
        <ele>856.2</ele>
        <time>2020-07-19T13:06:11Z</time>
      </trkpt>
      <trkpt lat="45.533" lon="6.58653">
        <ele>857</ele>
        <time>2020-07-19T13:06:15Z</time>
      </trkpt>
      <trkpt lat="45.53295" lon="6.58644">
        <ele>857.4</ele>
        <time>2020-07-19T13:06:19Z</time>
      </trkpt>
      <trkpt lat="45.53288" lon="6.58636">
        <ele>858.2</ele>
        <time>2020-07-19T13:06:23Z</time>
      </trkpt>
      <trkpt lat="45.53282" lon="6.58628">
        <ele>859</ele>
        <time>2020-07-19T13:06:27Z</time>
      </trkpt>
      <trkpt lat="45.53277" lon="6.5862">
        <ele>860.4</ele>
        <time>2020-07-19T13:06:31Z</time>
      </trkpt>
      <trkpt lat="45.53271" lon="6.58612">
        <ele>861</ele>
        <time>2020-07-19T13:06:35Z</time>
      </trkpt>
      <trkpt lat="45.53264" lon="6.58605">
        <ele>861.4</ele>
        <time>2020-07-19T13:06:39Z</time>
      </trkpt>
      <trkpt lat="45.53258" lon="6.58597">
        <ele>862.2</ele>
        <time>2020-07-19T13:06:43Z</time>
      </trkpt>
      <trkpt lat="45.53252" lon="6.58592">
        <ele>862.8</ele>
        <time>2020-07-19T13:06:47Z</time>
      </trkpt>
      <trkpt lat="45.53245" lon="6.58587">
        <ele>863.4</ele>
        <time>2020-07-19T13:06:51Z</time>
      </trkpt>
      <trkpt lat="45.53239" lon="6.58581">
        <ele>863.4</ele>
        <time>2020-07-19T13:06:55Z</time>
      </trkpt>
      <trkpt lat="45.53232" lon="6.58577">
        <ele>864.4</ele>
        <time>2020-07-19T13:06:59Z</time>
      </trkpt>
      <trkpt lat="45.53224" lon="6.58574">
        <ele>865</ele>
        <time>2020-07-19T13:07:03Z</time>
      </trkpt>
      <trkpt lat="45.53217" lon="6.5857">
        <ele>865.6</ele>
        <time>2020-07-19T13:07:07Z</time>
      </trkpt>
      <trkpt lat="45.5321" lon="6.58567">
        <ele>866.2</ele>
        <time>2020-07-19T13:07:11Z</time>
      </trkpt>
      <trkpt lat="45.53203" lon="6.58563">
        <ele>866</ele>
        <time>2020-07-19T13:07:15Z</time>
      </trkpt>
      <trkpt lat="45.53197" lon="6.58559">
        <ele>867.2</ele>
        <time>2020-07-19T13:07:19Z</time>
      </trkpt>
      <trkpt lat="45.53191" lon="6.58553">
        <ele>868.2</ele>
        <time>2020-07-19T13:07:23Z</time>
      </trkpt>
      <trkpt lat="45.53189" lon="6.58545">
        <ele>868.8</ele>
        <time>2020-07-19T13:07:27Z</time>
      </trkpt>
      <trkpt lat="45.53188" lon="6.58539">
        <ele>869.6</ele>
        <time>2020-07-19T13:07:31Z</time>
      </trkpt>
      <trkpt lat="45.53197" lon="6.58547">
        <ele>869</ele>
        <time>2020-07-19T13:10:18Z</time>
      </trkpt>
      <trkpt lat="45.53203" lon="6.58549">
        <ele>869.6</ele>
        <time>2020-07-19T13:10:22Z</time>
      </trkpt>
      <trkpt lat="45.53209" lon="6.58551">
        <ele>870.8</ele>
        <time>2020-07-19T13:10:26Z</time>
      </trkpt>
      <trkpt lat="45.53216" lon="6.58551">
        <ele>871.4</ele>
        <time>2020-07-19T13:10:30Z</time>
      </trkpt>
      <trkpt lat="45.53222" lon="6.58552">
        <ele>872</ele>
        <time>2020-07-19T13:10:34Z</time>
      </trkpt>
      <trkpt lat="45.5323" lon="6.58554">
        <ele>873</ele>
        <time>2020-07-19T13:10:38Z</time>
      </trkpt>
      <trkpt lat="45.53236" lon="6.58554">
        <ele>873.6</ele>
        <time>2020-07-19T13:10:42Z</time>
      </trkpt>
      <trkpt lat="45.53244" lon="6.58557">
        <ele>874.4</ele>
        <time>2020-07-19T13:10:46Z</time>
      </trkpt>
      <trkpt lat="45.53251" lon="6.5856">
        <ele>875</ele>
        <time>2020-07-19T13:10:50Z</time>
      </trkpt>
      <trkpt lat="45.53258" lon="6.58564">
        <ele>875.4</ele>
        <time>2020-07-19T13:10:54Z</time>
      </trkpt>
      <trkpt lat="45.53266" lon="6.58567">
        <ele>875.4</ele>
        <time>2020-07-19T13:10:58Z</time>
      </trkpt>
      <trkpt lat="45.53273" lon="6.5857">
        <ele>876.4</ele>
        <time>2020-07-19T13:11:02Z</time>
      </trkpt>
      <trkpt lat="45.5328" lon="6.58574">
        <ele>876.6</ele>
        <time>2020-07-19T13:11:06Z</time>
      </trkpt>
      <trkpt lat="45.53287" lon="6.58578">
        <ele>877.4</ele>
        <time>2020-07-19T13:11:10Z</time>
      </trkpt>
      <trkpt lat="45.53294" lon="6.58582">
        <ele>877.8</ele>
        <time>2020-07-19T13:11:14Z</time>
      </trkpt>
      <trkpt lat="45.53301" lon="6.58586">
        <ele>878.6</ele>
        <time>2020-07-19T13:11:18Z</time>
      </trkpt>
      <trkpt lat="45.53308" lon="6.58589">
        <ele>879.4</ele>
        <time>2020-07-19T13:11:22Z</time>
      </trkpt>
      <trkpt lat="45.53314" lon="6.58593">
        <ele>879.6</ele>
        <time>2020-07-19T13:11:26Z</time>
      </trkpt>
      <trkpt lat="45.53321" lon="6.58597">
        <ele>880.2</ele>
        <time>2020-07-19T13:11:30Z</time>
      </trkpt>
      <trkpt lat="45.53328" lon="6.58603">
        <ele>880.8</ele>
        <time>2020-07-19T13:11:34Z</time>
      </trkpt>
      <trkpt lat="45.53334" lon="6.5861">
        <ele>881</ele>
        <time>2020-07-19T13:11:38Z</time>
      </trkpt>
      <trkpt lat="45.53338" lon="6.58619">
        <ele>881.6</ele>
        <time>2020-07-19T13:11:42Z</time>
      </trkpt>
      <trkpt lat="45.53342" lon="6.58628">
        <ele>882.4</ele>
        <time>2020-07-19T13:11:46Z</time>
      </trkpt>
      <trkpt lat="45.53347" lon="6.58636">
        <ele>883.6</ele>
        <time>2020-07-19T13:11:50Z</time>
      </trkpt>
      <trkpt lat="45.53351" lon="6.58646">
        <ele>884</ele>
        <time>2020-07-19T13:11:54Z</time>
      </trkpt>
      <trkpt lat="45.53355" lon="6.58655">
        <ele>885</ele>
        <time>2020-07-19T13:11:58Z</time>
      </trkpt>
      <trkpt lat="45.53359" lon="6.58665">
        <ele>885.6</ele>
        <time>2020-07-19T13:12:02Z</time>
      </trkpt>
      <trkpt lat="45.53363" lon="6.58674">
        <ele>886.2</ele>
        <time>2020-07-19T13:12:06Z</time>
      </trkpt>
      <trkpt lat="45.53368" lon="6.58683">
        <ele>886.8</ele>
        <time>2020-07-19T13:12:10Z</time>
      </trkpt>
      <trkpt lat="45.53372" lon="6.58692">
        <ele>887.4</ele>
        <time>2020-07-19T13:12:14Z</time>
      </trkpt>
      <trkpt lat="45.53377" lon="6.587">
        <ele>888.2</ele>
        <time>2020-07-19T13:12:18Z</time>
      </trkpt>
      <trkpt lat="45.53381" lon="6.58709">
        <ele>888.4</ele>
        <time>2020-07-19T13:12:22Z</time>
      </trkpt>
      <trkpt lat="45.53387" lon="6.58718">
        <ele>888.6</ele>
        <time>2020-07-19T13:12:26Z</time>
      </trkpt>
      <trkpt lat="45.53392" lon="6.58727">
        <ele>889.8</ele>
        <time>2020-07-19T13:12:30Z</time>
      </trkpt>
      <trkpt lat="45.53397" lon="6.58735">
        <ele>889.8</ele>
        <time>2020-07-19T13:12:34Z</time>
      </trkpt>
      <trkpt lat="45.53401" lon="6.58742">
        <ele>891.2</ele>
        <time>2020-07-19T13:12:38Z</time>
      </trkpt>
      <trkpt lat="45.53406" lon="6.58751">
        <ele>892</ele>
        <time>2020-07-19T13:12:42Z</time>
      </trkpt>
      <trkpt lat="45.5341" lon="6.5876">
        <ele>892.4</ele>
        <time>2020-07-19T13:12:46Z</time>
      </trkpt>
      <trkpt lat="45.53414" lon="6.58768">
        <ele>893.4</ele>
        <time>2020-07-19T13:12:50Z</time>
      </trkpt>
      <trkpt lat="45.53419" lon="6.58777">
        <ele>894.2</ele>
        <time>2020-07-19T13:12:54Z</time>
      </trkpt>
      <trkpt lat="45.53423" lon="6.58785">
        <ele>894.6</ele>
        <time>2020-07-19T13:12:58Z</time>
      </trkpt>
      <trkpt lat="45.53427" lon="6.58794">
        <ele>896</ele>
        <time>2020-07-19T13:13:02Z</time>
      </trkpt>
      <trkpt lat="45.53433" lon="6.58803">
        <ele>895.8</ele>
        <time>2020-07-19T13:13:06Z</time>
      </trkpt>
      <trkpt lat="45.53438" lon="6.5881">
        <ele>896.4</ele>
        <time>2020-07-19T13:13:10Z</time>
      </trkpt>
      <trkpt lat="45.53445" lon="6.58816">
        <ele>897</ele>
        <time>2020-07-19T13:13:14Z</time>
      </trkpt>
      <trkpt lat="45.53451" lon="6.58823">
        <ele>898.2</ele>
        <time>2020-07-19T13:13:18Z</time>
      </trkpt>
      <trkpt lat="45.53459" lon="6.58828">
        <ele>898.8</ele>
        <time>2020-07-19T13:13:22Z</time>
      </trkpt>
      <trkpt lat="45.53466" lon="6.58831">
        <ele>899.4</ele>
        <time>2020-07-19T13:13:26Z</time>
      </trkpt>
      <trkpt lat="45.53473" lon="6.58834">
        <ele>900</ele>
        <time>2020-07-19T13:13:30Z</time>
      </trkpt>
      <trkpt lat="45.5348" lon="6.58837">
        <ele>901</ele>
        <time>2020-07-19T13:13:34Z</time>
      </trkpt>
      <trkpt lat="45.53487" lon="6.58841">
        <ele>901</ele>
        <time>2020-07-19T13:13:38Z</time>
      </trkpt>
      <trkpt lat="45.53494" lon="6.58845">
        <ele>902</ele>
        <time>2020-07-19T13:13:42Z</time>
      </trkpt>
      <trkpt lat="45.53502" lon="6.58846">
        <ele>902.4</ele>
        <time>2020-07-19T13:13:46Z</time>
      </trkpt>
      <trkpt lat="45.53509" lon="6.58849">
        <ele>903.4</ele>
        <time>2020-07-19T13:13:50Z</time>
      </trkpt>
      <trkpt lat="45.53516" lon="6.58851">
        <ele>904</ele>
        <time>2020-07-19T13:13:54Z</time>
      </trkpt>
      <trkpt lat="45.53523" lon="6.58853">
        <ele>904.4</ele>
        <time>2020-07-19T13:13:58Z</time>
      </trkpt>
      <trkpt lat="45.5353" lon="6.58856">
        <ele>905.2</ele>
        <time>2020-07-19T13:14:02Z</time>
      </trkpt>
      <trkpt lat="45.53537" lon="6.58859">
        <ele>905.6</ele>
        <time>2020-07-19T13:14:06Z</time>
      </trkpt>
      <trkpt lat="45.53543" lon="6.58863">
        <ele>906.2</ele>
        <time>2020-07-19T13:14:10Z</time>
      </trkpt>
      <trkpt lat="45.53551" lon="6.58867">
        <ele>906.8</ele>
        <time>2020-07-19T13:14:14Z</time>
      </trkpt>
      <trkpt lat="45.53558" lon="6.58872">
        <ele>907.4</ele>
        <time>2020-07-19T13:14:18Z</time>
      </trkpt>
      <trkpt lat="45.53564" lon="6.58877">
        <ele>908</ele>
        <time>2020-07-19T13:14:22Z</time>
      </trkpt>
      <trkpt lat="45.53571" lon="6.5888">
        <ele>908</ele>
        <time>2020-07-19T13:14:26Z</time>
      </trkpt>
      <trkpt lat="45.53577" lon="6.58884">
        <ele>909</ele>
        <time>2020-07-19T13:14:30Z</time>
      </trkpt>
      <trkpt lat="45.53584" lon="6.58889">
        <ele>909.4</ele>
        <time>2020-07-19T13:14:34Z</time>
      </trkpt>
      <trkpt lat="45.53591" lon="6.58892">
        <ele>910.4</ele>
        <time>2020-07-19T13:14:38Z</time>
      </trkpt>
      <trkpt lat="45.53598" lon="6.58896">
        <ele>911</ele>
        <time>2020-07-19T13:14:42Z</time>
      </trkpt>
      <trkpt lat="45.53605" lon="6.589">
        <ele>911.8</ele>
        <time>2020-07-19T13:14:46Z</time>
      </trkpt>
      <trkpt lat="45.53612" lon="6.58903">
        <ele>913</ele>
        <time>2020-07-19T13:14:50Z</time>
      </trkpt>
      <trkpt lat="45.53618" lon="6.58908">
        <ele>913.4</ele>
        <time>2020-07-19T13:14:54Z</time>
      </trkpt>
      <trkpt lat="45.53623" lon="6.58916">
        <ele>913.8</ele>
        <time>2020-07-19T13:14:58Z</time>
      </trkpt>
      <trkpt lat="45.53629" lon="6.58923">
        <ele>914.2</ele>
        <time>2020-07-19T13:15:02Z</time>
      </trkpt>
      <trkpt lat="45.53635" lon="6.58928">
        <ele>914.8</ele>
        <time>2020-07-19T13:15:06Z</time>
      </trkpt>
      <trkpt lat="45.53639" lon="6.58922">
        <ele>915.8</ele>
        <time>2020-07-19T13:15:10Z</time>
      </trkpt>
      <trkpt lat="45.53636" lon="6.58913">
        <ele>916.6</ele>
        <time>2020-07-19T13:15:14Z</time>
      </trkpt>
      <trkpt lat="45.53631" lon="6.58905">
        <ele>916.6</ele>
        <time>2020-07-19T13:15:18Z</time>
      </trkpt>
      <trkpt lat="45.53625" lon="6.58898">
        <ele>917.2</ele>
        <time>2020-07-19T13:15:22Z</time>
      </trkpt>
      <trkpt lat="45.5362" lon="6.5889">
        <ele>917.8</ele>
        <time>2020-07-19T13:15:26Z</time>
      </trkpt>
      <trkpt lat="45.53615" lon="6.58882">
        <ele>918.6</ele>
        <time>2020-07-19T13:15:30Z</time>
      </trkpt>
      <trkpt lat="45.5361" lon="6.58875">
        <ele>919.6</ele>
        <time>2020-07-19T13:15:34Z</time>
      </trkpt>
      <trkpt lat="45.53605" lon="6.58869">
        <ele>920.2</ele>
        <time>2020-07-19T13:15:38Z</time>
      </trkpt>
      <trkpt lat="45.53599" lon="6.58863">
        <ele>921.2</ele>
        <time>2020-07-19T13:15:42Z</time>
      </trkpt>
      <trkpt lat="45.53593" lon="6.58856">
        <ele>921.6</ele>
        <time>2020-07-19T13:15:46Z</time>
      </trkpt>
      <trkpt lat="45.53586" lon="6.5885">
        <ele>922.4</ele>
        <time>2020-07-19T13:15:50Z</time>
      </trkpt>
      <trkpt lat="45.5358" lon="6.58844">
        <ele>923</ele>
        <time>2020-07-19T13:15:54Z</time>
      </trkpt>
      <trkpt lat="45.53573" lon="6.58839">
        <ele>923.4</ele>
        <time>2020-07-19T13:15:58Z</time>
      </trkpt>
      <trkpt lat="45.53566" lon="6.58833">
        <ele>923.8</ele>
        <time>2020-07-19T13:16:02Z</time>
      </trkpt>
      <trkpt lat="45.53559" lon="6.58828">
        <ele>924.6</ele>
        <time>2020-07-19T13:16:06Z</time>
      </trkpt>
      <trkpt lat="45.53552" lon="6.58824">
        <ele>924.8</ele>
        <time>2020-07-19T13:16:10Z</time>
      </trkpt>
      <trkpt lat="45.53544" lon="6.58822">
        <ele>926.4</ele>
        <time>2020-07-19T13:16:14Z</time>
      </trkpt>
      <trkpt lat="45.53536" lon="6.58819">
        <ele>926.2</ele>
        <time>2020-07-19T13:16:18Z</time>
      </trkpt>
      <trkpt lat="45.53527" lon="6.58817">
        <ele>927</ele>
        <time>2020-07-19T13:16:22Z</time>
      </trkpt>
      <trkpt lat="45.5352" lon="6.58812">
        <ele>928.4</ele>
        <time>2020-07-19T13:16:26Z</time>
      </trkpt>
      <trkpt lat="45.53514" lon="6.58804">
        <ele>929</ele>
        <time>2020-07-19T13:16:30Z</time>
      </trkpt>
      <trkpt lat="45.5351" lon="6.58794">
        <ele>929.6</ele>
        <time>2020-07-19T13:16:34Z</time>
      </trkpt>
      <trkpt lat="45.53508" lon="6.58782">
        <ele>930.8</ele>
        <time>2020-07-19T13:16:38Z</time>
      </trkpt>
      <trkpt lat="45.53509" lon="6.5877">
        <ele>931.2</ele>
        <time>2020-07-19T13:16:42Z</time>
      </trkpt>
      <trkpt lat="45.5351" lon="6.58759">
        <ele>932.6</ele>
        <time>2020-07-19T13:16:46Z</time>
      </trkpt>
      <trkpt lat="45.53512" lon="6.58748">
        <ele>932.6</ele>
        <time>2020-07-19T13:16:50Z</time>
      </trkpt>
      <trkpt lat="45.53513" lon="6.58737">
        <ele>933.2</ele>
        <time>2020-07-19T13:16:54Z</time>
      </trkpt>
      <trkpt lat="45.53514" lon="6.58726">
        <ele>933.6</ele>
        <time>2020-07-19T13:16:58Z</time>
      </trkpt>
      <trkpt lat="45.53516" lon="6.58717">
        <ele>934</ele>
        <time>2020-07-19T13:17:02Z</time>
      </trkpt>
      <trkpt lat="45.53517" lon="6.58707">
        <ele>934.6</ele>
        <time>2020-07-19T13:17:06Z</time>
      </trkpt>
      <trkpt lat="45.53518" lon="6.58698">
        <ele>935.8</ele>
        <time>2020-07-19T13:17:10Z</time>
      </trkpt>
      <trkpt lat="45.53517" lon="6.58688">
        <ele>936.2</ele>
        <time>2020-07-19T13:17:14Z</time>
      </trkpt>
      <trkpt lat="45.53515" lon="6.58677">
        <ele>936.2</ele>
        <time>2020-07-19T13:17:18Z</time>
      </trkpt>
      <trkpt lat="45.53512" lon="6.58667">
        <ele>937</ele>
        <time>2020-07-19T13:17:22Z</time>
      </trkpt>
      <trkpt lat="45.5351" lon="6.58656">
        <ele>938.2</ele>
        <time>2020-07-19T13:17:26Z</time>
      </trkpt>
      <trkpt lat="45.53507" lon="6.58646">
        <ele>938.6</ele>
        <time>2020-07-19T13:17:30Z</time>
      </trkpt>
      <trkpt lat="45.53504" lon="6.58635">
        <ele>939.4</ele>
        <time>2020-07-19T13:17:34Z</time>
      </trkpt>
      <trkpt lat="45.53502" lon="6.58625">
        <ele>940</ele>
        <time>2020-07-19T13:17:38Z</time>
      </trkpt>
      <trkpt lat="45.535" lon="6.58615">
        <ele>941</ele>
        <time>2020-07-19T13:17:42Z</time>
      </trkpt>
      <trkpt lat="45.53497" lon="6.58604">
        <ele>941.6</ele>
        <time>2020-07-19T13:17:46Z</time>
      </trkpt>
      <trkpt lat="45.53492" lon="6.58595">
        <ele>942.2</ele>
        <time>2020-07-19T13:17:50Z</time>
      </trkpt>
      <trkpt lat="45.53487" lon="6.58587">
        <ele>942.6</ele>
        <time>2020-07-19T13:17:54Z</time>
      </trkpt>
      <trkpt lat="45.53482" lon="6.58579">
        <ele>943</ele>
        <time>2020-07-19T13:17:58Z</time>
      </trkpt>
      <trkpt lat="45.53476" lon="6.58571">
        <ele>944</ele>
        <time>2020-07-19T13:18:02Z</time>
      </trkpt>
      <trkpt lat="45.53471" lon="6.58564">
        <ele>944.2</ele>
        <time>2020-07-19T13:18:06Z</time>
      </trkpt>
      <trkpt lat="45.53466" lon="6.58557">
        <ele>945.8</ele>
        <time>2020-07-19T13:18:10Z</time>
      </trkpt>
      <trkpt lat="45.5346" lon="6.58548">
        <ele>946.2</ele>
        <time>2020-07-19T13:18:14Z</time>
      </trkpt>
      <trkpt lat="45.53454" lon="6.5854">
        <ele>946.4</ele>
        <time>2020-07-19T13:18:18Z</time>
      </trkpt>
      <trkpt lat="45.53449" lon="6.58532">
        <ele>947</ele>
        <time>2020-07-19T13:18:22Z</time>
      </trkpt>
      <trkpt lat="45.53444" lon="6.58523">
        <ele>948.2</ele>
        <time>2020-07-19T13:18:26Z</time>
      </trkpt>
      <trkpt lat="45.53439" lon="6.58515">
        <ele>949.2</ele>
        <time>2020-07-19T13:18:30Z</time>
      </trkpt>
      <trkpt lat="45.53435" lon="6.58507">
        <ele>949.8</ele>
        <time>2020-07-19T13:18:34Z</time>
      </trkpt>
      <trkpt lat="45.5343" lon="6.58499">
        <ele>950.4</ele>
        <time>2020-07-19T13:18:38Z</time>
      </trkpt>
      <trkpt lat="45.53425" lon="6.58491">
        <ele>950.8</ele>
        <time>2020-07-19T13:18:42Z</time>
      </trkpt>
      <trkpt lat="45.5342" lon="6.58484">
        <ele>951.2</ele>
        <time>2020-07-19T13:18:46Z</time>
      </trkpt>
      <trkpt lat="45.53417" lon="6.58476">
        <ele>952</ele>
        <time>2020-07-19T13:18:50Z</time>
      </trkpt>
      <trkpt lat="45.53412" lon="6.58469">
        <ele>952.8</ele>
        <time>2020-07-19T13:18:54Z</time>
      </trkpt>
      <trkpt lat="45.53407" lon="6.58462">
        <ele>953.2</ele>
        <time>2020-07-19T13:18:58Z</time>
      </trkpt>
      <trkpt lat="45.53403" lon="6.58453">
        <ele>954</ele>
        <time>2020-07-19T13:19:02Z</time>
      </trkpt>
      <trkpt lat="45.53401" lon="6.58445">
        <ele>954.6</ele>
        <time>2020-07-19T13:19:06Z</time>
      </trkpt>
      <trkpt lat="45.53396" lon="6.58436">
        <ele>954.2</ele>
        <time>2020-07-19T13:19:10Z</time>
      </trkpt>
      <trkpt lat="45.5339" lon="6.58428">
        <ele>955</ele>
        <time>2020-07-19T13:19:14Z</time>
      </trkpt>
      <trkpt lat="45.53384" lon="6.58421">
        <ele>956</ele>
        <time>2020-07-19T13:19:18Z</time>
      </trkpt>
      <trkpt lat="45.53377" lon="6.58414">
        <ele>956.8</ele>
        <time>2020-07-19T13:19:22Z</time>
      </trkpt>
      <trkpt lat="45.5337" lon="6.5841">
        <ele>957.6</ele>
        <time>2020-07-19T13:19:26Z</time>
      </trkpt>
      <trkpt lat="45.53363" lon="6.58406">
        <ele>958.4</ele>
        <time>2020-07-19T13:19:30Z</time>
      </trkpt>
      <trkpt lat="45.53356" lon="6.58403">
        <ele>959.2</ele>
        <time>2020-07-19T13:19:34Z</time>
      </trkpt>
      <trkpt lat="45.53349" lon="6.58399">
        <ele>960.2</ele>
        <time>2020-07-19T13:19:38Z</time>
      </trkpt>
      <trkpt lat="45.53342" lon="6.58394">
        <ele>960.6</ele>
        <time>2020-07-19T13:19:42Z</time>
      </trkpt>
      <trkpt lat="45.53336" lon="6.58389">
        <ele>961.8</ele>
        <time>2020-07-19T13:19:46Z</time>
      </trkpt>
      <trkpt lat="45.5333" lon="6.58384">
        <ele>962.4</ele>
        <time>2020-07-19T13:19:50Z</time>
      </trkpt>
      <trkpt lat="45.53325" lon="6.58378">
        <ele>963.2</ele>
        <time>2020-07-19T13:19:54Z</time>
      </trkpt>
      <trkpt lat="45.53319" lon="6.58372">
        <ele>963.2</ele>
        <time>2020-07-19T13:19:58Z</time>
      </trkpt>
      <trkpt lat="45.53313" lon="6.58366">
        <ele>964.2</ele>
        <time>2020-07-19T13:20:02Z</time>
      </trkpt>
      <trkpt lat="45.53308" lon="6.5836">
        <ele>964.4</ele>
        <time>2020-07-19T13:20:06Z</time>
      </trkpt>
      <trkpt lat="45.53303" lon="6.58353">
        <ele>965</ele>
        <time>2020-07-19T13:20:10Z</time>
      </trkpt>
      <trkpt lat="45.53298" lon="6.58345">
        <ele>965.8</ele>
        <time>2020-07-19T13:20:14Z</time>
      </trkpt>
      <trkpt lat="45.53294" lon="6.58338">
        <ele>966.2</ele>
        <time>2020-07-19T13:20:18Z</time>
      </trkpt>
      <trkpt lat="45.53288" lon="6.5833">
        <ele>966.8</ele>
        <time>2020-07-19T13:20:22Z</time>
      </trkpt>
      <trkpt lat="45.53283" lon="6.58322">
        <ele>968.2</ele>
        <time>2020-07-19T13:20:26Z</time>
      </trkpt>
      <trkpt lat="45.53279" lon="6.58314">
        <ele>968.2</ele>
        <time>2020-07-19T13:20:30Z</time>
      </trkpt>
      <trkpt lat="45.53275" lon="6.58305">
        <ele>969</ele>
        <time>2020-07-19T13:20:34Z</time>
      </trkpt>
      <trkpt lat="45.53271" lon="6.58298">
        <ele>969.6</ele>
        <time>2020-07-19T13:20:38Z</time>
      </trkpt>
      <trkpt lat="45.53265" lon="6.58291">
        <ele>969.2</ele>
        <time>2020-07-19T13:20:42Z</time>
      </trkpt>
      <trkpt lat="45.53259" lon="6.58285">
        <ele>969.8</ele>
        <time>2020-07-19T13:20:46Z</time>
      </trkpt>
      <trkpt lat="45.53252" lon="6.5828">
        <ele>970.4</ele>
        <time>2020-07-19T13:20:50Z</time>
      </trkpt>
      <trkpt lat="45.53247" lon="6.58273">
        <ele>971.2</ele>
        <time>2020-07-19T13:20:54Z</time>
      </trkpt>
      <trkpt lat="45.53247" lon="6.58264">
        <ele>971.4</ele>
        <time>2020-07-19T13:20:58Z</time>
      </trkpt>
      <trkpt lat="45.5325" lon="6.5826">
        <ele>972</ele>
        <time>2020-07-19T13:21:02Z</time>
      </trkpt>
      <trkpt lat="45.53246" lon="6.58256">
        <ele>971.8</ele>
        <time>2020-07-19T13:21:06Z</time>
      </trkpt>
      <trkpt lat="45.53252" lon="6.58265">
        <ele>971.6</ele>
        <time>2020-07-19T13:24:19Z</time>
      </trkpt>
      <trkpt lat="45.5326" lon="6.58272">
        <ele>972.8</ele>
        <time>2020-07-19T13:24:23Z</time>
      </trkpt>
      <trkpt lat="45.53267" lon="6.58279">
        <ele>973.2</ele>
        <time>2020-07-19T13:24:27Z</time>
      </trkpt>
      <trkpt lat="45.53274" lon="6.58286">
        <ele>973.8</ele>
        <time>2020-07-19T13:24:31Z</time>
      </trkpt>
      <trkpt lat="45.53281" lon="6.58291">
        <ele>974.2</ele>
        <time>2020-07-19T13:24:35Z</time>
      </trkpt>
      <trkpt lat="45.53288" lon="6.58295">
        <ele>974.8</ele>
        <time>2020-07-19T13:24:39Z</time>
      </trkpt>
      <trkpt lat="45.53294" lon="6.583">
        <ele>975.4</ele>
        <time>2020-07-19T13:24:43Z</time>
      </trkpt>
      <trkpt lat="45.533" lon="6.58302">
        <ele>976</ele>
        <time>2020-07-19T13:24:47Z</time>
      </trkpt>
      <trkpt lat="45.53305" lon="6.58303">
        <ele>976.6</ele>
        <time>2020-07-19T13:24:51Z</time>
      </trkpt>
      <trkpt lat="45.5331" lon="6.58304">
        <ele>977</ele>
        <time>2020-07-19T13:24:55Z</time>
      </trkpt>
      <trkpt lat="45.53316" lon="6.58306">
        <ele>977.4</ele>
        <time>2020-07-19T13:24:59Z</time>
      </trkpt>
      <trkpt lat="45.53321" lon="6.58309">
        <ele>977.8</ele>
        <time>2020-07-19T13:25:03Z</time>
      </trkpt>
      <trkpt lat="45.53327" lon="6.58314">
        <ele>978.4</ele>
        <time>2020-07-19T13:25:07Z</time>
      </trkpt>
      <trkpt lat="45.53333" lon="6.5832">
        <ele>978</ele>
        <time>2020-07-19T13:25:11Z</time>
      </trkpt>
      <trkpt lat="45.53339" lon="6.58326">
        <ele>980.2</ele>
        <time>2020-07-19T13:25:15Z</time>
      </trkpt>
      <trkpt lat="45.53346" lon="6.58333">
        <ele>981</ele>
        <time>2020-07-19T13:25:19Z</time>
      </trkpt>
      <trkpt lat="45.53352" lon="6.58338">
        <ele>981</ele>
        <time>2020-07-19T13:25:23Z</time>
      </trkpt>
      <trkpt lat="45.53357" lon="6.58344">
        <ele>982</ele>
        <time>2020-07-19T13:25:27Z</time>
      </trkpt>
      <trkpt lat="45.53361" lon="6.58347">
        <ele>981.8</ele>
        <time>2020-07-19T13:25:31Z</time>
      </trkpt>
      <trkpt lat="45.53365" lon="6.58351">
        <ele>982.2</ele>
        <time>2020-07-19T13:25:35Z</time>
      </trkpt>
      <trkpt lat="45.5337" lon="6.58354">
        <ele>982.6</ele>
        <time>2020-07-19T13:25:39Z</time>
      </trkpt>
      <trkpt lat="45.53376" lon="6.58356">
        <ele>982.8</ele>
        <time>2020-07-19T13:25:43Z</time>
      </trkpt>
      <trkpt lat="45.53382" lon="6.58359">
        <ele>983.8</ele>
        <time>2020-07-19T13:25:47Z</time>
      </trkpt>
      <trkpt lat="45.53388" lon="6.58361">
        <ele>984.2</ele>
        <time>2020-07-19T13:25:51Z</time>
      </trkpt>
      <trkpt lat="45.53394" lon="6.58364">
        <ele>984.8</ele>
        <time>2020-07-19T13:25:55Z</time>
      </trkpt>
      <trkpt lat="45.53401" lon="6.58368">
        <ele>985.6</ele>
        <time>2020-07-19T13:25:59Z</time>
      </trkpt>
      <trkpt lat="45.53407" lon="6.58372">
        <ele>986.4</ele>
        <time>2020-07-19T13:26:03Z</time>
      </trkpt>
      <trkpt lat="45.53413" lon="6.58375">
        <ele>986.6</ele>
        <time>2020-07-19T13:26:07Z</time>
      </trkpt>
      <trkpt lat="45.53419" lon="6.5838">
        <ele>987.4</ele>
        <time>2020-07-19T13:26:11Z</time>
      </trkpt>
      <trkpt lat="45.53426" lon="6.58385">
        <ele>987.6</ele>
        <time>2020-07-19T13:26:15Z</time>
      </trkpt>
      <trkpt lat="45.53432" lon="6.58389">
        <ele>988.6</ele>
        <time>2020-07-19T13:26:19Z</time>
      </trkpt>
      <trkpt lat="45.53438" lon="6.58395">
        <ele>989.2</ele>
        <time>2020-07-19T13:26:23Z</time>
      </trkpt>
      <trkpt lat="45.53444" lon="6.584">
        <ele>989.6</ele>
        <time>2020-07-19T13:26:27Z</time>
      </trkpt>
      <trkpt lat="45.5345" lon="6.58407">
        <ele>989.6</ele>
        <time>2020-07-19T13:26:31Z</time>
      </trkpt>
      <trkpt lat="45.53456" lon="6.58413">
        <ele>990.4</ele>
        <time>2020-07-19T13:26:35Z</time>
      </trkpt>
      <trkpt lat="45.53462" lon="6.58419">
        <ele>991</ele>
        <time>2020-07-19T13:26:39Z</time>
      </trkpt>
      <trkpt lat="45.53467" lon="6.58425">
        <ele>991.6</ele>
        <time>2020-07-19T13:26:43Z</time>
      </trkpt>
      <trkpt lat="45.53473" lon="6.58433">
        <ele>992.2</ele>
        <time>2020-07-19T13:26:47Z</time>
      </trkpt>
      <trkpt lat="45.53479" lon="6.58442">
        <ele>992.8</ele>
        <time>2020-07-19T13:26:51Z</time>
      </trkpt>
      <trkpt lat="45.53485" lon="6.58448">
        <ele>993.4</ele>
        <time>2020-07-19T13:26:55Z</time>
      </trkpt>
      <trkpt lat="45.53491" lon="6.58454">
        <ele>994</ele>
        <time>2020-07-19T13:26:59Z</time>
      </trkpt>
      <trkpt lat="45.53497" lon="6.5846">
        <ele>994.6</ele>
        <time>2020-07-19T13:27:03Z</time>
      </trkpt>
      <trkpt lat="45.53503" lon="6.58463">
        <ele>995</ele>
        <time>2020-07-19T13:27:07Z</time>
      </trkpt>
      <trkpt lat="45.53509" lon="6.58467">
        <ele>995.6</ele>
        <time>2020-07-19T13:27:11Z</time>
      </trkpt>
      <trkpt lat="45.53515" lon="6.58473">
        <ele>996.6</ele>
        <time>2020-07-19T13:27:15Z</time>
      </trkpt>
      <trkpt lat="45.53522" lon="6.58482">
        <ele>996.6</ele>
        <time>2020-07-19T13:27:19Z</time>
      </trkpt>
      <trkpt lat="45.5353" lon="6.58488">
        <ele>998</ele>
        <time>2020-07-19T13:27:23Z</time>
      </trkpt>
      <trkpt lat="45.53536" lon="6.58493">
        <ele>998.6</ele>
        <time>2020-07-19T13:27:27Z</time>
      </trkpt>
      <trkpt lat="45.53543" lon="6.58497">
        <ele>998.2</ele>
        <time>2020-07-19T13:27:31Z</time>
      </trkpt>
      <trkpt lat="45.5355" lon="6.58501">
        <ele>998.8</ele>
        <time>2020-07-19T13:27:35Z</time>
      </trkpt>
      <trkpt lat="45.53556" lon="6.58507">
        <ele>999</ele>
        <time>2020-07-19T13:27:39Z</time>
      </trkpt>
      <trkpt lat="45.53562" lon="6.58514">
        <ele>1000</ele>
        <time>2020-07-19T13:27:43Z</time>
      </trkpt>
      <trkpt lat="45.53568" lon="6.58524">
        <ele>1001.2</ele>
        <time>2020-07-19T13:27:47Z</time>
      </trkpt>
      <trkpt lat="45.53573" lon="6.58534">
        <ele>1001.2</ele>
        <time>2020-07-19T13:27:51Z</time>
      </trkpt>
      <trkpt lat="45.53579" lon="6.58544">
        <ele>1002</ele>
        <time>2020-07-19T13:27:55Z</time>
      </trkpt>
      <trkpt lat="45.53584" lon="6.58553">
        <ele>1002</ele>
        <time>2020-07-19T13:27:59Z</time>
      </trkpt>
      <trkpt lat="45.5359" lon="6.58561">
        <ele>1002.4</ele>
        <time>2020-07-19T13:28:03Z</time>
      </trkpt>
      <trkpt lat="45.53595" lon="6.58569">
        <ele>1003.2</ele>
        <time>2020-07-19T13:28:07Z</time>
      </trkpt>
      <trkpt lat="45.536" lon="6.58578">
        <ele>1003.4</ele>
        <time>2020-07-19T13:28:11Z</time>
      </trkpt>
      <trkpt lat="45.53605" lon="6.58586">
        <ele>1004.8</ele>
        <time>2020-07-19T13:28:15Z</time>
      </trkpt>
      <trkpt lat="45.53609" lon="6.58596">
        <ele>1005.2</ele>
        <time>2020-07-19T13:28:19Z</time>
      </trkpt>
      <trkpt lat="45.53613" lon="6.58607">
        <ele>1005</ele>
        <time>2020-07-19T13:28:23Z</time>
      </trkpt>
      <trkpt lat="45.53618" lon="6.58617">
        <ele>1006</ele>
        <time>2020-07-19T13:28:27Z</time>
      </trkpt>
      <trkpt lat="45.53622" lon="6.58628">
        <ele>1006.6</ele>
        <time>2020-07-19T13:28:31Z</time>
      </trkpt>
      <trkpt lat="45.53626" lon="6.58639">
        <ele>1006.8</ele>
        <time>2020-07-19T13:28:35Z</time>
      </trkpt>
      <trkpt lat="45.53631" lon="6.58649">
        <ele>1007.8</ele>
        <time>2020-07-19T13:28:39Z</time>
      </trkpt>
      <trkpt lat="45.53634" lon="6.58659">
        <ele>1008.2</ele>
        <time>2020-07-19T13:28:43Z</time>
      </trkpt>
      <trkpt lat="45.53639" lon="6.58669">
        <ele>1008.8</ele>
        <time>2020-07-19T13:28:47Z</time>
      </trkpt>
      <trkpt lat="45.53643" lon="6.58677">
        <ele>1010.2</ele>
        <time>2020-07-19T13:28:51Z</time>
      </trkpt>
      <trkpt lat="45.53647" lon="6.58688">
        <ele>1010.6</ele>
        <time>2020-07-19T13:28:55Z</time>
      </trkpt>
      <trkpt lat="45.53653" lon="6.58696">
        <ele>1011</ele>
        <time>2020-07-19T13:28:59Z</time>
      </trkpt>
      <trkpt lat="45.53658" lon="6.58705">
        <ele>1011.6</ele>
        <time>2020-07-19T13:29:03Z</time>
      </trkpt>
      <trkpt lat="45.53663" lon="6.58714">
        <ele>1012.4</ele>
        <time>2020-07-19T13:29:07Z</time>
      </trkpt>
      <trkpt lat="45.53668" lon="6.58723">
        <ele>1013</ele>
        <time>2020-07-19T13:29:11Z</time>
      </trkpt>
      <trkpt lat="45.53673" lon="6.58731">
        <ele>1013.4</ele>
        <time>2020-07-19T13:29:15Z</time>
      </trkpt>
      <trkpt lat="45.53678" lon="6.5874">
        <ele>1014.2</ele>
        <time>2020-07-19T13:29:19Z</time>
      </trkpt>
      <trkpt lat="45.53684" lon="6.58748">
        <ele>1014.4</ele>
        <time>2020-07-19T13:29:23Z</time>
      </trkpt>
      <trkpt lat="45.53689" lon="6.58755">
        <ele>1015</ele>
        <time>2020-07-19T13:29:27Z</time>
      </trkpt>
      <trkpt lat="45.53695" lon="6.58763">
        <ele>1015.4</ele>
        <time>2020-07-19T13:29:31Z</time>
      </trkpt>
      <trkpt lat="45.53701" lon="6.58771">
        <ele>1016.4</ele>
        <time>2020-07-19T13:29:35Z</time>
      </trkpt>
      <trkpt lat="45.53707" lon="6.58778">
        <ele>1016.6</ele>
        <time>2020-07-19T13:29:39Z</time>
      </trkpt>
      <trkpt lat="45.53714" lon="6.58784">
        <ele>1017.4</ele>
        <time>2020-07-19T13:29:43Z</time>
      </trkpt>
      <trkpt lat="45.53721" lon="6.58789">
        <ele>1017.6</ele>
        <time>2020-07-19T13:29:47Z</time>
      </trkpt>
      <trkpt lat="45.53728" lon="6.58794">
        <ele>1018.2</ele>
        <time>2020-07-19T13:29:51Z</time>
      </trkpt>
      <trkpt lat="45.53735" lon="6.58797">
        <ele>1018.4</ele>
        <time>2020-07-19T13:29:55Z</time>
      </trkpt>
      <trkpt lat="45.53742" lon="6.58802">
        <ele>1018.8</ele>
        <time>2020-07-19T13:29:59Z</time>
      </trkpt>
      <trkpt lat="45.53749" lon="6.58805">
        <ele>1019.8</ele>
        <time>2020-07-19T13:30:03Z</time>
      </trkpt>
      <trkpt lat="45.53755" lon="6.58807">
        <ele>1020.4</ele>
        <time>2020-07-19T13:30:07Z</time>
      </trkpt>
      <trkpt lat="45.53762" lon="6.58809">
        <ele>1021</ele>
        <time>2020-07-19T13:30:11Z</time>
      </trkpt>
      <trkpt lat="45.53768" lon="6.58812">
        <ele>1021.4</ele>
        <time>2020-07-19T13:30:15Z</time>
      </trkpt>
      <trkpt lat="45.53776" lon="6.58818">
        <ele>1022</ele>
        <time>2020-07-19T13:30:19Z</time>
      </trkpt>
      <trkpt lat="45.53783" lon="6.58826">
        <ele>1022.2</ele>
        <time>2020-07-19T13:30:23Z</time>
      </trkpt>
      <trkpt lat="45.5379" lon="6.58834">
        <ele>1023.2</ele>
        <time>2020-07-19T13:30:27Z</time>
      </trkpt>
      <trkpt lat="45.53796" lon="6.5884">
        <ele>1023.6</ele>
        <time>2020-07-19T13:30:31Z</time>
      </trkpt>
      <trkpt lat="45.53802" lon="6.58848">
        <ele>1024.8</ele>
        <time>2020-07-19T13:30:35Z</time>
      </trkpt>
      <trkpt lat="45.53808" lon="6.58855">
        <ele>1025.2</ele>
        <time>2020-07-19T13:30:39Z</time>
      </trkpt>
      <trkpt lat="45.53815" lon="6.58864">
        <ele>1025.6</ele>
        <time>2020-07-19T13:30:43Z</time>
      </trkpt>
      <trkpt lat="45.53822" lon="6.5887">
        <ele>1026.4</ele>
        <time>2020-07-19T13:30:47Z</time>
      </trkpt>
      <trkpt lat="45.53828" lon="6.58877">
        <ele>1026.6</ele>
        <time>2020-07-19T13:30:51Z</time>
      </trkpt>
      <trkpt lat="45.53835" lon="6.58883">
        <ele>1027.4</ele>
        <time>2020-07-19T13:30:55Z</time>
      </trkpt>
      <trkpt lat="45.53841" lon="6.58888">
        <ele>1028.6</ele>
        <time>2020-07-19T13:30:59Z</time>
      </trkpt>
      <trkpt lat="45.53847" lon="6.58892">
        <ele>1028.8</ele>
        <time>2020-07-19T13:31:03Z</time>
      </trkpt>
      <trkpt lat="45.53853" lon="6.58896">
        <ele>1029</ele>
        <time>2020-07-19T13:31:07Z</time>
      </trkpt>
      <trkpt lat="45.5386" lon="6.589">
        <ele>1029.8</ele>
        <time>2020-07-19T13:31:11Z</time>
      </trkpt>
      <trkpt lat="45.53865" lon="6.58904">
        <ele>1030</ele>
        <time>2020-07-19T13:31:15Z</time>
      </trkpt>
      <trkpt lat="45.53872" lon="6.58908">
        <ele>1030.8</ele>
        <time>2020-07-19T13:31:19Z</time>
      </trkpt>
      <trkpt lat="45.53879" lon="6.58916">
        <ele>1031.6</ele>
        <time>2020-07-19T13:31:23Z</time>
      </trkpt>
      <trkpt lat="45.53886" lon="6.58923">
        <ele>1031.6</ele>
        <time>2020-07-19T13:31:27Z</time>
      </trkpt>
      <trkpt lat="45.53893" lon="6.58929">
        <ele>1032.2</ele>
        <time>2020-07-19T13:31:31Z</time>
      </trkpt>
      <trkpt lat="45.539" lon="6.58936">
        <ele>1033.2</ele>
        <time>2020-07-19T13:31:35Z</time>
      </trkpt>
      <trkpt lat="45.53907" lon="6.58943">
        <ele>1033.4</ele>
        <time>2020-07-19T13:31:39Z</time>
      </trkpt>
      <trkpt lat="45.53913" lon="6.58949">
        <ele>1033.8</ele>
        <time>2020-07-19T13:31:43Z</time>
      </trkpt>
      <trkpt lat="45.53921" lon="6.58954">
        <ele>1034.8</ele>
        <time>2020-07-19T13:31:47Z</time>
      </trkpt>
      <trkpt lat="45.53928" lon="6.58958">
        <ele>1035.2</ele>
        <time>2020-07-19T13:31:51Z</time>
      </trkpt>
      <trkpt lat="45.53935" lon="6.58962">
        <ele>1036.2</ele>
        <time>2020-07-19T13:31:55Z</time>
      </trkpt>
      <trkpt lat="45.53942" lon="6.58965">
        <ele>1036.8</ele>
        <time>2020-07-19T13:31:59Z</time>
      </trkpt>
      <trkpt lat="45.53949" lon="6.58968">
        <ele>1037.2</ele>
        <time>2020-07-19T13:32:03Z</time>
      </trkpt>
      <trkpt lat="45.53955" lon="6.58973">
        <ele>1038</ele>
        <time>2020-07-19T13:32:07Z</time>
      </trkpt>
      <trkpt lat="45.53962" lon="6.58977">
        <ele>1038</ele>
        <time>2020-07-19T13:32:11Z</time>
      </trkpt>
      <trkpt lat="45.53969" lon="6.58981">
        <ele>1038.6</ele>
        <time>2020-07-19T13:32:15Z</time>
      </trkpt>
      <trkpt lat="45.53976" lon="6.58987">
        <ele>1039.8</ele>
        <time>2020-07-19T13:32:19Z</time>
      </trkpt>
      <trkpt lat="45.53983" lon="6.58992">
        <ele>1040</ele>
        <time>2020-07-19T13:32:23Z</time>
      </trkpt>
      <trkpt lat="45.5399" lon="6.58998">
        <ele>1041</ele>
        <time>2020-07-19T13:32:27Z</time>
      </trkpt>
      <trkpt lat="45.53996" lon="6.59004">
        <ele>1041.6</ele>
        <time>2020-07-19T13:32:31Z</time>
      </trkpt>
      <trkpt lat="45.54003" lon="6.59009">
        <ele>1042.2</ele>
        <time>2020-07-19T13:32:35Z</time>
      </trkpt>
      <trkpt lat="45.54009" lon="6.59016">
        <ele>1042.6</ele>
        <time>2020-07-19T13:32:39Z</time>
      </trkpt>
      <trkpt lat="45.54016" lon="6.59022">
        <ele>1043.4</ele>
        <time>2020-07-19T13:32:43Z</time>
      </trkpt>
      <trkpt lat="45.54024" lon="6.59026">
        <ele>1043.4</ele>
        <time>2020-07-19T13:32:47Z</time>
      </trkpt>
      <trkpt lat="45.54031" lon="6.59031">
        <ele>1044.6</ele>
        <time>2020-07-19T13:32:51Z</time>
      </trkpt>
      <trkpt lat="45.54037" lon="6.59035">
        <ele>1044.8</ele>
        <time>2020-07-19T13:32:55Z</time>
      </trkpt>
      <trkpt lat="45.54044" lon="6.59038">
        <ele>1045.6</ele>
        <time>2020-07-19T13:32:59Z</time>
      </trkpt>
      <trkpt lat="45.54051" lon="6.59041">
        <ele>1046.6</ele>
        <time>2020-07-19T13:33:03Z</time>
      </trkpt>
      <trkpt lat="45.54058" lon="6.59045">
        <ele>1047.2</ele>
        <time>2020-07-19T13:33:07Z</time>
      </trkpt>
      <trkpt lat="45.54065" lon="6.59047">
        <ele>1047.4</ele>
        <time>2020-07-19T13:33:11Z</time>
      </trkpt>
      <trkpt lat="45.54071" lon="6.59049">
        <ele>1048.4</ele>
        <time>2020-07-19T13:33:15Z</time>
      </trkpt>
      <trkpt lat="45.54077" lon="6.59052">
        <ele>1048.8</ele>
        <time>2020-07-19T13:33:19Z</time>
      </trkpt>
      <trkpt lat="45.54084" lon="6.59054">
        <ele>1049.8</ele>
        <time>2020-07-19T13:33:23Z</time>
      </trkpt>
      <trkpt lat="45.5409" lon="6.59057">
        <ele>1049.8</ele>
        <time>2020-07-19T13:33:27Z</time>
      </trkpt>
      <trkpt lat="45.54097" lon="6.5906">
        <ele>1050.6</ele>
        <time>2020-07-19T13:33:31Z</time>
      </trkpt>
      <trkpt lat="45.54104" lon="6.59062">
        <ele>1051</ele>
        <time>2020-07-19T13:33:35Z</time>
      </trkpt>
      <trkpt lat="45.5411" lon="6.59063">
        <ele>1051.8</ele>
        <time>2020-07-19T13:33:39Z</time>
      </trkpt>
      <trkpt lat="45.54117" lon="6.59067">
        <ele>1052.4</ele>
        <time>2020-07-19T13:33:43Z</time>
      </trkpt>
      <trkpt lat="45.54124" lon="6.59071">
        <ele>1052.6</ele>
        <time>2020-07-19T13:33:47Z</time>
      </trkpt>
      <trkpt lat="45.54131" lon="6.59076">
        <ele>1053.6</ele>
        <time>2020-07-19T13:33:51Z</time>
      </trkpt>
      <trkpt lat="45.54137" lon="6.5908">
        <ele>1053.6</ele>
        <time>2020-07-19T13:33:55Z</time>
      </trkpt>
      <trkpt lat="45.54144" lon="6.59085">
        <ele>1054.4</ele>
        <time>2020-07-19T13:33:59Z</time>
      </trkpt>
      <trkpt lat="45.54151" lon="6.59094">
        <ele>1055</ele>
        <time>2020-07-19T13:34:03Z</time>
      </trkpt>
      <trkpt lat="45.54158" lon="6.59102">
        <ele>1055.6</ele>
        <time>2020-07-19T13:34:07Z</time>
      </trkpt>
      <trkpt lat="45.54164" lon="6.59108">
        <ele>1056.4</ele>
        <time>2020-07-19T13:34:11Z</time>
      </trkpt>
      <trkpt lat="45.54171" lon="6.59115">
        <ele>1056.6</ele>
        <time>2020-07-19T13:34:15Z</time>
      </trkpt>
      <trkpt lat="45.54178" lon="6.59124">
        <ele>1057.4</ele>
        <time>2020-07-19T13:34:19Z</time>
      </trkpt>
      <trkpt lat="45.54185" lon="6.59132">
        <ele>1057.6</ele>
        <time>2020-07-19T13:34:23Z</time>
      </trkpt>
      <trkpt lat="45.54193" lon="6.59137">
        <ele>1058.6</ele>
        <time>2020-07-19T13:34:27Z</time>
      </trkpt>
      <trkpt lat="45.54201" lon="6.59141">
        <ele>1059.2</ele>
        <time>2020-07-19T13:34:31Z</time>
      </trkpt>
      <trkpt lat="45.54209" lon="6.59142">
        <ele>1060</ele>
        <time>2020-07-19T13:34:35Z</time>
      </trkpt>
      <trkpt lat="45.54216" lon="6.59145">
        <ele>1060.2</ele>
        <time>2020-07-19T13:34:39Z</time>
      </trkpt>
      <trkpt lat="45.54223" lon="6.59148">
        <ele>1060.8</ele>
        <time>2020-07-19T13:34:43Z</time>
      </trkpt>
      <trkpt lat="45.54229" lon="6.5915">
        <ele>1062</ele>
        <time>2020-07-19T13:34:47Z</time>
      </trkpt>
      <trkpt lat="45.54235" lon="6.59151">
        <ele>1062.4</ele>
        <time>2020-07-19T13:34:51Z</time>
      </trkpt>
      <trkpt lat="45.54241" lon="6.59155">
        <ele>1062.8</ele>
        <time>2020-07-19T13:34:55Z</time>
      </trkpt>
      <trkpt lat="45.54247" lon="6.59159">
        <ele>1063</ele>
        <time>2020-07-19T13:34:59Z</time>
      </trkpt>
      <trkpt lat="45.54254" lon="6.59165">
        <ele>1063.4</ele>
        <time>2020-07-19T13:35:03Z</time>
      </trkpt>
      <trkpt lat="45.54262" lon="6.59172">
        <ele>1063.8</ele>
        <time>2020-07-19T13:35:07Z</time>
      </trkpt>
      <trkpt lat="45.54269" lon="6.59179">
        <ele>1064.4</ele>
        <time>2020-07-19T13:35:11Z</time>
      </trkpt>
      <trkpt lat="45.54275" lon="6.59184">
        <ele>1065.4</ele>
        <time>2020-07-19T13:35:15Z</time>
      </trkpt>
      <trkpt lat="45.54283" lon="6.59188">
        <ele>1066.4</ele>
        <time>2020-07-19T13:35:19Z</time>
      </trkpt>
      <trkpt lat="45.54289" lon="6.59192">
        <ele>1066.4</ele>
        <time>2020-07-19T13:35:23Z</time>
      </trkpt>
      <trkpt lat="45.54296" lon="6.59197">
        <ele>1067.2</ele>
        <time>2020-07-19T13:35:27Z</time>
      </trkpt>
      <trkpt lat="45.54303" lon="6.59204">
        <ele>1067.4</ele>
        <time>2020-07-19T13:35:31Z</time>
      </trkpt>
      <trkpt lat="45.5431" lon="6.59209">
        <ele>1068.2</ele>
        <time>2020-07-19T13:35:35Z</time>
      </trkpt>
      <trkpt lat="45.54317" lon="6.59215">
        <ele>1068.8</ele>
        <time>2020-07-19T13:35:39Z</time>
      </trkpt>
      <trkpt lat="45.54324" lon="6.59221">
        <ele>1069.4</ele>
        <time>2020-07-19T13:35:43Z</time>
      </trkpt>
      <trkpt lat="45.54331" lon="6.59224">
        <ele>1070</ele>
        <time>2020-07-19T13:35:47Z</time>
      </trkpt>
      <trkpt lat="45.54338" lon="6.59225">
        <ele>1070.6</ele>
        <time>2020-07-19T13:35:51Z</time>
      </trkpt>
      <trkpt lat="45.54344" lon="6.59229">
        <ele>1071</ele>
        <time>2020-07-19T13:35:55Z</time>
      </trkpt>
      <trkpt lat="45.5435" lon="6.59233">
        <ele>1071.8</ele>
        <time>2020-07-19T13:35:59Z</time>
      </trkpt>
      <trkpt lat="45.54356" lon="6.59236">
        <ele>1072</ele>
        <time>2020-07-19T13:36:03Z</time>
      </trkpt>
      <trkpt lat="45.54362" lon="6.5924">
        <ele>1072.6</ele>
        <time>2020-07-19T13:36:07Z</time>
      </trkpt>
      <trkpt lat="45.54368" lon="6.59251">
        <ele>1073.4</ele>
        <time>2020-07-19T13:36:11Z</time>
      </trkpt>
      <trkpt lat="45.54373" lon="6.59264">
        <ele>1074.2</ele>
        <time>2020-07-19T13:36:15Z</time>
      </trkpt>
      <trkpt lat="45.54377" lon="6.59276">
        <ele>1074.6</ele>
        <time>2020-07-19T13:36:19Z</time>
      </trkpt>
      <trkpt lat="45.54383" lon="6.59282">
        <ele>1074.6</ele>
        <time>2020-07-19T13:36:23Z</time>
      </trkpt>
      <trkpt lat="45.5439" lon="6.59282">
        <ele>1076</ele>
        <time>2020-07-19T13:36:27Z</time>
      </trkpt>
      <trkpt lat="45.54391" lon="6.59274">
        <ele>1077</ele>
        <time>2020-07-19T13:36:31Z</time>
      </trkpt>
      <trkpt lat="45.54388" lon="6.59267">
        <ele>1077.2</ele>
        <time>2020-07-19T13:36:35Z</time>
      </trkpt>
      <trkpt lat="45.54384" lon="6.5926">
        <ele>1077.8</ele>
        <time>2020-07-19T13:36:39Z</time>
      </trkpt>
      <trkpt lat="45.54374" lon="6.59252">
        <ele>1079</ele>
        <time>2020-07-19T13:40:45Z</time>
      </trkpt>
      <trkpt lat="45.54369" lon="6.59245">
        <ele>1079.6</ele>
        <time>2020-07-19T13:40:49Z</time>
      </trkpt>
      <trkpt lat="45.54364" lon="6.59239">
        <ele>1080.6</ele>
        <time>2020-07-19T13:40:53Z</time>
      </trkpt>
      <trkpt lat="45.54359" lon="6.59234">
        <ele>1080.8</ele>
        <time>2020-07-19T13:40:57Z</time>
      </trkpt>
      <trkpt lat="45.54354" lon="6.59227">
        <ele>1081.2</ele>
        <time>2020-07-19T13:41:01Z</time>
      </trkpt>
      <trkpt lat="45.54349" lon="6.59221">
        <ele>1081.4</ele>
        <time>2020-07-19T13:41:05Z</time>
      </trkpt>
      <trkpt lat="45.54344" lon="6.59216">
        <ele>1082.6</ele>
        <time>2020-07-19T13:41:09Z</time>
      </trkpt>
      <trkpt lat="45.54338" lon="6.5921">
        <ele>1083.2</ele>
        <time>2020-07-19T13:41:13Z</time>
      </trkpt>
      <trkpt lat="45.54333" lon="6.59203">
        <ele>1083.4</ele>
        <time>2020-07-19T13:41:17Z</time>
      </trkpt>
      <trkpt lat="45.54328" lon="6.59197">
        <ele>1084</ele>
        <time>2020-07-19T13:41:21Z</time>
      </trkpt>
      <trkpt lat="45.54324" lon="6.5919">
        <ele>1084.4</ele>
        <time>2020-07-19T13:41:25Z</time>
      </trkpt>
      <trkpt lat="45.54319" lon="6.59183">
        <ele>1085.6</ele>
        <time>2020-07-19T13:41:29Z</time>
      </trkpt>
      <trkpt lat="45.54314" lon="6.59176">
        <ele>1085.6</ele>
        <time>2020-07-19T13:41:33Z</time>
      </trkpt>
      <trkpt lat="45.54309" lon="6.59168">
        <ele>1086</ele>
        <time>2020-07-19T13:41:37Z</time>
      </trkpt>
      <trkpt lat="45.54305" lon="6.59161">
        <ele>1086.6</ele>
        <time>2020-07-19T13:41:41Z</time>
      </trkpt>
      <trkpt lat="45.543" lon="6.59154">
        <ele>1086.8</ele>
        <time>2020-07-19T13:41:45Z</time>
      </trkpt>
      <trkpt lat="45.54295" lon="6.59146">
        <ele>1087.4</ele>
        <time>2020-07-19T13:41:49Z</time>
      </trkpt>
      <trkpt lat="45.54289" lon="6.59139">
        <ele>1088.4</ele>
        <time>2020-07-19T13:41:53Z</time>
      </trkpt>
      <trkpt lat="45.54283" lon="6.59133">
        <ele>1088.6</ele>
        <time>2020-07-19T13:41:57Z</time>
      </trkpt>
      <trkpt lat="45.54278" lon="6.59127">
        <ele>1088.6</ele>
        <time>2020-07-19T13:42:01Z</time>
      </trkpt>
      <trkpt lat="45.54273" lon="6.59121">
        <ele>1089.4</ele>
        <time>2020-07-19T13:42:05Z</time>
      </trkpt>
      <trkpt lat="45.54268" lon="6.59115">
        <ele>1089.8</ele>
        <time>2020-07-19T13:42:09Z</time>
      </trkpt>
      <trkpt lat="45.54263" lon="6.5911">
        <ele>1090.4</ele>
        <time>2020-07-19T13:42:13Z</time>
      </trkpt>
      <trkpt lat="45.54258" lon="6.59106">
        <ele>1090.6</ele>
        <time>2020-07-19T13:42:17Z</time>
      </trkpt>
      <trkpt lat="45.54254" lon="6.59102">
        <ele>1091.2</ele>
        <time>2020-07-19T13:42:21Z</time>
      </trkpt>
      <trkpt lat="45.54249" lon="6.59096">
        <ele>1091.6</ele>
        <time>2020-07-19T13:42:25Z</time>
      </trkpt>
      <trkpt lat="45.54244" lon="6.5909">
        <ele>1092.2</ele>
        <time>2020-07-19T13:42:29Z</time>
      </trkpt>
      <trkpt lat="45.54239" lon="6.59085">
        <ele>1092.8</ele>
        <time>2020-07-19T13:42:33Z</time>
      </trkpt>
      <trkpt lat="45.54233" lon="6.5908">
        <ele>1093.4</ele>
        <time>2020-07-19T13:42:37Z</time>
      </trkpt>
      <trkpt lat="45.54228" lon="6.59074">
        <ele>1093.6</ele>
        <time>2020-07-19T13:42:41Z</time>
      </trkpt>
      <trkpt lat="45.54222" lon="6.59069">
        <ele>1094.6</ele>
        <time>2020-07-19T13:42:45Z</time>
      </trkpt>
      <trkpt lat="45.54217" lon="6.59062">
        <ele>1094.8</ele>
        <time>2020-07-19T13:42:49Z</time>
      </trkpt>
      <trkpt lat="45.54212" lon="6.59056">
        <ele>1095.8</ele>
        <time>2020-07-19T13:42:53Z</time>
      </trkpt>
      <trkpt lat="45.54206" lon="6.5905">
        <ele>1096</ele>
        <time>2020-07-19T13:42:57Z</time>
      </trkpt>
      <trkpt lat="45.54202" lon="6.59042">
        <ele>1096.4</ele>
        <time>2020-07-19T13:43:01Z</time>
      </trkpt>
      <trkpt lat="45.54197" lon="6.59035">
        <ele>1097.4</ele>
        <time>2020-07-19T13:43:05Z</time>
      </trkpt>
      <trkpt lat="45.54192" lon="6.59029">
        <ele>1098.4</ele>
        <time>2020-07-19T13:43:09Z</time>
      </trkpt>
      <trkpt lat="45.54187" lon="6.59022">
        <ele>1098.8</ele>
        <time>2020-07-19T13:43:13Z</time>
      </trkpt>
      <trkpt lat="45.54182" lon="6.59016">
        <ele>1099.2</ele>
        <time>2020-07-19T13:43:17Z</time>
      </trkpt>
      <trkpt lat="45.54177" lon="6.5901">
        <ele>1099.8</ele>
        <time>2020-07-19T13:43:21Z</time>
      </trkpt>
      <trkpt lat="45.54172" lon="6.59004">
        <ele>1100</ele>
        <time>2020-07-19T13:43:25Z</time>
      </trkpt>
      <trkpt lat="45.54166" lon="6.58999">
        <ele>1101.8</ele>
        <time>2020-07-19T13:43:29Z</time>
      </trkpt>
      <trkpt lat="45.54161" lon="6.58994">
        <ele>1102.6</ele>
        <time>2020-07-19T13:43:33Z</time>
      </trkpt>
      <trkpt lat="45.54155" lon="6.58988">
        <ele>1103.2</ele>
        <time>2020-07-19T13:43:37Z</time>
      </trkpt>
      <trkpt lat="45.5415" lon="6.58983">
        <ele>1104.2</ele>
        <time>2020-07-19T13:43:41Z</time>
      </trkpt>
      <trkpt lat="45.54145" lon="6.58978">
        <ele>1104.2</ele>
        <time>2020-07-19T13:43:45Z</time>
      </trkpt>
      <trkpt lat="45.5414" lon="6.58972">
        <ele>1104.8</ele>
        <time>2020-07-19T13:43:49Z</time>
      </trkpt>
      <trkpt lat="45.54134" lon="6.58967">
        <ele>1105.6</ele>
        <time>2020-07-19T13:43:53Z</time>
      </trkpt>
      <trkpt lat="45.54129" lon="6.5896">
        <ele>1105.8</ele>
        <time>2020-07-19T13:43:57Z</time>
      </trkpt>
      <trkpt lat="45.54124" lon="6.58955">
        <ele>1106</ele>
        <time>2020-07-19T13:44:01Z</time>
      </trkpt>
      <trkpt lat="45.54119" lon="6.58949">
        <ele>1106.8</ele>
        <time>2020-07-19T13:44:05Z</time>
      </trkpt>
      <trkpt lat="45.54114" lon="6.58943">
        <ele>1108</ele>
        <time>2020-07-19T13:44:09Z</time>
      </trkpt>
      <trkpt lat="45.54108" lon="6.58937">
        <ele>1108.6</ele>
        <time>2020-07-19T13:44:13Z</time>
      </trkpt>
      <trkpt lat="45.54103" lon="6.58931">
        <ele>1108.4</ele>
        <time>2020-07-19T13:44:17Z</time>
      </trkpt>
      <trkpt lat="45.54097" lon="6.58927">
        <ele>1109.4</ele>
        <time>2020-07-19T13:44:21Z</time>
      </trkpt>
      <trkpt lat="45.54091" lon="6.58921">
        <ele>1109.2</ele>
        <time>2020-07-19T13:44:25Z</time>
      </trkpt>
      <trkpt lat="45.54084" lon="6.58918">
        <ele>1109.4</ele>
        <time>2020-07-19T13:44:29Z</time>
      </trkpt>
      <trkpt lat="45.54077" lon="6.58913">
        <ele>1110.4</ele>
        <time>2020-07-19T13:44:33Z</time>
      </trkpt>
      <trkpt lat="45.54071" lon="6.58908">
        <ele>1112.2</ele>
        <time>2020-07-19T13:44:37Z</time>
      </trkpt>
      <trkpt lat="45.54065" lon="6.58903">
        <ele>1112.8</ele>
        <time>2020-07-19T13:44:41Z</time>
      </trkpt>
      <trkpt lat="45.54059" lon="6.58898">
        <ele>1112.6</ele>
        <time>2020-07-19T13:44:45Z</time>
      </trkpt>
      <trkpt lat="45.54053" lon="6.58892">
        <ele>1112.8</ele>
        <time>2020-07-19T13:44:49Z</time>
      </trkpt>
      <trkpt lat="45.54047" lon="6.58886">
        <ele>1112.2</ele>
        <time>2020-07-19T13:44:53Z</time>
      </trkpt>
      <trkpt lat="45.54042" lon="6.58879">
        <ele>1113</ele>
        <time>2020-07-19T13:44:57Z</time>
      </trkpt>
      <trkpt lat="45.54036" lon="6.58873">
        <ele>1114.4</ele>
        <time>2020-07-19T13:45:01Z</time>
      </trkpt>
      <trkpt lat="45.5403" lon="6.58867">
        <ele>1115.6</ele>
        <time>2020-07-19T13:45:05Z</time>
      </trkpt>
      <trkpt lat="45.54024" lon="6.5886">
        <ele>1116.2</ele>
        <time>2020-07-19T13:45:09Z</time>
      </trkpt>
      <trkpt lat="45.54018" lon="6.58854">
        <ele>1116</ele>
        <time>2020-07-19T13:45:13Z</time>
      </trkpt>
      <trkpt lat="45.54012" lon="6.58847">
        <ele>1116.8</ele>
        <time>2020-07-19T13:45:17Z</time>
      </trkpt>
      <trkpt lat="45.54007" lon="6.5884">
        <ele>1117</ele>
        <time>2020-07-19T13:45:21Z</time>
      </trkpt>
      <trkpt lat="45.54001" lon="6.58833">
        <ele>1117.8</ele>
        <time>2020-07-19T13:45:25Z</time>
      </trkpt>
      <trkpt lat="45.53995" lon="6.58826">
        <ele>1118.6</ele>
        <time>2020-07-19T13:45:29Z</time>
      </trkpt>
      <trkpt lat="45.5399" lon="6.58819">
        <ele>1118</ele>
        <time>2020-07-19T13:45:33Z</time>
      </trkpt>
      <trkpt lat="45.53985" lon="6.58811">
        <ele>1119</ele>
        <time>2020-07-19T13:45:37Z</time>
      </trkpt>
      <trkpt lat="45.5398" lon="6.58804">
        <ele>1119.6</ele>
        <time>2020-07-19T13:45:41Z</time>
      </trkpt>
      <trkpt lat="45.53975" lon="6.58796">
        <ele>1120.6</ele>
        <time>2020-07-19T13:45:45Z</time>
      </trkpt>
      <trkpt lat="45.5397" lon="6.58788">
        <ele>1121.4</ele>
        <time>2020-07-19T13:45:49Z</time>
      </trkpt>
      <trkpt lat="45.53965" lon="6.5878">
        <ele>1122.8</ele>
        <time>2020-07-19T13:45:53Z</time>
      </trkpt>
      <trkpt lat="45.5396" lon="6.58772">
        <ele>1122.8</ele>
        <time>2020-07-19T13:45:57Z</time>
      </trkpt>
      <trkpt lat="45.53956" lon="6.58764">
        <ele>1123.4</ele>
        <time>2020-07-19T13:46:01Z</time>
      </trkpt>
      <trkpt lat="45.53952" lon="6.58755">
        <ele>1123.8</ele>
        <time>2020-07-19T13:46:05Z</time>
      </trkpt>
      <trkpt lat="45.53947" lon="6.58748">
        <ele>1123.8</ele>
        <time>2020-07-19T13:46:09Z</time>
      </trkpt>
      <trkpt lat="45.53941" lon="6.5874">
        <ele>1124.8</ele>
        <time>2020-07-19T13:46:13Z</time>
      </trkpt>
      <trkpt lat="45.53936" lon="6.58732">
        <ele>1125</ele>
        <time>2020-07-19T13:46:17Z</time>
      </trkpt>
      <trkpt lat="45.53932" lon="6.58724">
        <ele>1124.8</ele>
        <time>2020-07-19T13:46:21Z</time>
      </trkpt>
      <trkpt lat="45.53927" lon="6.58716">
        <ele>1125.8</ele>
        <time>2020-07-19T13:46:25Z</time>
      </trkpt>
      <trkpt lat="45.53923" lon="6.58707">
        <ele>1126.6</ele>
        <time>2020-07-19T13:46:29Z</time>
      </trkpt>
      <trkpt lat="45.53918" lon="6.58699">
        <ele>1126.8</ele>
        <time>2020-07-19T13:46:33Z</time>
      </trkpt>
      <trkpt lat="45.53914" lon="6.58691">
        <ele>1127.8</ele>
        <time>2020-07-19T13:46:37Z</time>
      </trkpt>
      <trkpt lat="45.5391" lon="6.58683">
        <ele>1128.2</ele>
        <time>2020-07-19T13:46:41Z</time>
      </trkpt>
      <trkpt lat="45.53905" lon="6.58675">
        <ele>1129</ele>
        <time>2020-07-19T13:46:45Z</time>
      </trkpt>
      <trkpt lat="45.53902" lon="6.58667">
        <ele>1129.4</ele>
        <time>2020-07-19T13:46:49Z</time>
      </trkpt>
      <trkpt lat="45.53899" lon="6.58659">
        <ele>1130.2</ele>
        <time>2020-07-19T13:46:53Z</time>
      </trkpt>
      <trkpt lat="45.53895" lon="6.5865">
        <ele>1130.2</ele>
        <time>2020-07-19T13:46:57Z</time>
      </trkpt>
      <trkpt lat="45.53891" lon="6.58642">
        <ele>1131.2</ele>
        <time>2020-07-19T13:47:01Z</time>
      </trkpt>
      <trkpt lat="45.53886" lon="6.58634">
        <ele>1132</ele>
        <time>2020-07-19T13:47:05Z</time>
      </trkpt>
      <trkpt lat="45.53883" lon="6.58625">
        <ele>1132.6</ele>
        <time>2020-07-19T13:47:09Z</time>
      </trkpt>
      <trkpt lat="45.53879" lon="6.58616">
        <ele>1132.8</ele>
        <time>2020-07-19T13:47:13Z</time>
      </trkpt>
      <trkpt lat="45.53874" lon="6.58606">
        <ele>1133</ele>
        <time>2020-07-19T13:47:17Z</time>
      </trkpt>
      <trkpt lat="45.53869" lon="6.58597">
        <ele>1134.2</ele>
        <time>2020-07-19T13:47:21Z</time>
      </trkpt>
      <trkpt lat="45.53862" lon="6.58589">
        <ele>1134</ele>
        <time>2020-07-19T13:47:25Z</time>
      </trkpt>
      <trkpt lat="45.53857" lon="6.5858">
        <ele>1134.8</ele>
        <time>2020-07-19T13:47:29Z</time>
      </trkpt>
      <trkpt lat="45.53852" lon="6.58571">
        <ele>1135.2</ele>
        <time>2020-07-19T13:47:33Z</time>
      </trkpt>
      <trkpt lat="45.53847" lon="6.58561">
        <ele>1136.2</ele>
        <time>2020-07-19T13:47:37Z</time>
      </trkpt>
      <trkpt lat="45.53844" lon="6.58552">
        <ele>1136.4</ele>
        <time>2020-07-19T13:47:41Z</time>
      </trkpt>
      <trkpt lat="45.53842" lon="6.58543">
        <ele>1138</ele>
        <time>2020-07-19T13:47:45Z</time>
      </trkpt>
      <trkpt lat="45.53839" lon="6.58533">
        <ele>1137.6</ele>
        <time>2020-07-19T13:47:49Z</time>
      </trkpt>
      <trkpt lat="45.53837" lon="6.58523">
        <ele>1139</ele>
        <time>2020-07-19T13:47:53Z</time>
      </trkpt>
      <trkpt lat="45.53835" lon="6.58513">
        <ele>1140</ele>
        <time>2020-07-19T13:47:57Z</time>
      </trkpt>
      <trkpt lat="45.53834" lon="6.58502">
        <ele>1140.8</ele>
        <time>2020-07-19T13:48:01Z</time>
      </trkpt>
      <trkpt lat="45.53832" lon="6.58492">
        <ele>1141.2</ele>
        <time>2020-07-19T13:48:05Z</time>
      </trkpt>
      <trkpt lat="45.53829" lon="6.58483">
        <ele>1142</ele>
        <time>2020-07-19T13:48:09Z</time>
      </trkpt>
      <trkpt lat="45.53827" lon="6.58474">
        <ele>1142.2</ele>
        <time>2020-07-19T13:48:13Z</time>
      </trkpt>
      <trkpt lat="45.53824" lon="6.58465">
        <ele>1143.4</ele>
        <time>2020-07-19T13:48:17Z</time>
      </trkpt>
      <trkpt lat="45.53821" lon="6.58455">
        <ele>1144.2</ele>
        <time>2020-07-19T13:48:21Z</time>
      </trkpt>
      <trkpt lat="45.53817" lon="6.58446">
        <ele>1144.8</ele>
        <time>2020-07-19T13:48:25Z</time>
      </trkpt>
      <trkpt lat="45.53812" lon="6.58436">
        <ele>1145</ele>
        <time>2020-07-19T13:48:29Z</time>
      </trkpt>
      <trkpt lat="45.53809" lon="6.58426">
        <ele>1145.8</ele>
        <time>2020-07-19T13:48:33Z</time>
      </trkpt>
      <trkpt lat="45.53805" lon="6.58416">
        <ele>1146.8</ele>
        <time>2020-07-19T13:48:37Z</time>
      </trkpt>
      <trkpt lat="45.53802" lon="6.58407">
        <ele>1146.4</ele>
        <time>2020-07-19T13:48:41Z</time>
      </trkpt>
      <trkpt lat="45.53798" lon="6.58398">
        <ele>1147.2</ele>
        <time>2020-07-19T13:48:45Z</time>
      </trkpt>
      <trkpt lat="45.53793" lon="6.58388">
        <ele>1148</ele>
        <time>2020-07-19T13:48:49Z</time>
      </trkpt>
      <trkpt lat="45.53789" lon="6.58379">
        <ele>1148.4</ele>
        <time>2020-07-19T13:48:53Z</time>
      </trkpt>
      <trkpt lat="45.53786" lon="6.58371">
        <ele>1150.2</ele>
        <time>2020-07-19T13:48:57Z</time>
      </trkpt>
      <trkpt lat="45.53781" lon="6.58362">
        <ele>1150.8</ele>
        <time>2020-07-19T13:49:01Z</time>
      </trkpt>
      <trkpt lat="45.53776" lon="6.58353">
        <ele>1151.8</ele>
        <time>2020-07-19T13:49:05Z</time>
      </trkpt>
      <trkpt lat="45.53771" lon="6.58344">
        <ele>1152.4</ele>
        <time>2020-07-19T13:49:09Z</time>
      </trkpt>
      <trkpt lat="45.53766" lon="6.58336">
        <ele>1152.8</ele>
        <time>2020-07-19T13:49:13Z</time>
      </trkpt>
      <trkpt lat="45.53761" lon="6.58329">
        <ele>1153.8</ele>
        <time>2020-07-19T13:49:17Z</time>
      </trkpt>
      <trkpt lat="45.53756" lon="6.58321">
        <ele>1154.2</ele>
        <time>2020-07-19T13:49:21Z</time>
      </trkpt>
      <trkpt lat="45.53749" lon="6.58315">
        <ele>1154.4</ele>
        <time>2020-07-19T13:49:25Z</time>
      </trkpt>
      <trkpt lat="45.53743" lon="6.58309">
        <ele>1155.2</ele>
        <time>2020-07-19T13:49:29Z</time>
      </trkpt>
      <trkpt lat="45.53736" lon="6.58304">
        <ele>1155.8</ele>
        <time>2020-07-19T13:49:33Z</time>
      </trkpt>
      <trkpt lat="45.53729" lon="6.58298">
        <ele>1156</ele>
        <time>2020-07-19T13:49:37Z</time>
      </trkpt>
      <trkpt lat="45.53723" lon="6.58293">
        <ele>1156.6</ele>
        <time>2020-07-19T13:49:41Z</time>
      </trkpt>
      <trkpt lat="45.53717" lon="6.58287">
        <ele>1157.4</ele>
        <time>2020-07-19T13:49:45Z</time>
      </trkpt>
      <trkpt lat="45.5371" lon="6.58282">
        <ele>1158.4</ele>
        <time>2020-07-19T13:49:49Z</time>
      </trkpt>
      <trkpt lat="45.53703" lon="6.58277">
        <ele>1158.6</ele>
        <time>2020-07-19T13:49:53Z</time>
      </trkpt>
      <trkpt lat="45.53697" lon="6.58271">
        <ele>1159</ele>
        <time>2020-07-19T13:49:57Z</time>
      </trkpt>
      <trkpt lat="45.5369" lon="6.58266">
        <ele>1159.8</ele>
        <time>2020-07-19T13:50:01Z</time>
      </trkpt>
      <trkpt lat="45.53684" lon="6.58261">
        <ele>1159.6</ele>
        <time>2020-07-19T13:50:05Z</time>
      </trkpt>
      <trkpt lat="45.53678" lon="6.58256">
        <ele>1160.4</ele>
        <time>2020-07-19T13:50:09Z</time>
      </trkpt>
      <trkpt lat="45.53673" lon="6.58251">
        <ele>1161.4</ele>
        <time>2020-07-19T13:50:13Z</time>
      </trkpt>
      <trkpt lat="45.53666" lon="6.58245">
        <ele>1161.8</ele>
        <time>2020-07-19T13:50:17Z</time>
      </trkpt>
      <trkpt lat="45.5366" lon="6.58239">
        <ele>1162.4</ele>
        <time>2020-07-19T13:50:21Z</time>
      </trkpt>
      <trkpt lat="45.53654" lon="6.58232">
        <ele>1162.8</ele>
        <time>2020-07-19T13:50:25Z</time>
      </trkpt>
      <trkpt lat="45.53648" lon="6.58225">
        <ele>1163.6</ele>
        <time>2020-07-19T13:50:29Z</time>
      </trkpt>
      <trkpt lat="45.53642" lon="6.58219">
        <ele>1164.6</ele>
        <time>2020-07-19T13:50:33Z</time>
      </trkpt>
      <trkpt lat="45.53637" lon="6.58212">
        <ele>1165</ele>
        <time>2020-07-19T13:50:37Z</time>
      </trkpt>
      <trkpt lat="45.53632" lon="6.58205">
        <ele>1164.8</ele>
        <time>2020-07-19T13:50:41Z</time>
      </trkpt>
      <trkpt lat="45.53627" lon="6.58198">
        <ele>1165</ele>
        <time>2020-07-19T13:50:45Z</time>
      </trkpt>
      <trkpt lat="45.53623" lon="6.58191">
        <ele>1166.4</ele>
        <time>2020-07-19T13:50:49Z</time>
      </trkpt>
      <trkpt lat="45.53618" lon="6.58183">
        <ele>1166.8</ele>
        <time>2020-07-19T13:50:53Z</time>
      </trkpt>
      <trkpt lat="45.53613" lon="6.58176">
        <ele>1167.6</ele>
        <time>2020-07-19T13:50:57Z</time>
      </trkpt>
      <trkpt lat="45.53608" lon="6.58168">
        <ele>1168.6</ele>
        <time>2020-07-19T13:51:01Z</time>
      </trkpt>
      <trkpt lat="45.53603" lon="6.58161">
        <ele>1169.2</ele>
        <time>2020-07-19T13:51:05Z</time>
      </trkpt>
      <trkpt lat="45.53598" lon="6.58153">
        <ele>1169.8</ele>
        <time>2020-07-19T13:51:09Z</time>
      </trkpt>
      <trkpt lat="45.53593" lon="6.58146">
        <ele>1170</ele>
        <time>2020-07-19T13:51:13Z</time>
      </trkpt>
      <trkpt lat="45.53588" lon="6.58137">
        <ele>1170.6</ele>
        <time>2020-07-19T13:51:17Z</time>
      </trkpt>
      <trkpt lat="45.53585" lon="6.58128">
        <ele>1171.4</ele>
        <time>2020-07-19T13:51:21Z</time>
      </trkpt>
      <trkpt lat="45.53583" lon="6.58118">
        <ele>1172.2</ele>
        <time>2020-07-19T13:51:25Z</time>
      </trkpt>
      <trkpt lat="45.53582" lon="6.58106">
        <ele>1172.4</ele>
        <time>2020-07-19T13:51:29Z</time>
      </trkpt>
      <trkpt lat="45.53581" lon="6.58095">
        <ele>1173.2</ele>
        <time>2020-07-19T13:51:33Z</time>
      </trkpt>
      <trkpt lat="45.53581" lon="6.58084">
        <ele>1174</ele>
        <time>2020-07-19T13:51:37Z</time>
      </trkpt>
      <trkpt lat="45.5358" lon="6.58073">
        <ele>1174.8</ele>
        <time>2020-07-19T13:51:41Z</time>
      </trkpt>
      <trkpt lat="45.5358" lon="6.58062">
        <ele>1175.8</ele>
        <time>2020-07-19T13:51:45Z</time>
      </trkpt>
      <trkpt lat="45.53579" lon="6.58052">
        <ele>1176.4</ele>
        <time>2020-07-19T13:51:49Z</time>
      </trkpt>
      <trkpt lat="45.53576" lon="6.58044">
        <ele>1176.4</ele>
        <time>2020-07-19T13:51:53Z</time>
      </trkpt>
      <trkpt lat="45.53573" lon="6.58034">
        <ele>1177</ele>
        <time>2020-07-19T13:51:57Z</time>
      </trkpt>
      <trkpt lat="45.53571" lon="6.58025">
        <ele>1177.2</ele>
        <time>2020-07-19T13:52:01Z</time>
      </trkpt>
      <trkpt lat="45.53568" lon="6.58014">
        <ele>1178</ele>
        <time>2020-07-19T13:52:05Z</time>
      </trkpt>
      <trkpt lat="45.53564" lon="6.58004">
        <ele>1178.2</ele>
        <time>2020-07-19T13:52:09Z</time>
      </trkpt>
      <trkpt lat="45.53561" lon="6.57994">
        <ele>1178.6</ele>
        <time>2020-07-19T13:52:13Z</time>
      </trkpt>
      <trkpt lat="45.5356" lon="6.57982">
        <ele>1179.6</ele>
        <time>2020-07-19T13:52:17Z</time>
      </trkpt>
      <trkpt lat="45.53558" lon="6.57971">
        <ele>1180.2</ele>
        <time>2020-07-19T13:52:21Z</time>
      </trkpt>
      <trkpt lat="45.53556" lon="6.57939">
        <ele>1181.2</ele>
        <time>2020-07-19T14:01:39Z</time>
      </trkpt>
      <trkpt lat="45.53555" lon="6.5793">
        <ele>1182.4</ele>
        <time>2020-07-19T14:01:43Z</time>
      </trkpt>
      <trkpt lat="45.53556" lon="6.57919">
        <ele>1182.4</ele>
        <time>2020-07-19T14:01:47Z</time>
      </trkpt>
      <trkpt lat="45.53554" lon="6.57907">
        <ele>1182.6</ele>
        <time>2020-07-19T14:01:51Z</time>
      </trkpt>
      <trkpt lat="45.53554" lon="6.57896">
        <ele>1182.8</ele>
        <time>2020-07-19T14:01:55Z</time>
      </trkpt>
      <trkpt lat="45.53554" lon="6.57889">
        <ele>1183.4</ele>
        <time>2020-07-19T14:01:59Z</time>
      </trkpt>
      <trkpt lat="45.53552" lon="6.57882">
        <ele>1183.6</ele>
        <time>2020-07-19T14:02:03Z</time>
      </trkpt>
      <trkpt lat="45.5355" lon="6.57871">
        <ele>1184</ele>
        <time>2020-07-19T14:02:07Z</time>
      </trkpt>
      <trkpt lat="45.5355" lon="6.57859">
        <ele>1184</ele>
        <time>2020-07-19T14:02:11Z</time>
      </trkpt>
      <trkpt lat="45.53549" lon="6.57849">
        <ele>1184.2</ele>
        <time>2020-07-19T14:02:15Z</time>
      </trkpt>
      <trkpt lat="45.53548" lon="6.57838">
        <ele>1185</ele>
        <time>2020-07-19T14:02:19Z</time>
      </trkpt>
      <trkpt lat="45.53546" lon="6.57827">
        <ele>1185.2</ele>
        <time>2020-07-19T14:02:23Z</time>
      </trkpt>
      <trkpt lat="45.53544" lon="6.57817">
        <ele>1185.4</ele>
        <time>2020-07-19T14:02:27Z</time>
      </trkpt>
      <trkpt lat="45.53546" lon="6.57808">
        <ele>1186.2</ele>
        <time>2020-07-19T14:02:31Z</time>
      </trkpt>
      <trkpt lat="45.53551" lon="6.57804">
        <ele>1187</ele>
        <time>2020-07-19T14:02:35Z</time>
      </trkpt>
      <trkpt lat="45.53556" lon="6.57808">
        <ele>1187.4</ele>
        <time>2020-07-19T14:02:39Z</time>
      </trkpt>
      <trkpt lat="45.5356" lon="6.57815">
        <ele>1188.4</ele>
        <time>2020-07-19T14:02:43Z</time>
      </trkpt>
      <trkpt lat="45.53563" lon="6.57822">
        <ele>1188.8</ele>
        <time>2020-07-19T14:02:47Z</time>
      </trkpt>
      <trkpt lat="45.53566" lon="6.5783">
        <ele>1190.6</ele>
        <time>2020-07-19T14:02:51Z</time>
      </trkpt>
      <trkpt lat="45.53569" lon="6.57832">
        <ele>1190.6</ele>
        <time>2020-07-19T14:02:55Z</time>
      </trkpt>
      <trkpt lat="45.53561" lon="6.57812">
        <ele>1187.4</ele>
        <time>2020-07-19T14:04:43Z</time>
      </trkpt>
      <trkpt lat="45.53548" lon="6.57809">
        <ele>1187</ele>
        <time>2020-07-19T14:04:47Z</time>
      </trkpt>
      <trkpt lat="45.5354" lon="6.57793">
        <ele>1187</ele>
        <time>2020-07-19T14:04:51Z</time>
      </trkpt>
      <trkpt lat="45.53532" lon="6.57781">
        <ele>1187.4</ele>
        <time>2020-07-19T14:04:55Z</time>
      </trkpt>
      <trkpt lat="45.53525" lon="6.57766">
        <ele>1187.2</ele>
        <time>2020-07-19T14:04:59Z</time>
      </trkpt>
      <trkpt lat="45.53515" lon="6.57749">
        <ele>1187.4</ele>
        <time>2020-07-19T14:05:03Z</time>
      </trkpt>
      <trkpt lat="45.53501" lon="6.57733">
        <ele>1187</ele>
        <time>2020-07-19T14:05:07Z</time>
      </trkpt>
      <trkpt lat="45.5349" lon="6.57719">
        <ele>1186.2</ele>
        <time>2020-07-19T14:05:11Z</time>
      </trkpt>
      <trkpt lat="45.53479" lon="6.57707">
        <ele>1185.6</ele>
        <time>2020-07-19T14:05:15Z</time>
      </trkpt>
      <trkpt lat="45.53468" lon="6.57694">
        <ele>1185.8</ele>
        <time>2020-07-19T14:05:19Z</time>
      </trkpt>
      <trkpt lat="45.53454" lon="6.57682">
        <ele>1185</ele>
        <time>2020-07-19T14:05:23Z</time>
      </trkpt>
      <trkpt lat="45.53438" lon="6.57667">
        <ele>1184</ele>
        <time>2020-07-19T14:05:27Z</time>
      </trkpt>
      <trkpt lat="45.5342" lon="6.57646">
        <ele>1180.8</ele>
        <time>2020-07-19T14:05:31Z</time>
      </trkpt>
      <trkpt lat="45.53397" lon="6.57622">
        <ele>1179.6</ele>
        <time>2020-07-19T14:05:35Z</time>
      </trkpt>
      <trkpt lat="45.53369" lon="6.57611">
        <ele>1181.6</ele>
        <time>2020-07-19T14:05:39Z</time>
      </trkpt>
      <trkpt lat="45.53347" lon="6.57605">
        <ele>1183</ele>
        <time>2020-07-19T14:05:43Z</time>
      </trkpt>
      <trkpt lat="45.53329" lon="6.576">
        <ele>1183.6</ele>
        <time>2020-07-19T14:05:47Z</time>
      </trkpt>
      <trkpt lat="45.53313" lon="6.57597">
        <ele>1183.8</ele>
        <time>2020-07-19T14:05:51Z</time>
      </trkpt>
      <trkpt lat="45.53299" lon="6.57594">
        <ele>1184</ele>
        <time>2020-07-19T14:05:55Z</time>
      </trkpt>
      <trkpt lat="45.53287" lon="6.5759">
        <ele>1184.6</ele>
        <time>2020-07-19T14:05:59Z</time>
      </trkpt>
      <trkpt lat="45.53277" lon="6.57585">
        <ele>1185.2</ele>
        <time>2020-07-19T14:06:03Z</time>
      </trkpt>
      <trkpt lat="45.53268" lon="6.57579">
        <ele>1186.2</ele>
        <time>2020-07-19T14:06:07Z</time>
      </trkpt>
      <trkpt lat="45.5326" lon="6.57573">
        <ele>1187</ele>
        <time>2020-07-19T14:06:11Z</time>
      </trkpt>
      <trkpt lat="45.53253" lon="6.57564">
        <ele>1187.4</ele>
        <time>2020-07-19T14:06:15Z</time>
      </trkpt>
      <trkpt lat="45.53248" lon="6.57555">
        <ele>1188.6</ele>
        <time>2020-07-19T14:06:19Z</time>
      </trkpt>
      <trkpt lat="45.53241" lon="6.57547">
        <ele>1189.8</ele>
        <time>2020-07-19T14:06:23Z</time>
      </trkpt>
      <trkpt lat="45.53235" lon="6.57539">
        <ele>1189.8</ele>
        <time>2020-07-19T14:06:27Z</time>
      </trkpt>
      <trkpt lat="45.53229" lon="6.57531">
        <ele>1190.6</ele>
        <time>2020-07-19T14:06:31Z</time>
      </trkpt>
      <trkpt lat="45.53223" lon="6.57521">
        <ele>1190.6</ele>
        <time>2020-07-19T14:06:35Z</time>
      </trkpt>
      <trkpt lat="45.53218" lon="6.57511">
        <ele>1190.6</ele>
        <time>2020-07-19T14:06:39Z</time>
      </trkpt>
      <trkpt lat="45.53213" lon="6.57501">
        <ele>1190.8</ele>
        <time>2020-07-19T14:06:43Z</time>
      </trkpt>
      <trkpt lat="45.53209" lon="6.5749">
        <ele>1191.2</ele>
        <time>2020-07-19T14:06:47Z</time>
      </trkpt>
      <trkpt lat="45.53205" lon="6.57478">
        <ele>1191.8</ele>
        <time>2020-07-19T14:06:51Z</time>
      </trkpt>
      <trkpt lat="45.53202" lon="6.57466">
        <ele>1192.6</ele>
        <time>2020-07-19T14:06:55Z</time>
      </trkpt>
      <trkpt lat="45.53201" lon="6.57453">
        <ele>1193.2</ele>
        <time>2020-07-19T14:06:59Z</time>
      </trkpt>
      <trkpt lat="45.532" lon="6.57441">
        <ele>1193</ele>
        <time>2020-07-19T14:07:03Z</time>
      </trkpt>
      <trkpt lat="45.53199" lon="6.57428">
        <ele>1193.8</ele>
        <time>2020-07-19T14:07:07Z</time>
      </trkpt>
      <trkpt lat="45.53199" lon="6.57415">
        <ele>1194.8</ele>
        <time>2020-07-19T14:07:11Z</time>
      </trkpt>
      <trkpt lat="45.53198" lon="6.57403">
        <ele>1195</ele>
        <time>2020-07-19T14:07:15Z</time>
      </trkpt>
      <trkpt lat="45.53197" lon="6.57391">
        <ele>1195.8</ele>
        <time>2020-07-19T14:07:19Z</time>
      </trkpt>
      <trkpt lat="45.53195" lon="6.5738">
        <ele>1196.6</ele>
        <time>2020-07-19T14:07:23Z</time>
      </trkpt>
      <trkpt lat="45.53193" lon="6.57369">
        <ele>1197.4</ele>
        <time>2020-07-19T14:07:27Z</time>
      </trkpt>
      <trkpt lat="45.53189" lon="6.57358">
        <ele>1197.8</ele>
        <time>2020-07-19T14:07:31Z</time>
      </trkpt>
      <trkpt lat="45.53186" lon="6.57346">
        <ele>1197.8</ele>
        <time>2020-07-19T14:07:35Z</time>
      </trkpt>
      <trkpt lat="45.53183" lon="6.57334">
        <ele>1198.6</ele>
        <time>2020-07-19T14:07:39Z</time>
      </trkpt>
      <trkpt lat="45.53179" lon="6.57321">
        <ele>1198.6</ele>
        <time>2020-07-19T14:07:43Z</time>
      </trkpt>
      <trkpt lat="45.53176" lon="6.57309">
        <ele>1199.6</ele>
        <time>2020-07-19T14:07:47Z</time>
      </trkpt>
      <trkpt lat="45.53173" lon="6.57298">
        <ele>1200.8</ele>
        <time>2020-07-19T14:07:51Z</time>
      </trkpt>
      <trkpt lat="45.53169" lon="6.57287">
        <ele>1201</ele>
        <time>2020-07-19T14:07:55Z</time>
      </trkpt>
      <trkpt lat="45.53166" lon="6.57275">
        <ele>1202</ele>
        <time>2020-07-19T14:07:59Z</time>
      </trkpt>
      <trkpt lat="45.53162" lon="6.57264">
        <ele>1202</ele>
        <time>2020-07-19T14:08:03Z</time>
      </trkpt>
      <trkpt lat="45.53157" lon="6.57254">
        <ele>1202.2</ele>
        <time>2020-07-19T14:08:07Z</time>
      </trkpt>
      <trkpt lat="45.53152" lon="6.57244">
        <ele>1201.8</ele>
        <time>2020-07-19T14:08:11Z</time>
      </trkpt>
      <trkpt lat="45.53146" lon="6.57234">
        <ele>1202.8</ele>
        <time>2020-07-19T14:08:15Z</time>
      </trkpt>
      <trkpt lat="45.5314" lon="6.57225">
        <ele>1203.6</ele>
        <time>2020-07-19T14:08:19Z</time>
      </trkpt>
      <trkpt lat="45.53134" lon="6.57216">
        <ele>1203.8</ele>
        <time>2020-07-19T14:08:23Z</time>
      </trkpt>
      <trkpt lat="45.53128" lon="6.57207">
        <ele>1204</ele>
        <time>2020-07-19T14:08:27Z</time>
      </trkpt>
      <trkpt lat="45.53121" lon="6.57198">
        <ele>1204.8</ele>
        <time>2020-07-19T14:08:31Z</time>
      </trkpt>
      <trkpt lat="45.53115" lon="6.57189">
        <ele>1205.2</ele>
        <time>2020-07-19T14:08:35Z</time>
      </trkpt>
      <trkpt lat="45.53109" lon="6.57179">
        <ele>1206</ele>
        <time>2020-07-19T14:08:39Z</time>
      </trkpt>
      <trkpt lat="45.53103" lon="6.57168">
        <ele>1206.8</ele>
        <time>2020-07-19T14:08:43Z</time>
      </trkpt>
      <trkpt lat="45.53099" lon="6.57157">
        <ele>1206.6</ele>
        <time>2020-07-19T14:08:47Z</time>
      </trkpt>
      <trkpt lat="45.53096" lon="6.57147">
        <ele>1207.4</ele>
        <time>2020-07-19T14:08:51Z</time>
      </trkpt>
      <trkpt lat="45.53092" lon="6.57137">
        <ele>1208.4</ele>
        <time>2020-07-19T14:08:55Z</time>
      </trkpt>
      <trkpt lat="45.53089" lon="6.57128">
        <ele>1209.4</ele>
        <time>2020-07-19T14:08:59Z</time>
      </trkpt>
      <trkpt lat="45.53087" lon="6.57118">
        <ele>1210.2</ele>
        <time>2020-07-19T14:09:03Z</time>
      </trkpt>
      <trkpt lat="45.53085" lon="6.57109">
        <ele>1210.8</ele>
        <time>2020-07-19T14:09:07Z</time>
      </trkpt>
      <trkpt lat="45.53082" lon="6.57099">
        <ele>1211.2</ele>
        <time>2020-07-19T14:09:11Z</time>
      </trkpt>
      <trkpt lat="45.53078" lon="6.5709">
        <ele>1211.8</ele>
        <time>2020-07-19T14:09:15Z</time>
      </trkpt>
      <trkpt lat="45.53074" lon="6.57079">
        <ele>1212.6</ele>
        <time>2020-07-19T14:09:19Z</time>
      </trkpt>
      <trkpt lat="45.53069" lon="6.57069">
        <ele>1213.4</ele>
        <time>2020-07-19T14:09:23Z</time>
      </trkpt>
      <trkpt lat="45.53065" lon="6.57059">
        <ele>1213.6</ele>
        <time>2020-07-19T14:09:27Z</time>
      </trkpt>
      <trkpt lat="45.5306" lon="6.57048">
        <ele>1213.8</ele>
        <time>2020-07-19T14:09:31Z</time>
      </trkpt>
      <trkpt lat="45.53056" lon="6.57038">
        <ele>1214.8</ele>
        <time>2020-07-19T14:09:35Z</time>
      </trkpt>
      <trkpt lat="45.53051" lon="6.57029">
        <ele>1214.8</ele>
        <time>2020-07-19T14:09:39Z</time>
      </trkpt>
      <trkpt lat="45.53045" lon="6.5702">
        <ele>1216</ele>
        <time>2020-07-19T14:09:43Z</time>
      </trkpt>
      <trkpt lat="45.53039" lon="6.5701">
        <ele>1216.4</ele>
        <time>2020-07-19T14:09:47Z</time>
      </trkpt>
      <trkpt lat="45.53034" lon="6.57001">
        <ele>1217.2</ele>
        <time>2020-07-19T14:09:51Z</time>
      </trkpt>
      <trkpt lat="45.5303" lon="6.56991">
        <ele>1217.8</ele>
        <time>2020-07-19T14:09:55Z</time>
      </trkpt>
      <trkpt lat="45.53026" lon="6.56981">
        <ele>1218.2</ele>
        <time>2020-07-19T14:09:59Z</time>
      </trkpt>
      <trkpt lat="45.53022" lon="6.5697">
        <ele>1218.6</ele>
        <time>2020-07-19T14:10:03Z</time>
      </trkpt>
      <trkpt lat="45.53018" lon="6.5696">
        <ele>1219.2</ele>
        <time>2020-07-19T14:10:07Z</time>
      </trkpt>
      <trkpt lat="45.53014" lon="6.56948">
        <ele>1219.8</ele>
        <time>2020-07-19T14:10:11Z</time>
      </trkpt>
      <trkpt lat="45.53008" lon="6.56936">
        <ele>1220</ele>
        <time>2020-07-19T14:10:15Z</time>
      </trkpt>
      <trkpt lat="45.53004" lon="6.56924">
        <ele>1220.2</ele>
        <time>2020-07-19T14:10:19Z</time>
      </trkpt>
      <trkpt lat="45.53" lon="6.56913">
        <ele>1221.2</ele>
        <time>2020-07-19T14:10:23Z</time>
      </trkpt>
      <trkpt lat="45.52997" lon="6.56902">
        <ele>1221.2</ele>
        <time>2020-07-19T14:10:27Z</time>
      </trkpt>
      <trkpt lat="45.52994" lon="6.56891">
        <ele>1222</ele>
        <time>2020-07-19T14:10:31Z</time>
      </trkpt>
      <trkpt lat="45.5299" lon="6.56882">
        <ele>1222.8</ele>
        <time>2020-07-19T14:10:35Z</time>
      </trkpt>
      <trkpt lat="45.52983" lon="6.56872">
        <ele>1223.6</ele>
        <time>2020-07-19T14:10:39Z</time>
      </trkpt>
      <trkpt lat="45.52977" lon="6.56863">
        <ele>1225</ele>
        <time>2020-07-19T14:10:43Z</time>
      </trkpt>
      <trkpt lat="45.52972" lon="6.56856">
        <ele>1224.8</ele>
        <time>2020-07-19T14:10:47Z</time>
      </trkpt>
      <trkpt lat="45.52966" lon="6.56848">
        <ele>1225.8</ele>
        <time>2020-07-19T14:10:51Z</time>
      </trkpt>
      <trkpt lat="45.52959" lon="6.56841">
        <ele>1226</ele>
        <time>2020-07-19T14:10:55Z</time>
      </trkpt>
      <trkpt lat="45.52954" lon="6.56833">
        <ele>1227</ele>
        <time>2020-07-19T14:10:59Z</time>
      </trkpt>
      <trkpt lat="45.52948" lon="6.56827">
        <ele>1227.4</ele>
        <time>2020-07-19T14:11:03Z</time>
      </trkpt>
      <trkpt lat="45.52942" lon="6.5682">
        <ele>1228</ele>
        <time>2020-07-19T14:11:07Z</time>
      </trkpt>
      <trkpt lat="45.52937" lon="6.56813">
        <ele>1229.4</ele>
        <time>2020-07-19T14:11:11Z</time>
      </trkpt>
      <trkpt lat="45.52934" lon="6.56805">
        <ele>1229.8</ele>
        <time>2020-07-19T14:11:15Z</time>
      </trkpt>
      <trkpt lat="45.52929" lon="6.56796">
        <ele>1230.4</ele>
        <time>2020-07-19T14:11:19Z</time>
      </trkpt>
      <trkpt lat="45.52925" lon="6.56788">
        <ele>1230.4</ele>
        <time>2020-07-19T14:11:23Z</time>
      </trkpt>
      <trkpt lat="45.5292" lon="6.56779">
        <ele>1230.8</ele>
        <time>2020-07-19T14:11:27Z</time>
      </trkpt>
      <trkpt lat="45.52917" lon="6.56769">
        <ele>1231</ele>
        <time>2020-07-19T14:11:31Z</time>
      </trkpt>
      <trkpt lat="45.52916" lon="6.56759">
        <ele>1231.2</ele>
        <time>2020-07-19T14:11:35Z</time>
      </trkpt>
      <trkpt lat="45.52915" lon="6.56749">
        <ele>1231.8</ele>
        <time>2020-07-19T14:11:39Z</time>
      </trkpt>
      <trkpt lat="45.52915" lon="6.56737">
        <ele>1231.6</ele>
        <time>2020-07-19T14:11:43Z</time>
      </trkpt>
      <trkpt lat="45.52916" lon="6.56725">
        <ele>1233.2</ele>
        <time>2020-07-19T14:11:47Z</time>
      </trkpt>
      <trkpt lat="45.52917" lon="6.56715">
        <ele>1234</ele>
        <time>2020-07-19T14:11:51Z</time>
      </trkpt>
      <trkpt lat="45.52918" lon="6.56705">
        <ele>1234.8</ele>
        <time>2020-07-19T14:11:55Z</time>
      </trkpt>
      <trkpt lat="45.52917" lon="6.56695">
        <ele>1235.2</ele>
        <time>2020-07-19T14:11:59Z</time>
      </trkpt>
      <trkpt lat="45.52916" lon="6.56685">
        <ele>1235.6</ele>
        <time>2020-07-19T14:12:03Z</time>
      </trkpt>
      <trkpt lat="45.52915" lon="6.56675">
        <ele>1236</ele>
        <time>2020-07-19T14:12:07Z</time>
      </trkpt>
      <trkpt lat="45.52912" lon="6.56664">
        <ele>1237</ele>
        <time>2020-07-19T14:12:11Z</time>
      </trkpt>
      <trkpt lat="45.52911" lon="6.56654">
        <ele>1237.4</ele>
        <time>2020-07-19T14:12:15Z</time>
      </trkpt>
      <trkpt lat="45.52908" lon="6.56644">
        <ele>1238</ele>
        <time>2020-07-19T14:12:19Z</time>
      </trkpt>
      <trkpt lat="45.52907" lon="6.56635">
        <ele>1238.4</ele>
        <time>2020-07-19T14:12:23Z</time>
      </trkpt>
      <trkpt lat="45.52904" lon="6.56626">
        <ele>1239</ele>
        <time>2020-07-19T14:12:27Z</time>
      </trkpt>
      <trkpt lat="45.52902" lon="6.56617">
        <ele>1240</ele>
        <time>2020-07-19T14:12:31Z</time>
      </trkpt>
      <trkpt lat="45.529" lon="6.56608">
        <ele>1240.8</ele>
        <time>2020-07-19T14:12:35Z</time>
      </trkpt>
      <trkpt lat="45.52898" lon="6.56598">
        <ele>1240.8</ele>
        <time>2020-07-19T14:12:39Z</time>
      </trkpt>
      <trkpt lat="45.52894" lon="6.56589">
        <ele>1242.2</ele>
        <time>2020-07-19T14:12:43Z</time>
      </trkpt>
      <trkpt lat="45.5289" lon="6.56581">
        <ele>1242.8</ele>
        <time>2020-07-19T14:12:47Z</time>
      </trkpt>
      <trkpt lat="45.52887" lon="6.56573">
        <ele>1243.6</ele>
        <time>2020-07-19T14:12:51Z</time>
      </trkpt>
      <trkpt lat="45.52883" lon="6.56564">
        <ele>1244.4</ele>
        <time>2020-07-19T14:12:55Z</time>
      </trkpt>
      <trkpt lat="45.52878" lon="6.56556">
        <ele>1245.2</ele>
        <time>2020-07-19T14:12:59Z</time>
      </trkpt>
      <trkpt lat="45.52875" lon="6.56548">
        <ele>1245.2</ele>
        <time>2020-07-19T14:13:03Z</time>
      </trkpt>
      <trkpt lat="45.52872" lon="6.56539">
        <ele>1245.4</ele>
        <time>2020-07-19T14:13:07Z</time>
      </trkpt>
      <trkpt lat="45.52869" lon="6.5653">
        <ele>1245.8</ele>
        <time>2020-07-19T14:13:11Z</time>
      </trkpt>
      <trkpt lat="45.52866" lon="6.56521">
        <ele>1246.6</ele>
        <time>2020-07-19T14:13:15Z</time>
      </trkpt>
      <trkpt lat="45.52864" lon="6.56513">
        <ele>1247.6</ele>
        <time>2020-07-19T14:13:19Z</time>
      </trkpt>
      <trkpt lat="45.52862" lon="6.56503">
        <ele>1248.2</ele>
        <time>2020-07-19T14:13:23Z</time>
      </trkpt>
      <trkpt lat="45.52858" lon="6.56496">
        <ele>1249.2</ele>
        <time>2020-07-19T14:13:27Z</time>
      </trkpt>
      <trkpt lat="45.52854" lon="6.56488">
        <ele>1249.8</ele>
        <time>2020-07-19T14:13:31Z</time>
      </trkpt>
      <trkpt lat="45.5285" lon="6.5648">
        <ele>1250.2</ele>
        <time>2020-07-19T14:13:35Z</time>
      </trkpt>
      <trkpt lat="45.52847" lon="6.5647">
        <ele>1251.2</ele>
        <time>2020-07-19T14:13:39Z</time>
      </trkpt>
      <trkpt lat="45.52845" lon="6.5646">
        <ele>1251.4</ele>
        <time>2020-07-19T14:13:43Z</time>
      </trkpt>
      <trkpt lat="45.52844" lon="6.5645">
        <ele>1252.4</ele>
        <time>2020-07-19T14:13:47Z</time>
      </trkpt>
      <trkpt lat="45.52843" lon="6.56439">
        <ele>1251.6</ele>
        <time>2020-07-19T14:13:51Z</time>
      </trkpt>
      <trkpt lat="45.5284" lon="6.56429">
        <ele>1252.8</ele>
        <time>2020-07-19T14:13:55Z</time>
      </trkpt>
      <trkpt lat="45.52837" lon="6.56422">
        <ele>1253.4</ele>
        <time>2020-07-19T14:13:59Z</time>
      </trkpt>
      <trkpt lat="45.5283" lon="6.56414">
        <ele>1254</ele>
        <time>2020-07-19T14:14:03Z</time>
      </trkpt>
      <trkpt lat="45.52822" lon="6.56409">
        <ele>1254.6</ele>
        <time>2020-07-19T14:14:07Z</time>
      </trkpt>
      <trkpt lat="45.52816" lon="6.56403">
        <ele>1254.8</ele>
        <time>2020-07-19T14:14:11Z</time>
      </trkpt>
      <trkpt lat="45.52811" lon="6.56396">
        <ele>1254.8</ele>
        <time>2020-07-19T14:14:15Z</time>
      </trkpt>
      <trkpt lat="45.52806" lon="6.56387">
        <ele>1255.8</ele>
        <time>2020-07-19T14:14:19Z</time>
      </trkpt>
      <trkpt lat="45.52803" lon="6.56379">
        <ele>1256.6</ele>
        <time>2020-07-19T14:14:23Z</time>
      </trkpt>
      <trkpt lat="45.52802" lon="6.56369">
        <ele>1257.8</ele>
        <time>2020-07-19T14:14:27Z</time>
      </trkpt>
      <trkpt lat="45.52802" lon="6.56359">
        <ele>1258</ele>
        <time>2020-07-19T14:14:31Z</time>
      </trkpt>
      <trkpt lat="45.52802" lon="6.56348">
        <ele>1258.6</ele>
        <time>2020-07-19T14:14:35Z</time>
      </trkpt>
      <trkpt lat="45.52802" lon="6.56338">
        <ele>1259.4</ele>
        <time>2020-07-19T14:14:39Z</time>
      </trkpt>
      <trkpt lat="45.52799" lon="6.56327">
        <ele>1260.6</ele>
        <time>2020-07-19T14:14:43Z</time>
      </trkpt>
      <trkpt lat="45.52797" lon="6.56317">
        <ele>1261.2</ele>
        <time>2020-07-19T14:14:47Z</time>
      </trkpt>
      <trkpt lat="45.52793" lon="6.56306">
        <ele>1261.4</ele>
        <time>2020-07-19T14:14:51Z</time>
      </trkpt>
      <trkpt lat="45.52789" lon="6.56296">
        <ele>1262.6</ele>
        <time>2020-07-19T14:14:55Z</time>
      </trkpt>
      <trkpt lat="45.52785" lon="6.56287">
        <ele>1262.8</ele>
        <time>2020-07-19T14:14:59Z</time>
      </trkpt>
      <trkpt lat="45.52779" lon="6.5628">
        <ele>1263.6</ele>
        <time>2020-07-19T14:15:03Z</time>
      </trkpt>
      <trkpt lat="45.52771" lon="6.56273">
        <ele>1263.4</ele>
        <time>2020-07-19T14:15:07Z</time>
      </trkpt>
      <trkpt lat="45.52764" lon="6.56266">
        <ele>1263.8</ele>
        <time>2020-07-19T14:15:11Z</time>
      </trkpt>
      <trkpt lat="45.52756" lon="6.5626">
        <ele>1264.6</ele>
        <time>2020-07-19T14:15:15Z</time>
      </trkpt>
      <trkpt lat="45.52749" lon="6.56253">
        <ele>1264.8</ele>
        <time>2020-07-19T14:15:19Z</time>
      </trkpt>
      <trkpt lat="45.52741" lon="6.56245">
        <ele>1265.8</ele>
        <time>2020-07-19T14:15:23Z</time>
      </trkpt>
      <trkpt lat="45.52734" lon="6.56238">
        <ele>1266</ele>
        <time>2020-07-19T14:15:27Z</time>
      </trkpt>
      <trkpt lat="45.52728" lon="6.56231">
        <ele>1267</ele>
        <time>2020-07-19T14:15:31Z</time>
      </trkpt>
      <trkpt lat="45.52722" lon="6.56222">
        <ele>1267.4</ele>
        <time>2020-07-19T14:15:35Z</time>
      </trkpt>
      <trkpt lat="45.52715" lon="6.56213">
        <ele>1267.8</ele>
        <time>2020-07-19T14:15:39Z</time>
      </trkpt>
      <trkpt lat="45.52709" lon="6.56205">
        <ele>1268.8</ele>
        <time>2020-07-19T14:15:43Z</time>
      </trkpt>
      <trkpt lat="45.52701" lon="6.56199">
        <ele>1269.2</ele>
        <time>2020-07-19T14:15:47Z</time>
      </trkpt>
      <trkpt lat="45.52694" lon="6.56192">
        <ele>1270.4</ele>
        <time>2020-07-19T14:15:51Z</time>
      </trkpt>
      <trkpt lat="45.52687" lon="6.56189">
        <ele>1270.8</ele>
        <time>2020-07-19T14:15:55Z</time>
      </trkpt>
      <trkpt lat="45.5268" lon="6.56183">
        <ele>1271.2</ele>
        <time>2020-07-19T14:15:59Z</time>
      </trkpt>
      <trkpt lat="45.52673" lon="6.56177">
        <ele>1271.4</ele>
        <time>2020-07-19T14:16:03Z</time>
      </trkpt>
      <trkpt lat="45.52666" lon="6.56172">
        <ele>1271.8</ele>
        <time>2020-07-19T14:16:07Z</time>
      </trkpt>
      <trkpt lat="45.5266" lon="6.56165">
        <ele>1272.6</ele>
        <time>2020-07-19T14:16:11Z</time>
      </trkpt>
      <trkpt lat="45.52654" lon="6.56159">
        <ele>1272</ele>
        <time>2020-07-19T14:16:15Z</time>
      </trkpt>
      <trkpt lat="45.52647" lon="6.56152">
        <ele>1271.6</ele>
        <time>2020-07-19T14:16:19Z</time>
      </trkpt>
      <trkpt lat="45.52641" lon="6.56145">
        <ele>1271.8</ele>
        <time>2020-07-19T14:16:23Z</time>
      </trkpt>
      <trkpt lat="45.52636" lon="6.56139">
        <ele>1271.6</ele>
        <time>2020-07-19T14:16:27Z</time>
      </trkpt>
      <trkpt lat="45.52628" lon="6.56131">
        <ele>1272.2</ele>
        <time>2020-07-19T14:16:31Z</time>
      </trkpt>
      <trkpt lat="45.5262" lon="6.56122">
        <ele>1272.4</ele>
        <time>2020-07-19T14:16:35Z</time>
      </trkpt>
      <trkpt lat="45.52615" lon="6.56113">
        <ele>1272.8</ele>
        <time>2020-07-19T14:16:39Z</time>
      </trkpt>
      <trkpt lat="45.52611" lon="6.56103">
        <ele>1272.8</ele>
        <time>2020-07-19T14:16:43Z</time>
      </trkpt>
      <trkpt lat="45.52608" lon="6.56094">
        <ele>1273.4</ele>
        <time>2020-07-19T14:16:47Z</time>
      </trkpt>
      <trkpt lat="45.52602" lon="6.56086">
        <ele>1274</ele>
        <time>2020-07-19T14:16:51Z</time>
      </trkpt>
      <trkpt lat="45.52594" lon="6.56077">
        <ele>1274.8</ele>
        <time>2020-07-19T14:16:55Z</time>
      </trkpt>
      <trkpt lat="45.52588" lon="6.56069">
        <ele>1275.6</ele>
        <time>2020-07-19T14:16:59Z</time>
      </trkpt>
      <trkpt lat="45.52583" lon="6.5606">
        <ele>1276.4</ele>
        <time>2020-07-19T14:17:03Z</time>
      </trkpt>
      <trkpt lat="45.52578" lon="6.56051">
        <ele>1276.4</ele>
        <time>2020-07-19T14:17:07Z</time>
      </trkpt>
      <trkpt lat="45.52575" lon="6.56043">
        <ele>1277.6</ele>
        <time>2020-07-19T14:17:11Z</time>
      </trkpt>
      <trkpt lat="45.5257" lon="6.56034">
        <ele>1278</ele>
        <time>2020-07-19T14:17:15Z</time>
      </trkpt>
      <trkpt lat="45.52567" lon="6.56026">
        <ele>1278.6</ele>
        <time>2020-07-19T14:17:19Z</time>
      </trkpt>
      <trkpt lat="45.52562" lon="6.56018">
        <ele>1279.4</ele>
        <time>2020-07-19T14:17:23Z</time>
      </trkpt>
      <trkpt lat="45.52559" lon="6.5601">
        <ele>1279.8</ele>
        <time>2020-07-19T14:17:27Z</time>
      </trkpt>
      <trkpt lat="45.52554" lon="6.56002">
        <ele>1280.6</ele>
        <time>2020-07-19T14:17:31Z</time>
      </trkpt>
      <trkpt lat="45.52551" lon="6.55993">
        <ele>1281.8</ele>
        <time>2020-07-19T14:17:35Z</time>
      </trkpt>
      <trkpt lat="45.52549" lon="6.55985">
        <ele>1282.2</ele>
        <time>2020-07-19T14:17:39Z</time>
      </trkpt>
      <trkpt lat="45.52544" lon="6.55976">
        <ele>1283.2</ele>
        <time>2020-07-19T14:17:43Z</time>
      </trkpt>
      <trkpt lat="45.52539" lon="6.55967">
        <ele>1283.4</ele>
        <time>2020-07-19T14:17:47Z</time>
      </trkpt>
      <trkpt lat="45.52534" lon="6.55959">
        <ele>1283.4</ele>
        <time>2020-07-19T14:17:51Z</time>
      </trkpt>
      <trkpt lat="45.52528" lon="6.55951">
        <ele>1284.4</ele>
        <time>2020-07-19T14:17:55Z</time>
      </trkpt>
      <trkpt lat="45.52523" lon="6.55943">
        <ele>1285.6</ele>
        <time>2020-07-19T14:17:59Z</time>
      </trkpt>
      <trkpt lat="45.52518" lon="6.55935">
        <ele>1286</ele>
        <time>2020-07-19T14:18:03Z</time>
      </trkpt>
      <trkpt lat="45.52513" lon="6.55927">
        <ele>1287</ele>
        <time>2020-07-19T14:18:07Z</time>
      </trkpt>
      <trkpt lat="45.52508" lon="6.55919">
        <ele>1287.4</ele>
        <time>2020-07-19T14:18:11Z</time>
      </trkpt>
      <trkpt lat="45.52505" lon="6.55911">
        <ele>1288.2</ele>
        <time>2020-07-19T14:18:15Z</time>
      </trkpt>
      <trkpt lat="45.525" lon="6.55903">
        <ele>1288.2</ele>
        <time>2020-07-19T14:18:19Z</time>
      </trkpt>
      <trkpt lat="45.52495" lon="6.55897">
        <ele>1289</ele>
        <time>2020-07-19T14:18:23Z</time>
      </trkpt>
      <trkpt lat="45.52491" lon="6.55888">
        <ele>1289.4</ele>
        <time>2020-07-19T14:18:27Z</time>
      </trkpt>
      <trkpt lat="45.52485" lon="6.5588">
        <ele>1290.2</ele>
        <time>2020-07-19T14:18:31Z</time>
      </trkpt>
      <trkpt lat="45.5248" lon="6.55871">
        <ele>1290.2</ele>
        <time>2020-07-19T14:18:35Z</time>
      </trkpt>
      <trkpt lat="45.52474" lon="6.55861">
        <ele>1290.8</ele>
        <time>2020-07-19T14:18:39Z</time>
      </trkpt>
      <trkpt lat="45.52469" lon="6.5585">
        <ele>1291</ele>
        <time>2020-07-19T14:18:43Z</time>
      </trkpt>
      <trkpt lat="45.52464" lon="6.55841">
        <ele>1291.4</ele>
        <time>2020-07-19T14:18:47Z</time>
      </trkpt>
      <trkpt lat="45.52458" lon="6.5583">
        <ele>1292.2</ele>
        <time>2020-07-19T14:18:51Z</time>
      </trkpt>
      <trkpt lat="45.52454" lon="6.5582">
        <ele>1293.2</ele>
        <time>2020-07-19T14:18:55Z</time>
      </trkpt>
      <trkpt lat="45.52448" lon="6.5581">
        <ele>1293.4</ele>
        <time>2020-07-19T14:18:59Z</time>
      </trkpt>
      <trkpt lat="45.52442" lon="6.55799">
        <ele>1294</ele>
        <time>2020-07-19T14:19:03Z</time>
      </trkpt>
      <trkpt lat="45.52437" lon="6.55788">
        <ele>1294</ele>
        <time>2020-07-19T14:19:07Z</time>
      </trkpt>
      <trkpt lat="45.5243" lon="6.55778">
        <ele>1294.4</ele>
        <time>2020-07-19T14:19:11Z</time>
      </trkpt>
      <trkpt lat="45.52424" lon="6.55768">
        <ele>1295.2</ele>
        <time>2020-07-19T14:19:15Z</time>
      </trkpt>
      <trkpt lat="45.5242" lon="6.55758">
        <ele>1295.6</ele>
        <time>2020-07-19T14:19:19Z</time>
      </trkpt>
      <trkpt lat="45.52415" lon="6.55748">
        <ele>1295.4</ele>
        <time>2020-07-19T14:19:23Z</time>
      </trkpt>
      <trkpt lat="45.52409" lon="6.55737">
        <ele>1295.8</ele>
        <time>2020-07-19T14:19:27Z</time>
      </trkpt>
      <trkpt lat="45.52404" lon="6.55727">
        <ele>1296.8</ele>
        <time>2020-07-19T14:19:31Z</time>
      </trkpt>
      <trkpt lat="45.52399" lon="6.55719">
        <ele>1296.6</ele>
        <time>2020-07-19T14:19:35Z</time>
      </trkpt>
      <trkpt lat="45.52391" lon="6.55712">
        <ele>1297.2</ele>
        <time>2020-07-19T14:19:39Z</time>
      </trkpt>
      <trkpt lat="45.52382" lon="6.55701">
        <ele>1297.4</ele>
        <time>2020-07-19T14:19:43Z</time>
      </trkpt>
      <trkpt lat="45.52376" lon="6.55689">
        <ele>1297.6</ele>
        <time>2020-07-19T14:19:47Z</time>
      </trkpt>
      <trkpt lat="45.52372" lon="6.55677">
        <ele>1298.4</ele>
        <time>2020-07-19T14:19:51Z</time>
      </trkpt>
      <trkpt lat="45.52369" lon="6.55663">
        <ele>1298.2</ele>
        <time>2020-07-19T14:19:55Z</time>
      </trkpt>
      <trkpt lat="45.52365" lon="6.55653">
        <ele>1298.4</ele>
        <time>2020-07-19T14:19:59Z</time>
      </trkpt>
      <trkpt lat="45.52358" lon="6.55643">
        <ele>1298.6</ele>
        <time>2020-07-19T14:20:03Z</time>
      </trkpt>
      <trkpt lat="45.52352" lon="6.55633">
        <ele>1299.8</ele>
        <time>2020-07-19T14:20:07Z</time>
      </trkpt>
      <trkpt lat="45.52345" lon="6.55621">
        <ele>1300.2</ele>
        <time>2020-07-19T14:20:11Z</time>
      </trkpt>
      <trkpt lat="45.52338" lon="6.55611">
        <ele>1300.2</ele>
        <time>2020-07-19T14:20:15Z</time>
      </trkpt>
      <trkpt lat="45.52329" lon="6.55603">
        <ele>1300.8</ele>
        <time>2020-07-19T14:20:19Z</time>
      </trkpt>
      <trkpt lat="45.52319" lon="6.55596">
        <ele>1301.2</ele>
        <time>2020-07-19T14:20:23Z</time>
      </trkpt>
      <trkpt lat="45.52311" lon="6.55588">
        <ele>1301.4</ele>
        <time>2020-07-19T14:20:27Z</time>
      </trkpt>
      <trkpt lat="45.52302" lon="6.55588">
        <ele>1301.8</ele>
        <time>2020-07-19T14:20:31Z</time>
      </trkpt>
      <trkpt lat="45.52294" lon="6.55598">
        <ele>1302.4</ele>
        <time>2020-07-19T14:20:35Z</time>
      </trkpt>
      <trkpt lat="45.52291" lon="6.55609">
        <ele>1303.2</ele>
        <time>2020-07-19T14:20:39Z</time>
      </trkpt>
      <trkpt lat="45.52289" lon="6.55621">
        <ele>1304.2</ele>
        <time>2020-07-19T14:20:43Z</time>
      </trkpt>
      <trkpt lat="45.52289" lon="6.55633">
        <ele>1305</ele>
        <time>2020-07-19T14:20:47Z</time>
      </trkpt>
      <trkpt lat="45.52287" lon="6.55645">
        <ele>1305</ele>
        <time>2020-07-19T14:20:51Z</time>
      </trkpt>
      <trkpt lat="45.52283" lon="6.55653">
        <ele>1305.4</ele>
        <time>2020-07-19T14:20:55Z</time>
      </trkpt>
      <trkpt lat="45.52275" lon="6.55659">
        <ele>1304.6</ele>
        <time>2020-07-19T14:20:59Z</time>
      </trkpt>
      <trkpt lat="45.52265" lon="6.55662">
        <ele>1305.4</ele>
        <time>2020-07-19T14:21:03Z</time>
      </trkpt>
      <trkpt lat="45.52256" lon="6.5566">
        <ele>1305.4</ele>
        <time>2020-07-19T14:21:07Z</time>
      </trkpt>
      <trkpt lat="45.52247" lon="6.55658">
        <ele>1305.8</ele>
        <time>2020-07-19T14:21:11Z</time>
      </trkpt>
      <trkpt lat="45.52238" lon="6.55657">
        <ele>1305.8</ele>
        <time>2020-07-19T14:21:15Z</time>
      </trkpt>
      <trkpt lat="45.52228" lon="6.55657">
        <ele>1306.2</ele>
        <time>2020-07-19T14:21:19Z</time>
      </trkpt>
      <trkpt lat="45.52218" lon="6.55656">
        <ele>1307</ele>
        <time>2020-07-19T14:21:23Z</time>
      </trkpt>
      <trkpt lat="45.5221" lon="6.55657">
        <ele>1308.2</ele>
        <time>2020-07-19T14:21:27Z</time>
      </trkpt>
      <trkpt lat="45.522" lon="6.55657">
        <ele>1307.8</ele>
        <time>2020-07-19T14:21:31Z</time>
      </trkpt>
      <trkpt lat="45.52191" lon="6.55658">
        <ele>1308.6</ele>
        <time>2020-07-19T14:21:35Z</time>
      </trkpt>
      <trkpt lat="45.52182" lon="6.55659">
        <ele>1308.6</ele>
        <time>2020-07-19T14:21:39Z</time>
      </trkpt>
      <trkpt lat="45.52172" lon="6.5566">
        <ele>1309</ele>
        <time>2020-07-19T14:21:43Z</time>
      </trkpt>
      <trkpt lat="45.52163" lon="6.5566">
        <ele>1309.6</ele>
        <time>2020-07-19T14:21:47Z</time>
      </trkpt>
      <trkpt lat="45.52153" lon="6.55658">
        <ele>1310.4</ele>
        <time>2020-07-19T14:21:51Z</time>
      </trkpt>
      <trkpt lat="45.52144" lon="6.55653">
        <ele>1310</ele>
        <time>2020-07-19T14:21:55Z</time>
      </trkpt>
      <trkpt lat="45.52134" lon="6.55649">
        <ele>1309.8</ele>
        <time>2020-07-19T14:21:59Z</time>
      </trkpt>
      <trkpt lat="45.52124" lon="6.55647">
        <ele>1309.8</ele>
        <time>2020-07-19T14:22:03Z</time>
      </trkpt>
      <trkpt lat="45.52114" lon="6.55648">
        <ele>1310</ele>
        <time>2020-07-19T14:22:07Z</time>
      </trkpt>
      <trkpt lat="45.52104" lon="6.55651">
        <ele>1309.6</ele>
        <time>2020-07-19T14:22:11Z</time>
      </trkpt>
      <trkpt lat="45.52094" lon="6.55657">
        <ele>1310.6</ele>
        <time>2020-07-19T14:22:15Z</time>
      </trkpt>
      <trkpt lat="45.52086" lon="6.55664">
        <ele>1311</ele>
        <time>2020-07-19T14:22:19Z</time>
      </trkpt>
      <trkpt lat="45.52076" lon="6.55668">
        <ele>1311.6</ele>
        <time>2020-07-19T14:22:23Z</time>
      </trkpt>
      <trkpt lat="45.52068" lon="6.55669">
        <ele>1311.6</ele>
        <time>2020-07-19T14:22:27Z</time>
      </trkpt>
      <trkpt lat="45.52062" lon="6.55669">
        <ele>1312.2</ele>
        <time>2020-07-19T14:22:31Z</time>
      </trkpt>
      <trkpt lat="45.52053" lon="6.55668">
        <ele>1311.2</ele>
        <time>2020-07-19T14:22:35Z</time>
      </trkpt>
      <trkpt lat="45.52039" lon="6.55658">
        <ele>1308.4</ele>
        <time>2020-07-19T14:22:39Z</time>
      </trkpt>
      <trkpt lat="45.52016" lon="6.55643">
        <ele>1306.8</ele>
        <time>2020-07-19T14:22:43Z</time>
      </trkpt>
      <trkpt lat="45.51993" lon="6.55631">
        <ele>1308.8</ele>
        <time>2020-07-19T14:22:47Z</time>
      </trkpt>
      <trkpt lat="45.51975" lon="6.55621">
        <ele>1308.2</ele>
        <time>2020-07-19T14:22:51Z</time>
      </trkpt>
      <trkpt lat="45.51957" lon="6.55613">
        <ele>1308.4</ele>
        <time>2020-07-19T14:22:55Z</time>
      </trkpt>
      <trkpt lat="45.5194" lon="6.55602">
        <ele>1306.8</ele>
        <time>2020-07-19T14:22:59Z</time>
      </trkpt>
      <trkpt lat="45.51918" lon="6.55594">
        <ele>1303.8</ele>
        <time>2020-07-19T14:23:03Z</time>
      </trkpt>
      <trkpt lat="45.51893" lon="6.55588">
        <ele>1300.8</ele>
        <time>2020-07-19T14:23:07Z</time>
      </trkpt>
      <trkpt lat="45.5187" lon="6.5558">
        <ele>1298.8</ele>
        <time>2020-07-19T14:23:11Z</time>
      </trkpt>
      <trkpt lat="45.51852" lon="6.55567">
        <ele>1295.6</ele>
        <time>2020-07-19T14:23:15Z</time>
      </trkpt>
      <trkpt lat="45.5184" lon="6.55535">
        <ele>1292.6</ele>
        <time>2020-07-19T14:23:19Z</time>
      </trkpt>
      <trkpt lat="45.51824" lon="6.55497">
        <ele>1292.2</ele>
        <time>2020-07-19T14:23:23Z</time>
      </trkpt>
      <trkpt lat="45.51806" lon="6.55457">
        <ele>1290.2</ele>
        <time>2020-07-19T14:23:27Z</time>
      </trkpt>
      <trkpt lat="45.51786" lon="6.55415">
        <ele>1287.6</ele>
        <time>2020-07-19T14:23:31Z</time>
      </trkpt>
      <trkpt lat="45.51767" lon="6.55373">
        <ele>1285.6</ele>
        <time>2020-07-19T14:23:35Z</time>
      </trkpt>
      <trkpt lat="45.5175" lon="6.55334">
        <ele>1286.4</ele>
        <time>2020-07-19T14:23:39Z</time>
      </trkpt>
      <trkpt lat="45.51719" lon="6.55311">
        <ele>1282</ele>
        <time>2020-07-19T14:23:43Z</time>
      </trkpt>
      <trkpt lat="45.51684" lon="6.553">
        <ele>1278.6</ele>
        <time>2020-07-19T14:23:47Z</time>
      </trkpt>
      <trkpt lat="45.51655" lon="6.55286">
        <ele>1276.8</ele>
        <time>2020-07-19T14:23:51Z</time>
      </trkpt>
      <trkpt lat="45.51633" lon="6.55261">
        <ele>1278.2</ele>
        <time>2020-07-19T14:23:55Z</time>
      </trkpt>
      <trkpt lat="45.51604" lon="6.55246">
        <ele>1274.2</ele>
        <time>2020-07-19T14:23:59Z</time>
      </trkpt>
      <trkpt lat="45.51571" lon="6.55231">
        <ele>1272.4</ele>
        <time>2020-07-19T14:24:03Z</time>
      </trkpt>
      <trkpt lat="45.51538" lon="6.55218">
        <ele>1270</ele>
        <time>2020-07-19T14:24:07Z</time>
      </trkpt>
      <trkpt lat="45.51505" lon="6.55204">
        <ele>1268</ele>
        <time>2020-07-19T14:24:11Z</time>
      </trkpt>
      <trkpt lat="45.51473" lon="6.55186">
        <ele>1267.8</ele>
        <time>2020-07-19T14:24:15Z</time>
      </trkpt>
      <trkpt lat="45.51448" lon="6.55163">
        <ele>1268.8</ele>
        <time>2020-07-19T14:24:19Z</time>
      </trkpt>
      <trkpt lat="45.51438" lon="6.55138">
        <ele>1270.6</ele>
        <time>2020-07-19T14:24:23Z</time>
      </trkpt>
      <trkpt lat="45.51437" lon="6.55132">
        <ele>1271.4</ele>
        <time>2020-07-19T14:24:27Z</time>
      </trkpt>
      <trkpt lat="45.51432" lon="6.55126">
        <ele>1271.2</ele>
        <time>2020-07-19T14:24:31Z</time>
      </trkpt>
      <trkpt lat="45.51428" lon="6.55116">
        <ele>1270.8</ele>
        <time>2020-07-19T14:24:35Z</time>
      </trkpt>
      <trkpt lat="45.5142" lon="6.55105">
        <ele>1269.8</ele>
        <time>2020-07-19T14:24:39Z</time>
      </trkpt>
      <trkpt lat="45.51417" lon="6.55094">
        <ele>1269</ele>
        <time>2020-07-19T14:24:43Z</time>
      </trkpt>
      <trkpt lat="45.51417" lon="6.55085">
        <ele>1269</ele>
        <time>2020-07-19T14:24:47Z</time>
      </trkpt>
      <trkpt lat="45.51422" lon="6.5507">
        <ele>1268.2</ele>
        <time>2020-07-19T14:27:51Z</time>
      </trkpt>
      <trkpt lat="45.51425" lon="6.55057">
        <ele>1267.8</ele>
        <time>2020-07-19T14:27:55Z</time>
      </trkpt>
      <trkpt lat="45.51427" lon="6.5504">
        <ele>1266.6</ele>
        <time>2020-07-19T14:27:59Z</time>
      </trkpt>
      <trkpt lat="45.51429" lon="6.55025">
        <ele>1267.2</ele>
        <time>2020-07-19T14:28:03Z</time>
      </trkpt>
      <trkpt lat="45.5143" lon="6.55009">
        <ele>1267</ele>
        <time>2020-07-19T14:28:16Z</time>
      </trkpt>
      <trkpt lat="45.51431" lon="6.54992">
        <ele>1266.4</ele>
        <time>2020-07-19T14:28:20Z</time>
      </trkpt>
      <trkpt lat="45.5143" lon="6.54973">
        <ele>1266</ele>
        <time>2020-07-19T14:28:24Z</time>
      </trkpt>
      <trkpt lat="45.51425" lon="6.54949">
        <ele>1265.4</ele>
        <time>2020-07-19T14:28:28Z</time>
      </trkpt>
      <trkpt lat="45.51415" lon="6.54922">
        <ele>1264.6</ele>
        <time>2020-07-19T14:28:32Z</time>
      </trkpt>
      <trkpt lat="45.514" lon="6.54895">
        <ele>1263.8</ele>
        <time>2020-07-19T14:28:36Z</time>
      </trkpt>
      <trkpt lat="45.5138" lon="6.5487">
        <ele>1261.6</ele>
        <time>2020-07-19T14:28:40Z</time>
      </trkpt>
      <trkpt lat="45.51357" lon="6.54846">
        <ele>1260.4</ele>
        <time>2020-07-19T14:28:44Z</time>
      </trkpt>
      <trkpt lat="45.51331" lon="6.54823">
        <ele>1257.4</ele>
        <time>2020-07-19T14:28:48Z</time>
      </trkpt>
      <trkpt lat="45.51309" lon="6.54807">
        <ele>1257.8</ele>
        <time>2020-07-19T14:28:52Z</time>
      </trkpt>
      <trkpt lat="45.51297" lon="6.54802">
        <ele>1256.6</ele>
        <time>2020-07-19T14:28:56Z</time>
      </trkpt>
      <trkpt lat="45.51292" lon="6.54793">
        <ele>1256</ele>
        <time>2020-07-19T14:29:00Z</time>
      </trkpt>
      <trkpt lat="45.51295" lon="6.54783">
        <ele>1258.2</ele>
        <time>2020-07-19T14:29:04Z</time>
      </trkpt>
      <trkpt lat="45.51296" lon="6.54772">
        <ele>1259</ele>
        <time>2020-07-19T14:29:08Z</time>
      </trkpt>
      <trkpt lat="45.51296" lon="6.54762">
        <ele>1259.2</ele>
        <time>2020-07-19T14:29:12Z</time>
      </trkpt>
      <trkpt lat="45.51295" lon="6.54752">
        <ele>1259.8</ele>
        <time>2020-07-19T14:29:16Z</time>
      </trkpt>
      <trkpt lat="45.51294" lon="6.54742">
        <ele>1260.2</ele>
        <time>2020-07-19T14:29:20Z</time>
      </trkpt>
      <trkpt lat="45.51292" lon="6.54732">
        <ele>1261</ele>
        <time>2020-07-19T14:29:24Z</time>
      </trkpt>
      <trkpt lat="45.51291" lon="6.54723">
        <ele>1261.6</ele>
        <time>2020-07-19T14:29:28Z</time>
      </trkpt>
      <trkpt lat="45.5129" lon="6.54714">
        <ele>1261.8</ele>
        <time>2020-07-19T14:29:32Z</time>
      </trkpt>
      <trkpt lat="45.51289" lon="6.54704">
        <ele>1263</ele>
        <time>2020-07-19T14:29:36Z</time>
      </trkpt>
      <trkpt lat="45.51288" lon="6.54695">
        <ele>1262.8</ele>
        <time>2020-07-19T14:29:40Z</time>
      </trkpt>
      <trkpt lat="45.51288" lon="6.54685">
        <ele>1264.2</ele>
        <time>2020-07-19T14:29:44Z</time>
      </trkpt>
      <trkpt lat="45.51288" lon="6.54676">
        <ele>1265</ele>
        <time>2020-07-19T14:29:48Z</time>
      </trkpt>
      <trkpt lat="45.5129" lon="6.54667">
        <ele>1265.6</ele>
        <time>2020-07-19T14:29:52Z</time>
      </trkpt>
      <trkpt lat="45.51291" lon="6.54657">
        <ele>1266.8</ele>
        <time>2020-07-19T14:29:56Z</time>
      </trkpt>
      <trkpt lat="45.51292" lon="6.54647">
        <ele>1267.4</ele>
        <time>2020-07-19T14:30:00Z</time>
      </trkpt>
      <trkpt lat="45.51292" lon="6.54638">
        <ele>1267.8</ele>
        <time>2020-07-19T14:30:04Z</time>
      </trkpt>
      <trkpt lat="45.51291" lon="6.54629">
        <ele>1268.6</ele>
        <time>2020-07-19T14:30:08Z</time>
      </trkpt>
      <trkpt lat="45.51289" lon="6.54621">
        <ele>1269</ele>
        <time>2020-07-19T14:30:12Z</time>
      </trkpt>
      <trkpt lat="45.51286" lon="6.54612">
        <ele>1269.6</ele>
        <time>2020-07-19T14:30:16Z</time>
      </trkpt>
      <trkpt lat="45.51284" lon="6.54604">
        <ele>1270.2</ele>
        <time>2020-07-19T14:30:20Z</time>
      </trkpt>
      <trkpt lat="45.51282" lon="6.54595">
        <ele>1271.4</ele>
        <time>2020-07-19T14:30:24Z</time>
      </trkpt>
      <trkpt lat="45.5128" lon="6.54587">
        <ele>1271.8</ele>
        <time>2020-07-19T14:30:28Z</time>
      </trkpt>
      <trkpt lat="45.51278" lon="6.54578">
        <ele>1272.6</ele>
        <time>2020-07-19T14:30:32Z</time>
      </trkpt>
      <trkpt lat="45.51276" lon="6.54569">
        <ele>1272.4</ele>
        <time>2020-07-19T14:30:36Z</time>
      </trkpt>
      <trkpt lat="45.51275" lon="6.5456">
        <ele>1273.4</ele>
        <time>2020-07-19T14:30:40Z</time>
      </trkpt>
      <trkpt lat="45.51274" lon="6.54551">
        <ele>1274.4</ele>
        <time>2020-07-19T14:30:44Z</time>
      </trkpt>
      <trkpt lat="45.51274" lon="6.54542">
        <ele>1275.4</ele>
        <time>2020-07-19T14:30:48Z</time>
      </trkpt>
      <trkpt lat="45.51274" lon="6.54533">
        <ele>1275.8</ele>
        <time>2020-07-19T14:30:52Z</time>
      </trkpt>
      <trkpt lat="45.51274" lon="6.54524">
        <ele>1275.8</ele>
        <time>2020-07-19T14:30:56Z</time>
      </trkpt>
      <trkpt lat="45.51274" lon="6.54514">
        <ele>1276.8</ele>
        <time>2020-07-19T14:31:00Z</time>
      </trkpt>
      <trkpt lat="45.51273" lon="6.54504">
        <ele>1278</ele>
        <time>2020-07-19T14:31:04Z</time>
      </trkpt>
      <trkpt lat="45.51272" lon="6.54494">
        <ele>1279</ele>
        <time>2020-07-19T14:31:08Z</time>
      </trkpt>
      <trkpt lat="45.51272" lon="6.54484">
        <ele>1279.8</ele>
        <time>2020-07-19T14:31:12Z</time>
      </trkpt>
      <trkpt lat="45.51272" lon="6.54475">
        <ele>1280.4</ele>
        <time>2020-07-19T14:31:16Z</time>
      </trkpt>
      <trkpt lat="45.51271" lon="6.54466">
        <ele>1280.4</ele>
        <time>2020-07-19T14:31:20Z</time>
      </trkpt>
      <trkpt lat="45.5127" lon="6.54457">
        <ele>1281.2</ele>
        <time>2020-07-19T14:31:24Z</time>
      </trkpt>
      <trkpt lat="45.51269" lon="6.54448">
        <ele>1281.6</ele>
        <time>2020-07-19T14:31:28Z</time>
      </trkpt>
      <trkpt lat="45.51268" lon="6.54439">
        <ele>1281.6</ele>
        <time>2020-07-19T14:31:32Z</time>
      </trkpt>
      <trkpt lat="45.51266" lon="6.5443">
        <ele>1281.8</ele>
        <time>2020-07-19T14:31:36Z</time>
      </trkpt>
      <trkpt lat="45.51264" lon="6.54421">
        <ele>1282.6</ele>
        <time>2020-07-19T14:31:40Z</time>
      </trkpt>
      <trkpt lat="45.51263" lon="6.54411">
        <ele>1283.2</ele>
        <time>2020-07-19T14:31:44Z</time>
      </trkpt>
      <trkpt lat="45.51262" lon="6.54401">
        <ele>1283.4</ele>
        <time>2020-07-19T14:31:48Z</time>
      </trkpt>
      <trkpt lat="45.5126" lon="6.54392">
        <ele>1284</ele>
        <time>2020-07-19T14:31:52Z</time>
      </trkpt>
      <trkpt lat="45.51259" lon="6.54383">
        <ele>1285.4</ele>
        <time>2020-07-19T14:31:56Z</time>
      </trkpt>
      <trkpt lat="45.51257" lon="6.54374">
        <ele>1286.4</ele>
        <time>2020-07-19T14:32:00Z</time>
      </trkpt>
      <trkpt lat="45.51256" lon="6.54364">
        <ele>1286.6</ele>
        <time>2020-07-19T14:32:04Z</time>
      </trkpt>
      <trkpt lat="45.51255" lon="6.54355">
        <ele>1287.4</ele>
        <time>2020-07-19T14:32:08Z</time>
      </trkpt>
      <trkpt lat="45.51253" lon="6.54345">
        <ele>1288.4</ele>
        <time>2020-07-19T14:32:12Z</time>
      </trkpt>
      <trkpt lat="45.51252" lon="6.54336">
        <ele>1288.8</ele>
        <time>2020-07-19T14:32:16Z</time>
      </trkpt>
      <trkpt lat="45.51251" lon="6.54326">
        <ele>1290.4</ele>
        <time>2020-07-19T14:32:20Z</time>
      </trkpt>
      <trkpt lat="45.51249" lon="6.54317">
        <ele>1291.6</ele>
        <time>2020-07-19T14:32:24Z</time>
      </trkpt>
      <trkpt lat="45.51248" lon="6.54307">
        <ele>1292.2</ele>
        <time>2020-07-19T14:32:28Z</time>
      </trkpt>
      <trkpt lat="45.51246" lon="6.54298">
        <ele>1292.6</ele>
        <time>2020-07-19T14:32:32Z</time>
      </trkpt>
      <trkpt lat="45.51244" lon="6.54289">
        <ele>1292.8</ele>
        <time>2020-07-19T14:32:36Z</time>
      </trkpt>
      <trkpt lat="45.51242" lon="6.5428">
        <ele>1294</ele>
        <time>2020-07-19T14:32:40Z</time>
      </trkpt>
      <trkpt lat="45.5124" lon="6.54271">
        <ele>1295</ele>
        <time>2020-07-19T14:32:44Z</time>
      </trkpt>
      <trkpt lat="45.51238" lon="6.54261">
        <ele>1295.8</ele>
        <time>2020-07-19T14:32:48Z</time>
      </trkpt>
      <trkpt lat="45.51236" lon="6.54252">
        <ele>1296</ele>
        <time>2020-07-19T14:32:52Z</time>
      </trkpt>
      <trkpt lat="45.51234" lon="6.54242">
        <ele>1297.2</ele>
        <time>2020-07-19T14:32:56Z</time>
      </trkpt>
      <trkpt lat="45.51233" lon="6.54233">
        <ele>1298</ele>
        <time>2020-07-19T14:33:00Z</time>
      </trkpt>
      <trkpt lat="45.51231" lon="6.54223">
        <ele>1298.4</ele>
        <time>2020-07-19T14:33:04Z</time>
      </trkpt>
      <trkpt lat="45.51229" lon="6.54214">
        <ele>1298.8</ele>
        <time>2020-07-19T14:33:08Z</time>
      </trkpt>
      <trkpt lat="45.51227" lon="6.54205">
        <ele>1299.6</ele>
        <time>2020-07-19T14:33:12Z</time>
      </trkpt>
      <trkpt lat="45.51224" lon="6.54195">
        <ele>1300.2</ele>
        <time>2020-07-19T14:33:16Z</time>
      </trkpt>
      <trkpt lat="45.51222" lon="6.54186">
        <ele>1300.8</ele>
        <time>2020-07-19T14:33:20Z</time>
      </trkpt>
      <trkpt lat="45.5122" lon="6.54177">
        <ele>1301.2</ele>
        <time>2020-07-19T14:33:24Z</time>
      </trkpt>
      <trkpt lat="45.51217" lon="6.54168">
        <ele>1302.2</ele>
        <time>2020-07-19T14:33:28Z</time>
      </trkpt>
      <trkpt lat="45.51215" lon="6.5416">
        <ele>1302.8</ele>
        <time>2020-07-19T14:33:32Z</time>
      </trkpt>
      <trkpt lat="45.51213" lon="6.54151">
        <ele>1303.4</ele>
        <time>2020-07-19T14:33:36Z</time>
      </trkpt>
      <trkpt lat="45.51212" lon="6.54141">
        <ele>1304.2</ele>
        <time>2020-07-19T14:33:40Z</time>
      </trkpt>
      <trkpt lat="45.5121" lon="6.54133">
        <ele>1305</ele>
        <time>2020-07-19T14:33:44Z</time>
      </trkpt>
      <trkpt lat="45.51209" lon="6.54125">
        <ele>1305.2</ele>
        <time>2020-07-19T14:33:48Z</time>
      </trkpt>
      <trkpt lat="45.51207" lon="6.54116">
        <ele>1306.2</ele>
        <time>2020-07-19T14:33:52Z</time>
      </trkpt>
      <trkpt lat="45.51204" lon="6.54108">
        <ele>1306.8</ele>
        <time>2020-07-19T14:33:56Z</time>
      </trkpt>
      <trkpt lat="45.51203" lon="6.541">
        <ele>1307.4</ele>
        <time>2020-07-19T14:34:00Z</time>
      </trkpt>
      <trkpt lat="45.51199" lon="6.54092">
        <ele>1308.2</ele>
        <time>2020-07-19T14:34:04Z</time>
      </trkpt>
      <trkpt lat="45.51195" lon="6.54084">
        <ele>1309</ele>
        <time>2020-07-19T14:34:08Z</time>
      </trkpt>
      <trkpt lat="45.51191" lon="6.54077">
        <ele>1309.4</ele>
        <time>2020-07-19T14:34:12Z</time>
      </trkpt>
      <trkpt lat="45.51187" lon="6.54069">
        <ele>1310.2</ele>
        <time>2020-07-19T14:34:16Z</time>
      </trkpt>
      <trkpt lat="45.51182" lon="6.54062">
        <ele>1310.6</ele>
        <time>2020-07-19T14:34:20Z</time>
      </trkpt>
      <trkpt lat="45.51178" lon="6.54055">
        <ele>1312.2</ele>
        <time>2020-07-19T14:34:24Z</time>
      </trkpt>
      <trkpt lat="45.51173" lon="6.54048">
        <ele>1312.6</ele>
        <time>2020-07-19T14:34:28Z</time>
      </trkpt>
      <trkpt lat="45.51167" lon="6.54042">
        <ele>1313.8</ele>
        <time>2020-07-19T14:34:32Z</time>
      </trkpt>
      <trkpt lat="45.51162" lon="6.54036">
        <ele>1314.6</ele>
        <time>2020-07-19T14:34:36Z</time>
      </trkpt>
      <trkpt lat="45.51157" lon="6.54031">
        <ele>1314.4</ele>
        <time>2020-07-19T14:34:40Z</time>
      </trkpt>
      <trkpt lat="45.51151" lon="6.54025">
        <ele>1315.8</ele>
        <time>2020-07-19T14:34:44Z</time>
      </trkpt>
      <trkpt lat="45.51147" lon="6.54019">
        <ele>1316.2</ele>
        <time>2020-07-19T14:34:48Z</time>
      </trkpt>
      <trkpt lat="45.51144" lon="6.5401">
        <ele>1316.6</ele>
        <time>2020-07-19T14:34:52Z</time>
      </trkpt>
      <trkpt lat="45.51142" lon="6.54">
        <ele>1317.4</ele>
        <time>2020-07-19T14:34:56Z</time>
      </trkpt>
      <trkpt lat="45.51141" lon="6.53991">
        <ele>1318</ele>
        <time>2020-07-19T14:35:00Z</time>
      </trkpt>
      <trkpt lat="45.51141" lon="6.53981">
        <ele>1318.6</ele>
        <time>2020-07-19T14:35:04Z</time>
      </trkpt>
      <trkpt lat="45.51141" lon="6.53972">
        <ele>1319</ele>
        <time>2020-07-19T14:35:08Z</time>
      </trkpt>
      <trkpt lat="45.51141" lon="6.53963">
        <ele>1320</ele>
        <time>2020-07-19T14:35:12Z</time>
      </trkpt>
      <trkpt lat="45.5114" lon="6.53954">
        <ele>1320.4</ele>
        <time>2020-07-19T14:35:16Z</time>
      </trkpt>
      <trkpt lat="45.51139" lon="6.53944">
        <ele>1321</ele>
        <time>2020-07-19T14:35:20Z</time>
      </trkpt>
      <trkpt lat="45.51139" lon="6.53935">
        <ele>1321.6</ele>
        <time>2020-07-19T14:35:24Z</time>
      </trkpt>
      <trkpt lat="45.51138" lon="6.53926">
        <ele>1322.2</ele>
        <time>2020-07-19T14:35:28Z</time>
      </trkpt>
      <trkpt lat="45.51137" lon="6.53918">
        <ele>1322.8</ele>
        <time>2020-07-19T14:35:32Z</time>
      </trkpt>
      <trkpt lat="45.51137" lon="6.53909">
        <ele>1323.4</ele>
        <time>2020-07-19T14:35:36Z</time>
      </trkpt>
      <trkpt lat="45.51136" lon="6.539">
        <ele>1324.2</ele>
        <time>2020-07-19T14:35:40Z</time>
      </trkpt>
      <trkpt lat="45.51135" lon="6.53891">
        <ele>1324.8</ele>
        <time>2020-07-19T14:35:44Z</time>
      </trkpt>
      <trkpt lat="45.51133" lon="6.53881">
        <ele>1325.4</ele>
        <time>2020-07-19T14:35:48Z</time>
      </trkpt>
      <trkpt lat="45.51132" lon="6.53872">
        <ele>1326.8</ele>
        <time>2020-07-19T14:35:52Z</time>
      </trkpt>
      <trkpt lat="45.5113" lon="6.53863">
        <ele>1327.8</ele>
        <time>2020-07-19T14:35:56Z</time>
      </trkpt>
      <trkpt lat="45.51128" lon="6.53855">
        <ele>1329</ele>
        <time>2020-07-19T14:36:00Z</time>
      </trkpt>
      <trkpt lat="45.51126" lon="6.53846">
        <ele>1329.2</ele>
        <time>2020-07-19T14:36:04Z</time>
      </trkpt>
      <trkpt lat="45.51123" lon="6.53838">
        <ele>1330.2</ele>
        <time>2020-07-19T14:36:08Z</time>
      </trkpt>
      <trkpt lat="45.51121" lon="6.5383">
        <ele>1330.8</ele>
        <time>2020-07-19T14:36:12Z</time>
      </trkpt>
      <trkpt lat="45.51119" lon="6.53822">
        <ele>1331.4</ele>
        <time>2020-07-19T14:36:16Z</time>
      </trkpt>
      <trkpt lat="45.51117" lon="6.53815">
        <ele>1331.8</ele>
        <time>2020-07-19T14:36:20Z</time>
      </trkpt>
      <trkpt lat="45.51114" lon="6.53807">
        <ele>1331.8</ele>
        <time>2020-07-19T14:36:24Z</time>
      </trkpt>
      <trkpt lat="45.5111" lon="6.53799">
        <ele>1332</ele>
        <time>2020-07-19T14:36:28Z</time>
      </trkpt>
      <trkpt lat="45.51108" lon="6.5379">
        <ele>1332.2</ele>
        <time>2020-07-19T14:36:32Z</time>
      </trkpt>
      <trkpt lat="45.51112" lon="6.53784">
        <ele>1333.6</ele>
        <time>2020-07-19T14:36:36Z</time>
      </trkpt>
      <trkpt lat="45.51117" lon="6.5379">
        <ele>1334</ele>
        <time>2020-07-19T14:36:40Z</time>
      </trkpt>
      <trkpt lat="45.5112" lon="6.53798">
        <ele>1334.4</ele>
        <time>2020-07-19T14:36:44Z</time>
      </trkpt>
      <trkpt lat="45.51123" lon="6.53806">
        <ele>1335</ele>
        <time>2020-07-19T14:36:48Z</time>
      </trkpt>
      <trkpt lat="45.51126" lon="6.53814">
        <ele>1335.6</ele>
        <time>2020-07-19T14:36:52Z</time>
      </trkpt>
      <trkpt lat="45.5113" lon="6.5382">
        <ele>1335.8</ele>
        <time>2020-07-19T14:36:56Z</time>
      </trkpt>
      <trkpt lat="45.51134" lon="6.53827">
        <ele>1336.8</ele>
        <time>2020-07-19T14:37:00Z</time>
      </trkpt>
      <trkpt lat="45.51139" lon="6.53834">
        <ele>1337.4</ele>
        <time>2020-07-19T14:37:04Z</time>
      </trkpt>
      <trkpt lat="45.51143" lon="6.53841">
        <ele>1337.8</ele>
        <time>2020-07-19T14:37:08Z</time>
      </trkpt>
      <trkpt lat="45.51147" lon="6.53847">
        <ele>1338.4</ele>
        <time>2020-07-19T14:37:12Z</time>
      </trkpt>
      <trkpt lat="45.5115" lon="6.53854">
        <ele>1339.4</ele>
        <time>2020-07-19T14:37:16Z</time>
      </trkpt>
      <trkpt lat="45.51162" lon="6.53864">
        <ele>1341</ele>
        <time>2020-07-19T14:41:47Z</time>
      </trkpt>
      <trkpt lat="45.51167" lon="6.53868">
        <ele>1341.4</ele>
        <time>2020-07-19T14:41:51Z</time>
      </trkpt>
      <trkpt lat="45.51174" lon="6.53872">
        <ele>1341.8</ele>
        <time>2020-07-19T14:41:55Z</time>
      </trkpt>
      <trkpt lat="45.5118" lon="6.53873">
        <ele>1343</ele>
        <time>2020-07-19T14:41:59Z</time>
      </trkpt>
      <trkpt lat="45.51186" lon="6.53874">
        <ele>1343.4</ele>
        <time>2020-07-19T14:42:03Z</time>
      </trkpt>
      <trkpt lat="45.51193" lon="6.53875">
        <ele>1344.2</ele>
        <time>2020-07-19T14:42:07Z</time>
      </trkpt>
      <trkpt lat="45.51199" lon="6.53876">
        <ele>1344.8</ele>
        <time>2020-07-19T14:42:11Z</time>
      </trkpt>
      <trkpt lat="45.51205" lon="6.53876">
        <ele>1345.2</ele>
        <time>2020-07-19T14:42:15Z</time>
      </trkpt>
      <trkpt lat="45.51211" lon="6.53878">
        <ele>1346.2</ele>
        <time>2020-07-19T14:42:19Z</time>
      </trkpt>
      <trkpt lat="45.51218" lon="6.53878">
        <ele>1347.2</ele>
        <time>2020-07-19T14:42:23Z</time>
      </trkpt>
      <trkpt lat="45.51225" lon="6.53879">
        <ele>1348</ele>
        <time>2020-07-19T14:42:27Z</time>
      </trkpt>
      <trkpt lat="45.51231" lon="6.5388">
        <ele>1348.2</ele>
        <time>2020-07-19T14:42:31Z</time>
      </trkpt>
      <trkpt lat="45.51238" lon="6.53881">
        <ele>1349</ele>
        <time>2020-07-19T14:42:35Z</time>
      </trkpt>
      <trkpt lat="45.51244" lon="6.53883">
        <ele>1349.4</ele>
        <time>2020-07-19T14:42:39Z</time>
      </trkpt>
      <trkpt lat="45.5125" lon="6.53884">
        <ele>1350.6</ele>
        <time>2020-07-19T14:42:43Z</time>
      </trkpt>
      <trkpt lat="45.51256" lon="6.53886">
        <ele>1350.8</ele>
        <time>2020-07-19T14:42:47Z</time>
      </trkpt>
      <trkpt lat="45.51262" lon="6.53889">
        <ele>1351.6</ele>
        <time>2020-07-19T14:42:51Z</time>
      </trkpt>
      <trkpt lat="45.51268" lon="6.53891">
        <ele>1352</ele>
        <time>2020-07-19T14:42:55Z</time>
      </trkpt>
      <trkpt lat="45.51275" lon="6.53895">
        <ele>1352.6</ele>
        <time>2020-07-19T14:42:59Z</time>
      </trkpt>
      <trkpt lat="45.51282" lon="6.53899">
        <ele>1353.2</ele>
        <time>2020-07-19T14:43:03Z</time>
      </trkpt>
      <trkpt lat="45.5129" lon="6.53903">
        <ele>1353.8</ele>
        <time>2020-07-19T14:43:07Z</time>
      </trkpt>
      <trkpt lat="45.51298" lon="6.53906">
        <ele>1354.2</ele>
        <time>2020-07-19T14:43:11Z</time>
      </trkpt>
      <trkpt lat="45.51305" lon="6.53908">
        <ele>1354.8</ele>
        <time>2020-07-19T14:43:15Z</time>
      </trkpt>
      <trkpt lat="45.51313" lon="6.5391">
        <ele>1355.4</ele>
        <time>2020-07-19T14:43:19Z</time>
      </trkpt>
      <trkpt lat="45.51322" lon="6.53911">
        <ele>1355.8</ele>
        <time>2020-07-19T14:43:23Z</time>
      </trkpt>
      <trkpt lat="45.51329" lon="6.53913">
        <ele>1357.4</ele>
        <time>2020-07-19T14:43:27Z</time>
      </trkpt>
      <trkpt lat="45.51337" lon="6.53915">
        <ele>1358</ele>
        <time>2020-07-19T14:43:31Z</time>
      </trkpt>
      <trkpt lat="45.51344" lon="6.53917">
        <ele>1358.2</ele>
        <time>2020-07-19T14:43:35Z</time>
      </trkpt>
      <trkpt lat="45.51351" lon="6.53918">
        <ele>1359</ele>
        <time>2020-07-19T14:43:39Z</time>
      </trkpt>
      <trkpt lat="45.51356" lon="6.5392">
        <ele>1359.6</ele>
        <time>2020-07-19T14:43:43Z</time>
      </trkpt>
      <trkpt lat="45.51362" lon="6.53921">
        <ele>1360.8</ele>
        <time>2020-07-19T14:43:47Z</time>
      </trkpt>
      <trkpt lat="45.51368" lon="6.53921">
        <ele>1360.4</ele>
        <time>2020-07-19T14:43:51Z</time>
      </trkpt>
      <trkpt lat="45.51374" lon="6.53925">
        <ele>1361</ele>
        <time>2020-07-19T14:43:55Z</time>
      </trkpt>
      <trkpt lat="45.51379" lon="6.53928">
        <ele>1361.6</ele>
        <time>2020-07-19T14:43:59Z</time>
      </trkpt>
      <trkpt lat="45.51383" lon="6.5393">
        <ele>1362.4</ele>
        <time>2020-07-19T14:44:03Z</time>
      </trkpt>
      <trkpt lat="45.51389" lon="6.53932">
        <ele>1363</ele>
        <time>2020-07-19T14:44:07Z</time>
      </trkpt>
      <trkpt lat="45.51394" lon="6.53938">
        <ele>1364</ele>
        <time>2020-07-19T14:44:11Z</time>
      </trkpt>
      <trkpt lat="45.514" lon="6.53944">
        <ele>1364.4</ele>
        <time>2020-07-19T14:44:15Z</time>
      </trkpt>
      <trkpt lat="45.51404" lon="6.5395">
        <ele>1365.2</ele>
        <time>2020-07-19T14:44:19Z</time>
      </trkpt>
      <trkpt lat="45.5141" lon="6.53958">
        <ele>1365.2</ele>
        <time>2020-07-19T14:44:23Z</time>
      </trkpt>
      <trkpt lat="45.51416" lon="6.53965">
        <ele>1367.2</ele>
        <time>2020-07-19T14:44:27Z</time>
      </trkpt>
      <trkpt lat="45.51422" lon="6.53972">
        <ele>1367.2</ele>
        <time>2020-07-19T14:44:31Z</time>
      </trkpt>
      <trkpt lat="45.51428" lon="6.53979">
        <ele>1367.8</ele>
        <time>2020-07-19T14:44:35Z</time>
      </trkpt>
      <trkpt lat="45.51433" lon="6.53985">
        <ele>1367.8</ele>
        <time>2020-07-19T14:44:39Z</time>
      </trkpt>
      <trkpt lat="45.51437" lon="6.53991">
        <ele>1369.2</ele>
        <time>2020-07-19T14:44:43Z</time>
      </trkpt>
      <trkpt lat="45.5144" lon="6.54001">
        <ele>1369.6</ele>
        <time>2020-07-19T14:44:47Z</time>
      </trkpt>
      <trkpt lat="45.51442" lon="6.54011">
        <ele>1370.4</ele>
        <time>2020-07-19T14:44:51Z</time>
      </trkpt>
      <trkpt lat="45.51441" lon="6.54022">
        <ele>1371.2</ele>
        <time>2020-07-19T14:44:55Z</time>
      </trkpt>
      <trkpt lat="45.51439" lon="6.54031">
        <ele>1372.2</ele>
        <time>2020-07-19T14:44:59Z</time>
      </trkpt>
      <trkpt lat="45.51437" lon="6.54041">
        <ele>1372.2</ele>
        <time>2020-07-19T14:45:03Z</time>
      </trkpt>
      <trkpt lat="45.51436" lon="6.54052">
        <ele>1371.4</ele>
        <time>2020-07-19T14:45:07Z</time>
      </trkpt>
      <trkpt lat="45.51435" lon="6.54062">
        <ele>1372.6</ele>
        <time>2020-07-19T14:45:11Z</time>
      </trkpt>
      <trkpt lat="45.51434" lon="6.54073">
        <ele>1373</ele>
        <time>2020-07-19T14:45:15Z</time>
      </trkpt>
      <trkpt lat="45.51433" lon="6.54082">
        <ele>1373.8</ele>
        <time>2020-07-19T14:45:19Z</time>
      </trkpt>
      <trkpt lat="45.51433" lon="6.54093">
        <ele>1374.6</ele>
        <time>2020-07-19T14:45:23Z</time>
      </trkpt>
      <trkpt lat="45.51433" lon="6.54103">
        <ele>1375.4</ele>
        <time>2020-07-19T14:45:27Z</time>
      </trkpt>
      <trkpt lat="45.51434" lon="6.54113">
        <ele>1375.8</ele>
        <time>2020-07-19T14:45:31Z</time>
      </trkpt>
      <trkpt lat="45.51435" lon="6.54124">
        <ele>1376.2</ele>
        <time>2020-07-19T14:45:35Z</time>
      </trkpt>
      <trkpt lat="45.51435" lon="6.54134">
        <ele>1376.6</ele>
        <time>2020-07-19T14:45:39Z</time>
      </trkpt>
      <trkpt lat="45.51436" lon="6.54144">
        <ele>1377.2</ele>
        <time>2020-07-19T14:45:43Z</time>
      </trkpt>
      <trkpt lat="45.51436" lon="6.54155">
        <ele>1377.4</ele>
        <time>2020-07-19T14:45:47Z</time>
      </trkpt>
      <trkpt lat="45.51435" lon="6.54165">
        <ele>1378.2</ele>
        <time>2020-07-19T14:45:51Z</time>
      </trkpt>
      <trkpt lat="45.51435" lon="6.54176">
        <ele>1379.4</ele>
        <time>2020-07-19T14:45:55Z</time>
      </trkpt>
      <trkpt lat="45.51435" lon="6.54186">
        <ele>1379.4</ele>
        <time>2020-07-19T14:45:59Z</time>
      </trkpt>
      <trkpt lat="45.51435" lon="6.54196">
        <ele>1380</ele>
        <time>2020-07-19T14:46:03Z</time>
      </trkpt>
      <trkpt lat="45.51434" lon="6.54206">
        <ele>1380</ele>
        <time>2020-07-19T14:46:07Z</time>
      </trkpt>
      <trkpt lat="45.51432" lon="6.54215">
        <ele>1380.8</ele>
        <time>2020-07-19T14:46:11Z</time>
      </trkpt>
      <trkpt lat="45.51431" lon="6.54223">
        <ele>1381.4</ele>
        <time>2020-07-19T14:46:15Z</time>
      </trkpt>
      <trkpt lat="45.51429" lon="6.54231">
        <ele>1383</ele>
        <time>2020-07-19T14:46:19Z</time>
      </trkpt>
      <trkpt lat="45.51427" lon="6.54239">
        <ele>1383.2</ele>
        <time>2020-07-19T14:46:23Z</time>
      </trkpt>
      <trkpt lat="45.51428" lon="6.54249">
        <ele>1384</ele>
        <time>2020-07-19T14:46:27Z</time>
      </trkpt>
      <trkpt lat="45.51431" lon="6.54254">
        <ele>1384.6</ele>
        <time>2020-07-19T14:46:31Z</time>
      </trkpt>
      <trkpt lat="45.51437" lon="6.54252">
        <ele>1385.2</ele>
        <time>2020-07-19T14:46:35Z</time>
      </trkpt>
      <trkpt lat="45.51442" lon="6.54249">
        <ele>1386</ele>
        <time>2020-07-19T14:46:39Z</time>
      </trkpt>
      <trkpt lat="45.51447" lon="6.54245">
        <ele>1387.2</ele>
        <time>2020-07-19T14:46:43Z</time>
      </trkpt>
      <trkpt lat="45.51451" lon="6.5424">
        <ele>1387.2</ele>
        <time>2020-07-19T14:46:47Z</time>
      </trkpt>
      <trkpt lat="45.51455" lon="6.54236">
        <ele>1388.6</ele>
        <time>2020-07-19T14:46:51Z</time>
      </trkpt>
      <trkpt lat="45.5146" lon="6.54231">
        <ele>1388.8</ele>
        <time>2020-07-19T14:46:55Z</time>
      </trkpt>
      <trkpt lat="45.51465" lon="6.54226">
        <ele>1389.8</ele>
        <time>2020-07-19T14:46:59Z</time>
      </trkpt>
      <trkpt lat="45.5147" lon="6.54221">
        <ele>1390.8</ele>
        <time>2020-07-19T14:47:03Z</time>
      </trkpt>
      <trkpt lat="45.51475" lon="6.54216">
        <ele>1392</ele>
        <time>2020-07-19T14:47:07Z</time>
      </trkpt>
      <trkpt lat="45.5148" lon="6.54211">
        <ele>1392.6</ele>
        <time>2020-07-19T14:47:11Z</time>
      </trkpt>
      <trkpt lat="45.51484" lon="6.54205">
        <ele>1393</ele>
        <time>2020-07-19T14:47:15Z</time>
      </trkpt>
      <trkpt lat="45.51489" lon="6.54199">
        <ele>1394.2</ele>
        <time>2020-07-19T14:47:19Z</time>
      </trkpt>
      <trkpt lat="45.51494" lon="6.54193">
        <ele>1395</ele>
        <time>2020-07-19T14:47:23Z</time>
      </trkpt>
      <trkpt lat="45.51499" lon="6.54187">
        <ele>1395.4</ele>
        <time>2020-07-19T14:47:27Z</time>
      </trkpt>
      <trkpt lat="45.51504" lon="6.54181">
        <ele>1396.2</ele>
        <time>2020-07-19T14:47:31Z</time>
      </trkpt>
      <trkpt lat="45.51509" lon="6.54174">
        <ele>1396.6</ele>
        <time>2020-07-19T14:47:35Z</time>
      </trkpt>
      <trkpt lat="45.51513" lon="6.54168">
        <ele>1397.8</ele>
        <time>2020-07-19T14:47:39Z</time>
      </trkpt>
      <trkpt lat="45.51518" lon="6.54161">
        <ele>1398.6</ele>
        <time>2020-07-19T14:47:43Z</time>
      </trkpt>
      <trkpt lat="45.51522" lon="6.54154">
        <ele>1399.6</ele>
        <time>2020-07-19T14:47:47Z</time>
      </trkpt>
      <trkpt lat="45.51526" lon="6.54146">
        <ele>1399.6</ele>
        <time>2020-07-19T14:47:51Z</time>
      </trkpt>
      <trkpt lat="45.51529" lon="6.54138">
        <ele>1400.4</ele>
        <time>2020-07-19T14:47:55Z</time>
      </trkpt>
      <trkpt lat="45.51532" lon="6.54129">
        <ele>1401</ele>
        <time>2020-07-19T14:47:59Z</time>
      </trkpt>
      <trkpt lat="45.51534" lon="6.5412">
        <ele>1401.2</ele>
        <time>2020-07-19T14:48:03Z</time>
      </trkpt>
      <trkpt lat="45.51536" lon="6.5411">
        <ele>1401.6</ele>
        <time>2020-07-19T14:48:07Z</time>
      </trkpt>
      <trkpt lat="45.51538" lon="6.54101">
        <ele>1402</ele>
        <time>2020-07-19T14:48:11Z</time>
      </trkpt>
      <trkpt lat="45.5154" lon="6.54091">
        <ele>1402.8</ele>
        <time>2020-07-19T14:48:15Z</time>
      </trkpt>
      <trkpt lat="45.51541" lon="6.54081">
        <ele>1403.2</ele>
        <time>2020-07-19T14:48:19Z</time>
      </trkpt>
      <trkpt lat="45.51543" lon="6.54072">
        <ele>1403.6</ele>
        <time>2020-07-19T14:48:23Z</time>
      </trkpt>
      <trkpt lat="45.51545" lon="6.54062">
        <ele>1404</ele>
        <time>2020-07-19T14:48:27Z</time>
      </trkpt>
      <trkpt lat="45.51548" lon="6.54053">
        <ele>1404.6</ele>
        <time>2020-07-19T14:48:31Z</time>
      </trkpt>
      <trkpt lat="45.5155" lon="6.54043">
        <ele>1405.2</ele>
        <time>2020-07-19T14:48:35Z</time>
      </trkpt>
      <trkpt lat="45.51552" lon="6.54032">
        <ele>1405.8</ele>
        <time>2020-07-19T14:48:39Z</time>
      </trkpt>
      <trkpt lat="45.51553" lon="6.54022">
        <ele>1406</ele>
        <time>2020-07-19T14:48:43Z</time>
      </trkpt>
      <trkpt lat="45.51552" lon="6.54012">
        <ele>1406.8</ele>
        <time>2020-07-19T14:48:47Z</time>
      </trkpt>
      <trkpt lat="45.51552" lon="6.54002">
        <ele>1407.4</ele>
        <time>2020-07-19T14:48:51Z</time>
      </trkpt>
      <trkpt lat="45.51551" lon="6.53992">
        <ele>1407.6</ele>
        <time>2020-07-19T14:48:55Z</time>
      </trkpt>
      <trkpt lat="45.51549" lon="6.53983">
        <ele>1408.8</ele>
        <time>2020-07-19T14:48:59Z</time>
      </trkpt>
      <trkpt lat="45.51546" lon="6.53974">
        <ele>1409</ele>
        <time>2020-07-19T14:49:03Z</time>
      </trkpt>
      <trkpt lat="45.51542" lon="6.53966">
        <ele>1409.6</ele>
        <time>2020-07-19T14:49:07Z</time>
      </trkpt>
      <trkpt lat="45.51538" lon="6.53957">
        <ele>1410.4</ele>
        <time>2020-07-19T14:49:11Z</time>
      </trkpt>
      <trkpt lat="45.51531" lon="6.53948">
        <ele>1410.4</ele>
        <time>2020-07-19T14:49:15Z</time>
      </trkpt>
      <trkpt lat="45.51526" lon="6.53939">
        <ele>1410.8</ele>
        <time>2020-07-19T14:49:19Z</time>
      </trkpt>
      <trkpt lat="45.51519" lon="6.53931">
        <ele>1411.8</ele>
        <time>2020-07-19T14:49:23Z</time>
      </trkpt>
      <trkpt lat="45.51512" lon="6.53924">
        <ele>1412.2</ele>
        <time>2020-07-19T14:49:27Z</time>
      </trkpt>
      <trkpt lat="45.51506" lon="6.5392">
        <ele>1412.6</ele>
        <time>2020-07-19T14:49:31Z</time>
      </trkpt>
      <trkpt lat="45.51501" lon="6.53913">
        <ele>1413.4</ele>
        <time>2020-07-19T14:49:35Z</time>
      </trkpt>
      <trkpt lat="45.51496" lon="6.53906">
        <ele>1413.8</ele>
        <time>2020-07-19T14:49:39Z</time>
      </trkpt>
      <trkpt lat="45.51493" lon="6.53898">
        <ele>1414</ele>
        <time>2020-07-19T14:49:43Z</time>
      </trkpt>
      <trkpt lat="45.51489" lon="6.53889">
        <ele>1414.8</ele>
        <time>2020-07-19T14:49:47Z</time>
      </trkpt>
      <trkpt lat="45.51486" lon="6.5388">
        <ele>1415.6</ele>
        <time>2020-07-19T14:49:51Z</time>
      </trkpt>
      <trkpt lat="45.51483" lon="6.53873">
        <ele>1417</ele>
        <time>2020-07-19T14:49:55Z</time>
      </trkpt>
      <trkpt lat="45.51479" lon="6.53867">
        <ele>1417.6</ele>
        <time>2020-07-19T14:49:59Z</time>
      </trkpt>
      <trkpt lat="45.51477" lon="6.53859">
        <ele>1418</ele>
        <time>2020-07-19T14:50:03Z</time>
      </trkpt>
      <trkpt lat="45.51474" lon="6.53851">
        <ele>1419</ele>
        <time>2020-07-19T14:50:07Z</time>
      </trkpt>
      <trkpt lat="45.51471" lon="6.53842">
        <ele>1420</ele>
        <time>2020-07-19T14:50:11Z</time>
      </trkpt>
      <trkpt lat="45.51469" lon="6.53833">
        <ele>1420.6</ele>
        <time>2020-07-19T14:50:15Z</time>
      </trkpt>
      <trkpt lat="45.51468" lon="6.53824">
        <ele>1421.6</ele>
        <time>2020-07-19T14:50:19Z</time>
      </trkpt>
      <trkpt lat="45.51467" lon="6.53815">
        <ele>1422.6</ele>
        <time>2020-07-19T14:50:23Z</time>
      </trkpt>
      <trkpt lat="45.51464" lon="6.53807">
        <ele>1423.4</ele>
        <time>2020-07-19T14:50:27Z</time>
      </trkpt>
      <trkpt lat="45.51462" lon="6.53799">
        <ele>1424.6</ele>
        <time>2020-07-19T14:50:31Z</time>
      </trkpt>
      <trkpt lat="45.51459" lon="6.53791">
        <ele>1425.8</ele>
        <time>2020-07-19T14:50:35Z</time>
      </trkpt>
      <trkpt lat="45.51456" lon="6.53782">
        <ele>1426.6</ele>
        <time>2020-07-19T14:50:39Z</time>
      </trkpt>
      <trkpt lat="45.51452" lon="6.53773">
        <ele>1427.4</ele>
        <time>2020-07-19T14:50:43Z</time>
      </trkpt>
      <trkpt lat="45.5145" lon="6.53765">
        <ele>1428.2</ele>
        <time>2020-07-19T14:50:47Z</time>
      </trkpt>
      <trkpt lat="45.51448" lon="6.53758">
        <ele>1428.8</ele>
        <time>2020-07-19T14:50:51Z</time>
      </trkpt>
      <trkpt lat="45.51445" lon="6.5375">
        <ele>1429.6</ele>
        <time>2020-07-19T14:50:55Z</time>
      </trkpt>
      <trkpt lat="45.51445" lon="6.53742">
        <ele>1430</ele>
        <time>2020-07-19T14:50:59Z</time>
      </trkpt>
      <trkpt lat="45.51442" lon="6.53735">
        <ele>1430.8</ele>
        <time>2020-07-19T14:51:03Z</time>
      </trkpt>
      <trkpt lat="45.51439" lon="6.53728">
        <ele>1432.2</ele>
        <time>2020-07-19T14:51:07Z</time>
      </trkpt>
      <trkpt lat="45.51435" lon="6.53722">
        <ele>1432.8</ele>
        <time>2020-07-19T14:51:11Z</time>
      </trkpt>
      <trkpt lat="45.51433" lon="6.53715">
        <ele>1433.4</ele>
        <time>2020-07-19T14:51:15Z</time>
      </trkpt>
      <trkpt lat="45.5143" lon="6.53709">
        <ele>1434.2</ele>
        <time>2020-07-19T14:51:19Z</time>
      </trkpt>
      <trkpt lat="45.51428" lon="6.53702">
        <ele>1434.6</ele>
        <time>2020-07-19T14:51:23Z</time>
      </trkpt>
      <trkpt lat="45.51424" lon="6.53696">
        <ele>1435.6</ele>
        <time>2020-07-19T14:51:27Z</time>
      </trkpt>
      <trkpt lat="45.5142" lon="6.5369">
        <ele>1436.6</ele>
        <time>2020-07-19T14:51:31Z</time>
      </trkpt>
      <trkpt lat="45.51416" lon="6.53684">
        <ele>1437.4</ele>
        <time>2020-07-19T14:51:35Z</time>
      </trkpt>
      <trkpt lat="45.51413" lon="6.53677">
        <ele>1437</ele>
        <time>2020-07-19T14:51:39Z</time>
      </trkpt>
      <trkpt lat="45.51409" lon="6.5367">
        <ele>1438.6</ele>
        <time>2020-07-19T14:51:43Z</time>
      </trkpt>
      <trkpt lat="45.51406" lon="6.53663">
        <ele>1438.8</ele>
        <time>2020-07-19T14:51:47Z</time>
      </trkpt>
      <trkpt lat="45.51401" lon="6.53655">
        <ele>1439.4</ele>
        <time>2020-07-19T14:51:51Z</time>
      </trkpt>
      <trkpt lat="45.51398" lon="6.53647">
        <ele>1440</ele>
        <time>2020-07-19T14:51:55Z</time>
      </trkpt>
      <trkpt lat="45.51395" lon="6.53641">
        <ele>1441</ele>
        <time>2020-07-19T14:51:59Z</time>
      </trkpt>
      <trkpt lat="45.51393" lon="6.53634">
        <ele>1442</ele>
        <time>2020-07-19T14:52:03Z</time>
      </trkpt>
      <trkpt lat="45.51389" lon="6.53628">
        <ele>1442</ele>
        <time>2020-07-19T14:52:07Z</time>
      </trkpt>
      <trkpt lat="45.51385" lon="6.53621">
        <ele>1442.8</ele>
        <time>2020-07-19T14:52:11Z</time>
      </trkpt>
      <trkpt lat="45.51381" lon="6.53614">
        <ele>1443.6</ele>
        <time>2020-07-19T14:52:15Z</time>
      </trkpt>
      <trkpt lat="45.51377" lon="6.53609">
        <ele>1444</ele>
        <time>2020-07-19T14:52:19Z</time>
      </trkpt>
      <trkpt lat="45.51373" lon="6.53602">
        <ele>1444.8</ele>
        <time>2020-07-19T14:52:23Z</time>
      </trkpt>
      <trkpt lat="45.5137" lon="6.53594">
        <ele>1445.6</ele>
        <time>2020-07-19T14:52:27Z</time>
      </trkpt>
      <trkpt lat="45.51367" lon="6.53587">
        <ele>1446.2</ele>
        <time>2020-07-19T14:52:31Z</time>
      </trkpt>
      <trkpt lat="45.51364" lon="6.53581">
        <ele>1447</ele>
        <time>2020-07-19T14:52:35Z</time>
      </trkpt>
      <trkpt lat="45.51363" lon="6.53575">
        <ele>1447.6</ele>
        <time>2020-07-19T14:52:39Z</time>
      </trkpt>
      <trkpt lat="45.51358" lon="6.53569">
        <ele>1448.6</ele>
        <time>2020-07-19T14:52:43Z</time>
      </trkpt>
      <trkpt lat="45.51351" lon="6.53562">
        <ele>1449.2</ele>
        <time>2020-07-19T14:52:47Z</time>
      </trkpt>
      <trkpt lat="45.51346" lon="6.53556">
        <ele>1449.8</ele>
        <time>2020-07-19T14:52:51Z</time>
      </trkpt>
      <trkpt lat="45.51341" lon="6.53549">
        <ele>1450.4</ele>
        <time>2020-07-19T14:52:55Z</time>
      </trkpt>
      <trkpt lat="45.51336" lon="6.53542">
        <ele>1450.8</ele>
        <time>2020-07-19T14:52:59Z</time>
      </trkpt>
      <trkpt lat="45.51332" lon="6.53536">
        <ele>1451.8</ele>
        <time>2020-07-19T14:53:03Z</time>
      </trkpt>
      <trkpt lat="45.51329" lon="6.53532">
        <ele>1452.4</ele>
        <time>2020-07-19T14:53:07Z</time>
      </trkpt>
      <trkpt lat="45.51325" lon="6.53528">
        <ele>1453</ele>
        <time>2020-07-19T14:53:11Z</time>
      </trkpt>
      <trkpt lat="45.51322" lon="6.53523">
        <ele>1453.4</ele>
        <time>2020-07-19T14:53:15Z</time>
      </trkpt>
      <trkpt lat="45.51318" lon="6.53519">
        <ele>1454</ele>
        <time>2020-07-19T14:53:19Z</time>
      </trkpt>
      <trkpt lat="45.51313" lon="6.53513">
        <ele>1454.4</ele>
        <time>2020-07-19T14:53:23Z</time>
      </trkpt>
      <trkpt lat="45.51308" lon="6.53508">
        <ele>1455.4</ele>
        <time>2020-07-19T14:53:27Z</time>
      </trkpt>
      <trkpt lat="45.51301" lon="6.53502">
        <ele>1456</ele>
        <time>2020-07-19T14:53:31Z</time>
      </trkpt>
      <trkpt lat="45.51295" lon="6.53498">
        <ele>1456.6</ele>
        <time>2020-07-19T14:53:35Z</time>
      </trkpt>
      <trkpt lat="45.5129" lon="6.53495">
        <ele>1457.2</ele>
        <time>2020-07-19T14:53:39Z</time>
      </trkpt>
      <trkpt lat="45.51286" lon="6.53492">
        <ele>1457.6</ele>
        <time>2020-07-19T14:53:43Z</time>
      </trkpt>
      <trkpt lat="45.51281" lon="6.53487">
        <ele>1458</ele>
        <time>2020-07-19T14:53:47Z</time>
      </trkpt>
      <trkpt lat="45.51276" lon="6.53483">
        <ele>1458.4</ele>
        <time>2020-07-19T14:53:51Z</time>
      </trkpt>
      <trkpt lat="45.51272" lon="6.53479">
        <ele>1458.8</ele>
        <time>2020-07-19T14:53:55Z</time>
      </trkpt>
      <trkpt lat="45.51268" lon="6.53472">
        <ele>1458.8</ele>
        <time>2020-07-19T14:53:59Z</time>
      </trkpt>
      <trkpt lat="45.51264" lon="6.53465">
        <ele>1459.6</ele>
        <time>2020-07-19T14:54:03Z</time>
      </trkpt>
      <trkpt lat="45.51262" lon="6.53458">
        <ele>1460.4</ele>
        <time>2020-07-19T14:54:07Z</time>
      </trkpt>
      <trkpt lat="45.5126" lon="6.5345">
        <ele>1461.6</ele>
        <time>2020-07-19T14:54:11Z</time>
      </trkpt>
      <trkpt lat="45.51259" lon="6.53442">
        <ele>1462.4</ele>
        <time>2020-07-19T14:54:15Z</time>
      </trkpt>
      <trkpt lat="45.51261" lon="6.53435">
        <ele>1463.6</ele>
        <time>2020-07-19T14:54:19Z</time>
      </trkpt>
      <trkpt lat="45.51259" lon="6.53427">
        <ele>1464.8</ele>
        <time>2020-07-19T14:54:23Z</time>
      </trkpt>
      <trkpt lat="45.5126" lon="6.53419">
        <ele>1465</ele>
        <time>2020-07-19T14:54:27Z</time>
      </trkpt>
      <trkpt lat="45.51258" lon="6.5341">
        <ele>1465</ele>
        <time>2020-07-19T14:54:31Z</time>
      </trkpt>
      <trkpt lat="45.51257" lon="6.53401">
        <ele>1465</ele>
        <time>2020-07-19T14:54:35Z</time>
      </trkpt>
      <trkpt lat="45.51256" lon="6.53394">
        <ele>1465</ele>
        <time>2020-07-19T14:54:39Z</time>
      </trkpt>
      <trkpt lat="45.51254" lon="6.53385">
        <ele>1466.2</ele>
        <time>2020-07-19T14:54:43Z</time>
      </trkpt>
      <trkpt lat="45.51253" lon="6.53378">
        <ele>1466.4</ele>
        <time>2020-07-19T14:54:47Z</time>
      </trkpt>
      <trkpt lat="45.51253" lon="6.53369">
        <ele>1467.8</ele>
        <time>2020-07-19T14:54:51Z</time>
      </trkpt>
      <trkpt lat="45.5125" lon="6.53361">
        <ele>1468.2</ele>
        <time>2020-07-19T14:54:55Z</time>
      </trkpt>
      <trkpt lat="45.51251" lon="6.53352">
        <ele>1469</ele>
        <time>2020-07-19T14:54:59Z</time>
      </trkpt>
      <trkpt lat="45.51252" lon="6.53342">
        <ele>1469.8</ele>
        <time>2020-07-19T14:55:03Z</time>
      </trkpt>
      <trkpt lat="45.51253" lon="6.53333">
        <ele>1470.6</ele>
        <time>2020-07-19T14:55:07Z</time>
      </trkpt>
      <trkpt lat="45.51255" lon="6.53323">
        <ele>1471</ele>
        <time>2020-07-19T14:55:11Z</time>
      </trkpt>
      <trkpt lat="45.51257" lon="6.53314">
        <ele>1470.8</ele>
        <time>2020-07-19T14:55:15Z</time>
      </trkpt>
      <trkpt lat="45.51259" lon="6.53305">
        <ele>1471.4</ele>
        <time>2020-07-19T14:55:19Z</time>
      </trkpt>
      <trkpt lat="45.5126" lon="6.53297">
        <ele>1471.6</ele>
        <time>2020-07-19T14:55:23Z</time>
      </trkpt>
      <trkpt lat="45.51263" lon="6.53288">
        <ele>1471.8</ele>
        <time>2020-07-19T14:55:27Z</time>
      </trkpt>
      <trkpt lat="45.51264" lon="6.53279">
        <ele>1472.6</ele>
        <time>2020-07-19T14:55:31Z</time>
      </trkpt>
      <trkpt lat="45.51267" lon="6.53271">
        <ele>1473.2</ele>
        <time>2020-07-19T14:55:35Z</time>
      </trkpt>
      <trkpt lat="45.51269" lon="6.53262">
        <ele>1474.6</ele>
        <time>2020-07-19T14:55:39Z</time>
      </trkpt>
      <trkpt lat="45.51271" lon="6.53254">
        <ele>1475.4</ele>
        <time>2020-07-19T14:55:43Z</time>
      </trkpt>
      <trkpt lat="45.51273" lon="6.53246">
        <ele>1475.8</ele>
        <time>2020-07-19T14:55:47Z</time>
      </trkpt>
      <trkpt lat="45.51275" lon="6.53238">
        <ele>1476.4</ele>
        <time>2020-07-19T14:55:51Z</time>
      </trkpt>
      <trkpt lat="45.51277" lon="6.5323">
        <ele>1477</ele>
        <time>2020-07-19T14:55:55Z</time>
      </trkpt>
      <trkpt lat="45.51281" lon="6.53223">
        <ele>1478.2</ele>
        <time>2020-07-19T14:55:59Z</time>
      </trkpt>
      <trkpt lat="45.51285" lon="6.53217">
        <ele>1478.6</ele>
        <time>2020-07-19T14:56:03Z</time>
      </trkpt>
      <trkpt lat="45.51289" lon="6.53211">
        <ele>1479.6</ele>
        <time>2020-07-19T14:56:07Z</time>
      </trkpt>
      <trkpt lat="45.51293" lon="6.53205">
        <ele>1480</ele>
        <time>2020-07-19T14:56:11Z</time>
      </trkpt>
      <trkpt lat="45.51297" lon="6.53197">
        <ele>1480.2</ele>
        <time>2020-07-19T14:56:15Z</time>
      </trkpt>
      <trkpt lat="45.51302" lon="6.5319">
        <ele>1480.4</ele>
        <time>2020-07-19T14:56:19Z</time>
      </trkpt>
      <trkpt lat="45.51305" lon="6.53182">
        <ele>1480.8</ele>
        <time>2020-07-19T14:56:23Z</time>
      </trkpt>
      <trkpt lat="45.51307" lon="6.53174">
        <ele>1481.8</ele>
        <time>2020-07-19T14:56:27Z</time>
      </trkpt>
      <trkpt lat="45.5131" lon="6.53167">
        <ele>1482.2</ele>
        <time>2020-07-19T14:56:31Z</time>
      </trkpt>
      <trkpt lat="45.51314" lon="6.53159">
        <ele>1482.2</ele>
        <time>2020-07-19T14:56:35Z</time>
      </trkpt>
      <trkpt lat="45.51319" lon="6.53152">
        <ele>1482.2</ele>
        <time>2020-07-19T14:56:39Z</time>
      </trkpt>
      <trkpt lat="45.51323" lon="6.53144">
        <ele>1482.6</ele>
        <time>2020-07-19T14:56:43Z</time>
      </trkpt>
      <trkpt lat="45.51328" lon="6.53136">
        <ele>1483.6</ele>
        <time>2020-07-19T14:56:47Z</time>
      </trkpt>
      <trkpt lat="45.51331" lon="6.53127">
        <ele>1484.4</ele>
        <time>2020-07-19T14:56:51Z</time>
      </trkpt>
      <trkpt lat="45.51335" lon="6.53119">
        <ele>1485.8</ele>
        <time>2020-07-19T14:56:55Z</time>
      </trkpt>
      <trkpt lat="45.51338" lon="6.53111">
        <ele>1486</ele>
        <time>2020-07-19T14:56:59Z</time>
      </trkpt>
      <trkpt lat="45.51341" lon="6.53102">
        <ele>1486.6</ele>
        <time>2020-07-19T14:57:03Z</time>
      </trkpt>
      <trkpt lat="45.51343" lon="6.53094">
        <ele>1486.8</ele>
        <time>2020-07-19T14:57:07Z</time>
      </trkpt>
      <trkpt lat="45.51344" lon="6.53085">
        <ele>1487.2</ele>
        <time>2020-07-19T14:57:11Z</time>
      </trkpt>
      <trkpt lat="45.51344" lon="6.53077">
        <ele>1487.4</ele>
        <time>2020-07-19T14:57:15Z</time>
      </trkpt>
      <trkpt lat="45.51344" lon="6.53068">
        <ele>1487.8</ele>
        <time>2020-07-19T14:57:19Z</time>
      </trkpt>
      <trkpt lat="45.51342" lon="6.53054">
        <ele>1490</ele>
        <time>2020-07-19T14:58:33Z</time>
      </trkpt>
      <trkpt lat="45.51344" lon="6.53043">
        <ele>1491</ele>
        <time>2020-07-19T14:58:37Z</time>
      </trkpt>
      <trkpt lat="45.51346" lon="6.53034">
        <ele>1491.4</ele>
        <time>2020-07-19T14:58:41Z</time>
      </trkpt>
      <trkpt lat="45.51348" lon="6.53026">
        <ele>1491.8</ele>
        <time>2020-07-19T14:58:45Z</time>
      </trkpt>
      <trkpt lat="45.51351" lon="6.53018">
        <ele>1492.2</ele>
        <time>2020-07-19T14:58:49Z</time>
      </trkpt>
      <trkpt lat="45.51354" lon="6.5301">
        <ele>1492.8</ele>
        <time>2020-07-19T14:58:53Z</time>
      </trkpt>
      <trkpt lat="45.51357" lon="6.53002">
        <ele>1493.4</ele>
        <time>2020-07-19T14:58:57Z</time>
      </trkpt>
      <trkpt lat="45.5136" lon="6.52994">
        <ele>1494</ele>
        <time>2020-07-19T14:59:01Z</time>
      </trkpt>
      <trkpt lat="45.51362" lon="6.52986">
        <ele>1494.2</ele>
        <time>2020-07-19T14:59:05Z</time>
      </trkpt>
      <trkpt lat="45.51364" lon="6.52979">
        <ele>1494.6</ele>
        <time>2020-07-19T14:59:09Z</time>
      </trkpt>
      <trkpt lat="45.51367" lon="6.52972">
        <ele>1494.6</ele>
        <time>2020-07-19T14:59:13Z</time>
      </trkpt>
      <trkpt lat="45.51369" lon="6.52965">
        <ele>1496.2</ele>
        <time>2020-07-19T14:59:17Z</time>
      </trkpt>
      <trkpt lat="45.51372" lon="6.52958">
        <ele>1497</ele>
        <time>2020-07-19T14:59:21Z</time>
      </trkpt>
      <trkpt lat="45.51375" lon="6.52951">
        <ele>1497.6</ele>
        <time>2020-07-19T14:59:25Z</time>
      </trkpt>
      <trkpt lat="45.51378" lon="6.52944">
        <ele>1498</ele>
        <time>2020-07-19T14:59:29Z</time>
      </trkpt>
      <trkpt lat="45.51382" lon="6.52938">
        <ele>1498.2</ele>
        <time>2020-07-19T14:59:33Z</time>
      </trkpt>
      <trkpt lat="45.51386" lon="6.52931">
        <ele>1498.4</ele>
        <time>2020-07-19T14:59:37Z</time>
      </trkpt>
      <trkpt lat="45.51387" lon="6.52912">
        <ele>1498.2</ele>
        <time>2020-07-19T15:02:10Z</time>
      </trkpt>
      <trkpt lat="45.51387" lon="6.5292">
        <ele>1497.4</ele>
        <time>2020-07-19T15:02:14Z</time>
      </trkpt>
      <trkpt lat="45.51381" lon="6.52932">
        <ele>1495.8</ele>
        <time>2020-07-19T15:02:18Z</time>
      </trkpt>
      <trkpt lat="45.51374" lon="6.52948">
        <ele>1493</ele>
        <time>2020-07-19T15:02:22Z</time>
      </trkpt>
      <trkpt lat="45.51365" lon="6.52969">
        <ele>1491.8</ele>
        <time>2020-07-19T15:02:26Z</time>
      </trkpt>
      <trkpt lat="45.51358" lon="6.52992">
        <ele>1490.4</ele>
        <time>2020-07-19T15:02:30Z</time>
      </trkpt>
      <trkpt lat="45.51354" lon="6.53012">
        <ele>1489.8</ele>
        <time>2020-07-19T15:02:34Z</time>
      </trkpt>
      <trkpt lat="45.51352" lon="6.53028">
        <ele>1490</ele>
        <time>2020-07-19T15:02:38Z</time>
      </trkpt>
      <trkpt lat="45.51349" lon="6.53041">
        <ele>1489</ele>
        <time>2020-07-19T15:02:42Z</time>
      </trkpt>
      <trkpt lat="45.51354" lon="6.53011">
        <ele>1492</ele>
        <time>2020-07-19T15:03:19Z</time>
      </trkpt>
      <trkpt lat="45.51357" lon="6.53005">
        <ele>1492.2</ele>
        <time>2020-07-19T15:03:23Z</time>
      </trkpt>
      <trkpt lat="45.51359" lon="6.52998">
        <ele>1492.4</ele>
        <time>2020-07-19T15:03:27Z</time>
      </trkpt>
      <trkpt lat="45.51361" lon="6.52991">
        <ele>1493.2</ele>
        <time>2020-07-19T15:03:31Z</time>
      </trkpt>
      <trkpt lat="45.51362" lon="6.52983">
        <ele>1494</ele>
        <time>2020-07-19T15:03:35Z</time>
      </trkpt>
      <trkpt lat="45.51365" lon="6.52977">
        <ele>1494.2</ele>
        <time>2020-07-19T15:03:39Z</time>
      </trkpt>
      <trkpt lat="45.51367" lon="6.52971">
        <ele>1495.2</ele>
        <time>2020-07-19T15:03:43Z</time>
      </trkpt>
      <trkpt lat="45.51369" lon="6.52965">
        <ele>1496</ele>
        <time>2020-07-19T15:03:47Z</time>
      </trkpt>
      <trkpt lat="45.5137" lon="6.52958">
        <ele>1496.4</ele>
        <time>2020-07-19T15:03:51Z</time>
      </trkpt>
      <trkpt lat="45.51372" lon="6.5295">
        <ele>1496.8</ele>
        <time>2020-07-19T15:03:55Z</time>
      </trkpt>
      <trkpt lat="45.51375" lon="6.52942">
        <ele>1497.2</ele>
        <time>2020-07-19T15:03:59Z</time>
      </trkpt>
      <trkpt lat="45.51378" lon="6.52935">
        <ele>1497.4</ele>
        <time>2020-07-19T15:04:03Z</time>
      </trkpt>
      <trkpt lat="45.51382" lon="6.5293">
        <ele>1497.4</ele>
        <time>2020-07-19T15:04:07Z</time>
      </trkpt>
      <trkpt lat="45.51384" lon="6.52924">
        <ele>1497.8</ele>
        <time>2020-07-19T15:04:11Z</time>
      </trkpt>
      <trkpt lat="45.51385" lon="6.52916">
        <ele>1498.2</ele>
        <time>2020-07-19T15:04:15Z</time>
      </trkpt>
      <trkpt lat="45.51386" lon="6.52911">
        <ele>1498.2</ele>
        <time>2020-07-19T15:04:19Z</time>
      </trkpt>
      <trkpt lat="45.51387" lon="6.52906">
        <ele>1498.8</ele>
        <time>2020-07-19T15:04:23Z</time>
      </trkpt>
      <trkpt lat="45.51388" lon="6.52898">
        <ele>1499</ele>
        <time>2020-07-19T15:04:27Z</time>
      </trkpt>
      <trkpt lat="45.51388" lon="6.52892">
        <ele>1499</ele>
        <time>2020-07-19T15:04:31Z</time>
      </trkpt>
      <trkpt lat="45.51388" lon="6.52886">
        <ele>1500</ele>
        <time>2020-07-19T15:04:35Z</time>
      </trkpt>
      <trkpt lat="45.51387" lon="6.5288">
        <ele>1500.8</ele>
        <time>2020-07-19T15:04:39Z</time>
      </trkpt>
      <trkpt lat="45.51386" lon="6.52874">
        <ele>1500.8</ele>
        <time>2020-07-19T15:04:43Z</time>
      </trkpt>
      <trkpt lat="45.51387" lon="6.52868">
        <ele>1501.4</ele>
        <time>2020-07-19T15:04:47Z</time>
      </trkpt>
      <trkpt lat="45.51388" lon="6.52862">
        <ele>1502.4</ele>
        <time>2020-07-19T15:04:51Z</time>
      </trkpt>
      <trkpt lat="45.51389" lon="6.52858">
        <ele>1503.4</ele>
        <time>2020-07-19T15:04:55Z</time>
      </trkpt>
      <trkpt lat="45.51387" lon="6.52852">
        <ele>1504.8</ele>
        <time>2020-07-19T15:04:59Z</time>
      </trkpt>
      <trkpt lat="45.51385" lon="6.52846">
        <ele>1505.6</ele>
        <time>2020-07-19T15:05:03Z</time>
      </trkpt>
      <trkpt lat="45.51384" lon="6.52839">
        <ele>1506.6</ele>
        <time>2020-07-19T15:05:07Z</time>
      </trkpt>
      <trkpt lat="45.51385" lon="6.52834">
        <ele>1505.8</ele>
        <time>2020-07-19T15:05:11Z</time>
      </trkpt>
      <trkpt lat="45.51384" lon="6.52828">
        <ele>1505.8</ele>
        <time>2020-07-19T15:05:15Z</time>
      </trkpt>
      <trkpt lat="45.51383" lon="6.52798">
        <ele>1504.6</ele>
        <time>2020-07-19T15:06:41Z</time>
      </trkpt>
      <trkpt lat="45.51383" lon="6.52792">
        <ele>1503.6</ele>
        <time>2020-07-19T15:06:45Z</time>
      </trkpt>
      <trkpt lat="45.51465" lon="6.52735">
        <ele>1495.6</ele>
        <time>2020-07-19T15:08:56Z</time>
      </trkpt>
      <trkpt lat="45.51417" lon="6.52738">
        <ele>1495.8</ele>
        <time>2020-07-19T15:12:15Z</time>
      </trkpt>
      <trkpt lat="45.51412" lon="6.52737">
        <ele>1495.8</ele>
        <time>2020-07-19T15:12:19Z</time>
      </trkpt>
      <trkpt lat="45.51407" lon="6.52735">
        <ele>1496.2</ele>
        <time>2020-07-19T15:12:23Z</time>
      </trkpt>
      <trkpt lat="45.51401" lon="6.52734">
        <ele>1496.4</ele>
        <time>2020-07-19T15:12:27Z</time>
      </trkpt>
      <trkpt lat="45.51396" lon="6.52735">
        <ele>1497.2</ele>
        <time>2020-07-19T15:12:31Z</time>
      </trkpt>
      <trkpt lat="45.51396" lon="6.52735">
        <ele>1497.6</ele>
        <time>2020-07-19T15:12:35Z</time>
      </trkpt>
      <trkpt lat="45.51389" lon="6.52847">
        <ele>1504</ele>
        <time>2020-07-19T15:17:14Z</time>
      </trkpt>
      <trkpt lat="45.5139" lon="6.52857">
        <ele>1502.8</ele>
        <time>2020-07-19T15:17:18Z</time>
      </trkpt>
      <trkpt lat="45.5139" lon="6.52869">
        <ele>1501.4</ele>
        <time>2020-07-19T15:17:22Z</time>
      </trkpt>
      <trkpt lat="45.51391" lon="6.52878">
        <ele>1501</ele>
        <time>2020-07-19T15:17:26Z</time>
      </trkpt>
      <trkpt lat="45.51396" lon="6.52885">
        <ele>1499</ele>
        <time>2020-07-19T15:17:30Z</time>
      </trkpt>
      <trkpt lat="45.51401" lon="6.52895">
        <ele>1498.4</ele>
        <time>2020-07-19T15:17:40Z</time>
      </trkpt>
      <trkpt lat="45.51396" lon="6.52905">
        <ele>1497.6</ele>
        <time>2020-07-19T15:17:44Z</time>
      </trkpt>
      <trkpt lat="45.51391" lon="6.52918">
        <ele>1497</ele>
        <time>2020-07-19T15:17:48Z</time>
      </trkpt>
      <trkpt lat="45.51382" lon="6.52932">
        <ele>1495.6</ele>
        <time>2020-07-19T15:17:52Z</time>
      </trkpt>
      <trkpt lat="45.51373" lon="6.52951">
        <ele>1494.2</ele>
        <time>2020-07-19T15:17:56Z</time>
      </trkpt>
      <trkpt lat="45.51365" lon="6.52978">
        <ele>1492.2</ele>
        <time>2020-07-19T15:18:00Z</time>
      </trkpt>
      <trkpt lat="45.51357" lon="6.53006">
        <ele>1489.6</ele>
        <time>2020-07-19T15:18:04Z</time>
      </trkpt>
      <trkpt lat="45.51351" lon="6.53045">
        <ele>1487.4</ele>
        <time>2020-07-19T15:18:08Z</time>
      </trkpt>
      <trkpt lat="45.51348" lon="6.5308">
        <ele>1485.8</ele>
        <time>2020-07-19T15:18:12Z</time>
      </trkpt>
      <trkpt lat="45.51345" lon="6.5311">
        <ele>1483.6</ele>
        <time>2020-07-19T15:18:16Z</time>
      </trkpt>
      <trkpt lat="45.51336" lon="6.5314">
        <ele>1481</ele>
        <time>2020-07-19T15:18:20Z</time>
      </trkpt>
      <trkpt lat="45.51325" lon="6.53172">
        <ele>1480</ele>
        <time>2020-07-19T15:18:24Z</time>
      </trkpt>
      <trkpt lat="45.51313" lon="6.532">
        <ele>1478.6</ele>
        <time>2020-07-19T15:18:28Z</time>
      </trkpt>
      <trkpt lat="45.51299" lon="6.53221">
        <ele>1477.2</ele>
        <time>2020-07-19T15:18:32Z</time>
      </trkpt>
      <trkpt lat="45.51287" lon="6.53254">
        <ele>1474.8</ele>
        <time>2020-07-19T15:18:36Z</time>
      </trkpt>
      <trkpt lat="45.51277" lon="6.53299">
        <ele>1469.2</ele>
        <time>2020-07-19T15:18:40Z</time>
      </trkpt>
      <trkpt lat="45.51264" lon="6.53337">
        <ele>1469.4</ele>
        <time>2020-07-19T15:18:44Z</time>
      </trkpt>
      <trkpt lat="45.51258" lon="6.53368">
        <ele>1466.4</ele>
        <time>2020-07-19T15:18:48Z</time>
      </trkpt>
      <trkpt lat="45.51259" lon="6.53402">
        <ele>1463.8</ele>
        <time>2020-07-19T15:18:52Z</time>
      </trkpt>
      <trkpt lat="45.51263" lon="6.53437">
        <ele>1458.6</ele>
        <time>2020-07-19T15:18:56Z</time>
      </trkpt>
      <trkpt lat="45.51284" lon="6.53464">
        <ele>1456.2</ele>
        <time>2020-07-19T15:19:00Z</time>
      </trkpt>
      <trkpt lat="45.5131" lon="6.53488">
        <ele>1454</ele>
        <time>2020-07-19T15:19:04Z</time>
      </trkpt>
      <trkpt lat="45.51332" lon="6.53517">
        <ele>1449.2</ele>
        <time>2020-07-19T15:19:08Z</time>
      </trkpt>
      <trkpt lat="45.51348" lon="6.5354">
        <ele>1448</ele>
        <time>2020-07-19T15:19:12Z</time>
      </trkpt>
      <trkpt lat="45.51359" lon="6.53564">
        <ele>1446</ele>
        <time>2020-07-19T15:19:16Z</time>
      </trkpt>
      <trkpt lat="45.51375" lon="6.53594">
        <ele>1440.4</ele>
        <time>2020-07-19T15:19:20Z</time>
      </trkpt>
      <trkpt lat="45.51394" lon="6.53638">
        <ele>1436</ele>
        <time>2020-07-19T15:19:24Z</time>
      </trkpt>
      <trkpt lat="45.51413" lon="6.53677">
        <ele>1432.4</ele>
        <time>2020-07-19T15:19:28Z</time>
      </trkpt>
      <trkpt lat="45.51427" lon="6.53715">
        <ele>1427.8</ele>
        <time>2020-07-19T15:19:32Z</time>
      </trkpt>
      <trkpt lat="45.51439" lon="6.53759">
        <ele>1421.8</ele>
        <time>2020-07-19T15:19:36Z</time>
      </trkpt>
      <trkpt lat="45.51449" lon="6.53802">
        <ele>1418.8</ele>
        <time>2020-07-19T15:19:40Z</time>
      </trkpt>
      <trkpt lat="45.51465" lon="6.53837">
        <ele>1414.2</ele>
        <time>2020-07-19T15:19:44Z</time>
      </trkpt>
      <trkpt lat="45.51483" lon="6.53877">
        <ele>1408.8</ele>
        <time>2020-07-19T15:19:48Z</time>
      </trkpt>
      <trkpt lat="45.51513" lon="6.5391">
        <ele>1406.2</ele>
        <time>2020-07-19T15:19:52Z</time>
      </trkpt>
      <trkpt lat="45.51533" lon="6.53954">
        <ele>1405.2</ele>
        <time>2020-07-19T15:19:56Z</time>
      </trkpt>
      <trkpt lat="45.51537" lon="6.54008">
        <ele>1400.4</ele>
        <time>2020-07-19T15:20:00Z</time>
      </trkpt>
      <trkpt lat="45.51527" lon="6.54063">
        <ele>1398.8</ele>
        <time>2020-07-19T15:20:04Z</time>
      </trkpt>
      <trkpt lat="45.51518" lon="6.54111">
        <ele>1397.2</ele>
        <time>2020-07-19T15:20:08Z</time>
      </trkpt>
      <trkpt lat="45.515" lon="6.54151">
        <ele>1394.8</ele>
        <time>2020-07-19T15:20:12Z</time>
      </trkpt>
      <trkpt lat="45.51476" lon="6.54188">
        <ele>1388.4</ele>
        <time>2020-07-19T15:20:16Z</time>
      </trkpt>
      <trkpt lat="45.51452" lon="6.54215">
        <ele>1387.2</ele>
        <time>2020-07-19T15:20:20Z</time>
      </trkpt>
      <trkpt lat="45.51433" lon="6.54234">
        <ele>1384</ele>
        <time>2020-07-19T15:20:24Z</time>
      </trkpt>
      <trkpt lat="45.51426" lon="6.54217">
        <ele>1381.8</ele>
        <time>2020-07-19T15:20:28Z</time>
      </trkpt>
      <trkpt lat="45.5143" lon="6.54178">
        <ele>1376.8</ele>
        <time>2020-07-19T15:20:32Z</time>
      </trkpt>
      <trkpt lat="45.51431" lon="6.54125">
        <ele>1372.4</ele>
        <time>2020-07-19T15:20:36Z</time>
      </trkpt>
      <trkpt lat="45.51432" lon="6.5407">
        <ele>1370.2</ele>
        <time>2020-07-19T15:20:40Z</time>
      </trkpt>
      <trkpt lat="45.51441" lon="6.54025">
        <ele>1367.8</ele>
        <time>2020-07-19T15:20:44Z</time>
      </trkpt>
      <trkpt lat="45.51441" lon="6.53991">
        <ele>1366.4</ele>
        <time>2020-07-19T15:20:48Z</time>
      </trkpt>
      <trkpt lat="45.51417" lon="6.53963">
        <ele>1364.2</ele>
        <time>2020-07-19T15:20:52Z</time>
      </trkpt>
      <trkpt lat="45.51391" lon="6.53935">
        <ele>1360</ele>
        <time>2020-07-19T15:20:56Z</time>
      </trkpt>
      <trkpt lat="45.51362" lon="6.53921">
        <ele>1356</ele>
        <time>2020-07-19T15:21:00Z</time>
      </trkpt>
      <trkpt lat="45.51327" lon="6.53912">
        <ele>1354.4</ele>
        <time>2020-07-19T15:21:04Z</time>
      </trkpt>
      <trkpt lat="45.51293" lon="6.53903">
        <ele>1350.6</ele>
        <time>2020-07-19T15:21:08Z</time>
      </trkpt>
      <trkpt lat="45.51261" lon="6.53889">
        <ele>1345.8</ele>
        <time>2020-07-19T15:21:12Z</time>
      </trkpt>
      <trkpt lat="45.51226" lon="6.53881">
        <ele>1343</ele>
        <time>2020-07-19T15:21:16Z</time>
      </trkpt>
      <trkpt lat="45.51191" lon="6.53876">
        <ele>1340</ele>
        <time>2020-07-19T15:21:20Z</time>
      </trkpt>
      <trkpt lat="45.51163" lon="6.53864">
        <ele>1337.6</ele>
        <time>2020-07-19T15:21:24Z</time>
      </trkpt>
      <trkpt lat="45.51141" lon="6.53838">
        <ele>1333.4</ele>
        <time>2020-07-19T15:21:28Z</time>
      </trkpt>
      <trkpt lat="45.51124" lon="6.53809">
        <ele>1332</ele>
        <time>2020-07-19T15:21:32Z</time>
      </trkpt>
      <trkpt lat="45.51113" lon="6.53786">
        <ele>1332.2</ele>
        <time>2020-07-19T15:21:36Z</time>
      </trkpt>
      <trkpt lat="45.51109" lon="6.538">
        <ele>1331.2</ele>
        <time>2020-07-19T15:21:40Z</time>
      </trkpt>
      <trkpt lat="45.51118" lon="6.53827">
        <ele>1329.8</ele>
        <time>2020-07-19T15:21:44Z</time>
      </trkpt>
      <trkpt lat="45.5113" lon="6.53867">
        <ele>1326</ele>
        <time>2020-07-19T15:21:48Z</time>
      </trkpt>
      <trkpt lat="45.51136" lon="6.53922">
        <ele>1321.6</ele>
        <time>2020-07-19T15:21:52Z</time>
      </trkpt>
      <trkpt lat="45.51138" lon="6.53981">
        <ele>1317</ele>
        <time>2020-07-19T15:21:56Z</time>
      </trkpt>
      <trkpt lat="45.51146" lon="6.54026">
        <ele>1313.4</ele>
        <time>2020-07-19T15:22:00Z</time>
      </trkpt>
      <trkpt lat="45.51175" lon="6.54061">
        <ele>1309.4</ele>
        <time>2020-07-19T15:22:04Z</time>
      </trkpt>
      <trkpt lat="45.51198" lon="6.54103">
        <ele>1305.2</ele>
        <time>2020-07-19T15:22:08Z</time>
      </trkpt>
      <trkpt lat="45.51211" lon="6.54154">
        <ele>1300.6</ele>
        <time>2020-07-19T15:22:12Z</time>
      </trkpt>
      <trkpt lat="45.51226" lon="6.54216">
        <ele>1293.6</ele>
        <time>2020-07-19T15:22:16Z</time>
      </trkpt>
      <trkpt lat="45.5124" lon="6.54284">
        <ele>1289.2</ele>
        <time>2020-07-19T15:22:20Z</time>
      </trkpt>
      <trkpt lat="45.5125" lon="6.54353">
        <ele>1284.2</ele>
        <time>2020-07-19T15:22:24Z</time>
      </trkpt>
      <trkpt lat="45.5126" lon="6.5442">
        <ele>1276.2</ele>
        <time>2020-07-19T15:22:28Z</time>
      </trkpt>
      <trkpt lat="45.51267" lon="6.54486">
        <ele>1272.6</ele>
        <time>2020-07-19T15:22:32Z</time>
      </trkpt>
      <trkpt lat="45.5127" lon="6.54546">
        <ele>1272</ele>
        <time>2020-07-19T15:22:36Z</time>
      </trkpt>
      <trkpt lat="45.51282" lon="6.54605">
        <ele>1265</ele>
        <time>2020-07-19T15:22:40Z</time>
      </trkpt>
      <trkpt lat="45.51288" lon="6.54658">
        <ele>1262.4</ele>
        <time>2020-07-19T15:22:44Z</time>
      </trkpt>
      <trkpt lat="45.51287" lon="6.54712">
        <ele>1257.6</ele>
        <time>2020-07-19T15:22:48Z</time>
      </trkpt>
      <trkpt lat="45.51293" lon="6.54766">
        <ele>1256.8</ele>
        <time>2020-07-19T15:22:52Z</time>
      </trkpt>
      <trkpt lat="45.51288" lon="6.54796">
        <ele>1256</ele>
        <time>2020-07-19T15:22:56Z</time>
      </trkpt>
      <trkpt lat="45.51274" lon="6.5479">
        <ele>1254.4</ele>
        <time>2020-07-19T15:23:00Z</time>
      </trkpt>
      <trkpt lat="45.51267" lon="6.54767">
        <ele>1254.2</ele>
        <time>2020-07-19T15:23:04Z</time>
      </trkpt>
      <trkpt lat="45.51259" lon="6.54733">
        <ele>1252.4</ele>
        <time>2020-07-19T15:23:08Z</time>
      </trkpt>
      <trkpt lat="45.51248" lon="6.54694">
        <ele>1249.4</ele>
        <time>2020-07-19T15:23:12Z</time>
      </trkpt>
      <trkpt lat="45.51234" lon="6.5465">
        <ele>1244.2</ele>
        <time>2020-07-19T15:23:16Z</time>
      </trkpt>
      <trkpt lat="45.51227" lon="6.5461">
        <ele>1244</ele>
        <time>2020-07-19T15:23:20Z</time>
      </trkpt>
      <trkpt lat="45.51213" lon="6.54601">
        <ele>1243.4</ele>
        <time>2020-07-19T15:23:24Z</time>
      </trkpt>
      <trkpt lat="45.51215" lon="6.54628">
        <ele>1242.8</ele>
        <time>2020-07-19T15:23:28Z</time>
      </trkpt>
      <trkpt lat="45.51227" lon="6.54657">
        <ele>1241.6</ele>
        <time>2020-07-19T15:23:32Z</time>
      </trkpt>
      <trkpt lat="45.51228" lon="6.54698">
        <ele>1239.8</ele>
        <time>2020-07-19T15:23:36Z</time>
      </trkpt>
      <trkpt lat="45.51219" lon="6.54743">
        <ele>1235.8</ele>
        <time>2020-07-19T15:23:40Z</time>
      </trkpt>
      <trkpt lat="45.51203" lon="6.54768">
        <ele>1235.2</ele>
        <time>2020-07-19T15:23:44Z</time>
      </trkpt>
      <trkpt lat="45.51199" lon="6.54746">
        <ele>1234.4</ele>
        <time>2020-07-19T15:23:48Z</time>
      </trkpt>
      <trkpt lat="45.51212" lon="6.54718">
        <ele>1232.2</ele>
        <time>2020-07-19T15:23:52Z</time>
      </trkpt>
      <trkpt lat="45.51208" lon="6.54678">
        <ele>1229</ele>
        <time>2020-07-19T15:23:56Z</time>
      </trkpt>
      <trkpt lat="45.51194" lon="6.54635">
        <ele>1225.8</ele>
        <time>2020-07-19T15:24:00Z</time>
      </trkpt>
      <trkpt lat="45.5118" lon="6.54586">
        <ele>1222.4</ele>
        <time>2020-07-19T15:24:04Z</time>
      </trkpt>
      <trkpt lat="45.51167" lon="6.54536">
        <ele>1220.8</ele>
        <time>2020-07-19T15:24:08Z</time>
      </trkpt>
      <trkpt lat="45.51147" lon="6.54497">
        <ele>1219.2</ele>
        <time>2020-07-19T15:24:12Z</time>
      </trkpt>
      <trkpt lat="45.51124" lon="6.54463">
        <ele>1216.6</ele>
        <time>2020-07-19T15:24:16Z</time>
      </trkpt>
      <trkpt lat="45.51102" lon="6.54418">
        <ele>1212</ele>
        <time>2020-07-19T15:24:20Z</time>
      </trkpt>
      <trkpt lat="45.51076" lon="6.54375">
        <ele>1210.2</ele>
        <time>2020-07-19T15:24:24Z</time>
      </trkpt>
      <trkpt lat="45.51054" lon="6.54349">
        <ele>1211.2</ele>
        <time>2020-07-19T15:24:28Z</time>
      </trkpt>
      <trkpt lat="45.5105" lon="6.54344">
        <ele>1209.4</ele>
        <time>2020-07-19T15:24:45Z</time>
      </trkpt>
      <trkpt lat="45.51041" lon="6.54332">
        <ele>1207.6</ele>
        <time>2020-07-19T15:24:49Z</time>
      </trkpt>
      <trkpt lat="45.51036" lon="6.54308">
        <ele>1207</ele>
        <time>2020-07-19T15:24:53Z</time>
      </trkpt>
      <trkpt lat="45.51029" lon="6.5428">
        <ele>1206.6</ele>
        <time>2020-07-19T15:24:57Z</time>
      </trkpt>
      <trkpt lat="45.51015" lon="6.54254">
        <ele>1204.4</ele>
        <time>2020-07-19T15:25:01Z</time>
      </trkpt>
      <trkpt lat="45.50996" lon="6.54226">
        <ele>1204.6</ele>
        <time>2020-07-19T15:25:05Z</time>
      </trkpt>
      <trkpt lat="45.50976" lon="6.54195">
        <ele>1205.4</ele>
        <time>2020-07-19T15:25:55Z</time>
      </trkpt>
      <trkpt lat="45.50969" lon="6.54185">
        <ele>1205</ele>
        <time>2020-07-19T15:25:59Z</time>
      </trkpt>
      <trkpt lat="45.50961" lon="6.54173">
        <ele>1204.8</ele>
        <time>2020-07-19T15:26:03Z</time>
      </trkpt>
      <trkpt lat="45.5095" lon="6.54157">
        <ele>1203.8</ele>
        <time>2020-07-19T15:26:07Z</time>
      </trkpt>
      <trkpt lat="45.50936" lon="6.54139">
        <ele>1199.8</ele>
        <time>2020-07-19T15:26:11Z</time>
      </trkpt>
      <trkpt lat="45.50919" lon="6.54117">
        <ele>1199</ele>
        <time>2020-07-19T15:26:15Z</time>
      </trkpt>
      <trkpt lat="45.50905" lon="6.54092">
        <ele>1197.2</ele>
        <time>2020-07-19T15:26:19Z</time>
      </trkpt>
      <trkpt lat="45.50891" lon="6.5406">
        <ele>1195.4</ele>
        <time>2020-07-19T15:26:23Z</time>
      </trkpt>
      <trkpt lat="45.50873" lon="6.54027">
        <ele>1193.8</ele>
        <time>2020-07-19T15:26:27Z</time>
      </trkpt>
      <trkpt lat="45.50848" lon="6.53997">
        <ele>1190.8</ele>
        <time>2020-07-19T15:26:31Z</time>
      </trkpt>
      <trkpt lat="45.50817" lon="6.53973">
        <ele>1187.6</ele>
        <time>2020-07-19T15:26:35Z</time>
      </trkpt>
      <trkpt lat="45.50783" lon="6.53956">
        <ele>1185.8</ele>
        <time>2020-07-19T15:26:39Z</time>
      </trkpt>
      <trkpt lat="45.50754" lon="6.53932">
        <ele>1188.8</ele>
        <time>2020-07-19T15:26:43Z</time>
      </trkpt>
      <trkpt lat="45.5073" lon="6.53909">
        <ele>1190.2</ele>
        <time>2020-07-19T15:26:47Z</time>
      </trkpt>
      <trkpt lat="45.5072" lon="6.53929">
        <ele>1187.8</ele>
        <time>2020-07-19T15:26:51Z</time>
      </trkpt>
      <trkpt lat="45.5074" lon="6.53945">
        <ele>1186.4</ele>
        <time>2020-07-19T15:26:55Z</time>
      </trkpt>
      <trkpt lat="45.50764" lon="6.53966">
        <ele>1182.8</ele>
        <time>2020-07-19T15:26:59Z</time>
      </trkpt>
      <trkpt lat="45.50784" lon="6.53998">
        <ele>1182.6</ele>
        <time>2020-07-19T15:27:03Z</time>
      </trkpt>
      <trkpt lat="45.50787" lon="6.54042">
        <ele>1178.2</ele>
        <time>2020-07-19T15:27:07Z</time>
      </trkpt>
      <trkpt lat="45.50781" lon="6.54087">
        <ele>1179.6</ele>
        <time>2020-07-19T15:27:11Z</time>
      </trkpt>
      <trkpt lat="45.50782" lon="6.54118">
        <ele>1179.4</ele>
        <time>2020-07-19T15:27:15Z</time>
      </trkpt>
      <trkpt lat="45.50776" lon="6.54146">
        <ele>1176.4</ele>
        <time>2020-07-19T15:27:19Z</time>
      </trkpt>
      <trkpt lat="45.50761" lon="6.54173">
        <ele>1174.4</ele>
        <time>2020-07-19T15:27:23Z</time>
      </trkpt>
      <trkpt lat="45.50757" lon="6.5421">
        <ele>1173</ele>
        <time>2020-07-19T15:27:27Z</time>
      </trkpt>
      <trkpt lat="45.50767" lon="6.54241">
        <ele>1171.6</ele>
        <time>2020-07-19T15:27:31Z</time>
      </trkpt>
      <trkpt lat="45.50779" lon="6.54274">
        <ele>1169.2</ele>
        <time>2020-07-19T15:27:35Z</time>
      </trkpt>
      <trkpt lat="45.50793" lon="6.54308">
        <ele>1168.2</ele>
        <time>2020-07-19T15:27:39Z</time>
      </trkpt>
      <trkpt lat="45.50817" lon="6.54324">
        <ele>1165.8</ele>
        <time>2020-07-19T15:27:43Z</time>
      </trkpt>
      <trkpt lat="45.50842" lon="6.54326">
        <ele>1165.2</ele>
        <time>2020-07-19T15:27:47Z</time>
      </trkpt>
      <trkpt lat="45.50843" lon="6.54346">
        <ele>1164.2</ele>
        <time>2020-07-19T15:27:51Z</time>
      </trkpt>
      <trkpt lat="45.50824" lon="6.54347">
        <ele>1161.2</ele>
        <time>2020-07-19T15:27:55Z</time>
      </trkpt>
      <trkpt lat="45.50802" lon="6.54344">
        <ele>1159.6</ele>
        <time>2020-07-19T15:27:59Z</time>
      </trkpt>
      <trkpt lat="45.50779" lon="6.54322">
        <ele>1155.8</ele>
        <time>2020-07-19T15:28:03Z</time>
      </trkpt>
      <trkpt lat="45.50754" lon="6.54288">
        <ele>1152.8</ele>
        <time>2020-07-19T15:28:07Z</time>
      </trkpt>
      <trkpt lat="45.50729" lon="6.54256">
        <ele>1155.4</ele>
        <time>2020-07-19T15:28:11Z</time>
      </trkpt>
      <trkpt lat="45.50704" lon="6.54229">
        <ele>1153.4</ele>
        <time>2020-07-19T15:28:15Z</time>
      </trkpt>
      <trkpt lat="45.50674" lon="6.54204">
        <ele>1149.6</ele>
        <time>2020-07-19T15:28:19Z</time>
      </trkpt>
      <trkpt lat="45.50643" lon="6.54203">
        <ele>1150</ele>
        <time>2020-07-19T15:28:23Z</time>
      </trkpt>
      <trkpt lat="45.50611" lon="6.54221">
        <ele>1149.4</ele>
        <time>2020-07-19T15:28:27Z</time>
      </trkpt>
      <trkpt lat="45.50576" lon="6.54234">
        <ele>1149.8</ele>
        <time>2020-07-19T15:28:31Z</time>
      </trkpt>
      <trkpt lat="45.50566" lon="6.54257">
        <ele>1146</ele>
        <time>2020-07-19T15:28:35Z</time>
      </trkpt>
      <trkpt lat="45.50583" lon="6.54265">
        <ele>1143.2</ele>
        <time>2020-07-19T15:28:39Z</time>
      </trkpt>
      <trkpt lat="45.50601" lon="6.54268">
        <ele>1143.6</ele>
        <time>2020-07-19T15:28:43Z</time>
      </trkpt>
      <trkpt lat="45.50617" lon="6.54276">
        <ele>1140.8</ele>
        <time>2020-07-19T15:28:47Z</time>
      </trkpt>
      <trkpt lat="45.50636" lon="6.54284">
        <ele>1139</ele>
        <time>2020-07-19T15:28:51Z</time>
      </trkpt>
      <trkpt lat="45.50658" lon="6.54298">
        <ele>1138.4</ele>
        <time>2020-07-19T15:28:55Z</time>
      </trkpt>
      <trkpt lat="45.50666" lon="6.54331">
        <ele>1136.6</ele>
        <time>2020-07-19T15:28:59Z</time>
      </trkpt>
      <trkpt lat="45.50665" lon="6.54369">
        <ele>1135.4</ele>
        <time>2020-07-19T15:29:03Z</time>
      </trkpt>
      <trkpt lat="45.50661" lon="6.54402">
        <ele>1136.6</ele>
        <time>2020-07-19T15:29:07Z</time>
      </trkpt>
      <trkpt lat="45.50653" lon="6.54429">
        <ele>1134</ele>
        <time>2020-07-19T15:29:11Z</time>
      </trkpt>
      <trkpt lat="45.50638" lon="6.54452">
        <ele>1133</ele>
        <time>2020-07-19T15:29:15Z</time>
      </trkpt>
      <trkpt lat="45.50619" lon="6.54466">
        <ele>1133.4</ele>
        <time>2020-07-19T15:29:19Z</time>
      </trkpt>
      <trkpt lat="45.50599" lon="6.54458">
        <ele>1134</ele>
        <time>2020-07-19T15:29:23Z</time>
      </trkpt>
      <trkpt lat="45.5058" lon="6.5444">
        <ele>1133.2</ele>
        <time>2020-07-19T15:29:27Z</time>
      </trkpt>
      <trkpt lat="45.50558" lon="6.54432">
        <ele>1132.4</ele>
        <time>2020-07-19T15:29:31Z</time>
      </trkpt>
      <trkpt lat="45.50535" lon="6.5443">
        <ele>1128.6</ele>
        <time>2020-07-19T15:29:35Z</time>
      </trkpt>
      <trkpt lat="45.5051" lon="6.54415">
        <ele>1124.2</ele>
        <time>2020-07-19T15:29:39Z</time>
      </trkpt>
      <trkpt lat="45.50503" lon="6.54369">
        <ele>1120.8</ele>
        <time>2020-07-19T15:29:43Z</time>
      </trkpt>
      <trkpt lat="45.50476" lon="6.54331">
        <ele>1119.4</ele>
        <time>2020-07-19T15:29:47Z</time>
      </trkpt>
      <trkpt lat="45.50439" lon="6.54296">
        <ele>1114.4</ele>
        <time>2020-07-19T15:29:51Z</time>
      </trkpt>
      <trkpt lat="45.50403" lon="6.54255">
        <ele>1108.6</ele>
        <time>2020-07-19T15:29:55Z</time>
      </trkpt>
      <trkpt lat="45.50361" lon="6.54227">
        <ele>1105.6</ele>
        <time>2020-07-19T15:29:59Z</time>
      </trkpt>
      <trkpt lat="45.50319" lon="6.54191">
        <ele>1097.4</ele>
        <time>2020-07-19T15:30:03Z</time>
      </trkpt>
      <trkpt lat="45.50272" lon="6.54154">
        <ele>1090.4</ele>
        <time>2020-07-19T15:30:07Z</time>
      </trkpt>
      <trkpt lat="45.50224" lon="6.54112">
        <ele>1089.6</ele>
        <time>2020-07-19T15:30:11Z</time>
      </trkpt>
      <trkpt lat="45.50186" lon="6.54081">
        <ele>1086.6</ele>
        <time>2020-07-19T15:30:15Z</time>
      </trkpt>
      <trkpt lat="45.50152" lon="6.54049">
        <ele>1082.8</ele>
        <time>2020-07-19T15:30:19Z</time>
      </trkpt>
      <trkpt lat="45.50113" lon="6.54017">
        <ele>1079</ele>
        <time>2020-07-19T15:30:23Z</time>
      </trkpt>
      <trkpt lat="45.50078" lon="6.53973">
        <ele>1075.2</ele>
        <time>2020-07-19T15:30:27Z</time>
      </trkpt>
      <trkpt lat="45.50049" lon="6.53922">
        <ele>1073.8</ele>
        <time>2020-07-19T15:30:31Z</time>
      </trkpt>
      <trkpt lat="45.50021" lon="6.53888">
        <ele>1069.2</ele>
        <time>2020-07-19T15:30:35Z</time>
      </trkpt>
      <trkpt lat="45.50002" lon="6.53847">
        <ele>1065.6</ele>
        <time>2020-07-19T15:30:39Z</time>
      </trkpt>
      <trkpt lat="45.49991" lon="6.53792">
        <ele>1060.4</ele>
        <time>2020-07-19T15:30:43Z</time>
      </trkpt>
      <trkpt lat="45.49985" lon="6.53728">
        <ele>1056.2</ele>
        <time>2020-07-19T15:30:47Z</time>
      </trkpt>
      <trkpt lat="45.49973" lon="6.53663">
        <ele>1052.2</ele>
        <time>2020-07-19T15:30:51Z</time>
      </trkpt>
      <trkpt lat="45.49946" lon="6.53606">
        <ele>1051</ele>
        <time>2020-07-19T15:30:55Z</time>
      </trkpt>
      <trkpt lat="45.4993" lon="6.53556">
        <ele>1047.2</ele>
        <time>2020-07-19T15:30:59Z</time>
      </trkpt>
      <trkpt lat="45.49935" lon="6.53508">
        <ele>1048.2</ele>
        <time>2020-07-19T15:31:03Z</time>
      </trkpt>
      <trkpt lat="45.49923" lon="6.53503">
        <ele>1046</ele>
        <time>2020-07-19T15:31:07Z</time>
      </trkpt>
      <trkpt lat="45.49913" lon="6.53537">
        <ele>1042.6</ele>
        <time>2020-07-19T15:31:11Z</time>
      </trkpt>
      <trkpt lat="45.49908" lon="6.53582">
        <ele>1038</ele>
        <time>2020-07-19T15:31:15Z</time>
      </trkpt>
      <trkpt lat="45.49918" lon="6.53629">
        <ele>1035</ele>
        <time>2020-07-19T15:31:19Z</time>
      </trkpt>
      <trkpt lat="45.49928" lon="6.53672">
        <ele>1033.4</ele>
        <time>2020-07-19T15:31:23Z</time>
      </trkpt>
      <trkpt lat="45.4992" lon="6.53724">
        <ele>1028.8</ele>
        <time>2020-07-19T15:31:27Z</time>
      </trkpt>
      <trkpt lat="45.49915" lon="6.53774">
        <ele>1024.6</ele>
        <time>2020-07-19T15:31:31Z</time>
      </trkpt>
      <trkpt lat="45.49926" lon="6.53828">
        <ele>1022</ele>
        <time>2020-07-19T15:31:35Z</time>
      </trkpt>
      <trkpt lat="45.49919" lon="6.53887">
        <ele>1017.2</ele>
        <time>2020-07-19T15:31:39Z</time>
      </trkpt>
      <trkpt lat="45.49918" lon="6.53944">
        <ele>1011.8</ele>
        <time>2020-07-19T15:31:43Z</time>
      </trkpt>
      <trkpt lat="45.49922" lon="6.54006">
        <ele>1008.4</ele>
        <time>2020-07-19T15:31:47Z</time>
      </trkpt>
      <trkpt lat="45.49938" lon="6.54065">
        <ele>1006.4</ele>
        <time>2020-07-19T15:31:51Z</time>
      </trkpt>
      <trkpt lat="45.49953" lon="6.54119">
        <ele>1000</ele>
        <time>2020-07-19T15:31:55Z</time>
      </trkpt>
      <trkpt lat="45.49985" lon="6.5416">
        <ele>997.6</ele>
        <time>2020-07-19T15:31:59Z</time>
      </trkpt>
      <trkpt lat="45.50024" lon="6.54196">
        <ele>994.8</ele>
        <time>2020-07-19T15:32:03Z</time>
      </trkpt>
      <trkpt lat="45.5006" lon="6.54227">
        <ele>994.6</ele>
        <time>2020-07-19T15:32:07Z</time>
      </trkpt>
      <trkpt lat="45.50078" lon="6.54266">
        <ele>989</ele>
        <time>2020-07-19T15:32:11Z</time>
      </trkpt>
      <trkpt lat="45.50092" lon="6.54311">
        <ele>988.8</ele>
        <time>2020-07-19T15:32:15Z</time>
      </trkpt>
      <trkpt lat="45.50098" lon="6.54333">
        <ele>990.6</ele>
        <time>2020-07-19T15:32:19Z</time>
      </trkpt>
      <trkpt lat="45.50101" lon="6.54343">
        <ele>988.4</ele>
        <time>2020-07-19T15:32:23Z</time>
      </trkpt>
      <trkpt lat="45.50108" lon="6.54362">
        <ele>985.2</ele>
        <time>2020-07-19T15:32:27Z</time>
      </trkpt>
      <trkpt lat="45.50125" lon="6.54387">
        <ele>983.8</ele>
        <time>2020-07-19T15:32:31Z</time>
      </trkpt>
      <trkpt lat="45.50142" lon="6.54417">
        <ele>982.8</ele>
        <time>2020-07-19T15:32:35Z</time>
      </trkpt>
      <trkpt lat="45.5013" lon="6.54416">
        <ele>981.6</ele>
        <time>2020-07-19T15:32:39Z</time>
      </trkpt>
      <trkpt lat="45.50112" lon="6.5439">
        <ele>977</ele>
        <time>2020-07-19T15:32:43Z</time>
      </trkpt>
      <trkpt lat="45.50084" lon="6.54362">
        <ele>974</ele>
        <time>2020-07-19T15:32:47Z</time>
      </trkpt>
      <trkpt lat="45.50056" lon="6.54324">
        <ele>968.4</ele>
        <time>2020-07-19T15:32:51Z</time>
      </trkpt>
      <trkpt lat="45.50018" lon="6.54291">
        <ele>964.8</ele>
        <time>2020-07-19T15:32:55Z</time>
      </trkpt>
      <trkpt lat="45.49975" lon="6.54266">
        <ele>963.6</ele>
        <time>2020-07-19T15:32:59Z</time>
      </trkpt>
      <trkpt lat="45.49941" lon="6.54235">
        <ele>958.4</ele>
        <time>2020-07-19T15:33:03Z</time>
      </trkpt>
      <trkpt lat="45.49905" lon="6.54198">
        <ele>954.6</ele>
        <time>2020-07-19T15:33:07Z</time>
      </trkpt>
      <trkpt lat="45.49863" lon="6.5417">
        <ele>951.2</ele>
        <time>2020-07-19T15:33:11Z</time>
      </trkpt>
      <trkpt lat="45.49822" lon="6.54145">
        <ele>947</ele>
        <time>2020-07-19T15:33:15Z</time>
      </trkpt>
      <trkpt lat="45.49788" lon="6.5412">
        <ele>950</ele>
        <time>2020-07-19T15:33:19Z</time>
      </trkpt>
      <trkpt lat="45.49773" lon="6.54119">
        <ele>948.8</ele>
        <time>2020-07-19T15:33:23Z</time>
      </trkpt>
      <trkpt lat="45.49782" lon="6.54138">
        <ele>947.6</ele>
        <time>2020-07-19T15:33:27Z</time>
      </trkpt>
      <trkpt lat="45.49802" lon="6.54156">
        <ele>943.6</ele>
        <time>2020-07-19T15:33:31Z</time>
      </trkpt>
      <trkpt lat="45.49827" lon="6.54183">
        <ele>939.4</ele>
        <time>2020-07-19T15:33:35Z</time>
      </trkpt>
      <trkpt lat="45.49846" lon="6.54226">
        <ele>931.8</ele>
        <time>2020-07-19T15:33:39Z</time>
      </trkpt>
      <trkpt lat="45.49877" lon="6.54265">
        <ele>931</ele>
        <time>2020-07-19T15:33:43Z</time>
      </trkpt>
      <trkpt lat="45.49899" lon="6.54312">
        <ele>928</ele>
        <time>2020-07-19T15:33:47Z</time>
      </trkpt>
      <trkpt lat="45.49908" lon="6.54362">
        <ele>930</ele>
        <time>2020-07-19T15:33:51Z</time>
      </trkpt>
      <trkpt lat="45.49895" lon="6.54365">
        <ele>929.4</ele>
        <time>2020-07-19T15:33:55Z</time>
      </trkpt>
      <trkpt lat="45.49885" lon="6.54334">
        <ele>925</ele>
        <time>2020-07-19T15:33:59Z</time>
      </trkpt>
      <trkpt lat="45.49861" lon="6.54298">
        <ele>920.6</ele>
        <time>2020-07-19T15:34:03Z</time>
      </trkpt>
      <trkpt lat="45.49828" lon="6.54259">
        <ele>916.4</ele>
        <time>2020-07-19T15:34:07Z</time>
      </trkpt>
      <trkpt lat="45.49785" lon="6.54233">
        <ele>910.8</ele>
        <time>2020-07-19T15:34:11Z</time>
      </trkpt>
      <trkpt lat="45.49738" lon="6.54206">
        <ele>905.6</ele>
        <time>2020-07-19T15:34:15Z</time>
      </trkpt>
      <trkpt lat="45.49693" lon="6.54164">
        <ele>900.2</ele>
        <time>2020-07-19T15:34:19Z</time>
      </trkpt>
      <trkpt lat="45.49652" lon="6.54113">
        <ele>895</ele>
        <time>2020-07-19T15:34:23Z</time>
      </trkpt>
      <trkpt lat="45.49615" lon="6.54055">
        <ele>891.4</ele>
        <time>2020-07-19T15:34:27Z</time>
      </trkpt>
      <trkpt lat="45.4958" lon="6.54008">
        <ele>889.2</ele>
        <time>2020-07-19T15:34:31Z</time>
      </trkpt>
      <trkpt lat="45.49542" lon="6.53972">
        <ele>887.6</ele>
        <time>2020-07-19T15:34:35Z</time>
      </trkpt>
      <trkpt lat="45.49509" lon="6.53925">
        <ele>881.6</ele>
        <time>2020-07-19T15:34:39Z</time>
      </trkpt>
      <trkpt lat="45.49472" lon="6.53879">
        <ele>877.6</ele>
        <time>2020-07-19T15:34:43Z</time>
      </trkpt>
      <trkpt lat="45.4944" lon="6.53827">
        <ele>870.4</ele>
        <time>2020-07-19T15:34:47Z</time>
      </trkpt>
      <trkpt lat="45.49397" lon="6.53796">
        <ele>871.4</ele>
        <time>2020-07-19T15:34:51Z</time>
      </trkpt>
      <trkpt lat="45.49366" lon="6.53759">
        <ele>872</ele>
        <time>2020-07-19T15:34:55Z</time>
      </trkpt>
      <trkpt lat="45.4935" lon="6.53763">
        <ele>870.8</ele>
        <time>2020-07-19T15:34:59Z</time>
      </trkpt>
      <trkpt lat="45.49366" lon="6.5379">
        <ele>866.8</ele>
        <time>2020-07-19T15:35:03Z</time>
      </trkpt>
      <trkpt lat="45.49385" lon="6.53826">
        <ele>862.8</ele>
        <time>2020-07-19T15:35:07Z</time>
      </trkpt>
      <trkpt lat="45.49407" lon="6.53872">
        <ele>857.2</ele>
        <time>2020-07-19T15:35:11Z</time>
      </trkpt>
      <trkpt lat="45.49409" lon="6.53935">
        <ele>854.8</ele>
        <time>2020-07-19T15:35:15Z</time>
      </trkpt>
      <trkpt lat="45.49406" lon="6.53989">
        <ele>854.8</ele>
        <time>2020-07-19T15:35:19Z</time>
      </trkpt>
      <trkpt lat="45.49389" lon="6.54003">
        <ele>852.6</ele>
        <time>2020-07-19T15:35:23Z</time>
      </trkpt>
      <trkpt lat="45.49371" lon="6.53985">
        <ele>846.8</ele>
        <time>2020-07-19T15:35:27Z</time>
      </trkpt>
      <trkpt lat="45.49343" lon="6.53967">
        <ele>843.4</ele>
        <time>2020-07-19T15:35:31Z</time>
      </trkpt>
      <trkpt lat="45.49308" lon="6.5397">
        <ele>840.2</ele>
        <time>2020-07-19T15:35:35Z</time>
      </trkpt>
      <trkpt lat="45.4927" lon="6.53966">
        <ele>834.2</ele>
        <time>2020-07-19T15:35:39Z</time>
      </trkpt>
      <trkpt lat="45.4923" lon="6.5398">
        <ele>834</ele>
        <time>2020-07-19T15:35:43Z</time>
      </trkpt>
      <trkpt lat="45.49191" lon="6.54005">
        <ele>829.8</ele>
        <time>2020-07-19T15:35:47Z</time>
      </trkpt>
      <trkpt lat="45.49152" lon="6.54031">
        <ele>825</ele>
        <time>2020-07-19T15:35:51Z</time>
      </trkpt>
      <trkpt lat="45.4911" lon="6.54051">
        <ele>824.4</ele>
        <time>2020-07-19T15:35:55Z</time>
      </trkpt>
      <trkpt lat="45.49082" lon="6.54087">
        <ele>821</ele>
        <time>2020-07-19T15:35:59Z</time>
      </trkpt>
      <trkpt lat="45.49052" lon="6.54114">
        <ele>818</ele>
        <time>2020-07-19T15:36:03Z</time>
      </trkpt>
      <trkpt lat="45.49007" lon="6.54118">
        <ele>811.8</ele>
        <time>2020-07-19T15:36:07Z</time>
      </trkpt>
      <trkpt lat="45.48953" lon="6.54122">
        <ele>809.8</ele>
        <time>2020-07-19T15:36:11Z</time>
      </trkpt>
      <trkpt lat="45.4891" lon="6.54107">
        <ele>809.2</ele>
        <time>2020-07-19T15:36:15Z</time>
      </trkpt>
      <trkpt lat="45.4889" lon="6.54086">
        <ele>810.2</ele>
        <time>2020-07-19T15:36:19Z</time>
      </trkpt>
      <trkpt lat="45.4891" lon="6.5409">
        <ele>807</ele>
        <time>2020-07-19T15:36:23Z</time>
      </trkpt>
      <trkpt lat="45.48937" lon="6.54084">
        <ele>805</ele>
        <time>2020-07-19T15:36:27Z</time>
      </trkpt>
      <trkpt lat="45.48971" lon="6.54075">
        <ele>799.8</ele>
        <time>2020-07-19T15:36:31Z</time>
      </trkpt>
      <trkpt lat="45.49006" lon="6.54057">
        <ele>798.8</ele>
        <time>2020-07-19T15:36:35Z</time>
      </trkpt>
      <trkpt lat="45.49035" lon="6.54026">
        <ele>796.4</ele>
        <time>2020-07-19T15:36:39Z</time>
      </trkpt>
      <trkpt lat="45.49058" lon="6.53983">
        <ele>791.4</ele>
        <time>2020-07-19T15:36:43Z</time>
      </trkpt>
      <trkpt lat="45.49084" lon="6.53933">
        <ele>788.8</ele>
        <time>2020-07-19T15:36:47Z</time>
      </trkpt>
      <trkpt lat="45.49107" lon="6.53885">
        <ele>786.4</ele>
        <time>2020-07-19T15:36:51Z</time>
      </trkpt>
      <trkpt lat="45.49137" lon="6.53848">
        <ele>782.4</ele>
        <time>2020-07-19T15:36:55Z</time>
      </trkpt>
      <trkpt lat="45.49156" lon="6.53803">
        <ele>778</ele>
        <time>2020-07-19T15:36:59Z</time>
      </trkpt>
      <trkpt lat="45.49147" lon="6.53749">
        <ele>772.2</ele>
        <time>2020-07-19T15:37:03Z</time>
      </trkpt>
      <trkpt lat="45.49134" lon="6.53692">
        <ele>771</ele>
        <time>2020-07-19T15:37:07Z</time>
      </trkpt>
      <trkpt lat="45.49129" lon="6.53627">
        <ele>768.8</ele>
        <time>2020-07-19T15:37:11Z</time>
      </trkpt>
      <trkpt lat="45.49134" lon="6.53562">
        <ele>768</ele>
        <time>2020-07-19T15:37:15Z</time>
      </trkpt>
      <trkpt lat="45.49155" lon="6.53495">
        <ele>762.8</ele>
        <time>2020-07-19T15:37:19Z</time>
      </trkpt>
      <trkpt lat="45.49163" lon="6.53438">
        <ele>763.6</ele>
        <time>2020-07-19T15:37:23Z</time>
      </trkpt>
      <trkpt lat="45.49141" lon="6.53416">
        <ele>758.2</ele>
        <time>2020-07-19T15:37:27Z</time>
      </trkpt>
      <trkpt lat="45.49115" lon="6.53429">
        <ele>755.4</ele>
        <time>2020-07-19T15:37:31Z</time>
      </trkpt>
      <trkpt lat="45.49083" lon="6.53427">
        <ele>752.6</ele>
        <time>2020-07-19T15:37:35Z</time>
      </trkpt>
      <trkpt lat="45.49049" lon="6.53422">
        <ele>748.6</ele>
        <time>2020-07-19T15:37:39Z</time>
      </trkpt>
      <trkpt lat="45.49014" lon="6.53398">
        <ele>745.4</ele>
        <time>2020-07-19T15:37:43Z</time>
      </trkpt>
      <trkpt lat="45.4899" lon="6.53357">
        <ele>745.2</ele>
        <time>2020-07-19T15:37:47Z</time>
      </trkpt>
      <trkpt lat="45.48975" lon="6.53346">
        <ele>745.2</ele>
        <time>2020-07-19T15:37:51Z</time>
      </trkpt>
      <trkpt lat="45.48974" lon="6.53375">
        <ele>742.4</ele>
        <time>2020-07-19T15:37:55Z</time>
      </trkpt>
      <trkpt lat="45.48993" lon="6.53406">
        <ele>737.2</ele>
        <time>2020-07-19T15:37:59Z</time>
      </trkpt>
      <trkpt lat="45.49013" lon="6.53443">
        <ele>734.2</ele>
        <time>2020-07-19T15:38:03Z</time>
      </trkpt>
      <trkpt lat="45.49037" lon="6.53484">
        <ele>731</ele>
        <time>2020-07-19T15:38:07Z</time>
      </trkpt>
      <trkpt lat="45.49054" lon="6.53536">
        <ele>728.4</ele>
        <time>2020-07-19T15:38:11Z</time>
      </trkpt>
      <trkpt lat="45.49049" lon="6.53593">
        <ele>718.8</ele>
        <time>2020-07-19T15:38:15Z</time>
      </trkpt>
      <trkpt lat="45.49031" lon="6.53649">
        <ele>717.2</ele>
        <time>2020-07-19T15:38:19Z</time>
      </trkpt>
      <trkpt lat="45.49017" lon="6.53704">
        <ele>716.8</ele>
        <time>2020-07-19T15:38:23Z</time>
      </trkpt>
      <trkpt lat="45.48987" lon="6.53733">
        <ele>715.4</ele>
        <time>2020-07-19T15:38:27Z</time>
      </trkpt>
      <trkpt lat="45.48949" lon="6.53744">
        <ele>712.8</ele>
        <time>2020-07-19T15:38:31Z</time>
      </trkpt>
      <trkpt lat="45.48918" lon="6.53777">
        <ele>705</ele>
        <time>2020-07-19T15:38:35Z</time>
      </trkpt>
      <trkpt lat="45.48886" lon="6.53814">
        <ele>701.4</ele>
        <time>2020-07-19T15:38:39Z</time>
      </trkpt>
      <trkpt lat="45.4885" lon="6.53842">
        <ele>698.8</ele>
        <time>2020-07-19T15:38:43Z</time>
      </trkpt>
      <trkpt lat="45.48812" lon="6.53868">
        <ele>695.4</ele>
        <time>2020-07-19T15:38:47Z</time>
      </trkpt>
      <trkpt lat="45.4877" lon="6.53882">
        <ele>697.6</ele>
        <time>2020-07-19T15:38:51Z</time>
      </trkpt>
      <trkpt lat="45.48741" lon="6.5388">
        <ele>696.8</ele>
        <time>2020-07-19T15:38:55Z</time>
      </trkpt>
      <trkpt lat="45.48756" lon="6.53862">
        <ele>695.6</ele>
        <time>2020-07-19T15:38:59Z</time>
      </trkpt>
      <trkpt lat="45.48787" lon="6.53858">
        <ele>692.8</ele>
        <time>2020-07-19T15:39:03Z</time>
      </trkpt>
      <trkpt lat="45.48817" lon="6.53829">
        <ele>687.6</ele>
        <time>2020-07-19T15:39:07Z</time>
      </trkpt>
      <trkpt lat="45.48848" lon="6.53788">
        <ele>686.4</ele>
        <time>2020-07-19T15:39:11Z</time>
      </trkpt>
      <trkpt lat="45.48865" lon="6.53732">
        <ele>685.6</ele>
        <time>2020-07-19T15:39:15Z</time>
      </trkpt>
      <trkpt lat="45.48888" lon="6.53703">
        <ele>683</ele>
        <time>2020-07-19T15:39:19Z</time>
      </trkpt>
      <trkpt lat="45.48891" lon="6.53664">
        <ele>678</ele>
        <time>2020-07-19T15:39:23Z</time>
      </trkpt>
      <trkpt lat="45.48892" lon="6.53612">
        <ele>672.8</ele>
        <time>2020-07-19T15:39:27Z</time>
      </trkpt>
      <trkpt lat="45.48899" lon="6.53562">
        <ele>674</ele>
        <time>2020-07-19T15:39:31Z</time>
      </trkpt>
      <trkpt lat="45.48879" lon="6.5352">
        <ele>667.6</ele>
        <time>2020-07-19T15:39:35Z</time>
      </trkpt>
      <trkpt lat="45.48854" lon="6.53483">
        <ele>664.8</ele>
        <time>2020-07-19T15:39:39Z</time>
      </trkpt>
      <trkpt lat="45.48843" lon="6.53433">
        <ele>660.2</ele>
        <time>2020-07-19T15:39:43Z</time>
      </trkpt>
      <trkpt lat="45.48828" lon="6.53384">
        <ele>658</ele>
        <time>2020-07-19T15:39:47Z</time>
      </trkpt>
      <trkpt lat="45.48815" lon="6.53329">
        <ele>653.6</ele>
        <time>2020-07-19T15:39:51Z</time>
      </trkpt>
      <trkpt lat="45.48808" lon="6.53268">
        <ele>651.6</ele>
        <time>2020-07-19T15:39:55Z</time>
      </trkpt>
      <trkpt lat="45.48796" lon="6.53208">
        <ele>651.4</ele>
        <time>2020-07-19T15:39:59Z</time>
      </trkpt>
      <trkpt lat="45.48784" lon="6.5317">
        <ele>652</ele>
        <time>2020-07-19T15:40:03Z</time>
      </trkpt>
      <trkpt lat="45.48776" lon="6.5319">
        <ele>647.8</ele>
        <time>2020-07-19T15:40:07Z</time>
      </trkpt>
      <trkpt lat="45.48787" lon="6.53229">
        <ele>644.4</ele>
        <time>2020-07-19T15:40:11Z</time>
      </trkpt>
      <trkpt lat="45.48788" lon="6.53277">
        <ele>641</ele>
        <time>2020-07-19T15:40:15Z</time>
      </trkpt>
      <trkpt lat="45.48773" lon="6.53326">
        <ele>638</ele>
        <time>2020-07-19T15:40:19Z</time>
      </trkpt>
      <trkpt lat="45.48774" lon="6.53377">
        <ele>635</ele>
        <time>2020-07-19T15:40:23Z</time>
      </trkpt>
      <trkpt lat="45.48768" lon="6.53428">
        <ele>631.6</ele>
        <time>2020-07-19T15:40:27Z</time>
      </trkpt>
      <trkpt lat="45.48772" lon="6.53486">
        <ele>629</ele>
        <time>2020-07-19T15:40:31Z</time>
      </trkpt>
      <trkpt lat="45.48784" lon="6.53533">
        <ele>627.2</ele>
        <time>2020-07-19T15:40:35Z</time>
      </trkpt>
      <trkpt lat="45.488" lon="6.53562">
        <ele>626.6</ele>
        <time>2020-07-19T15:40:39Z</time>
      </trkpt>
      <trkpt lat="45.48793" lon="6.53598">
        <ele>622.2</ele>
        <time>2020-07-19T15:40:43Z</time>
      </trkpt>
      <trkpt lat="45.48775" lon="6.53637">
        <ele>619.6</ele>
        <time>2020-07-19T15:40:47Z</time>
      </trkpt>
      <trkpt lat="45.48744" lon="6.53661">
        <ele>613.8</ele>
        <time>2020-07-19T15:40:51Z</time>
      </trkpt>
      <trkpt lat="45.48707" lon="6.53669">
        <ele>610.2</ele>
        <time>2020-07-19T15:40:55Z</time>
      </trkpt>
      <trkpt lat="45.48671" lon="6.53657">
        <ele>607.4</ele>
        <time>2020-07-19T15:40:59Z</time>
      </trkpt>
      <trkpt lat="45.48633" lon="6.53646">
        <ele>604.8</ele>
        <time>2020-07-19T15:41:03Z</time>
      </trkpt>
      <trkpt lat="45.486" lon="6.53662">
        <ele>605.8</ele>
        <time>2020-07-19T15:41:07Z</time>
      </trkpt>
      <trkpt lat="45.48583" lon="6.5367">
        <ele>606.2</ele>
        <time>2020-07-19T15:41:26Z</time>
      </trkpt>
      <trkpt lat="45.48569" lon="6.53673">
        <ele>604.2</ele>
        <time>2020-07-19T15:41:30Z</time>
      </trkpt>
      <trkpt lat="45.4855" lon="6.53658">
        <ele>601</ele>
        <time>2020-07-19T15:41:34Z</time>
      </trkpt>
      <trkpt lat="45.48531" lon="6.53637">
        <ele>598.2</ele>
        <time>2020-07-19T15:41:38Z</time>
      </trkpt>
      <trkpt lat="45.48516" lon="6.53657">
        <ele>599.4</ele>
        <time>2020-07-19T15:41:42Z</time>
      </trkpt>
      <trkpt lat="45.48507" lon="6.53677">
        <ele>597.4</ele>
        <time>2020-07-19T15:41:46Z</time>
      </trkpt>
      <trkpt lat="45.48503" lon="6.53659">
        <ele>595.8</ele>
        <time>2020-07-19T15:41:50Z</time>
      </trkpt>
      <trkpt lat="45.48516" lon="6.53634">
        <ele>596</ele>
        <time>2020-07-19T15:41:54Z</time>
      </trkpt>
      <trkpt lat="45.48539" lon="6.53621">
        <ele>594.4</ele>
        <time>2020-07-19T15:41:58Z</time>
      </trkpt>
      <trkpt lat="45.48569" lon="6.53622">
        <ele>591.8</ele>
        <time>2020-07-19T15:42:02Z</time>
      </trkpt>
      <trkpt lat="45.48598" lon="6.5361">
        <ele>590.6</ele>
        <time>2020-07-19T15:42:06Z</time>
      </trkpt>
      <trkpt lat="45.48612" lon="6.53571">
        <ele>590.8</ele>
        <time>2020-07-19T15:42:10Z</time>
      </trkpt>
      <trkpt lat="45.48623" lon="6.53535">
        <ele>590.4</ele>
        <time>2020-07-19T15:42:14Z</time>
      </trkpt>
      <trkpt lat="45.48632" lon="6.53503">
        <ele>590.4</ele>
        <time>2020-07-19T15:42:18Z</time>
      </trkpt>
      <trkpt lat="45.48642" lon="6.5347">
        <ele>590.2</ele>
        <time>2020-07-19T15:42:22Z</time>
      </trkpt>
      <trkpt lat="45.48652" lon="6.53436">
        <ele>588.4</ele>
        <time>2020-07-19T15:42:26Z</time>
      </trkpt>
      <trkpt lat="45.48652" lon="6.53402">
        <ele>585.8</ele>
        <time>2020-07-19T15:42:30Z</time>
      </trkpt>
      <trkpt lat="45.48636" lon="6.53379">
        <ele>582.8</ele>
        <time>2020-07-19T15:42:34Z</time>
      </trkpt>
      <trkpt lat="45.48615" lon="6.53362">
        <ele>584.6</ele>
        <time>2020-07-19T15:42:38Z</time>
      </trkpt>
      <trkpt lat="45.486" lon="6.53348">
        <ele>584</ele>
        <time>2020-07-19T15:42:42Z</time>
      </trkpt>
      <trkpt lat="45.48587" lon="6.53337">
        <ele>584</ele>
        <time>2020-07-19T15:42:46Z</time>
      </trkpt>
      <trkpt lat="45.48574" lon="6.53326">
        <ele>583.2</ele>
        <time>2020-07-19T15:42:50Z</time>
      </trkpt>
      <trkpt lat="45.48561" lon="6.53315">
        <ele>582.6</ele>
        <time>2020-07-19T15:42:54Z</time>
      </trkpt>
      <trkpt lat="45.48547" lon="6.53305">
        <ele>583</ele>
        <time>2020-07-19T15:42:58Z</time>
      </trkpt>
      <trkpt lat="45.48534" lon="6.53294">
        <ele>581.8</ele>
        <time>2020-07-19T15:43:02Z</time>
      </trkpt>
      <trkpt lat="45.48516" lon="6.53281">
        <ele>580.6</ele>
        <time>2020-07-19T15:43:06Z</time>
      </trkpt>
      <trkpt lat="45.48501" lon="6.53269">
        <ele>582.2</ele>
        <time>2020-07-19T15:43:10Z</time>
      </trkpt>
      <trkpt lat="45.48489" lon="6.53252">
        <ele>581.4</ele>
        <time>2020-07-19T15:43:14Z</time>
      </trkpt>
      <trkpt lat="45.48489" lon="6.53227">
        <ele>579.4</ele>
        <time>2020-07-19T15:43:18Z</time>
      </trkpt>
      <trkpt lat="45.48494" lon="6.53203">
        <ele>581.2</ele>
        <time>2020-07-19T15:43:22Z</time>
      </trkpt>
      <trkpt lat="45.48502" lon="6.5318">
        <ele>581.4</ele>
        <time>2020-07-19T15:43:26Z</time>
      </trkpt>
      <trkpt lat="45.48513" lon="6.53157">
        <ele>581.4</ele>
        <time>2020-07-19T15:43:30Z</time>
      </trkpt>
      <trkpt lat="45.48522" lon="6.53132">
        <ele>581.8</ele>
        <time>2020-07-19T15:43:34Z</time>
      </trkpt>
      <trkpt lat="45.48516" lon="6.53113">
        <ele>580.8</ele>
        <time>2020-07-19T15:43:38Z</time>
      </trkpt>
      <trkpt lat="45.48502" lon="6.53107">
        <ele>579.8</ele>
        <time>2020-07-19T15:43:42Z</time>
      </trkpt>
      <trkpt lat="45.48487" lon="6.53098">
        <ele>579.8</ele>
        <time>2020-07-19T15:43:46Z</time>
      </trkpt>
      <trkpt lat="45.48473" lon="6.53082">
        <ele>578.8</ele>
        <time>2020-07-19T15:43:50Z</time>
      </trkpt>
      <trkpt lat="45.48459" lon="6.53064">
        <ele>580.8</ele>
        <time>2020-07-19T15:43:54Z</time>
      </trkpt>
      <trkpt lat="45.48449" lon="6.5305">
        <ele>583.2</ele>
        <time>2020-07-19T15:43:58Z</time>
      </trkpt>
      <trkpt lat="45.48439" lon="6.5304">
        <ele>583.2</ele>
        <time>2020-07-19T15:44:02Z</time>
      </trkpt>
      <trkpt lat="45.4843" lon="6.5303">
        <ele>583.2</ele>
        <time>2020-07-19T15:44:06Z</time>
      </trkpt>
      <trkpt lat="45.48423" lon="6.53023">
        <ele>582.6</ele>
        <time>2020-07-19T15:44:10Z</time>
      </trkpt>
      <trkpt lat="45.48417" lon="6.53032">
        <ele>582</ele>
        <time>2020-07-19T15:44:14Z</time>
      </trkpt>
      <trkpt lat="45.48411" lon="6.53041">
        <ele>581</ele>
        <time>2020-07-19T15:44:18Z</time>
      </trkpt>
      <trkpt lat="45.48406" lon="6.53048">
        <ele>582.2</ele>
        <time>2020-07-19T15:44:22Z</time>
      </trkpt>
      <trkpt lat="45.484" lon="6.5305">
        <ele>582.2</ele>
        <time>2020-07-19T15:44:26Z</time>
      </trkpt>
    </trkseg>
  </trk>
</gpx>